# Wetter Temperatur Luftdruck Luftfeuchtigkeit Sichtweite Windgeschwindigkeit Windrichtung Zeit
1 Clouds 13 1019 91 10000 0.51 0 08:40 02.10.2022
2 Clear 13 1018 90 10000 0.89 248 06:38 02.10.2022
3 Clear 14 1018 81 10000 1.79 260 02:54 02.10.2022
4 Clear 14 1017 80 10000 2.57 260 00:45 02.10.2022
5 Clear 15 1016 77 10000 2.68 239 23:42 01.10.2022
6 Clouds 16 1017 77 10000 2.68 237 22:31 01.10.2022
7 Clouds 18 1015 69 10000 1.54 280 19:58 01.10.2022
8 Clouds 21 1014 59 10000 3.09 260 17:46 01.10.2022
9 Clouds 21 1014 59 10000 3.09 300 16:28 01.10.2022
10 Clouds 19 1016 68 10000 3.09 290 14:19 01.10.2022
11 Clouds 17 1017 79 10000 2.57 270 12:35 01.10.2022
12 Clouds 16 1016 81 10000 2.68 224 11:57 01.10.2022
13 Clouds 15 1016 85 10000 2.57 260 11:18 01.10.2022
14 Clouds 14 1016 91 10000 2.68 239 10:30 01.10.2022
15 Clouds 13 1016 95 10000 2.06 250 09:26 01.10.2022
16 Clouds 12 1015 96 10000 2.06 260 08:40 01.10.2022
17 Fog 13 1014 95 10000 1.34 284 03:52 01.10.2022
18 Clouds 13 1014 95 10000 0.51 0 03:24 01.10.2022
19 Clouds 13 1013 94 10000 1.79 308 23:30 30.09.2022
20 Clouds 14 1012 93 10000 0.45 293 22:19 30.09.2022
21 Clouds 14 1011 93 10000 0.45 57 21:22 30.09.2022
22 Clouds 14 1011 94 10000 1.54 60 20:42 30.09.2022
23 Clouds 15 1010 93 10000 2.57 80 19:30 30.09.2022
24 Clouds 15 1009 88 10000 4.12 120 16:58 30.09.2022
25 Clouds 16 1008 88 10000 4.12 120 14:49 30.09.2022
26 Clouds 15 1008 91 10000 3.6 100 13:24 30.09.2022
27 Clouds 14 1007 90 10000 1.54 20 11:56 30.09.2022
28 Rain 13 1006 91 10000 2.57 330 09:45 30.09.2022
29 Rain 13 1004 91 10000 2.24 309 08:19 30.09.2022
30 Rain 14 1002 90 10000 2.57 50 04:21 30.09.2022
31 Clouds 14 1001 91 10000 2.24 71 02:21 30.09.2022
32 Clouds 15 999 89 10000 3.09 10 21:53 29.09.2022
33 Thunderstorm 15 998 86 10000 3.6 50 21:24 29.09.2022
34 Clouds 16 999 80 10000 3.6 120 19:58 29.09.2022
35 Clouds 19 996 69 10000 3.09 100 18:30 29.09.2022
36 Clouds 20 997 70 10000 2.06 0 16:29 29.09.2022
37 Clouds 19 998 76 9000 2.06 40 15:37 29.09.2022
38 Clouds 18 998 80 8000 2.57 350 14:59 29.09.2022
39 Rain 18 996 76 10000 2.06 90 12:39 29.09.2022
40 Clouds 15 997 89 10000 2.06 70 08:45 29.09.2022
41 Clear 13 997 90 10000 1.54 0 04:46 29.09.2022
42 Clear 14 997 88 10000 0.51 0 02:36 29.09.2022
43 Clouds 16 997 80 10000 2.06 60 23:26 28.09.2022
44 Clouds 17 997 77 10000 2.06 50 21:40 28.09.2022
45 Rain 17 997 74 10000 2.57 30 21:22 28.09.2022
46 Clouds 18 997 72 10000 2.57 50 19:56 28.09.2022
47 Clouds 19 997 66 10000 2.06 60 16:46 28.09.2022
48 Clouds 18 998 70 10000 2.57 90 14:19 28.09.2022
49 Clouds 16 999 76 10000 3.6 110 11:45 28.09.2022
50 Clear 14 999 81 10000 4.12 100 09:37 28.09.2022
51 Clear 13 999 85 10000 4.12 100 07:43 28.09.2022
52 Clouds 13 999 80 10000 3.13 75 05:37 28.09.2022
53 Clear 14 1000 60 10000 1.54 360 01:44 28.09.2022
54 Clear 15 1000 63 10000 2.57 250 00:28 28.09.2022
55 Clear 16 999 61 10000 2.24 242 22:40 27.09.2022
56 Clear 18 998 60 10000 2.68 296 21:20 27.09.2022
57 Clear 19 998 57 10000 1.79 252 20:26 27.09.2022
58 Clear 20 998 52 10000 1.54 240 19:37 27.09.2022
59 Clear 23 997 44 10000 2.06 230 17:47 27.09.2022
60 Clear 23 997 47 10000 3.13 266 16:50 27.09.2022
61 Clear 23 997 51 10000 2.57 290 15:18 27.09.2022
62 Clear 22 996 58 10000 2.57 290 13:52 27.09.2022
63 Clouds 20 997 68 10000 1.03 0 12:37 27.09.2022
64 Clouds 17 999 83 10000 1.54 100 10:33 27.09.2022
65 Clouds 14 998 92 10000 1.03 0 07:51 27.09.2022
66 Clouds 14 998 91 10000 1.34 102 04:28 27.09.2022
67 Clouds 15 1001 91 10000 3.6 10 01:37 27.09.2022
68 Rain 16 1002 88 10000 2.57 290 23:45 26.09.2022
69 Thunderstorm 16 1001 86 10000 2.06 190 23:21 26.09.2022
70 Clouds 18 1002 70 10000 0.51 0 21:20 26.09.2022
71 Clouds 19 1002 64 10000 1.03 190 19:44 26.09.2022
72 Clouds 21 1002 57 10000 1.54 250 18:39 26.09.2022
73 Clouds 22 1002 53 10000 1.54 0 17:24 26.09.2022
74 Clear 22 1004 54 10000 3.09 190 14:57 26.09.2022
75 Clear 20 1006 65 10000 1.54 0 12:30 26.09.2022
76 Clear 17 1007 77 10000 0.51 0 10:42 26.09.2022
77 Clear 16 1008 84 10000 0.51 0 10:22 26.09.2022
78 Clear 15 1008 87 10000 1.03 0 09:56 26.09.2022
79 Clear 13 1008 91 10000 1.03 0 09:26 26.09.2022
80 Clear 12 1008 91 10000 0.51 0 08:58 26.09.2022
81 Clear 12 1007 92 10000 0.45 336 05:30 26.09.2022
82 Clear 13 1008 93 10000 1.34 288 01:57 26.09.2022
83 Clear 14 1009 89 10000 1.03 180 23:23 25.09.2022
84 Clear 15 1009 87 10000 1.34 235 21:44 25.09.2022
85 Clouds 16 1009 83 10000 0.51 0 20:57 25.09.2022
86 Clouds 16 1009 83 10000 1.34 139 20:33 25.09.2022
87 Clouds 18 1009 73 10000 2.06 190 18:44 25.09.2022
88 Clouds 19 1009 71 10000 2.06 180 18:24 25.09.2022
89 Clouds 19 1009 71 10000 2.57 160 16:59 25.09.2022
90 Clouds 18 1010 71 10000 1.54 0 15:48 25.09.2022
91 Clouds 18 1011 73 10000 2.06 160 14:31 25.09.2022
92 Clouds 17 1012 80 10000 1.54 0 13:45 25.09.2022
93 Clouds 15 1012 88 10000 1.79 250 10:37 25.09.2022
94 Clouds 14 1011 91 10000 1.54 200 09:21 25.09.2022
95 Clouds 14 1012 95 7000 1.79 294 06:28 25.09.2022
96 Clouds 14 1012 95 6000 1.54 260 04:28 25.09.2022
97 Drizzle 14 1014 96 3000 1.03 170 23:36 24.09.2022
98 Drizzle 14 1014 92 8000 1.34 186 21:19 24.09.2022
99 Clouds 15 1014 85 8741 1.32 22 19:33 24.09.2022
100 Clouds 15 1014 85 10000 2.06 90 18:44 24.09.2022
101 Rain 15 1014 82 8000 2.68 66 16:43 24.09.2022
102 Rain 15 1015 80 7000 3.58 50 15:23 24.09.2022
103 Clouds 15 1015 82 7000 3.6 40 14:27 24.09.2022
104 Rain 14 1016 86 8000 3.09 30 12:59 24.09.2022
105 Rain 14 1016 86 10000 3.09 20 12:22 24.09.2022
106 Rain 15 1016 69 10000 2.57 0 09:58 24.09.2022
107 Clouds 16 1016 65 10000 2.06 160 08:51 24.09.2022
108 Clouds 16 1014 64 10000 3.09 90 07:40 24.09.2022
109 Clouds 16 1016 60 10000 2.06 60 04:50 24.09.2022
110 Clouds 16 1017 59 10000 2.57 60 03:44 24.09.2022
111 Clouds 18 1017 52 10000 1.54 130 22:48 23.09.2022
112 Clouds 18 1016 51 10000 2.06 100 21:32 23.09.2022
113 Clouds 18 1016 51 10000 2.06 0 20:57 23.09.2022
114 Clouds 18 1016 50 10000 1.03 190 20:23 23.09.2022
115 Clouds 21 1016 42 10000 2.06 180 18:51 23.09.2022
116 Clouds 21 1019 43 10000 1.54 0 15:23 23.09.2022
117 Clouds 19 1020 53 10000 1.54 150 11:28 23.09.2022
118 Clouds 15 1020 65 10000 1.54 120 09:35 23.09.2022
119 Clear 14 1020 65 10000 1.54 70 05:59 23.09.2022
120 Clouds 16 1020 54 10000 2.06 80 00:36 23.09.2022
121 Clouds 16 1019 54 10000 2.06 120 23:22 22.09.2022
122 Clear 16 1019 50 10000 2.57 110 22:27 22.09.2022
123 Clear 17 1019 49 10000 2.57 130 21:18 22.09.2022
124 Clear 19 1018 44 10000 3.6 130 19:58 22.09.2022
125 Clear 21 1019 39 10000 3.09 140 17:28 22.09.2022
126 Clear 20 1021 42 10000 2.57 0 12:52 22.09.2022
127 Clouds 17 1022 54 10000 1.03 0 10:33 22.09.2022
128 Clouds 14 1021 61 10000 2.57 40 08:56 22.09.2022
129 Clouds 13 1020 61 9000 0.45 0 06:57 22.09.2022
130 Clear 14 1021 58 10000 2.06 60 03:46 22.09.2022
131 Clear 16 1021 55 10000 2.57 110 23:31 21.09.2022
132 Clear 16 1020 58 10000 2.57 120 21:50 21.09.2022
133 Clouds 16 1022 63 10000 1.97 25 20:18 21.09.2022
134 Clouds 18 1021 55 10000 2.35 63 17:49 21.09.2022
135 Clouds 20 1020 40 10000 4.12 100 16:51 21.09.2022
136 Clouds 20 1022 45 10000 6.69 120 14:31 21.09.2022
137 Clouds 17 1022 53 10000 5.14 130 12:42 21.09.2022
138 Clouds 17 1022 62 10000 6.69 100 11:29 21.09.2022
139 Clouds 15 1021 70 10000 4.12 120 09:55 21.09.2022
140 Clouds 15 1020 72 10000 4.12 130 09:00 21.09.2022
141 Clouds 15 1019 69 10000 4.12 120 07:18 21.09.2022
142 Clear 16 1017 67 10000 3.13 71 02:47 21.09.2022
143 Clear 16 1017 67 10000 3.09 80 02:28 21.09.2022
144 Clear 16 1018 62 10000 2.06 70 00:34 21.09.2022
145 Clear 16 1018 62 10000 2.06 70 00:34 21.09.2022
146 Clear 17 1016 55 10000 2.68 83 23:18 20.09.2022
147 Clear 19 1014 48 10000 2.57 110 20:52 20.09.2022
148 Clear 22 1014 41 10000 2.06 160 19:32 20.09.2022
149 Clear 23 1015 39 10000 1.54 0 16:28 20.09.2022
150 Clear 23 1017 42 10000 2.06 0 14:46 20.09.2022
151 Clear 22 1016 44 10000 3.6 110 13:22 20.09.2022
152 Clear 17 1017 50 10000 4.47 85 09:34 20.09.2022
153 Clear 14 1017 55 10000 1.34 76 08:26 20.09.2022
154 Clear 15 1014 43 10000 1.37 48 05:24 20.09.2022
155 Clear 15 1015 41 10000 1.34 19 03:59 20.09.2022
156 Clear 19 1013 31 10000 2.57 40 22:55 19.09.2022
157 Clear 20 1012 29 10000 2.06 40 21:46 19.09.2022
158 Clear 21 1012 24 10000 2.24 20 20:51 19.09.2022
159 Clear 22 1011 23 10000 2.57 350 20:30 19.09.2022
160 Clear 26 1010 16 10000 3.13 35 17:44 19.09.2022
161 Clear 26 1012 17 10000 2.57 30 15:34 19.09.2022
162 Clear 25 1012 18 10000 3.6 320 13:32 19.09.2022
163 Clouds 22 1014 23 10000 3.6 310 11:25 19.09.2022
164 Clear 16 1011 60 10000 0.51 0 08:51 19.09.2022
165 Clear 14 1009 65 10000 1.34 19 06:42 19.09.2022
166 Clear 16 1011 63 10000 2.57 300 01:54 19.09.2022
167 Clear 17 1012 60 10000 3.13 232 23:22 18.09.2022
168 Clear 18 1012 42 10000 1.79 214 21:43 18.09.2022
169 Clear 20 1011 31 10000 1.54 310 20:24 18.09.2022
170 Clear 24 1012 23 10000 4.12 260 17:54 18.09.2022
171 Clear 24 1012 23 10000 3.6 250 17:35 18.09.2022
172 Clear 24 1012 21 10000 4.02 225 15:36 18.09.2022
173 Clear 23 1013 22 10000 4.63 270 13:47 18.09.2022
174 Clear 23 1015 23 10000 5.14 280 12:34 18.09.2022
175 Clear 20 1015 28 10000 3.6 290 10:45 18.09.2022
176 Clear 14 1013 43 10000 2.06 250 03:40 18.09.2022
177 Clear 14 1013 41 10000 0.79 5 01:24 18.09.2022
178 Clear 16 1012 34 10000 6.17 350 00:23 18.09.2022
179 Clear 16 1011 50 10000 1.03 0 21:39 17.09.2022
180 Clear 19 1009 45 10000 2.06 160 19:42 17.09.2022
181 Clear 21 1009 37 10000 2.06 160 18:57 17.09.2022
182 Clouds 21 1009 47 10000 4.02 129 15:58 17.09.2022
183 Clouds 20 1008 54 10000 5.14 130 13:56 17.09.2022
184 Clouds 20 1005 44 10000 6.69 170 10:56 17.09.2022
185 Clouds 17 1003 77 10000 3.09 140 08:34 17.09.2022
186 Clouds 18 1001 82 10000 3.6 70 06:24 17.09.2022
187 Clouds 22 1001 54 10000 4.12 260 23:59 16.09.2022
188 Clouds 23 1000 58 10000 3.58 247 22:52 16.09.2022
189 Clouds 26 999 48 10000 1.54 260 20:59 16.09.2022
190 Clouds 27 999 44 10000 2.06 250 19:50 16.09.2022
191 Clouds 30 1001 40 10000 2.57 220 16:30 16.09.2022
192 Clear 29 1002 45 10000 1.54 0 14:53 16.09.2022
193 Clear 28 1002 54 10000 2.06 90 13:42 16.09.2022
194 Clouds 23 1004 75 10000 2.68 116 10:46 16.09.2022
195 Clear 20 1003 83 10000 1.54 70 08:19 16.09.2022
196 Clear 19 1003 83 10000 2.06 120 06:48 16.09.2022
197 Clear 19 1003 85 10000 1.03 170 05:58 16.09.2022
198 Clear 22 1004 79 10000 1.54 250 02:35 16.09.2022
199 Clear 23 1005 68 10000 2.57 250 22:20 15.09.2022
200 Clear 23 1005 68 10000 2.57 250 22:20 15.09.2022
201 Clear 25 1004 56 10000 1.03 280 20:39 15.09.2022
202 Clear 27 1003 42 10000 1.54 210 19:45 15.09.2022
203 Clear 30 1003 41 10000 2.06 210 18:26 15.09.2022
204 Clear 30 1005 43 10000 2.57 250 17:29 15.09.2022
205 Clouds 30 1004 45 10000 3.09 250 15:49 15.09.2022
206 Clouds 28 1005 56 10000 3.13 271 12:51 15.09.2022
207 Clear 26 1006 60 10000 1.03 0 11:48 15.09.2022
208 Clear 22 1007 80 10000 2.06 260 09:46 15.09.2022
209 Clear 19 1006 87 10000 2.06 190 07:45 15.09.2022
210 Clouds 21 1007 77 10000 2.57 190 03:48 15.09.2022
211 Clouds 23 1007 72 10000 1.77 346 23:30 14.09.2022
212 Clouds 23 1008 90 10000 1.98 24 20:47 14.09.2022
213 Clouds 25 1010 68 10000 3.6 120 19:33 14.09.2022
214 Clouds 26 1010 66 10000 1.03 0 18:26 14.09.2022
215 Clouds 26 1009 62 10000 1.54 270 16:37 14.09.2022
216 Rain 26 1010 61 10000 3.09 180 15:27 14.09.2022
217 Clouds 25 1010 66 10000 0.51 0 12:50 14.09.2022
218 Clouds 23 1013 71 10000 2.24 262 10:40 14.09.2022
219 Clouds 22 1011 75 10000 1.03 0 08:38 14.09.2022
220 Clouds 22 1010 73 10000 0.51 0 06:50 14.09.2022
221 Clouds 22 1010 74 10000 0.89 340 06:30 14.09.2022
222 Clouds 22 1010 74 10000 0.89 340 06:30 14.09.2022
223 Clouds 22 1012 68 10000 2.24 302 02:58 14.09.2022
224 Clouds 22 1012 65 10000 2.57 270 01:36 14.09.2022
225 Clear 22 1012 64 10000 4.92 251 00:53 14.09.2022
226 Clouds 23 1012 59 10000 2.68 234 23:55 13.09.2022
227 Clouds 23 1012 59 10000 2.68 234 23:37 13.09.2022
228 Clouds 23 1012 58 10000 2.06 260 23:18 13.09.2022
229 Clouds 23 1012 59 10000 2.68 228 22:29 13.09.2022
230 Clouds 23 1012 60 10000 2.57 0 21:38 13.09.2022
231 Clouds 27 1011 47 10000 1.54 190 18:56 13.09.2022
232 Clouds 29 1010 43 10000 2.57 260 16:39 13.09.2022
233 Clouds 29 1010 42 10000 2.24 235 15:19 13.09.2022
234 Clear 28 1012 48 10000 1.54 0 13:37 13.09.2022
235 Clear 23 1014 65 10000 1.54 120 10:30 13.09.2022
236 Clear 18 1013 78 10000 0.51 0 07:56 13.09.2022
237 Clear 20 1014 71 10000 0.89 15 02:22 13.09.2022
238 Clear 21 1014 61 10000 0.89 69 23:22 12.09.2022
239 Clear 21 1015 65 10000 0.51 230 22:37 12.09.2022
240 Clear 23 1011 52 10000 0.51 0 20:54 12.09.2022
241 Clear 25 1010 43 10000 1.54 220 19:58 12.09.2022
242 Clear 29 1012 38 10000 1.54 270 18:22 12.09.2022
243 Clear 28 1014 42 10000 1.34 182 15:48 12.09.2022
244 Clear 25 1015 54 10000 2.06 170 12:26 12.09.2022
245 Clear 23 1016 60 10000 1.79 68 10:27 12.09.2022
246 Clear 17 1015 76 10000 0.51 0 07:21 12.09.2022
247 Clear 18 1015 71 10000 1.03 0 04:32 12.09.2022
248 Clear 19 1016 66 10000 1.54 80 00:42 12.09.2022
249 Clear 21 1014 62 10000 0.51 0 22:45 11.09.2022
250 Clear 23 1014 54 10000 0.51 0 21:22 11.09.2022
251 Clear 24 1012 45 10000 1.54 180 20:43 11.09.2022
252 Clear 27 1013 40 10000 2.06 180 19:27 11.09.2022
253 Clear 27 1013 38 10000 2.68 177 18:58 11.09.2022
254 Clear 28 1014 37 10000 2.68 140 16:58 11.09.2022
255 Clear 28 1015 39 10000 2.06 340 15:46 11.09.2022
256 Clear 26 1015 50 10000 1.34 257 13:19 11.09.2022
257 Clear 23 1016 61 10000 3.6 130 10:51 11.09.2022
258 Clear 18 1015 79 10000 0.89 42 07:49 11.09.2022
259 Clear 19 1012 72 10000 0.45 22 04:36 11.09.2022
260 Clear 21 1012 64 10000 1.03 0 23:48 10.09.2022
261 Clear 22 1012 59 10000 1.34 346 21:38 10.09.2022
262 Clear 24 1009 48 10000 1.34 233 20:24 10.09.2022
263 Clear 26 1013 47 10000 1.03 0 19:42 10.09.2022
264 Clear 27 1010 42 10000 2.06 210 19:24 10.09.2022
265 Clouds 28 1011 40 10000 2.24 104 17:19 10.09.2022
266 Clouds 27 1013 45 10000 2.06 110 15:35 10.09.2022
267 Clouds 26 1013 49 10000 1.54 170 13:29 10.09.2022
268 Clear 25 1014 52 10000 2.06 0 12:26 10.09.2022
269 Clouds 22 1015 61 10000 2.06 80 10:26 10.09.2022
270 Clouds 19 1014 74 10000 1.54 60 08:37 10.09.2022
271 Clouds 18 1014 82 10000 1.54 360 08:18 10.09.2022
272 Clear 18 1013 77 10000 1.54 70 03:42 10.09.2022
273 Clouds 22 1010 66 10000 2.06 80 23:35 09.09.2022
274 Clear 22 1008 62 10000 2.06 100 22:22 09.09.2022
275 Clear 23 1010 58 10000 2.06 120 20:49 09.09.2022
276 Clear 26 1010 44 10000 2.57 100 19:26 09.09.2022
277 Clear 27 1010 47 10000 2.06 100 18:55 09.09.2022
278 Clouds 28 1010 49 10000 1.34 94 16:34 09.09.2022
279 Clouds 26 1012 56 10000 2.06 0 14:28 09.09.2022
280 Clouds 25 1012 58 10000 3.6 120 13:18 09.09.2022
281 Clouds 22 1012 75 10000 3.09 80 10:37 09.09.2022
282 Rain 20 1009 89 10000 3.09 130 07:24 09.09.2022
283 Rain 20 1009 89 10000 3.09 130 07:24 09.09.2022
284 Rain 20 1009 89 10000 3.09 130 07:24 09.09.2022
285 Clouds 20 1012 88 10000 1.54 60 03:30 09.09.2022
286 Clear 23 1011 68 10000 2.06 160 22:19 08.09.2022
287 Clear 23 1011 68 10000 1.54 170 21:47 08.09.2022
288 Clear 24 1010 64 10000 1.03 190 20:46 08.09.2022
289 Clear 25 1010 53 10000 1.54 190 20:24 08.09.2022
290 Clouds 28 1009 45 10000 2.57 250 18:34 08.09.2022
291 Clouds 29 1010 47 10000 2.06 220 16:47 08.09.2022
292 Clouds 28 1010 55 10000 1.03 0 14:42 08.09.2022
293 Clouds 25 1010 61 10000 1.54 0 13:27 08.09.2022
294 Clouds 24 1011 65 10000 2.06 70 12:33 08.09.2022
295 Clouds 23 1010 73 10000 4.12 50 10:58 08.09.2022
296 Clouds 21 1011 80 10000 2.06 60 09:20 08.09.2022
297 Clouds 19 1010 88 7242 2.51 104 06:43 08.09.2022
298 Clouds 21 1012 88 10000 3.6 130 02:37 08.09.2022
299 Clouds 22 1012 88 10000 4.63 130 02:19 08.09.2022
300 Clouds 22 1012 83 10000 3.09 120 01:58 08.09.2022
301 Clouds 24 1013 69 10000 2.57 120 22:55 07.09.2022
302 Rain 25 1013 61 10000 2.57 100 21:43 07.09.2022
303 Rain 25 1013 61 10000 2.57 110 21:18 07.09.2022
304 Clouds 25 1012 77 10000 2.13 73 19:54 07.09.2022
305 Clouds 27 1013 59 10000 1.54 90 18:39 07.09.2022
306 Clouds 27 1015 65 10000 2.24 71 14:56 07.09.2022
307 Clouds 24 1017 75 10000 3.09 90 10:50 07.09.2022
308 Clouds 24 1017 74 10000 4.12 70 09:52 07.09.2022
309 Clouds 21 1016 82 10000 1.54 30 07:35 07.09.2022
310 Clouds 22 1015 77 10000 1.03 0 03:34 07.09.2022
311 Clouds 23 1015 70 10000 5.14 90 23:48 06.09.2022
312 Clouds 25 1016 61 10000 1.03 0 21:43 06.09.2022
313 Clouds 27 1015 56 10000 1.03 0 21:21 06.09.2022
314 Clear 30 1015 47 10000 1.79 152 18:49 06.09.2022
315 Clear 30 1014 46 10000 2.06 0 18:23 06.09.2022
316 Clear 31 1015 44 10000 3.09 130 17:22 06.09.2022
317 Clouds 31 1016 48 10000 2.06 0 16:37 06.09.2022
318 Clouds 30 1017 50 10000 1.54 0 15:22 06.09.2022
319 Clear 29 1018 53 10000 2.06 100 13:45 06.09.2022
320 Clear 29 1018 55 10000 1.54 0 13:24 06.09.2022
321 Clear 27 1019 60 10000 1.54 180 11:59 06.09.2022
322 Clear 26 1018 63 10000 2.06 140 10:41 06.09.2022
323 Clouds 23 1019 75 10000 2.24 91 08:50 06.09.2022
324 Clear 21 1019 76 10000 1.34 98 07:45 06.09.2022
325 Clear 22 1019 74 10000 1.54 40 03:31 06.09.2022
326 Clear 23 1021 72 10000 0.51 0 23:27 05.09.2022
327 Clear 24 1019 65 10000 0.51 0 22:21 05.09.2022
328 Clear 26 1018 56 10000 0.51 0 20:35 05.09.2022
329 Clouds 29 1018 49 10000 2.06 190 19:20 05.09.2022
330 Clouds 29 1018 48 10000 2.68 213 18:45 05.09.2022
331 Clouds 30 1018 47 10000 2.24 104 18:21 05.09.2022
332 Clouds 30 1020 49 10000 1.79 63 16:37 05.09.2022
333 Clouds 30 1020 51 10000 2.57 180 15:47 05.09.2022
334 Clouds 28 1020 55 10000 1.54 190 13:25 05.09.2022
335 Clouds 27 1023 62 10000 2.06 0 12:27 05.09.2022
336 Clouds 23 1022 74 10000 2.68 108 09:44 05.09.2022
337 Clear 21 1021 80 10000 1.54 100 06:41 05.09.2022
338 Clouds 21 1023 77 10000 1.54 40 01:56 05.09.2022
339 Clear 23 1019 67 10000 2.06 130 22:59 04.09.2022
340 Clear 23 1019 65 10000 1.03 180 22:27 04.09.2022
341 Clear 26 1018 55 10000 1.54 200 20:44 04.09.2022
342 Clouds 28 1018 50 10000 2.57 170 19:29 04.09.2022
343 Clouds 29 1019 48 10000 2.24 245 17:50 04.09.2022
344 Clouds 29 1019 50 10000 2.06 140 16:28 04.09.2022
345 Clouds 27 1019 54 10000 2.06 0 14:29 04.09.2022
346 Clouds 27 1019 57 10000 1.54 0 13:28 04.09.2022
347 Clouds 27 1019 57 10000 1.54 0 13:28 04.09.2022
348 Clear 25 1019 62 10000 1.54 0 11:52 04.09.2022
349 Clear 22 1019 73 10000 1.03 0 09:56 04.09.2022
350 Clear 19 1017 84 10000 1.03 0 07:27 04.09.2022
351 Clouds 19 1017 82 10000 2.06 150 04:00 04.09.2022
352 Clouds 22 1015 75 10000 1.03 0 23:40 03.09.2022
353 Clouds 22 1015 74 10000 2.06 200 22:21 03.09.2022
354 Clouds 23 1015 67 10000 2.06 170 21:23 03.09.2022
355 Clouds 23 1015 66 10000 2.06 170 21:23 03.09.2022
356 Clouds 25 1013 55 10000 4.63 130 18:59 03.09.2022
357 Clouds 26 1013 50 10000 3.6 80 17:25 03.09.2022
358 Clouds 26 1015 51 10000 3.6 80 16:26 03.09.2022
359 Clouds 25 1015 51 10000 3.58 105 14:44 03.09.2022
360 Clouds 24 1016 55 10000 4.92 91 13:50 03.09.2022
361 Clouds 23 1016 58 10000 4.02 105 11:37 03.09.2022
362 Clouds 21 1015 65 10000 2.57 80 09:51 03.09.2022
363 Clouds 20 1014 71 10000 2.57 70 07:57 03.09.2022
364 Clouds 20 1014 77 10000 4.12 80 04:56 03.09.2022
365 Rain 21 1013 71 10000 3.13 110 03:29 03.09.2022
366 Clouds 21 1011 74 10000 1.79 305 23:49 02.09.2022
367 Clouds 22 1013 70 10000 1.54 110 22:27 02.09.2022
368 Clouds 23 1012 62 10000 0.51 0 20:56 02.09.2022
369 Clouds 24 1013 61 10000 1.03 0 20:22 02.09.2022
370 Clouds 25 1013 55 10000 2.57 170 18:51 02.09.2022
371 Clear 26 1013 53 10000 4.47 231 18:26 02.09.2022
372 Clear 27 1012 51 10000 3.09 190 17:28 02.09.2022
373 Clouds 27 1012 51 10000 3.6 140 16:44 02.09.2022
374 Clouds 25 1014 53 10000 2.06 0 13:50 02.09.2022
375 Clouds 23 1016 62 10000 2.06 150 11:36 02.09.2022
376 Clouds 22 1015 64 10000 3.6 110 09:46 02.09.2022
377 Clouds 21 1015 66 10000 2.68 112 08:49 02.09.2022
378 Clouds 19 1013 71 10000 3.09 70 06:50 02.09.2022
379 Clouds 20 1013 69 10000 3.09 60 06:24 02.09.2022
380 Clouds 21 1015 64 10000 4.12 90 01:41 02.09.2022
381 Clouds 23 1013 60 10000 6.26 90 22:24 01.09.2022
382 Clouds 24 1013 59 10000 4.63 120 21:39 01.09.2022
383 Clouds 24 1012 58 10000 4.12 110 21:20 01.09.2022
384 Clouds 25 1012 56 10000 4.12 120 20:26 01.09.2022
385 Clouds 27 1010 49 10000 4.63 140 18:34 01.09.2022
386 Clouds 27 1011 52 10000 4.63 120 16:55 01.09.2022
387 Clouds 27 1012 56 10000 3.09 130 15:26 01.09.2022
388 Rain 26 1012 64 10000 3.6 150 13:33 01.09.2022
389 Clouds 25 1013 67 10000 4.12 120 12:55 01.09.2022
390 Clouds 25 1013 70 10000 2.24 83 11:51 01.09.2022
391 Clouds 24 1013 71 10000 2.06 150 11:20 01.09.2022
392 Clouds 23 1013 74 10000 2.06 60 09:32 01.09.2022
393 Clouds 20 1012 88 10000 1.54 20 06:41 01.09.2022
394 Clear 22 1012 79 10000 2.24 77 02:39 01.09.2022
395 Clear 22 1010 79 10000 2.57 90 01:30 01.09.2022
396 Clear 22 1010 80 10000 2.57 90 01:30 01.09.2022
397 Clear 22 1010 79 10000 2.57 90 01:30 01.09.2022
398 Clear 22 1010 79 10000 2.57 90 01:30 01.09.2022
399 Clear 22 1010 79 10000 2.57 90 01:30 01.09.2022
400 Clear 22 1010 79 10000 2.57 90 01:30 01.09.2022
401 Clear 22 1010 80 10000 2.57 90 01:30 01.09.2022
402 Clear 22 1010 79 10000 2.57 90 01:30 01.09.2022
403 Clouds 23 1012 88 10000 2.58 88 22:50 31.08.2022
404 Clouds 25 1011 68 10000 2.57 100 20:44 31.08.2022
405 Clouds 27 1011 60 10000 2.68 56 18:46 31.08.2022
406 Clouds 28 1012 60 10000 2.57 160 16:41 31.08.2022
407 Clouds 27 1013 61 10000 1.54 0 15:21 31.08.2022
408 Clouds 25 1014 69 10000 2.57 120 12:58 31.08.2022
409 Clouds 24 1013 73 10000 1.34 185 11:54 31.08.2022
410 Clouds 21 1015 87 8000 3.09 120 09:35 31.08.2022
411 Clouds 20 1014 85 10000 2.57 80 07:31 31.08.2022
412 Clouds 21 1014 81 10000 0.51 0 02:25 31.08.2022
413 Clouds 23 1014 76 10000 1.03 0 22:18 30.08.2022
414 Clouds 24 1014 71 10000 3.09 250 21:27 30.08.2022
415 Clear 28 1014 61 10000 2.24 221 19:26 30.08.2022
416 Clouds 29 1016 59 10000 1.03 0 16:47 30.08.2022
417 Rain 26 1019 67 10000 0.51 0 13:37 30.08.2022
418 Clouds 26 1017 66 10000 3.6 120 11:23 30.08.2022
419 Clouds 26 1017 67 10000 3.13 50 10:57 30.08.2022
420 Clear 24 1018 79 10000 3.6 130 08:49 30.08.2022
421 Clouds 22 1017 74 10000 1.41 65 03:55 30.08.2022
422 Clouds 25 1016 65 10000 0.51 0 00:26 30.08.2022
423 Clear 26 1015 61 10000 0.51 0 22:34 29.08.2022
424 Clear 27 1014 58 10000 0.51 180 21:34 29.08.2022
425 Clear 27 1014 57 10000 0.51 180 21:34 29.08.2022
426 Clear 28 1014 51 10000 1.03 190 20:34 29.08.2022
427 Clear 31 1012 44 10000 2.57 230 18:39 29.08.2022
428 Clouds 31 1015 46 10000 2.24 146 17:25 29.08.2022
429 Clouds 31 1015 46 10000 2.06 260 16:50 29.08.2022
430 Clouds 31 1015 48 10000 1.03 0 15:18 29.08.2022
431 Clouds 29 1016 53 10000 1.54 0 13:34 29.08.2022
432 Clear 27 1017 60 10000 1.34 140 11:33 29.08.2022
433 Clear 26 1017 66 10000 1.03 0 10:39 29.08.2022
434 Clouds 23 1017 77 10000 2.06 120 08:38 29.08.2022
435 Clouds 21 1014 78 10000 1.54 120 05:58 29.08.2022
436 Clouds 24 1013 69 10000 2.57 90 01:25 29.08.2022
437 Clouds 26 1012 63 10000 1.03 0 22:50 28.08.2022
438 Clouds 27 1013 63 10000 3.09 140 21:44 28.08.2022
439 Clear 27 1012 59 10000 2.57 160 20:56 28.08.2022
440 Clear 29 1011 54 10000 2.06 190 19:44 28.08.2022
441 Clear 31 1011 49 10000 2.57 240 18:21 28.08.2022
442 Clear 31 1011 46 10000 3.13 206 17:25 28.08.2022
443 Clear 31 1011 46 10000 3.13 211 16:28 28.08.2022
444 Clouds 30 1011 47 10000 2.68 265 14:44 28.08.2022
445 Clear 28 1013 54 10000 2.06 220 12:48 28.08.2022
446 Clear 26 1013 64 10000 1.54 190 10:51 28.08.2022
447 Clear 24 1013 67 10000 1.34 181 09:54 28.08.2022
448 Clear 22 1013 75 10000 0.51 0 08:37 28.08.2022
449 Clear 20 1013 81 10000 1.03 0 07:45 28.08.2022
450 Clear 22 1011 75 10000 2.06 60 02:59 28.08.2022
451 Clouds 23 1011 71 10000 2.57 80 00:29 28.08.2022
452 Clouds 24 1010 70 10000 3.09 120 22:37 27.08.2022
453 Clear 25 1010 65 10000 2.57 80 21:36 27.08.2022
454 Clear 27 1008 54 10000 3.6 100 19:49 27.08.2022
455 Clouds 29 1009 50 10000 3.09 130 17:43 27.08.2022
456 Clouds 30 1009 47 10000 6.17 130 15:53 27.08.2022
457 Clouds 29 1009 46 10000 4.63 120 15:24 27.08.2022
458 Clear 27 1010 51 10000 4.63 80 12:28 27.08.2022
459 Clear 26 1011 58 10000 4.63 100 11:32 27.08.2022
460 Clouds 25 1010 64 10000 2.57 30 09:49 27.08.2022
461 Clouds 21 1009 79 10000 1.54 150 07:54 27.08.2022
462 Clouds 23 1008 76 10000 1.03 0 02:52 27.08.2022
463 Clear 25 1008 63 10000 1.03 360 23:57 26.08.2022
464 Clouds 26 1008 55 10000 1.79 302 22:40 26.08.2022
465 Clouds 27 1008 54 10000 2.06 280 21:19 26.08.2022
466 Clouds 28 1008 58 10000 3.6 250 19:23 26.08.2022
467 Clouds 31 1008 46 10000 3.09 250 16:50 26.08.2022
468 Clouds 31 1008 47 10000 3.09 260 15:31 26.08.2022
469 Clouds 31 1009 45 10000 2.57 230 14:30 26.08.2022
470 Clear 30 1011 52 10000 2.24 102 12:49 26.08.2022
471 Clear 28 1011 54 10000 1.54 0 11:27 26.08.2022
472 Clear 27 1012 59 10000 0.51 0 10:29 26.08.2022
473 Clear 22 1011 69 10000 0.51 0 07:28 26.08.2022
474 Clear 24 1013 63 10000 2.06 40 01:41 26.08.2022
475 Clear 25 1012 58 10000 0.89 89 23:32 25.08.2022
476 Clear 28 1011 47 10000 0.51 230 21:27 25.08.2022
477 Clear 30 1010 41 10000 1.54 180 20:26 25.08.2022
478 Clear 32 1011 37 10000 1.34 123 18:49 25.08.2022
479 Clear 32 1011 37 10000 3.09 170 17:32 25.08.2022
480 Clear 32 1012 38 10000 3.6 160 16:50 25.08.2022
481 Clear 32 1012 38 10000 3.6 160 16:50 25.08.2022
482 Clear 32 1011 37 10000 4.02 168 15:39 25.08.2022
483 Clear 31 1012 40 10000 3.13 176 14:31 25.08.2022
484 Clear 29 1013 47 10000 2.24 200 11:49 25.08.2022
485 Clear 27 1014 54 10000 1.34 242 10:46 25.08.2022
486 Clear 24 1015 65 10000 0.89 178 08:52 25.08.2022
487 Clouds 22 1015 68 10000 1.54 360 04:59 25.08.2022
488 Clouds 24 1016 61 10000 1.03 50 00:26 25.08.2022
489 Clear 25 1015 57 10000 1.54 110 23:25 24.08.2022
490 Clear 26 1015 52 10000 2.24 52 22:18 24.08.2022
491 Clear 27 1015 50 10000 2.06 90 21:32 24.08.2022
492 Clear 28 1014 48 10000 3.09 120 20:23 24.08.2022
493 Clear 31 1014 43 10000 2.57 0 17:38 24.08.2022
494 Clear 30 1015 44 10000 2.06 0 16:22 24.08.2022
495 Clear 30 1014 43 10000 2.57 0 15:40 24.08.2022
496 Clear 29 1014 46 10000 2.06 170 12:52 24.08.2022
497 Clear 27 1015 51 10000 3.6 140 11:22 24.08.2022
498 Clear 27 1014 50 10000 3.6 140 11:22 24.08.2022
499 Clear 24 1016 63 10000 1.54 180 09:19 24.08.2022
500 Clear 20 1015 69 10000 2.06 40 06:52 24.08.2022
501 Clear 23 1014 56 10000 3.09 80 01:20 24.08.2022
502 Clear 25 1014 45 10000 2.06 120 22:51 23.08.2022
503 Clear 26 1013 41 10000 2.24 52 22:21 23.08.2022
504 Clear 27 1011 40 10000 3.6 110 21:21 23.08.2022
505 Clear 30 1011 40 10000 3.09 130 19:28 23.08.2022
506 Clear 31 1011 38 10000 3.09 110 18:21 23.08.2022
507 Clear 31 1011 39 10000 2.68 55 17:31 23.08.2022
508 Clear 31 1012 39 10000 3.09 0 16:31 23.08.2022
509 Clear 31 1011 41 10000 3.6 150 14:54 23.08.2022
510 Clear 29 1012 43 10000 3.09 160 12:46 23.08.2022
511 Clear 27 1012 49 10000 3.13 72 11:19 23.08.2022
512 Clear 26 1012 53 10000 2.57 120 10:33 23.08.2022
513 Clear 24 1012 60 10000 2.24 79 09:39 23.08.2022
514 Clear 24 1012 63 10000 0.51 0 08:47 23.08.2022
515 Clear 22 1011 66 10000 1.03 0 08:19 23.08.2022
516 Clear 20 1010 75 10000 0.51 0 07:33 23.08.2022
517 Clear 20 1009 72 10000 1.03 10 06:25 23.08.2022
518 Clear 22 1009 69 10000 0.51 360 01:52 23.08.2022
519 Clear 23 1010 62 10000 1.03 0 00:27 23.08.2022
520 Clear 24 1008 59 10000 0.51 0 23:32 22.08.2022
521 Clear 25 1009 59 10000 0.51 0 22:25 22.08.2022
522 Clear 27 1007 42 10000 1.03 0 20:53 22.08.2022
523 Clear 30 1007 38 10000 3.09 180 19:45 22.08.2022
524 Clear 31 1005 37 10000 2.68 142 18:37 22.08.2022
525 Clouds 31 1007 39 10000 2.57 190 15:56 22.08.2022
526 Clear 31 1006 39 10000 2.06 160 15:22 22.08.2022
527 Clear 30 1007 44 10000 2.57 190 12:53 22.08.2022
528 Clear 25 1011 58 10000 1.03 0 09:27 22.08.2022
529 Clear 20 1009 71 10000 1.03 0 06:58 22.08.2022
530 Clear 23 1008 59 10000 2.06 60 02:28 22.08.2022
531 Clear 23 1010 65 10000 1.03 0 00:36 22.08.2022
532 Clear 24 1008 61 10000 1.03 10 23:32 21.08.2022
533 Clouds 25 1007 54 10000 0.51 0 21:55 21.08.2022
534 Clouds 27 1008 48 10000 0.51 0 21:20 21.08.2022
535 Clear 29 1006 39 10000 2.57 190 20:20 21.08.2022
536 Clear 32 1006 35 10000 2.57 170 18:49 21.08.2022
537 Clear 32 1008 35 10000 2.06 180 16:50 21.08.2022
538 Clear 32 1008 36 10000 2.68 204 15:52 21.08.2022
539 Clear 31 1009 38 10000 2.06 0 14:51 21.08.2022
540 Clear 31 1010 40 10000 2.57 140 13:50 21.08.2022
541 Clear 30 1010 44 10000 2.57 210 12:56 21.08.2022
542 Clear 27 1011 51 10000 2.24 81 10:40 21.08.2022
543 Clear 23 1012 61 10000 0.51 0 08:57 21.08.2022
544 Clear 22 1012 64 10000 1.03 0 08:39 21.08.2022
545 Clear 23 1012 64 10000 1.03 0 08:18 21.08.2022
546 Clear 20 1010 69 10000 1.03 0 06:33 21.08.2022
547 Clear 22 1012 63 10000 1.03 0 01:50 21.08.2022
548 Clear 25 1011 52 10000 3.09 350 23:34 20.08.2022
549 Clouds 26 1008 48 10000 1.54 290 21:55 20.08.2022
550 Clouds 29 1008 35 10000 1.34 239 20:51 20.08.2022
551 Clouds 31 1010 33 10000 3.6 240 19:44 20.08.2022
552 Clouds 31 1009 35 10000 3.58 151 18:48 20.08.2022
553 Clouds 32 1009 34 10000 4.47 174 18:26 20.08.2022
554 Clouds 32 1009 34 10000 3.58 159 17:21 20.08.2022
555 Clear 32 1009 35 10000 3.58 223 15:57 20.08.2022
556 Clear 31 1011 41 10000 2.24 124 14:20 20.08.2022
557 Clear 28 1011 51 10000 2.06 160 11:56 20.08.2022
558 Clear 28 1011 51 10000 2.06 160 11:36 20.08.2022
559 Clear 22 1012 74 10000 1.54 260 09:20 20.08.2022
560 Clear 19 1011 83 10000 0.51 0 07:30 20.08.2022
561 Clear 20 1011 87 10000 1.03 0 04:50 20.08.2022
562 Clear 22 1011 81 10000 1.54 110 00:57 20.08.2022
563 Clouds 23 1011 76 10000 2.06 80 23:26 19.08.2022
564 Clouds 23 1010 75 10000 0.51 0 22:44 19.08.2022
565 Clouds 25 1010 57 10000 1.54 220 20:47 19.08.2022
566 Clouds 27 1009 52 10000 1.54 300 18:55 19.08.2022
567 Clouds 27 1008 57 10000 3.09 240 15:55 19.08.2022
568 Clouds 25 1011 63 10000 1.03 0 13:42 19.08.2022
569 Clouds 22 1011 84 10000 1.54 130 11:46 19.08.2022
570 Clouds 21 1011 89 10000 1.03 0 10:31 19.08.2022
571 Thunderstorm 19 1009 92 10000 1.54 170 07:39 19.08.2022
572 Clouds 19 1009 87 10000 1.03 360 03:19 19.08.2022
573 Clouds 20 1011 86 10000 2.06 340 00:36 19.08.2022
574 Clouds 20 1011 89 10000 2.57 360 23:48 18.08.2022
575 Clouds 20 1010 87 10000 2.06 40 22:53 18.08.2022
576 Clear 20 1010 86 10000 0.88 266 22:18 18.08.2022
577 Clouds 21 1010 83 10000 3.09 10 21:40 18.08.2022
578 Clouds 22 1009 76 10000 3.6 30 20:32 18.08.2022
579 Clouds 23 1010 74 10000 2.57 30 19:32 18.08.2022
580 Clouds 23 1011 75 10000 3.09 10 18:19 18.08.2022
581 Rain 23 1011 79 10000 2.57 360 17:19 18.08.2022
582 Clouds 21 1010 92 10000 1.54 230 15:20 18.08.2022
583 Rain 20 1007 94 6000 3.6 350 14:20 18.08.2022
584 Thunderstorm 20 1009 95 3000 1.54 180 13:36 18.08.2022
585 Rain 20 1009 94 5000 2.06 360 12:26 18.08.2022
586 Rain 21 1010 91 10000 2.06 190 10:22 18.08.2022
587 Rain 21 1010 89 10000 1.54 220 09:42 18.08.2022
588 Rain 21 1008 91 10000 4.02 96 07:24 18.08.2022
589 Clouds 22 1012 88 10000 2.57 50 04:38 18.08.2022
590 Clouds 22 1012 78 10000 1.03 330 23:37 17.08.2022
591 Clouds 23 1011 78 10000 3.13 2 21:53 17.08.2022
592 Clouds 24 1009 79 10000 2.68 294 20:20 17.08.2022
593 Clouds 24 1011 82 9000 4.12 140 19:31 17.08.2022
594 Rain 26 1012 71 10000 2.68 144 17:37 17.08.2022
595 Rain 28 1012 63 10000 2.57 200 16:39 17.08.2022
596 Clouds 29 1011 57 10000 2.24 78 15:30 17.08.2022
597 Clouds 28 1013 63 10000 2.57 0 13:31 17.08.2022
598 Clouds 26 1013 71 10000 3.09 110 11:39 17.08.2022
599 Clouds 24 1012 74 10000 3.6 80 09:59 17.08.2022
600 Clear 23 1012 78 10000 3.6 120 08:24 17.08.2022
601 Clouds 22 1012 82 10000 2.57 60 03:39 17.08.2022
602 Clouds 24 1011 70 10000 4.02 6 00:24 17.08.2022
603 Clouds 25 1011 68 10000 1.69 262 22:41 16.08.2022
604 Clear 28 1008 52 10000 3.09 130 20:58 16.08.2022
605 Clear 30 1008 49 10000 3.6 130 19:54 16.08.2022
606 Clouds 31 1007 44 10000 2.68 114 18:43 16.08.2022
607 Clouds 31 1009 45 10000 3.09 190 17:43 16.08.2022
608 Clouds 31 1010 49 10000 2.57 90 15:52 16.08.2022
609 Clouds 30 1010 50 10000 2.06 0 14:55 16.08.2022
610 Clouds 30 1010 50 10000 2.24 48 14:37 16.08.2022
611 Clear 28 1010 53 10000 1.79 64 12:58 16.08.2022
612 Clouds 25 1011 66 10000 2.06 140 10:59 16.08.2022
613 Clouds 23 1011 73 10000 2.57 100 09:50 16.08.2022
614 Clouds 22 1010 75 10000 2.06 90 08:47 16.08.2022
615 Clouds 20 1009 79 10000 2.06 90 07:33 16.08.2022
616 Clear 20 1007 77 10000 1.03 210 02:19 16.08.2022
617 Clouds 22 1006 64 10000 4.12 40 22:30 15.08.2022
618 Clouds 22 1006 64 10000 4.12 40 22:30 15.08.2022
619 Clouds 22 1008 73 10000 6.17 40 21:54 15.08.2022
620 Rain 25 1006 66 10000 1.79 356 20:52 15.08.2022
621 Rain 28 1004 54 10000 3.58 228 20:19 15.08.2022
622 Rain 28 1004 54 10000 2.68 244 20:19 15.08.2022
623 Clouds 30 1004 48 10000 2.24 114 18:41 15.08.2022
624 Clouds 31 1004 45 10000 2.06 0 17:23 15.08.2022
625 Clouds 31 1003 44 10000 2.06 0 16:21 15.08.2022
626 Clear 30 1004 43 10000 3.09 270 13:56 15.08.2022
627 Clear 29 1006 47 10000 2.57 210 12:37 15.08.2022
628 Clear 26 1005 53 10000 2.68 249 10:18 15.08.2022
629 Clear 22 1006 62 10000 1.03 180 08:27 15.08.2022
630 Clear 20 1006 62 10000 1.03 280 06:20 15.08.2022
631 Clouds 22 1007 61 10000 0.89 253 02:40 15.08.2022
632 Clear 25 1007 55 10000 1.03 0 22:39 14.08.2022
633 Clouds 25 1007 52 10000 1.54 250 21:39 14.08.2022
634 Clouds 27 1006 48 10000 2.06 260 20:24 14.08.2022
635 Clouds 28 1005 45 10000 2.57 260 19:31 14.08.2022
636 Clear 29 1008 41 10000 3.09 250 18:19 14.08.2022
637 Clouds 30 1007 38 10000 4.63 260 16:54 14.08.2022
638 Clouds 30 1007 35 10000 4.02 282 15:50 14.08.2022
639 Clouds 30 1008 34 10000 2.06 290 14:34 14.08.2022
640 Clouds 29 1008 34 10000 1.03 0 13:50 14.08.2022
641 Clouds 29 1008 37 10000 2.06 190 13:20 14.08.2022
642 Clouds 29 1008 38 10000 2.57 220 12:34 14.08.2022
643 Clear 26 1010 48 10000 1.54 0 10:50 14.08.2022
644 Clear 23 1010 57 10000 1.03 0 08:52 14.08.2022
645 Clear 19 1009 64 10000 2.06 40 06:22 14.08.2022
646 Clouds 21 1012 59 10000 1.03 0 02:57 14.08.2022
647 Clear 23 1012 52 10000 0.89 271 00:19 14.08.2022
648 Clear 24 1013 49 10000 0.89 75 22:56 13.08.2022
649 Clear 26 1011 41 10000 1.79 125 21:19 13.08.2022
650 Clear 27 1011 38 10000 2.57 150 20:43 13.08.2022
651 Clear 28 1011 37 10000 3.09 160 19:44 13.08.2022
652 Clear 30 1010 34 10000 3.09 190 17:59 13.08.2022
653 Clear 30 1010 35 10000 1.54 0 15:31 13.08.2022
654 Clear 29 1012 37 10000 2.57 0 14:28 13.08.2022
655 Clear 28 1011 38 10000 2.06 0 13:40 13.08.2022
656 Clear 27 1012 43 10000 2.06 170 11:52 13.08.2022
657 Clear 24 1013 50 10000 1.79 271 10:31 13.08.2022
658 Clear 21 1015 71 10000 1.54 50 08:45 13.08.2022
659 Clouds 19 1013 77 10000 1.03 0 05:34 13.08.2022
660 Thunderstorm 20 1015 72 10000 6.69 130 23:58 12.08.2022
661 Clouds 24 1013 49 10000 8.23 120 21:46 12.08.2022
662 Clouds 26 1011 45 10000 5.81 44 20:53 12.08.2022
663 Clouds 28 1010 41 10000 5.66 100 19:40 12.08.2022
664 Clouds 29 1011 41 10000 4.12 0 18:46 12.08.2022
665 Clear 30 1011 39 10000 4.92 100 17:21 12.08.2022
666 Clouds 30 1012 38 10000 5.14 130 15:49 12.08.2022
667 Clouds 29 1012 41 10000 6.17 140 14:29 12.08.2022
668 Clear 28 1014 45 10000 6.17 120 12:53 12.08.2022
669 Clear 25 1014 51 10000 4.02 54 10:35 12.08.2022
670 Clear 23 1013 54 10000 2.68 83 07:47 12.08.2022
671 Clouds 22 1012 56 10000 3.13 70 06:38 12.08.2022
672 Clouds 25 1015 46 10000 3.6 80 02:33 12.08.2022
673 Clouds 25 1012 46 10000 2.06 110 00:24 12.08.2022
674 Clear 25 1016 48 10000 2.06 110 23:35 11.08.2022
675 Clear 27 1014 43 10000 1.03 0 22:24 11.08.2022
676 Clouds 28 1014 40 10000 2.06 110 21:39 11.08.2022
677 Clear 28 1013 38 10000 2.57 120 20:45 11.08.2022
678 Clear 29 1013 38 10000 3.09 110 20:18 11.08.2022
679 Clear 30 1012 36 10000 3.6 140 19:32 11.08.2022
680 Clear 31 1013 35 10000 2.57 0 17:48 11.08.2022
681 Clear 31 1014 36 10000 2.57 110 16:34 11.08.2022
682 Clear 31 1016 38 10000 2.06 180 15:21 11.08.2022
683 Clear 29 1018 44 10000 2.57 150 12:41 11.08.2022
684 Clear 26 1019 56 10000 2.57 80 09:54 11.08.2022
685 Clouds 23 1017 61 10000 3.13 66 06:59 11.08.2022
686 Clouds 24 1018 53 10000 4.12 70 03:46 11.08.2022
687 Clouds 26 1017 47 10000 2.68 96 00:35 11.08.2022
688 Clear 27 1017 44 10000 3.6 120 22:22 10.08.2022
689 Clouds 28 1016 42 10000 2.68 52 21:24 10.08.2022
690 Clear 29 1016 41 10000 3.09 120 20:47 10.08.2022
691 Clear 31 1015 36 10000 3.6 100 18:55 10.08.2022
692 Clear 32 1017 36 10000 3.58 80 17:37 10.08.2022
693 Clear 32 1016 35 10000 3.09 0 16:33 10.08.2022
694 Clear 30 1019 42 10000 4.63 140 13:35 10.08.2022
695 Clear 29 1019 44 10000 4.12 110 12:27 10.08.2022
696 Clouds 26 1019 51 10000 3.13 96 08:55 10.08.2022
697 Clouds 25 1019 54 10000 4.02 102 08:31 10.08.2022
698 Clouds 24 1017 65 10000 2.68 88 06:22 10.08.2022
699 Clouds 25 1020 55 10000 2.57 80 02:45 10.08.2022
700 Clear 27 1018 52 10000 3.09 120 23:34 09.08.2022
701 Clear 28 1017 50 10000 2.68 152 22:55 09.08.2022
702 Clear 29 1017 50 10000 3.09 120 21:34 09.08.2022
703 Clear 31 1015 44 10000 3.6 130 19:34 09.08.2022
704 Clear 32 1015 42 10000 2.57 0 18:23 09.08.2022
705 Clear 32 1016 42 10000 3.6 110 17:26 09.08.2022
706 Clear 32 1016 41 10000 2.57 0 16:40 09.08.2022
707 Clouds 32 1017 42 10000 2.57 190 15:40 09.08.2022
708 Clear 29 1020 48 10000 3.09 160 12:25 09.08.2022
709 Clouds 26 1019 59 10000 3.13 109 09:22 09.08.2022
710 Clouds 25 1019 62 10000 2.68 59 08:26 09.08.2022
711 Clouds 23 1017 71 10000 1.54 110 07:18 09.08.2022
712 Clear 24 1018 70 10000 0.51 0 02:54 09.08.2022
713 Clear 25 1017 65 10000 0.51 0 23:26 08.08.2022
714 Clouds 25 1017 63 10000 0.51 0 22:52 08.08.2022
715 Clear 26 1017 67 10000 1.33 60 21:48 08.08.2022
716 Clear 29 1014 48 10000 2.06 170 20:51 08.08.2022
717 Clear 30 1014 45 10000 3.09 190 19:50 08.08.2022
718 Clouds 32 1013 43 10000 2.68 166 18:19 08.08.2022
719 Clouds 31 1015 44 10000 2.57 0 15:57 08.08.2022
720 Clouds 31 1015 44 10000 2.68 137 15:38 08.08.2022
721 Clear 29 1017 53 10000 2.06 110 12:39 08.08.2022
722 Clear 27 1017 58 10000 2.68 130 11:32 08.08.2022
723 Clouds 21 1016 76 10000 0.51 0 08:26 08.08.2022
724 Clear 21 1015 73 10000 2.57 70 05:33 08.08.2022
725 Rain 22 1016 66 10000 2.06 300 01:47 08.08.2022
726 Clouds 24 1014 75 10000 1.86 48 21:49 07.08.2022
727 Clouds 26 1016 51 10000 1.54 70 21:30 07.08.2022
728 Clouds 28 1014 51 10000 3.13 110 20:25 07.08.2022
729 Clouds 28 1014 50 10000 3.6 110 19:53 07.08.2022
730 Clouds 29 1014 49 10000 4.02 130 19:24 07.08.2022
731 Clouds 30 1013 47 10000 4.63 120 17:59 07.08.2022
732 Clear 30 1013 49 10000 5.66 120 16:53 07.08.2022
733 Clouds 30 1014 52 10000 4.02 131 15:45 07.08.2022
734 Clouds 29 1015 53 10000 4.47 161 14:32 07.08.2022
735 Clear 28 1016 58 10000 3.6 170 12:41 07.08.2022
736 Clouds 26 1017 61 10000 3.6 140 10:54 07.08.2022
737 Clear 25 1017 66 10000 3.09 90 10:21 07.08.2022
738 Clouds 22 1016 75 10000 4.63 40 04:41 07.08.2022
739 Clouds 22 1016 80 8356 2.28 15 02:35 07.08.2022
740 Clouds 24 1016 83 10000 4.05 121 22:40 06.08.2022
741 Clouds 24 1015 82 10000 3.91 124 22:18 06.08.2022
742 Clouds 32 1012 42 10000 5.14 70 19:48 06.08.2022
743 Clear 33 1012 40 10000 4.63 120 18:50 06.08.2022
744 Clear 34 1012 37 10000 4.12 190 17:48 06.08.2022
745 Clear 36 1011 35 10000 3.09 150 16:29 06.08.2022
746 Clear 35 1010 38 10000 2.24 163 13:51 06.08.2022
747 Clear 34 1013 41 10000 2.06 0 12:38 06.08.2022
748 Clear 32 1013 46 10000 2.57 170 11:21 06.08.2022
749 Clouds 28 1014 60 10000 1.03 0 09:41 06.08.2022
750 Clouds 24 1014 77 10000 3.09 70 07:28 06.08.2022
751 Clear 26 1012 69 10000 2.06 260 01:47 06.08.2022
752 Clear 29 1012 54 10000 3.09 230 22:36 05.08.2022
753 Clear 31 1011 48 10000 2.24 228 21:18 05.08.2022
754 Clouds 35 1010 32 10000 2.06 280 19:18 05.08.2022
755 Clear 35 1010 32 10000 3.09 250 18:41 05.08.2022
756 Clear 36 1011 33 10000 4.02 238 16:53 05.08.2022
757 Clear 36 1012 35 10000 3.13 121 15:25 05.08.2022
758 Clear 36 1011 33 10000 2.24 209 14:38 05.08.2022
759 Clear 35 1012 34 10000 2.57 140 13:38 05.08.2022
760 Clear 34 1012 38 10000 2.06 210 13:18 05.08.2022
761 Clear 33 1013 40 10000 2.68 159 11:55 05.08.2022
762 Clear 29 1014 51 10000 1.34 177 09:18 05.08.2022
763 Clear 26 1014 63 10000 1.54 190 07:53 05.08.2022
764 Clear 25 1014 65 10000 1.54 30 04:48 05.08.2022
765 Clear 28 1014 54 10000 0.51 0 23:36 04.08.2022
766 Clear 31 1013 42 10000 1.03 180 21:28 04.08.2022
767 Clear 32 1012 38 10000 1.54 180 20:57 04.08.2022
768 Clear 33 1013 36 10000 1.54 210 20:37 04.08.2022
769 Clear 35 1012 32 10000 2.68 208 18:59 04.08.2022
770 Clear 35 1012 32 10000 2.24 187 18:34 04.08.2022
771 Clear 35 1013 35 10000 2.57 220 15:53 04.08.2022
772 Clear 34 1014 37 10000 2.57 0 13:26 04.08.2022
773 Clear 34 1014 37 10000 2.57 0 13:26 04.08.2022
774 Clear 32 1015 40 10000 2.06 190 11:39 04.08.2022
775 Clear 30 1016 47 10000 1.03 0 10:22 04.08.2022
776 Clear 30 1016 48 10000 1.34 100 10:22 04.08.2022
777 Clear 25 1016 63 10000 0.51 0 07:47 04.08.2022
778 Clear 25 1016 64 10000 1.54 50 02:50 04.08.2022
779 Clear 26 1015 61 10000 1.54 20 00:43 04.08.2022
780 Clear 27 1015 58 10000 0.89 135 23:40 03.08.2022
781 Clear 30 1014 45 10000 1.03 190 21:31 03.08.2022
782 Clear 32 1013 39 10000 2.68 118 20:21 03.08.2022
783 Clear 33 1013 37 10000 2.57 160 19:24 03.08.2022
784 Clear 34 1014 36 10000 2.06 190 16:50 03.08.2022
785 Clear 34 1015 36 10000 2.06 0 16:22 03.08.2022
786 Clear 32 1015 39 10000 2.68 83 13:52 03.08.2022
787 Clear 30 1017 47 10000 2.57 80 10:56 03.08.2022
788 Clear 23 1017 70 10000 0.51 0 07:26 03.08.2022
789 Clear 24 1016 61 10000 1.54 60 04:22 03.08.2022
790 Clear 24 1017 62 10000 2.06 50 03:23 03.08.2022
791 Clear 26 1016 57 10000 1.54 60 00:49 03.08.2022
792 Clear 28 1015 50 10000 2.57 120 22:37 02.08.2022
793 Clear 28 1014 47 10000 2.57 110 21:51 02.08.2022
794 Clear 30 1015 45 10000 3.6 140 20:30 02.08.2022
795 Clear 32 1014 39 10000 2.68 148 17:52 02.08.2022
796 Clear 31 1015 41 10000 3.6 140 14:46 02.08.2022
797 Clouds 27 1016 51 10000 5.14 120 10:50 02.08.2022
798 Clouds 25 1016 58 10000 6.69 140 08:54 02.08.2022
799 Clouds 25 1016 58 10000 6.69 140 08:54 02.08.2022
800 Clouds 24 1015 64 10000 3.6 110 07:52 02.08.2022
801 Clear 22 1014 65 10000 0.51 0 04:59 02.08.2022
802 Clear 24 1013 51 10000 1.03 0 03:36 02.08.2022
803 Clear 28 1013 40 10000 2.24 255 23:32 01.08.2022
804 Clouds 28 1012 45 10000 1.54 220 21:54 01.08.2022
805 Clouds 32 1012 32 10000 1.54 220 20:40 01.08.2022
806 Clear 35 1011 25 10000 2.24 245 19:22 01.08.2022
807 Clear 35 1012 27 10000 2.68 265 17:22 01.08.2022
808 Clear 35 1012 27 10000 3.58 245 16:49 01.08.2022
809 Clear 35 1012 31 10000 2.57 220 15:48 01.08.2022
810 Clear 34 1012 30 10000 1.79 233 15:28 01.08.2022
811 Clear 33 1013 34 10000 2.24 166 13:39 01.08.2022
812 Clear 30 1015 45 10000 2.06 180 11:38 01.08.2022
813 Clear 28 1014 47 10000 2.57 120 09:38 01.08.2022
814 Clear 25 1015 58 10000 1.54 50 08:18 01.08.2022
815 Clear 22 1014 70 10000 0.51 0 04:43 01.08.2022
816 Clear 24 1014 62 10000 0.51 0 02:24 01.08.2022
817 Clear 26 1014 54 10000 1.03 200 22:54 31.07.2022
818 Clear 26 1013 53 10000 1.03 200 22:35 31.07.2022
819 Clear 30 1013 37 10000 1.54 250 20:44 31.07.2022
820 Clear 33 1012 32 10000 2.68 221 18:52 31.07.2022
821 Clear 33 1013 33 10000 3.6 210 17:34 31.07.2022
822 Clear 33 1013 32 10000 2.68 134 14:57 31.07.2022
823 Clear 31 1015 39 10000 1.54 0 13:19 31.07.2022
824 Clear 29 1016 44 10000 1.79 164 11:44 31.07.2022
825 Clear 25 1017 47 10000 1.03 0 08:47 31.07.2022
826 Clear 21 1016 62 10000 1.34 203 06:31 31.07.2022
827 Clear 22 1016 68 10000 1.03 340 02:31 31.07.2022
828 Clouds 26 1015 41 10000 2.06 330 22:50 30.07.2022
829 Clear 27 1014 53 10000 2.06 240 21:55 30.07.2022
830 Clear 27 1014 52 10000 2.06 240 21:37 30.07.2022
831 Clear 30 1013 39 10000 1.03 0 20:38 30.07.2022
832 Clear 31 1013 42 10000 2.57 260 19:57 30.07.2022
833 Clouds 32 1013 39 10000 3.6 220 18:20 30.07.2022
834 Clouds 31 1012 45 10000 2.57 200 16:40 30.07.2022
835 Clouds 31 1013 47 10000 2.57 0 15:33 30.07.2022
836 Clear 30 1013 54 10000 2.06 0 14:23 30.07.2022
837 Clear 28 1014 56 10000 2.06 260 12:33 30.07.2022
838 Clear 27 1014 59 10000 1.79 209 11:55 30.07.2022
839 Clear 24 1014 75 10000 1.54 230 10:20 30.07.2022
840 Clouds 22 1015 83 10000 1.03 0 09:32 30.07.2022
841 Mist 20 1013 91 3500 0.51 0 07:44 30.07.2022
842 Clouds 19 1014 95 10000 1.03 0 02:34 30.07.2022
843 Clouds 20 1014 95 10000 1.03 0 00:32 30.07.2022
844 Clouds 21 1014 93 10000 1.03 0 21:39 29.07.2022
845 Clouds 21 1013 93 8000 3.09 30 20:51 29.07.2022
846 Thunderstorm 20 1013 93 6000 1.54 0 19:47 29.07.2022
847 Rain 26 1012 71 10000 5.14 190 17:39 29.07.2022
848 Clouds 30 1014 53 10000 3.09 170 14:51 29.07.2022
849 Clouds 29 1014 52 10000 1.54 330 12:55 29.07.2022
850 Clouds 24 1016 69 10000 1.03 0 09:34 29.07.2022
851 Clouds 23 1015 72 10000 1.03 220 08:41 29.07.2022
852 Clouds 21 1013 83 10000 1.03 210 06:40 29.07.2022
853 Clouds 21 1014 79 10000 2.06 20 01:19 29.07.2022
854 Rain 23 1013 79 10000 2.06 340 21:45 28.07.2022
855 Rain 26 1012 51 10000 2.57 150 20:54 28.07.2022
856 Rain 28 1011 58 10000 3.09 140 20:21 28.07.2022
857 Rain 29 1012 56 10000 5.14 140 19:40 28.07.2022
858 Clouds 31 1010 48 10000 4.12 160 18:25 28.07.2022
859 Clear 32 1011 44 10000 4.12 130 17:42 28.07.2022
860 Clouds 32 1011 44 10000 4.47 163 16:41 28.07.2022
861 Clear 31 1012 46 10000 3.6 140 14:30 28.07.2022
862 Clouds 30 1013 51 10000 5.14 140 12:41 28.07.2022
863 Clouds 26 1014 58 10000 4.02 114 09:25 28.07.2022
864 Clear 23 1011 75 10000 3.09 80 05:45 28.07.2022
865 Clear 23 1011 75 10000 3.13 82 05:21 28.07.2022
866 Clear 26 1012 64 10000 1.79 103 00:28 28.07.2022
867 Clear 28 1010 57 10000 2.57 80 21:58 27.07.2022
868 Clear 30 1008 52 10000 2.06 130 20:20 27.07.2022
869 Clear 30 1008 49 10000 2.57 130 19:30 27.07.2022
870 Clouds 31 1010 48 10000 4.47 161 16:33 27.07.2022
871 Clouds 31 1010 47 10000 4.63 120 15:51 27.07.2022
872 Clouds 31 1010 45 10000 4.92 136 14:42 27.07.2022
873 Clouds 30 1010 47 10000 3.13 129 13:57 27.07.2022
874 Clear 27 1011 56 10000 1.54 0 11:18 27.07.2022
875 Clouds 22 1011 83 10000 1.54 30 07:53 27.07.2022
876 Clear 22 1011 80 10000 2.06 270 05:18 27.07.2022
877 Rain 22 1010 89 8975 2.24 96 23:29 26.07.2022
878 Rain 26 1007 69 10000 4.02 11 22:19 26.07.2022
879 Thunderstorm 31 1006 49 10000 4.12 120 21:18 26.07.2022
880 Clouds 33 1006 44 10000 4.63 140 19:33 26.07.2022
881 Clouds 34 1007 44 10000 4.12 130 18:41 26.07.2022
882 Clouds 35 1007 40 10000 2.68 183 17:54 26.07.2022
883 Clouds 35 1008 42 10000 2.57 190 15:46 26.07.2022
884 Clear 34 1010 42 10000 0.89 201 14:43 26.07.2022
885 Clear 32 1008 49 10000 3.13 196 12:33 26.07.2022
886 Clear 29 1009 58 10000 3.13 294 10:32 26.07.2022
887 Clear 24 1011 78 10000 1.03 0 08:27 26.07.2022
888 Clear 23 1010 80 10000 2.06 220 01:55 26.07.2022
889 Clouds 24 1011 71 10000 4.02 225 00:21 26.07.2022
890 Thunderstorm 25 1012 72 10000 4.92 52 22:40 25.07.2022
891 Thunderstorm 27 1011 68 9000 7.2 270 21:43 25.07.2022
892 Rain 31 1009 50 10000 1.54 240 20:43 25.07.2022
893 Rain 34 1008 40 10000 2.06 240 20:24 25.07.2022
894 Clear 35 1008 39 10000 2.68 231 19:25 25.07.2022
895 Clear 37 1009 37 10000 2.68 265 17:43 25.07.2022
896 Clear 37 1009 37 10000 3.09 0 17:20 25.07.2022
897 Clear 35 1012 35 10000 1.79 204 13:27 25.07.2022
898 Clear 32 1013 44 10000 2.57 70 10:54 25.07.2022
899 Clouds 27 1014 59 10000 3.13 113 07:53 25.07.2022
900 Clear 28 1014 60 10000 0.89 270 01:36 25.07.2022
901 Clear 29 1014 53 10000 0.89 103 23:45 24.07.2022
902 Clear 30 1014 50 10000 1.34 103 22:47 24.07.2022
903 Clear 32 1014 47 10000 2.06 120 21:42 24.07.2022
904 Clear 33 1013 46 10000 3.09 140 20:59 24.07.2022
905 Clear 33 1013 45 10000 3.09 140 20:41 24.07.2022
906 Clear 35 1012 42 10000 3.09 160 19:20 24.07.2022
907 Clear 35 1013 42 10000 3.09 0 17:57 24.07.2022
908 Clear 35 1012 42 10000 2.24 186 15:55 24.07.2022
909 Clouds 34 1016 50 10000 1.54 0 14:47 24.07.2022
910 Clouds 34 1013 46 10000 2.68 195 13:49 24.07.2022
911 Clouds 32 1016 53 10000 1.54 0 12:28 24.07.2022
912 Clouds 31 1016 56 10000 1.79 165 11:30 24.07.2022
913 Clouds 28 1017 67 10000 1.34 175 09:47 24.07.2022
914 Clouds 26 1017 76 10000 1.34 147 07:57 24.07.2022
915 Clear 26 1016 78 10000 1.03 0 07:31 24.07.2022
916 Clear 26 1015 69 10000 2.57 290 02:57 24.07.2022
917 Clear 29 1014 58 10000 2.57 240 22:52 23.07.2022
918 Clear 32 1013 51 10000 3.09 220 20:47 23.07.2022
919 Clouds 33 1013 50 10000 2.06 0 19:25 23.07.2022
920 Clouds 34 1013 48 10000 3.13 233 18:18 23.07.2022
921 Clear 35 1011 43 10000 2.68 219 17:27 23.07.2022
922 Clouds 35 1011 23 10000 1.1 231 16:22 23.07.2022
923 Clouds 34 1012 41 10000 3.13 259 15:21 23.07.2022
924 Clouds 35 1012 24 10000 1.36 210 14:52 23.07.2022
925 Clouds 34 1015 46 10000 2.57 0 14:21 23.07.2022
926 Clouds 32 1014 50 10000 2.24 217 11:55 23.07.2022
927 Clear 31 1015 49 10000 2.24 218 10:37 23.07.2022
928 Clear 30 1015 47 10000 3.58 297 09:34 23.07.2022
929 Clear 24 1015 67 10000 0.51 0 06:46 23.07.2022
930 Clear 26 1015 56 10000 1.54 280 03:37 23.07.2022
931 Clear 28 1015 52 10000 1.54 290 00:27 23.07.2022
932 Clear 32 1013 39 10000 0.51 0 21:28 22.07.2022
933 Clear 34 1013 34 10000 2.06 170 20:29 22.07.2022
934 Clear 37 1011 29 10000 2.68 163 18:41 22.07.2022
935 Clear 37 1013 27 10000 3.58 137 17:39 22.07.2022
936 Clear 37 1012 23 10000 3.13 170 15:46 22.07.2022
937 Clear 35 1014 26 10000 3.09 150 12:47 22.07.2022
938 Clear 31 1016 40 10000 2.06 100 09:56 22.07.2022
939 Clear 30 1016 42 10000 2.24 106 09:21 22.07.2022
940 Clear 27 1016 51 10000 1.54 60 07:51 22.07.2022
941 Clear 26 1016 59 10000 1.03 0 04:22 22.07.2022
942 Clear 30 1013 44 10000 1.03 0 23:29 21.07.2022
943 Clear 32 1014 40 10000 2.06 180 21:39 21.07.2022
944 Clear 35 1013 33 10000 1.79 186 19:41 21.07.2022
945 Clear 37 1013 29 10000 2.68 214 18:30 21.07.2022
946 Clear 36 1014 29 10000 3.09 130 17:21 21.07.2022
947 Clear 36 1016 28 10000 2.57 0 15:58 21.07.2022
948 Clear 36 1012 22 10000 3.13 186 14:46 21.07.2022
949 Clear 35 1014 25 10000 3.58 177 13:49 21.07.2022
950 Clear 33 1015 30 10000 3.58 154 11:48 21.07.2022
951 Clear 30 1016 39 10000 4.02 115 09:51 21.07.2022
952 Clear 28 1017 44 10000 3.09 90 08:53 21.07.2022
953 Clear 27 1016 48 10000 2.06 120 07:50 21.07.2022
954 Clouds 25 1017 53 10000 2.06 40 06:26 21.07.2022
955 Clouds 28 1016 42 10000 2.57 60 02:23 21.07.2022
956 Clouds 31 1015 36 10000 2.06 80 22:32 20.07.2022
957 Clouds 32 1016 33 10000 2.06 110 21:49 20.07.2022
958 Clear 33 1015 30 10000 2.57 140 20:46 20.07.2022
959 Clear 34 1014 28 10000 3.13 120 19:46 20.07.2022
960 Clear 36 1015 24 10000 3.09 140 18:53 20.07.2022
961 Clear 36 1015 23 10000 3.6 130 18:30 20.07.2022
962 Clear 36 1016 23 10000 3.09 160 17:24 20.07.2022
963 Clear 36 1015 28 10000 0.76 165 15:32 20.07.2022
964 Clear 35 1016 24 10000 2.68 176 14:35 20.07.2022
965 Clear 34 1018 27 10000 2.24 184 12:51 20.07.2022
966 Clear 32 1019 31 10000 2.57 90 10:29 20.07.2022
967 Clear 24 1019 56 10000 1.54 40 05:52 20.07.2022
968 Clear 28 1018 46 10000 2.06 90 00:58 20.07.2022
969 Clear 28 1018 45 10000 2.06 90 00:40 20.07.2022
970 Clear 30 1017 39 10000 1.54 90 22:35 19.07.2022
971 Clear 30 1017 38 10000 2.57 110 21:53 19.07.2022
972 Clear 32 1017 36 10000 3.6 130 20:49 19.07.2022
973 Clear 34 1017 30 10000 3.6 140 19:22 19.07.2022
974 Clear 35 1017 30 10000 3.09 140 18:35 19.07.2022
975 Clear 35 1017 30 10000 2.68 184 17:51 19.07.2022
976 Clear 34 1014 30 10000 2.68 186 15:21 19.07.2022
977 Clear 32 1019 36 10000 2.57 150 12:27 19.07.2022
978 Clear 31 1019 38 10000 4.47 95 11:31 19.07.2022
979 Clear 29 1020 45 10000 3.13 108 09:44 19.07.2022
980 Clouds 28 1020 48 10000 2.68 91 08:42 19.07.2022
981 Clear 25 1022 60 10000 1.54 40 07:19 19.07.2022
982 Clear 25 1021 61 10000 1.77 72 05:48 19.07.2022
983 Clear 25 1021 59 10000 2.12 69 04:59 19.07.2022
984 Clear 27 1019 53 10000 2.57 80 01:58 19.07.2022
985 Clear 29 1019 50 10000 3.6 90 23:50 18.07.2022
986 Clear 29 1019 50 10000 4.02 88 23:19 18.07.2022
987 Clear 30 1019 48 10000 3.58 89 22:22 18.07.2022
988 Clear 31 1017 44 10000 3.13 148 20:52 18.07.2022
989 Clear 33 1018 38 10000 4.12 130 19:33 18.07.2022
990 Clear 34 1020 38 10000 4.12 120 17:52 18.07.2022
991 Clear 34 1020 35 10000 3.09 170 15:57 18.07.2022
992 Clear 34 1018 33 10000 2.06 0 15:18 18.07.2022
993 Clear 32 1019 37 10000 3.6 140 13:24 18.07.2022
994 Clear 30 1021 38 10000 4.12 120 11:31 18.07.2022
995 Clear 28 1022 44 10000 4.92 144 09:43 18.07.2022
996 Clouds 26 1021 54 10000 3.13 106 07:45 18.07.2022
997 Clear 27 1020 57 10000 2.57 70 02:21 18.07.2022
998 Clear 29 1019 53 10000 2.57 90 22:51 17.07.2022
999 Clear 30 1019 53 10000 2.68 96 22:23 17.07.2022
1000 Clear 31 1018 50 10000 3.09 120 21:24 17.07.2022
1001 Clear 31 1018 48 10000 3.6 120 20:44 17.07.2022
1002 Clear 34 1019 43 10000 2.57 130 19:34 17.07.2022
1003 Clear 34 1016 39 10000 3.6 120 18:56 17.07.2022
1004 Clear 35 1018 38 10000 3.6 120 17:39 17.07.2022
1005 Clear 34 1018 40 10000 3.6 140 16:51 17.07.2022
1006 Clear 35 1019 37 10000 3.09 160 16:27 17.07.2022
1007 Clear 34 1018 36 10000 4.12 140 14:58 17.07.2022
1008 Clear 32 1019 44 10000 4.63 110 13:34 17.07.2022
1009 Clear 31 1020 46 10000 5.14 100 12:22 17.07.2022
1010 Clouds 27 1020 58 10000 4.63 120 09:30 17.07.2022
1011 Clear 25 1018 61 10000 2.06 90 05:54 17.07.2022
1012 Clear 27 1017 60 10000 2.24 89 02:33 17.07.2022
1013 Clear 29 1014 54 10000 1.54 160 23:21 16.07.2022
1014 Clear 31 1013 48 10000 2.06 190 21:47 16.07.2022
1015 Clear 34 1012 39 10000 2.68 233 19:53 16.07.2022
1016 Clear 35 1013 36 10000 2.06 170 18:35 16.07.2022
1017 Clouds 35 1016 39 10000 0.89 161 17:19 16.07.2022
1018 Clouds 33 1014 43 10000 1.2 134 14:31 16.07.2022
1019 Clear 29 1016 50 10000 3.09 150 11:38 16.07.2022
1020 Clear 27 1016 56 10000 3.09 100 09:35 16.07.2022
1021 Clear 26 1016 57 10000 3.58 101 08:47 16.07.2022
1022 Clear 26 1016 58 10000 2.68 103 08:29 16.07.2022
1023 Clear 25 1013 61 10000 1.03 0 04:28 16.07.2022
1024 Clear 25 1014 61 10000 1.03 0 03:29 16.07.2022
1025 Clouds 28 1012 52 10000 3.09 260 23:38 15.07.2022
1026 Clear 29 1012 50 10000 2.68 254 22:41 15.07.2022
1027 Clear 31 1010 45 10000 3.13 187 21:29 15.07.2022
1028 Clear 34 1010 38 10000 4.02 234 20:31 15.07.2022
1029 Clear 36 1009 30 10000 4.02 212 18:44 15.07.2022
1030 Clear 37 1009 28 10000 2.57 0 17:44 15.07.2022
1031 Clear 36 1012 40 10000 2.57 240 14:54 15.07.2022
1032 Clear 34 1012 45 10000 2.68 182 13:18 15.07.2022
1033 Clear 32 1011 44 10000 3.13 192 11:44 15.07.2022
1034 Clear 30 1012 53 10000 3.09 260 10:23 15.07.2022
1035 Clear 24 1013 59 10000 2.24 251 06:30 15.07.2022
1036 Clear 26 1015 45 10000 2.57 260 01:32 15.07.2022
1037 Clear 28 1015 42 10000 2.68 230 00:22 15.07.2022
1038 Clear 29 1015 48 10000 3.58 209 22:52 14.07.2022
1039 Clear 30 1014 46 10000 1.54 200 21:51 14.07.2022
1040 Clear 31 1015 44 10000 1.54 210 21:30 14.07.2022
1041 Clear 32 1014 41 10000 2.06 210 20:45 14.07.2022
1042 Clear 33 1014 36 10000 2.68 237 20:21 14.07.2022
1043 Clear 34 1014 36 10000 1.54 0 19:18 14.07.2022
1044 Clouds 34 1015 32 10000 1.79 181 16:23 14.07.2022
1045 Clouds 33 1018 40 10000 1.03 0 15:32 14.07.2022
1046 Clouds 32 1018 40 10000 1.03 0 13:59 14.07.2022
1047 Clear 31 1018 41 10000 2.57 0 12:58 14.07.2022
1048 Clear 31 1018 43 10000 2.24 181 11:47 14.07.2022
1049 Clear 30 1018 44 10000 2.06 0 11:23 14.07.2022
1050 Clouds 28 1020 49 10000 1.34 106 09:54 14.07.2022
1051 Clear 24 1020 64 10000 1.54 40 07:47 14.07.2022
1052 Clear 25 1020 62 10000 0.51 0 01:25 14.07.2022
1053 Clear 25 1020 62 10000 0.51 0 00:53 14.07.2022
1054 Clear 27 1019 53 10000 1.03 200 22:33 13.07.2022
1055 Clear 28 1019 49 10000 1.03 190 21:57 13.07.2022
1056 Clear 30 1019 43 10000 2.57 200 20:53 13.07.2022
1057 Clear 32 1019 39 10000 2.06 240 19:30 13.07.2022
1058 Clear 33 1020 38 10000 2.57 0 17:51 13.07.2022
1059 Clouds 32 1021 38 10000 2.06 140 16:40 13.07.2022
1060 Clouds 32 1019 37 10000 2.68 207 15:24 13.07.2022
1061 Clear 30 1020 44 10000 1.79 147 12:55 13.07.2022
1062 Clear 27 1023 52 10000 4.12 130 10:46 13.07.2022
1063 Clear 27 1023 53 10000 4.63 120 10:24 13.07.2022
1064 Clear 25 1023 59 10000 5.14 110 09:24 13.07.2022
1065 Clear 22 1021 65 10000 2.68 80 06:20 13.07.2022
1066 Clear 25 1020 58 10000 4.47 114 02:21 13.07.2022
1067 Clouds 27 1019 55 10000 3.09 120 23:45 12.07.2022
1068 Clear 28 1018 52 10000 3.09 130 21:57 12.07.2022
1069 Clear 29 1018 50 10000 4.12 140 21:29 12.07.2022
1070 Clear 30 1017 47 10000 3.09 140 20:41 12.07.2022
1071 Clear 31 1015 41 10000 2.57 140 19:26 12.07.2022
1072 Clouds 32 1017 40 10000 1.79 193 17:49 12.07.2022
1073 Clouds 32 1016 37 10000 2.57 140 15:57 12.07.2022
1074 Clouds 30 1016 41 10000 1.34 150 14:31 12.07.2022
1075 Clear 28 1020 48 10000 4.47 112 12:29 12.07.2022
1076 Clear 27 1020 50 10000 3.6 130 11:22 12.07.2022
1077 Clouds 25 1020 56 10000 4.63 110 09:38 12.07.2022
1078 Clouds 24 1019 54 10000 5.36 103 08:19 12.07.2022
1079 Clouds 22 1019 58 10000 2.06 90 06:29 12.07.2022
1080 Clear 23 1019 56 10000 3.09 80 05:39 12.07.2022
1081 Clear 24 1018 56 10000 4.12 80 02:21 12.07.2022
1082 Clouds 27 1017 49 10000 2.57 110 23:28 11.07.2022
1083 Clouds 28 1016 50 10000 2.06 110 22:30 11.07.2022
1084 Clear 30 1014 44 10000 3.09 120 20:33 11.07.2022
1085 Clear 31 1015 37 10000 3.6 130 19:36 11.07.2022
1086 Clear 32 1013 30 10000 3.6 150 18:32 11.07.2022
1087 Clear 32 1015 36 10000 3.6 160 17:46 11.07.2022
1088 Clear 32 1014 34 10000 3.6 140 16:19 11.07.2022
1089 Clear 31 1016 39 10000 2.57 130 14:38 11.07.2022
1090 Clear 28 1017 45 10000 4.92 147 11:49 11.07.2022
1091 Clear 27 1017 53 10000 5.14 100 10:29 11.07.2022
1092 Clear 26 1017 55 10000 5.66 100 09:42 11.07.2022
1093 Clear 25 1017 52 10000 5.81 143 08:34 11.07.2022
1094 Clear 22 1016 56 10000 2.06 110 05:51 11.07.2022
1095 Clear 26 1014 42 10000 2.68 253 00:22 11.07.2022
1096 Clear 27 1014 40 10000 2.24 296 22:58 10.07.2022
1097 Clear 29 1012 34 10000 1.79 247 21:51 10.07.2022
1098 Clear 31 1012 33 10000 3.58 232 20:54 10.07.2022
1099 Clear 32 1012 31 10000 4.02 191 19:50 10.07.2022
1100 Clear 33 1012 30 10000 4.92 223 18:49 10.07.2022
1101 Clear 33 1012 29 10000 4.02 220 17:37 10.07.2022
1102 Clear 33 1013 29 10000 6.71 220 16:57 10.07.2022
1103 Clear 32 1013 29 10000 5.36 228 15:33 10.07.2022
1104 Clear 31 1013 31 10000 6.71 229 14:30 10.07.2022
1105 Clear 30 1014 32 10000 4.02 237 12:29 10.07.2022
1106 Clear 28 1014 35 10000 3.13 231 11:20 10.07.2022
1107 Clear 25 1018 45 10000 1.54 30 08:45 10.07.2022
1108 Clear 21 1017 61 10000 1.54 10 07:39 10.07.2022
1109 Clouds 22 1017 51 10000 2.57 40 02:47 10.07.2022
1110 Clouds 26 1018 48 10000 3.09 110 22:51 09.07.2022
1111 Clouds 26 1018 47 10000 3.09 120 22:24 09.07.2022
1112 Clear 27 1017 44 10000 4.12 130 21:28 09.07.2022
1113 Clouds 31 1017 37 10000 4.63 120 18:43 09.07.2022
1114 Clouds 31 1017 36 10000 3.6 140 17:45 09.07.2022
1115 Rain 30 1018 35 10000 3.09 0 16:44 09.07.2022
1116 Clear 31 1017 34 10000 4.12 140 15:41 09.07.2022
1117 Clear 30 1017 34 10000 3.09 150 14:43 09.07.2022
1118 Clear 29 1019 36 10000 4.92 177 13:50 09.07.2022
1119 Clear 29 1020 39 10000 4.12 130 12:47 09.07.2022
1120 Clear 27 1020 40 10000 4.12 130 11:31 09.07.2022
1121 Clear 26 1021 42 10000 5.66 100 10:23 09.07.2022
1122 Clear 24 1022 49 10000 2.57 100 07:53 09.07.2022
1123 Clear 20 1021 59 10000 1.54 50 05:24 09.07.2022
1124 Clear 23 1020 51 10000 3.13 69 02:34 09.07.2022
1125 Clear 26 1018 45 10000 1.34 45 22:59 08.07.2022
1126 Clear 28 1018 38 10000 2.24 68 21:59 08.07.2022
1127 Clear 30 1017 34 10000 3.6 140 20:42 08.07.2022
1128 Clear 30 1017 33 10000 4.12 150 20:23 08.07.2022
1129 Clear 32 1017 30 10000 3.6 180 18:26 08.07.2022
1130 Clear 32 1018 30 10000 3.6 180 17:21 08.07.2022
1131 Clear 31 1018 31 10000 6.26 166 14:54 08.07.2022
1132 Clear 30 1018 35 10000 3.6 190 13:45 08.07.2022
1133 Clear 28 1019 41 10000 2.57 190 11:59 08.07.2022
1134 Clear 26 1019 51 10000 2.57 210 10:37 08.07.2022
1135 Clear 23 1020 63 10000 1.34 206 08:37 08.07.2022
1136 Clear 20 1019 75 10000 1.03 0 06:50 08.07.2022
1137 Clear 22 1017 69 10000 5.66 110 01:31 08.07.2022
1138 Clear 27 1015 40 10000 9.77 10 23:22 07.07.2022
1139 Clear 29 1016 24 10000 10.8 10 22:35 07.07.2022
1140 Clear 31 1012 20 10000 6.17 350 20:36 07.07.2022
1141 Clear 33 1012 32 10000 2.57 220 18:20 07.07.2022
1142 Clear 33 1012 31 10000 2.68 201 16:53 07.07.2022
1143 Clear 31 1014 37 10000 3.13 173 14:35 07.07.2022
1144 Clear 30 1015 41 10000 4.12 130 13:25 07.07.2022
1145 Clear 29 1016 43 10000 4.02 116 12:24 07.07.2022
1146 Clear 28 1016 47 10000 4.12 140 11:45 07.07.2022
1147 Clear 28 1016 49 10000 4.63 140 11:27 07.07.2022
1148 Clear 27 1017 51 10000 6.17 140 10:42 07.07.2022
1149 Clear 27 1017 52 10000 5.66 140 10:24 07.07.2022
1150 Clear 22 1016 73 10000 2.06 60 06:58 07.07.2022
1151 Clouds 24 1016 70 10000 2.06 90 01:51 07.07.2022
1152 Clouds 25 1016 68 10000 2.79 65 23:36 06.07.2022
1153 Clear 28 1015 54 10000 2.06 80 23:18 06.07.2022
1154 Clear 28 1014 53 10000 2.06 80 22:52 06.07.2022
1155 Clear 28 1015 53 10000 2.06 100 22:34 06.07.2022
1156 Clear 30 1013 46 10000 3.09 150 20:36 06.07.2022
1157 Clear 31 1015 45 10000 2.57 160 19:34 06.07.2022
1158 Clear 32 1014 40 10000 4.02 57 17:32 06.07.2022
1159 Clouds 32 1015 40 10000 3.58 164 15:59 06.07.2022
1160 Clouds 31 1016 42 10000 3.13 134 13:56 06.07.2022
1161 Clouds 29 1017 49 10000 4.47 92 12:30 06.07.2022
1162 Clouds 29 1018 50 10000 4.47 92 12:30 06.07.2022
1163 Clear 28 1018 50 10000 3.58 113 11:44 06.07.2022
1164 Clear 26 1018 58 10000 4.12 70 10:18 06.07.2022
1165 Clouds 24 1016 65 10000 3.09 90 07:44 06.07.2022
1166 Clouds 23 1017 67 10000 3.09 110 07:19 06.07.2022
1167 Clouds 27 1015 59 10000 2.57 80 01:20 06.07.2022
1168 Clouds 29 1013 44 10000 1.54 230 22:44 05.07.2022
1169 Clouds 31 1012 42 10000 3.58 245 21:29 05.07.2022
1170 Clear 33 1012 37 10000 4.02 251 20:35 05.07.2022
1171 Clouds 34 1012 35 10000 2.68 254 19:40 05.07.2022
1172 Clouds 35 1012 33 10000 4.02 249 18:23 05.07.2022
1173 Clouds 34 1012 33 10000 4.63 210 17:39 05.07.2022
1174 Clouds 34 1011 34 10000 2.68 168 16:36 05.07.2022
1175 Clear 34 1012 35 10000 3.09 210 14:55 05.07.2022
1176 Clear 33 1013 38 10000 3.58 240 13:36 05.07.2022
1177 Clear 31 1014 45 10000 2.57 230 12:41 05.07.2022
1178 Clear 28 1012 57 10000 2.06 230 10:46 05.07.2022
1179 Clear 27 1013 60 10000 2.68 261 09:58 05.07.2022
1180 Clear 23 1014 76 10000 1.03 0 08:23 05.07.2022
1181 Clear 21 1014 83 10000 2.06 250 07:20 05.07.2022
1182 Clouds 20 1013 85 10000 1.54 0 04:39 05.07.2022
1183 Clear 22 1015 74 10000 4.02 273 01:33 05.07.2022
1184 Clear 23 1015 74 10000 2.57 200 23:38 04.07.2022
1185 Clouds 23 1015 73 10000 2.06 190 22:58 04.07.2022
1186 Clouds 24 1014 66 10000 3.13 144 22:19 04.07.2022
1187 Clouds 25 1013 66 10000 3.58 355 20:57 04.07.2022
1188 Clouds 26 1012 31 10000 2.82 236 20:37 04.07.2022
1189 Clouds 24 1012 31 10000 2.84 235 19:57 04.07.2022
1190 Rain 26 1010 24 10000 2.61 281 19:37 04.07.2022
1191 Rain 31 1013 42 10000 1.03 0 18:54 04.07.2022
1192 Clouds 35 1015 38 10000 3.09 60 16:58 04.07.2022
1193 Clear 34 1012 31 10000 4.02 184 15:40 04.07.2022
1194 Clear 33 1013 37 10000 4.02 93 14:19 04.07.2022
1195 Clouds 32 1015 41 10000 4.12 60 12:55 04.07.2022
1196 Clouds 29 1016 56 10000 1.54 320 10:57 04.07.2022
1197 Clouds 28 1016 54 10000 1.34 10 10:27 04.07.2022
1198 Clouds 27 1016 60 10000 3.09 100 09:21 04.07.2022
1199 Clouds 24 1016 58 10000 1.03 0 06:27 04.07.2022
1200 Clouds 27 1015 47 10000 4.92 16 01:49 04.07.2022
1201 Clear 27 1016 54 10000 0.51 0 23:52 03.07.2022
1202 Clouds 29 1014 46 10000 2.06 180 22:29 03.07.2022
1203 Clouds 33 1014 35 10000 1.54 200 20:45 03.07.2022
1204 Clear 35 1014 33 10000 2.68 317 19:43 03.07.2022
1205 Clear 35 1014 33 10000 3.09 260 19:24 03.07.2022
1206 Clear 36 1014 33 10000 4.02 276 18:23 03.07.2022
1207 Clear 36 1014 33 10000 2.24 258 17:31 03.07.2022
1208 Clear 35 1015 34 10000 4.02 206 15:26 03.07.2022
1209 Clouds 35 1015 34 10000 2.57 220 14:49 03.07.2022
1210 Clear 34 1015 37 10000 2.68 219 13:49 03.07.2022
1211 Clear 33 1016 40 10000 2.24 143 12:42 03.07.2022
1212 Clear 32 1016 45 10000 3.58 167 11:46 03.07.2022
1213 Clear 31 1016 43 10000 2.06 160 10:40 03.07.2022
1214 Clear 30 1016 44 10000 2.68 166 10:20 03.07.2022
1215 Clear 25 1017 61 10000 0.51 0 07:38 03.07.2022
1216 Clear 23 1016 64 10000 1.03 170 05:34 03.07.2022
1217 Clear 27 1016 52 10000 1.34 5 00:26 03.07.2022
1218 Clear 29 1016 46 10000 2.24 293 22:37 02.07.2022
1219 Clear 29 1016 46 10000 1.34 257 22:18 02.07.2022
1220 Clear 33 1016 33 10000 2.24 192 20:21 02.07.2022
1221 Clear 33 1016 32 10000 2.06 150 19:49 02.07.2022
1222 Clear 33 1017 33 10000 2.24 63 17:59 02.07.2022
1223 Clear 33 1017 33 10000 2.68 160 17:37 02.07.2022
1224 Clear 33 1017 36 10000 3.13 187 15:37 02.07.2022
1225 Clear 31 1018 46 10000 2.68 138 12:49 02.07.2022
1226 Clear 29 1018 47 10000 2.06 110 11:28 02.07.2022
1227 Clear 29 1018 51 10000 3.13 121 10:48 02.07.2022
1228 Clear 27 1018 52 10000 2.24 45 09:49 02.07.2022
1229 Clear 25 1018 60 10000 1.54 80 08:37 02.07.2022
1230 Clear 24 1018 61 10000 1.54 70 08:19 02.07.2022
1231 Clear 23 1015 66 10000 2.06 260 02:53 02.07.2022
1232 Clear 25 1015 58 10000 3.58 244 00:27 02.07.2022
1233 Clear 26 1013 54 10000 4.47 233 22:59 01.07.2022
1234 Clear 27 1013 52 10000 3.58 236 22:26 01.07.2022
1235 Clear 28 1013 52 10000 1.34 268 21:37 01.07.2022
1236 Clear 30 1013 46 10000 2.06 210 20:58 01.07.2022
1237 Clouds 31 1012 38 10000 2.06 220 19:48 01.07.2022
1238 Clouds 32 1012 37 10000 4.02 251 19:22 01.07.2022
1239 Clouds 31 1012 39 10000 2.57 180 16:38 01.07.2022
1240 Clear 30 1011 42 10000 3.09 180 14:21 01.07.2022
1241 Clear 30 1012 42 10000 4.02 232 13:23 01.07.2022
1242 Clear 27 1012 48 10000 3.13 239 10:53 01.07.2022
1243 Clear 26 1011 51 10000 3.13 214 10:19 01.07.2022
1244 Clear 22 1012 72 10000 1.54 20 06:20 01.07.2022
1245 Clear 24 1012 41 10000 2.57 280 01:57 01.07.2022
1246 Clear 24 1011 66 10000 0.51 0 23:34 30.06.2022
1247 Clear 26 1011 57 10000 1.03 0 22:47 30.06.2022
1248 Clear 26 1011 61 10000 1.03 230 22:27 30.06.2022
1249 Clouds 27 1010 51 10000 1.03 0 21:51 30.06.2022
1250 Clouds 30 1010 51 10000 1.54 210 20:41 30.06.2022
1251 Clear 31 1009 47 10000 2.57 170 19:55 30.06.2022
1252 Clear 31 1009 47 10000 2.68 175 19:35 30.06.2022
1253 Clear 31 1010 45 10000 2.57 180 18:43 30.06.2022
1254 Clouds 32 1010 44 10000 2.24 223 17:49 30.06.2022
1255 Clouds 31 1010 45 10000 2.68 188 16:55 30.06.2022
1256 Clouds 31 1011 45 10000 3.13 161 15:50 30.06.2022
1257 Clouds 30 1011 49 10000 2.68 135 13:51 30.06.2022
1258 Clouds 30 1011 51 10000 2.24 178 13:18 30.06.2022
1259 Clouds 29 1011 53 10000 2.68 149 12:32 30.06.2022
1260 Clear 26 1012 61 10000 2.57 230 10:19 30.06.2022
1261 Clear 25 1011 65 10000 2.06 260 09:40 30.06.2022
1262 Clear 24 1012 72 10000 2.57 290 08:22 30.06.2022
1263 Clear 23 1012 76 10000 1.54 290 07:40 30.06.2022
1264 Clear 22 1011 73 10000 1.54 290 03:35 30.06.2022
1265 Clear 25 1011 65 10000 3.09 260 23:38 29.06.2022
1266 Clear 26 1010 60 10000 3.58 222 22:41 29.06.2022
1267 Clear 27 1009 53 10000 2.68 215 21:59 29.06.2022
1268 Clouds 30 1008 46 10000 2.68 171 20:35 29.06.2022
1269 Clear 31 1008 43 10000 3.58 212 19:56 29.06.2022
1270 Clear 32 1009 39 10000 3.13 212 17:55 29.06.2022
1271 Clear 32 1009 40 10000 3.58 222 16:55 29.06.2022
1272 Clear 31 1009 41 10000 2.68 173 15:44 29.06.2022
1273 Clear 30 1009 51 10000 4.02 229 13:43 29.06.2022
1274 Clear 28 1009 52 10000 3.09 250 12:36 29.06.2022
1275 Clear 23 1010 72 10000 3.6 250 09:46 29.06.2022
1276 Clear 23 1011 74 10000 4.02 235 09:22 29.06.2022
1277 Clouds 20 1011 79 10000 2.68 230 06:28 29.06.2022
1278 Clouds 21 1012 76 10000 3.13 269 02:59 29.06.2022
1279 Clouds 21 1012 74 10000 2.57 210 00:52 29.06.2022
1280 Clouds 21 1012 73 10000 5.14 180 00:33 29.06.2022
1281 Clouds 24 1012 65 10000 1.03 0 22:49 28.06.2022
1282 Clouds 27 1011 54 10000 2.06 310 21:57 28.06.2022
1283 Clouds 26 1011 54 10000 2.06 310 21:38 28.06.2022
1284 Clouds 28 1011 57 10000 2.06 230 21:19 28.06.2022
1285 Clouds 26 1011 55 10000 4.23 303 19:54 28.06.2022
1286 Rain 27 1011 56 10000 3.93 309 19:28 28.06.2022
1287 Clouds 29 1010 51 10000 2.68 56 18:38 28.06.2022
1288 Clouds 28 1012 55 10000 4.63 40 16:47 28.06.2022
1289 Clouds 27 1013 61 10000 4.63 40 15:54 28.06.2022
1290 Clouds 25 1013 68 10000 5.66 30 14:48 28.06.2022
1291 Rain 25 1015 70 8000 6.17 30 14:18 28.06.2022
1292 Thunderstorm 24 1015 74 8000 4.12 30 13:45 28.06.2022
1293 Rain 28 1014 51 10000 1.79 102 11:58 28.06.2022
1294 Clouds 27 1014 57 10000 4.63 110 09:50 28.06.2022
1295 Rain 27 1014 58 10000 3.58 125 08:54 28.06.2022
1296 Clouds 26 1014 65 10000 2.06 110 07:58 28.06.2022
1297 Clear 25 1015 66 10000 2.06 50 07:19 28.06.2022
1298 Clear 24 1014 71 10000 1.54 60 02:25 28.06.2022
1299 Clouds 27 1014 60 10000 1.54 130 23:47 27.06.2022
1300 Clouds 26 1014 69 10000 0.51 0 22:56 27.06.2022
1301 Clouds 30 1014 51 10000 1.03 230 21:39 27.06.2022
1302 Clouds 31 1013 45 10000 0.51 0 21:18 27.06.2022
1303 Clear 33 1012 40 10000 2.57 140 19:48 27.06.2022
1304 Clear 33 1012 38 10000 3.09 140 18:40 27.06.2022
1305 Clear 33 1013 37 10000 3.09 160 17:24 27.06.2022
1306 Clear 33 1013 38 10000 3.6 110 15:43 27.06.2022
1307 Clear 31 1013 44 10000 3.58 142 13:44 27.06.2022
1308 Clear 31 1013 45 10000 4.02 113 12:57 27.06.2022
1309 Clear 28 1014 51 10000 3.13 98 10:43 27.06.2022
1310 Clear 27 1014 56 10000 2.57 160 09:37 27.06.2022
1311 Clear 25 1015 70 10000 1.03 260 08:32 27.06.2022
1312 Clear 24 1013 69 10000 0.51 0 07:39 27.06.2022
1313 Clear 24 1015 67 10000 1.54 60 04:40 27.06.2022
1314 Clear 24 1015 68 10000 2.57 30 01:20 27.06.2022
1315 Clouds 27 1013 55 10000 2.06 60 22:47 26.06.2022
1316 Clouds 30 1013 45 10000 2.57 70 20:55 26.06.2022
1317 Clouds 31 1012 44 10000 1.79 49 19:59 26.06.2022
1318 Clouds 32 1012 41 10000 2.24 139 18:32 26.06.2022
1319 Clouds 32 1013 39 10000 2.68 203 17:33 26.06.2022
1320 Clouds 32 1013 42 10000 1.34 86 15:31 26.06.2022
1321 Clouds 31 1013 41 10000 2.68 143 13:55 26.06.2022
1322 Clouds 30 1014 44 10000 1.34 41 13:23 26.06.2022
1323 Clear 28 1015 48 10000 2.57 100 11:31 26.06.2022
1324 Clear 27 1016 52 10000 1.54 0 10:29 26.06.2022
1325 Clear 27 1016 53 10000 1.54 0 10:29 26.06.2022
1326 Clear 26 1015 55 10000 2.06 0 09:39 26.06.2022
1327 Clear 23 1015 68 10000 1.54 80 07:46 26.06.2022
1328 Clouds 22 1012 65 10000 1.54 330 03:19 26.06.2022
1329 Clear 23 1013 61 10000 2.57 260 00:36 26.06.2022
1330 Clear 23 1013 60 10000 4.02 226 00:18 26.06.2022
1331 Clear 24 1012 56 10000 2.68 228 23:24 25.06.2022
1332 Clear 25 1012 52 10000 3.13 229 22:28 25.06.2022
1333 Clouds 26 1011 48 10000 3.58 222 21:50 25.06.2022
1334 Clouds 28 1011 49 10000 2.24 208 21:20 25.06.2022
1335 Clouds 29 1011 45 10000 1.79 200 20:30 25.06.2022
1336 Clouds 30 1010 42 10000 2.06 210 19:54 25.06.2022
1337 Clouds 30 1011 41 10000 4.47 212 18:19 25.06.2022
1338 Clouds 30 1011 42 10000 4.02 203 17:25 25.06.2022
1339 Clear 29 1011 43 10000 2.68 208 15:42 25.06.2022
1340 Clouds 28 1012 49 10000 2.57 250 13:48 25.06.2022
1341 Clouds 28 1012 51 10000 4.02 221 12:38 25.06.2022
1342 Clouds 25 1014 58 10000 1.54 290 10:45 25.06.2022
1343 Clear 23 1013 63 10000 1.54 210 09:22 25.06.2022
1344 Clear 22 1014 68 10000 2.06 170 08:41 25.06.2022
1345 Clear 21 1013 72 10000 2.57 190 08:19 25.06.2022
1346 Clear 19 1011 78 10000 1.79 358 04:18 25.06.2022
1347 Clouds 20 1012 80 10000 0.89 327 00:38 25.06.2022
1348 Clouds 20 1011 85 10000 2.06 357 22:55 24.06.2022
1349 Clouds 23 1010 68 10000 3.09 50 21:42 24.06.2022
1350 Clouds 24 1010 67 10000 3.09 50 20:48 24.06.2022
1351 Clear 25 1008 63 10000 3.09 80 20:19 24.06.2022
1352 Clear 25 1009 63 10000 1.03 0 19:21 24.06.2022
1353 Clouds 25 1009 64 10000 1.54 0 18:49 24.06.2022
1354 Clouds 25 1009 64 10000 1.34 239 18:30 24.06.2022
1355 Clouds 21 1006 42 10000 6.77 213 17:21 24.06.2022
1356 Rain 28 1008 47 10000 4.12 120 15:47 24.06.2022
1357 Clouds 29 1008 46 10000 4.63 140 14:28 24.06.2022
1358 Clouds 29 1008 46 10000 4.92 127 13:55 24.06.2022
1359 Clouds 27 1010 53 10000 3.09 120 11:44 24.06.2022
1360 Clouds 27 1010 56 10000 3.09 110 11:18 24.06.2022
1361 Clouds 26 1011 61 10000 1.79 146 09:55 24.06.2022
1362 Clear 25 1011 64 10000 1.79 163 09:29 24.06.2022
1363 Clouds 25 1012 68 10000 1.79 147 08:52 24.06.2022
1364 Clear 22 1011 80 10000 1.06 292 06:48 24.06.2022
1365 Clear 20 1012 86 10000 1.03 170 06:30 24.06.2022
1366 Clear 21 1011 81 10000 0.89 221 05:52 24.06.2022
1367 Clouds 23 1011 71 10000 2.24 204 01:21 24.06.2022
1368 Clouds 24 1011 68 10000 2.06 250 22:44 23.06.2022
1369 Clouds 24 1011 66 10000 4.12 220 21:54 23.06.2022
1370 Clouds 25 1013 75 10000 0.45 299 20:54 23.06.2022
1371 Clouds 27 1010 65 10000 4.12 130 20:32 23.06.2022
1372 Clouds 28 1010 58 10000 4.02 125 18:44 23.06.2022
1373 Clouds 29 1011 54 10000 2.68 186 17:44 23.06.2022
1374 Clouds 29 1012 55 10000 3.13 196 16:36 23.06.2022
1375 Rain 29 1012 54 10000 2.06 240 15:29 23.06.2022
1376 Rain 29 1013 57 10000 2.06 240 14:51 23.06.2022
1377 Clouds 29 1012 54 10000 2.57 220 11:54 23.06.2022
1378 Clouds 28 1013 60 10000 2.57 220 10:56 23.06.2022
1379 Clouds 25 1013 72 10000 1.34 249 09:20 23.06.2022
1380 Clear 20 1012 88 10000 0.89 306 05:48 23.06.2022
1381 Clear 22 1011 86 10000 1.34 245 01:21 23.06.2022
1382 Clear 23 1011 82 10000 1.03 200 00:18 23.06.2022
1383 Clear 23 1012 81 10000 0.51 0 23:22 22.06.2022
1384 Clear 24 1010 77 10000 1.03 0 21:44 22.06.2022
1385 Clouds 25 1010 74 10000 1.54 270 20:52 22.06.2022
1386 Clouds 25 1010 73 10000 1.79 230 20:20 22.06.2022
1387 Clouds 25 1010 75 10000 3.13 242 19:43 22.06.2022
1388 Rain 27 1010 59 10000 2.57 180 17:40 22.06.2022
1389 Rain 28 1010 58 10000 2.68 196 16:41 22.06.2022
1390 Rain 28 1011 57 10000 2.68 123 15:29 22.06.2022
1391 Clouds 28 1012 59 10000 2.24 188 14:47 22.06.2022
1392 Clouds 28 1012 60 10000 3.09 120 13:47 22.06.2022
1393 Clouds 27 1013 67 10000 4.12 140 13:24 22.06.2022
1394 Clouds 26 1013 69 10000 4.12 130 12:18 22.06.2022
1395 Clouds 25 1012 74 7000 2.68 122 11:29 22.06.2022
1396 Rain 24 1012 78 7000 2.57 80 10:43 22.06.2022
1397 Rain 24 1013 72 10000 1.79 102 09:18 22.06.2022
1398 Clouds 23 1012 74 10000 1.54 220 06:55 22.06.2022
1399 Clouds 23 1013 72 10000 2.75 260 01:59 22.06.2022
1400 Clouds 22 1013 71 10000 2.58 246 00:57 22.06.2022
1401 Clouds 27 1011 44 10000 3.09 300 22:49 21.06.2022
1402 Rain 29 1010 39 10000 2.57 240 20:47 21.06.2022
1403 Rain 29 1010 48 10000 4.92 209 19:20 21.06.2022
1404 Clouds 31 1010 44 10000 5.81 214 17:47 21.06.2022
1405 Clouds 32 1010 43 10000 5.66 210 16:36 21.06.2022
1406 Clear 29 1012 55 10000 2.24 220 11:56 21.06.2022
1407 Clear 27 1012 59 10000 3.6 270 10:33 21.06.2022
1408 Clear 26 1012 63 10000 3.13 223 08:54 21.06.2022
1409 Clear 25 1012 70 10000 2.06 240 07:40 21.06.2022
1410 Clear 23 1010 70 10000 2.68 274 04:42 21.06.2022
1411 Clear 25 1010 55 10000 3.09 260 23:45 20.06.2022
1412 Clear 27 1009 48 10000 2.68 215 22:21 20.06.2022
1413 Clear 27 1009 49 10000 3.58 222 22:21 20.06.2022
1414 Clear 28 1009 45 10000 3.58 223 21:33 20.06.2022
1415 Clear 30 1009 42 10000 3.58 172 20:27 20.06.2022
1416 Clear 32 1009 40 10000 3.13 173 19:23 20.06.2022
1417 Clear 33 1009 37 10000 4.47 213 18:25 20.06.2022
1418 Clear 34 1009 37 10000 3.6 230 17:44 20.06.2022
1419 Clear 34 1010 38 10000 4.12 220 16:24 20.06.2022
1420 Clear 33 1010 39 10000 4.02 228 14:41 20.06.2022
1421 Clear 30 1012 37 10000 2.24 196 11:47 20.06.2022
1422 Clear 28 1013 47 10000 1.54 0 09:55 20.06.2022
1423 Clear 27 1013 51 10000 1.54 170 08:46 20.06.2022
1424 Clear 24 1013 59 10000 0.89 132 07:36 20.06.2022
1425 Clear 23 1014 68 10000 1.03 360 04:30 20.06.2022
1426 Clear 26 1013 47 10000 2.68 298 01:32 20.06.2022
1427 Clear 28 1012 46 10000 1.79 214 23:48 19.06.2022
1428 Clouds 29 1013 45 10000 2.57 110 22:20 19.06.2022
1429 Clouds 30 1013 43 10000 2.57 120 21:42 19.06.2022
1430 Clear 31 1012 41 10000 2.57 150 20:52 19.06.2022
1431 Clear 32 1012 38 10000 2.68 136 19:49 19.06.2022
1432 Clear 33 1012 37 10000 2.68 202 19:25 19.06.2022
1433 Clear 33 1012 36 10000 2.68 147 18:32 19.06.2022
1434 Clear 34 1013 35 10000 2.68 148 17:43 19.06.2022
1435 Clear 33 1013 35 10000 4.02 190 17:20 19.06.2022
1436 Clear 33 1013 34 10000 3.6 120 16:28 19.06.2022
1437 Clear 33 1013 33 10000 5.36 151 15:35 19.06.2022
1438 Clear 32 1014 32 10000 3.6 130 14:42 19.06.2022
1439 Clear 32 1014 31 10000 3.6 120 13:52 19.06.2022
1440 Clear 31 1015 33 10000 3.6 120 12:22 19.06.2022
1441 Clear 29 1016 41 10000 5.81 69 10:53 19.06.2022
1442 Clear 27 1017 48 10000 2.68 118 09:21 19.06.2022
1443 Clear 26 1017 57 10000 1.03 0 08:32 19.06.2022
1444 Clear 23 1016 63 10000 2.57 90 07:26 19.06.2022
1445 Clear 23 1016 63 10000 2.57 90 07:26 19.06.2022
1446 Clouds 23 1016 60 10000 0.89 39 03:57 19.06.2022
1447 Clear 26 1016 51 10000 2.57 100 00:51 19.06.2022
1448 Clear 27 1016 51 10000 2.57 110 00:22 19.06.2022
1449 Clear 27 1017 53 10000 1.54 90 23:35 18.06.2022
1450 Clear 28 1016 48 10000 2.06 90 22:30 18.06.2022
1451 Clear 30 1015 44 10000 2.68 95 20:54 18.06.2022
1452 Clear 31 1016 41 10000 2.24 111 20:18 18.06.2022
1453 Clear 32 1016 38 10000 3.09 120 18:57 18.06.2022
1454 Clear 32 1016 38 10000 3.09 120 18:57 18.06.2022
1455 Clear 32 1016 37 10000 2.68 134 18:38 18.06.2022
1456 Clear 32 1017 36 10000 3.6 140 17:29 18.06.2022
1457 Clear 32 1018 37 10000 3.58 142 16:18 18.06.2022
1458 Clear 32 1019 38 10000 4.47 106 14:58 18.06.2022
1459 Clear 31 1020 38 10000 4.12 110 14:37 18.06.2022
1460 Clear 30 1021 42 10000 5.36 69 12:31 18.06.2022
1461 Clear 29 1021 44 10000 7.15 83 11:25 18.06.2022
1462 Clear 27 1021 49 10000 6.17 110 10:23 18.06.2022
1463 Clear 26 1021 53 10000 5.36 134 08:59 18.06.2022
1464 Clear 25 1021 53 10000 4.02 119 07:34 18.06.2022
1465 Clear 25 1021 52 10000 4.02 116 07:34 18.06.2022
1466 Clear 24 1020 53 10000 2.06 90 05:58 18.06.2022
1467 Clear 26 1019 51 10000 4.12 90 02:51 18.06.2022
1468 Clear 27 1020 59 10000 3.6 80 01:21 18.06.2022
1469 Clear 27 1020 57 10000 2.06 80 00:32 18.06.2022
1470 Clear 27 1019 55 10000 1.54 90 23:40 17.06.2022
1471 Clear 29 1019 50 10000 2.57 110 22:33 17.06.2022
1472 Clear 32 1016 41 10000 2.57 160 20:29 17.06.2022
1473 Clear 33 1016 41 10000 2.06 190 19:24 17.06.2022
1474 Clear 34 1015 38 10000 3.13 200 18:19 17.06.2022
1475 Clear 34 1016 40 10000 3.09 190 16:51 17.06.2022
1476 Clear 34 1016 40 10000 3.6 180 16:25 17.06.2022
1477 Clear 34 1017 42 10000 2.57 220 15:41 17.06.2022
1478 Clear 33 1017 44 10000 2.57 180 14:24 17.06.2022
1479 Clear 32 1017 45 10000 3.09 140 13:59 17.06.2022
1480 Clear 32 1017 44 10000 3.09 140 13:39 17.06.2022
1481 Clear 31 1018 48 10000 2.57 130 12:29 17.06.2022
1482 Clear 30 1018 49 10000 2.06 100 11:55 17.06.2022
1483 Clear 30 1018 51 10000 2.57 70 11:34 17.06.2022
1484 Clouds 28 1019 57 10000 2.68 102 09:46 17.06.2022
1485 Clear 26 1019 65 10000 2.06 110 08:26 17.06.2022
1486 Clear 23 1018 73 10000 1.54 50 06:51 17.06.2022
1487 Clear 24 1017 67 10000 2.06 90 04:19 17.06.2022
1488 Clear 25 1017 59 10000 1.03 0 01:56 17.06.2022
1489 Clear 27 1015 53 10000 1.79 226 00:24 17.06.2022
1490 Clear 28 1015 52 10000 2.57 190 22:42 16.06.2022
1491 Clear 31 1014 41 10000 2.06 250 21:23 16.06.2022
1492 Clear 33 1014 42 10000 2.06 260 20:55 16.06.2022
1493 Clear 33 1013 39 10000 3.09 250 20:35 16.06.2022
1494 Clear 34 1014 42 10000 3.09 250 19:41 16.06.2022
1495 Clear 35 1013 39 10000 3.58 232 18:24 16.06.2022
1496 Clear 35 1014 39 10000 3.6 200 17:42 16.06.2022
1497 Clear 34 1014 41 10000 2.06 0 16:33 16.06.2022
1498 Clear 34 1014 41 10000 2.57 230 15:22 16.06.2022
1499 Clear 33 1015 44 10000 2.24 196 14:30 16.06.2022
1500 Clear 31 1015 46 10000 1.79 177 13:20 16.06.2022
1501 Clear 31 1016 49 10000 1.54 0 12:36 16.06.2022
1502 Clear 30 1016 51 10000 2.06 0 11:49 16.06.2022
1503 Clear 28 1016 54 10000 1.79 149 10:54 16.06.2022
1504 Clear 27 1018 57 10000 2.57 80 09:43 16.06.2022
1505 Clear 26 1018 58 10000 2.57 90 09:20 16.06.2022
1506 Clear 24 1018 67 10000 1.54 80 07:57 16.06.2022
1507 Clear 22 1017 76 10000 0.51 0 07:24 16.06.2022
1508 Clear 22 1017 77 10000 0.51 70 04:33 16.06.2022
1509 Clouds 24 1018 75 10000 4.63 130 01:54 16.06.2022
1510 Clouds 24 1019 74 10000 0.89 25 01:34 16.06.2022
1511 Clouds 24 1019 74 10000 0.89 25 01:34 16.06.2022
1512 Rain 25 1017 72 10000 1.54 190 00:38 16.06.2022
1513 Clouds 26 1018 65 10000 1.03 0 23:25 15.06.2022
1514 Clouds 27 1017 60 10000 1.03 0 22:28 15.06.2022
1515 Clouds 29 1015 49 10000 1.03 270 21:21 15.06.2022
1516 Clouds 30 1016 50 10000 1.54 290 20:38 15.06.2022
1517 Clouds 30 1015 47 10000 1.54 290 20:19 15.06.2022
1518 Clouds 31 1016 47 10000 2.57 250 18:51 15.06.2022
1519 Clouds 31 1016 46 10000 2.06 210 17:55 15.06.2022
1520 Rain 31 1016 44 10000 2.06 240 16:38 15.06.2022
1521 Clear 31 1017 45 10000 1.03 0 15:26 15.06.2022
1522 Clear 30 1018 44 10000 2.06 0 13:43 15.06.2022
1523 Clear 29 1018 43 10000 2.57 160 12:53 15.06.2022
1524 Clear 28 1018 44 10000 3.09 100 11:48 15.06.2022
1525 Clear 26 1018 47 10000 3.6 130 10:23 15.06.2022
1526 Clouds 26 1019 51 10000 1.79 133 09:38 15.06.2022
1527 Clear 24 1018 52 10000 4.02 101 08:27 15.06.2022
1528 Clear 22 1018 63 10000 2.06 80 06:33 15.06.2022
1529 Clear 23 1017 58 10000 3.58 90 03:30 15.06.2022
1530 Clear 24 1018 62 10000 3.13 96 01:38 15.06.2022
1531 Clear 25 1018 60 10000 3.09 120 00:50 15.06.2022
1532 Clear 25 1017 58 10000 3.09 120 23:39 14.06.2022
1533 Clear 26 1017 55 10000 3.09 120 22:52 14.06.2022
1534 Clear 28 1016 53 10000 3.6 120 21:53 14.06.2022
1535 Clear 28 1015 51 10000 3.13 120 21:27 14.06.2022
1536 Clear 29 1016 51 10000 3.6 110 20:48 14.06.2022
1537 Clear 30 1015 47 10000 3.09 90 19:59 14.06.2022
1538 Clear 30 1015 46 10000 3.6 160 18:45 14.06.2022
1539 Clear 31 1015 43 10000 2.68 114 17:29 14.06.2022
1540 Clear 31 1016 43 10000 3.13 146 16:43 14.06.2022
1541 Clear 30 1016 44 10000 3.13 131 15:49 14.06.2022
1542 Clear 30 1016 45 10000 5.14 120 14:57 14.06.2022
1543 Clear 29 1017 46 10000 4.47 119 14:20 14.06.2022
1544 Clear 29 1017 45 10000 4.63 130 13:39 14.06.2022
1545 Clear 28 1017 49 10000 4.63 90 12:27 14.06.2022
1546 Clear 27 1018 51 10000 5.36 109 11:27 14.06.2022
1547 Clouds 26 1018 54 10000 5.66 110 10:35 14.06.2022
1548 Clear 25 1017 57 10000 3.6 130 09:28 14.06.2022
1549 Clear 25 1017 58 10000 3.6 110 08:41 14.06.2022
1550 Clear 22 1017 66 10000 1.54 50 06:54 14.06.2022
1551 Clear 22 1016 71 10000 1.54 50 04:35 14.06.2022
1552 Clear 22 1016 70 10000 2.57 60 02:43 14.06.2022
1553 Clear 23 1015 71 10000 1.03 170 00:27 14.06.2022
1554 Clear 25 1014 62 10000 1.03 0 23:18 13.06.2022
1555 Clouds 27 1013 53 10000 2.24 86 22:24 13.06.2022
1556 Clouds 28 1015 51 10000 2.57 90 21:41 13.06.2022
1557 Clear 31 1011 43 10000 5.14 90 20:19 13.06.2022
1558 Clouds 32 1011 37 10000 3.13 234 19:26 13.06.2022
1559 Clouds 34 1012 32 10000 3.09 240 17:57 13.06.2022
1560 Clouds 34 1012 32 10000 3.09 240 17:35 13.06.2022
1561 Clear 33 1013 33 10000 2.24 206 16:32 13.06.2022
1562 Clear 33 1012 31 10000 2.57 210 14:53 13.06.2022
1563 Clear 32 1013 34 10000 2.57 160 14:33 13.06.2022
1564 Clear 32 1013 36 10000 3.58 187 13:39 13.06.2022
1565 Clear 31 1015 39 10000 2.06 0 12:25 13.06.2022
1566 Clear 29 1016 44 10000 2.06 120 11:18 13.06.2022
1567 Clear 28 1016 45 10000 1.54 50 10:26 13.06.2022
1568 Clear 26 1017 51 10000 1.03 0 09:22 13.06.2022
1569 Clear 22 1015 71 10000 0.51 0 06:55 13.06.2022
1570 Clear 22 1016 71 10000 1.54 330 05:36 13.06.2022
1571 Clear 22 1017 62 10000 1.54 30 02:47 13.06.2022
1572 Clear 22 1017 65 10000 1.03 0 01:36 13.06.2022
1573 Clear 24 1017 57 10000 1.54 240 23:50 12.06.2022
1574 Clear 25 1017 50 10000 1.54 180 22:44 12.06.2022
1575 Clear 26 1017 49 10000 1.54 180 21:58 12.06.2022
1576 Clear 29 1016 37 10000 2.06 190 20:54 12.06.2022
1577 Clear 31 1016 32 10000 3.09 170 20:18 12.06.2022
1578 Clear 32 1016 32 10000 3.09 170 19:30 12.06.2022
1579 Clear 33 1017 33 10000 2.06 0 17:41 12.06.2022
1580 Clear 32 1017 31 10000 4.47 248 15:57 12.06.2022
1581 Clear 32 1017 34 10000 2.24 127 14:51 12.06.2022
1582 Clear 31 1018 35 10000 2.24 178 14:20 12.06.2022
1583 Clear 31 1019 37 10000 3.09 180 13:49 12.06.2022
1584 Clear 29 1021 41 10000 2.57 140 12:32 12.06.2022
1585 Clear 28 1020 42 10000 2.57 170 11:22 12.06.2022
1586 Clear 26 1022 50 10000 2.57 110 10:21 12.06.2022
1587 Clear 25 1021 56 10000 1.54 80 08:52 12.06.2022
1588 Clear 23 1021 60 10000 1.54 70 08:34 12.06.2022
1589 Clear 21 1020 66 10000 1.03 10 07:31 12.06.2022
1590 Clear 19 1020 70 10000 2.06 360 04:35 12.06.2022
1591 Clear 21 1020 67 10000 1.54 360 02:33 12.06.2022
1592 Clear 21 1020 65 10000 1.03 0 01:36 12.06.2022
1593 Clear 22 1020 60 10000 1.03 90 00:58 12.06.2022
1594 Clear 22 1019 62 10000 0.51 60 00:19 12.06.2022
1595 Clear 23 1019 59 10000 0.51 0 23:21 11.06.2022
1596 Clear 24 1019 56 10000 1.03 0 22:38 11.06.2022
1597 Clear 27 1018 39 10000 2.57 120 21:36 11.06.2022
1598 Clear 29 1018 34 10000 2.06 160 20:27 11.06.2022
1599 Clear 30 1018 31 10000 2.68 153 19:37 11.06.2022
1600 Clear 31 1017 31 10000 2.57 0 18:45 11.06.2022
1601 Clear 31 1016 29 10000 2.57 120 18:27 11.06.2022
1602 Clear 31 1017 32 10000 3.58 151 17:48 11.06.2022
1603 Clear 31 1018 32 10000 2.06 0 17:26 11.06.2022
1604 Clear 31 1018 32 10000 2.06 0 17:26 11.06.2022
1605 Clear 31 1018 32 10000 2.57 170 16:44 11.06.2022
1606 Clear 31 1017 31 10000 3.13 202 16:18 11.06.2022
1607 Clear 30 1018 33 10000 1.79 176 14:57 11.06.2022
1608 Clear 29 1018 34 10000 2.57 170 13:52 11.06.2022
1609 Clear 28 1019 37 10000 3.09 150 12:19 11.06.2022
1610 Clear 26 1019 41 10000 4.12 90 10:32 11.06.2022
1611 Clear 24 1019 44 10000 3.13 98 09:41 11.06.2022
1612 Clear 23 1019 48 10000 2.68 76 08:44 11.06.2022
1613 Clear 18 1019 66 10000 1.03 20 06:33 11.06.2022
1614 Clear 18 1017 61 10000 1.54 70 05:53 11.06.2022
1615 Clear 19 1018 59 10000 1.54 40 03:31 11.06.2022
1616 Clouds 20 1018 57 10000 2.06 20 01:51 11.06.2022
1617 Clouds 20 1018 55 10000 0.51 0 01:25 11.06.2022
1618 Clear 22 1016 47 10000 0.51 190 23:27 10.06.2022
1619 Clear 22 1017 50 10000 1.03 210 22:21 10.06.2022
1620 Clear 24 1016 41 10000 1.03 200 21:44 10.06.2022
1621 Clear 28 1015 26 10000 3.6 180 20:39 10.06.2022
1622 Clear 28 1015 23 10000 3.6 180 20:19 10.06.2022
1623 Clear 30 1015 24 10000 2.57 180 19:19 10.06.2022
1624 Clear 30 1015 22 10000 2.57 180 18:32 10.06.2022
1625 Clear 31 1015 22 10000 3.09 200 17:50 10.06.2022
1626 Clear 30 1015 22 10000 2.57 220 17:21 10.06.2022
1627 Clear 30 1015 21 10000 3.6 210 16:26 10.06.2022
1628 Clear 30 1015 23 10000 2.57 0 15:38 10.06.2022
1629 Clear 30 1015 22 10000 3.09 210 14:24 10.06.2022
1630 Clear 29 1015 22 10000 2.68 141 12:57 10.06.2022
1631 Clear 28 1016 24 10000 1.54 130 11:59 10.06.2022
1632 Clear 26 1016 28 10000 1.79 56 10:45 10.06.2022
1633 Clear 24 1015 30 10000 2.57 360 09:55 10.06.2022
1634 Clear 22 1014 39 10000 2.06 320 08:44 10.06.2022
1635 Clear 17 1014 59 10000 2.06 300 07:30 10.06.2022
1636 Clear 18 1014 49 10000 1.54 310 06:45 10.06.2022
1637 Clear 16 1014 45 10000 2.06 310 06:26 10.06.2022
1638 Clear 16 1013 51 10000 2.06 320 03:56 10.06.2022
1639 Clear 19 1013 40 10000 3.09 340 01:42 10.06.2022
1640 Clear 21 1013 32 10000 3.6 360 00:32 10.06.2022
1641 Clear 22 1012 30 10000 4.63 360 23:49 09.06.2022
1642 Clear 23 1011 25 10000 5.66 10 22:18 09.06.2022
1643 Clear 24 1011 25 10000 7.2 350 21:37 09.06.2022
1644 Clear 25 1009 22 10000 5.66 360 20:55 09.06.2022
1645 Clear 26 1009 27 10000 3.6 30 20:21 09.06.2022
1646 Clear 26 1008 36 10000 3.6 90 19:29 09.06.2022
1647 Clouds 27 1007 33 10000 5.66 140 18:34 09.06.2022
1648 Clouds 29 1007 21 10000 5.14 350 16:56 09.06.2022
1649 Clouds 28 1006 23 10000 5.36 38 15:54 09.06.2022
1650 Clear 28 1006 26 10000 4.63 350 14:38 09.06.2022
1651 Clear 27 1006 26 10000 4.12 310 13:54 09.06.2022
1652 Clear 27 1006 26 10000 4.63 310 13:28 09.06.2022
1653 Clear 25 1006 43 10000 4.02 328 11:54 09.06.2022
1654 Clear 25 1007 51 10000 3.13 334 11:19 09.06.2022
1655 Clear 22 1007 67 10000 2.24 139 09:45 09.06.2022
1656 Clear 21 1008 69 10000 2.24 102 09:24 09.06.2022
1657 Clear 19 1008 83 10000 1.03 0 07:52 09.06.2022
1658 Clear 17 1008 88 10000 1.54 50 06:33 09.06.2022
1659 Clouds 17 1006 87 10000 1.03 70 03:19 09.06.2022
1660 Clouds 19 1007 81 10000 2.57 20 23:48 08.06.2022
1661 Clouds 19 1007 81 10000 2.57 50 22:58 08.06.2022
1662 Clouds 20 1006 81 10000 2.57 60 22:27 08.06.2022
1663 Clouds 20 1006 83 10000 3.13 68 21:55 08.06.2022
1664 Clouds 20 1006 85 10000 3.09 70 21:21 08.06.2022
1665 Rain 20 1006 83 5000 3.6 300 20:21 08.06.2022
1666 Rain 21 1005 70 10000 3.6 350 19:38 08.06.2022
1667 Clouds 23 1006 61 10000 1.79 253 18:45 08.06.2022
1668 Clouds 26 1006 46 10000 2.57 150 17:18 08.06.2022
1669 Rain 27 1007 44 10000 3.09 160 15:44 08.06.2022
1670 Clouds 27 1008 45 10000 3.6 140 13:51 08.06.2022
1671 Clouds 25 1010 54 10000 2.06 0 11:52 08.06.2022
1672 Clouds 24 1010 55 10000 2.57 100 11:29 08.06.2022
1673 Clear 23 1011 62 10000 2.57 120 09:55 08.06.2022
1674 Clear 22 1011 64 10000 1.79 118 09:21 08.06.2022
1675 Clouds 20 1011 67 10000 2.24 51 08:22 08.06.2022
1676 Clear 17 1009 75 10000 1.34 161 05:51 08.06.2022
1677 Clear 17 1010 78 10000 0 0 03:52 08.06.2022
1678 Clear 19 1011 72 10000 1.54 20 00:29 08.06.2022
1679 Clear 21 1011 64 10000 2.06 140 23:27 07.06.2022
1680 Clouds 22 1011 56 10000 2.57 120 22:44 07.06.2022
1681 Clouds 23 1010 53 10000 3.09 120 22:22 07.06.2022
1682 Clouds 24 1009 57 10000 3.58 68 21:33 07.06.2022
1683 Clouds 25 1010 59 10000 2.57 170 20:53 07.06.2022
1684 Clear 26 1010 55 10000 3.6 160 20:31 07.06.2022
1685 Clear 27 1008 48 10000 2.06 190 19:27 07.06.2022
1686 Clear 27 1008 48 10000 3.09 150 18:22 07.06.2022
1687 Clouds 27 1009 48 10000 3.6 150 17:25 07.06.2022
1688 Clouds 28 1009 47 10000 3.09 200 16:42 07.06.2022
1689 Clear 27 1010 50 10000 3.13 162 15:44 07.06.2022
1690 Clear 26 1011 54 10000 1.54 0 15:24 07.06.2022
1691 Clear 26 1010 53 10000 1.79 51 14:46 07.06.2022
1692 Clear 26 1011 58 10000 3.6 70 14:27 07.06.2022
1693 Clouds 24 1011 64 10000 4.63 40 13:30 07.06.2022
1694 Clouds 23 1012 70 7102 4.92 59 12:45 07.06.2022
1695 Clouds 22 1012 70 10000 3.58 63 11:32 07.06.2022
1696 Clouds 22 1012 69 10000 3.09 80 10:26 07.06.2022
1697 Clouds 22 1012 72 10000 2.57 60 08:49 07.06.2022
1698 Clouds 22 1012 71 10000 4.47 87 08:49 07.06.2022
1699 Clouds 22 1012 71 10000 2.57 60 08:49 07.06.2022
1700 Clouds 20 1012 77 10000 4.12 50 07:23 07.06.2022
1701 Clouds 20 1012 79 10000 3.09 90 05:56 07.06.2022
1702 Clouds 21 1011 82 10000 1.79 215 03:18 07.06.2022
1703 Clouds 23 1010 74 10000 3.58 238 00:42 07.06.2022
1704 Clouds 24 1013 71 10000 1.03 0 23:35 06.06.2022
1705 Clouds 24 1013 71 10000 1.03 0 22:45 06.06.2022
1706 Clouds 26 1014 60 10000 1.03 0 21:43 06.06.2022
1707 Clouds 29 1011 46 10000 2.57 140 20:19 06.06.2022
1708 Clouds 30 1012 45 10000 3.09 140 19:23 06.06.2022
1709 Clouds 30 1013 46 10000 2.24 135 18:46 06.06.2022
1710 Clouds 31 1011 39 10000 3.13 121 17:51 06.06.2022
1711 Clouds 31 1014 42 10000 2.68 129 16:39 06.06.2022
1712 Clouds 30 1012 39 10000 3.6 170 15:40 06.06.2022
1713 Clear 30 1013 40 10000 2.57 140 14:56 06.06.2022
1714 Clear 29 1013 42 10000 2.68 132 13:31 06.06.2022
1715 Clear 28 1015 46 10000 2.06 0 12:39 06.06.2022
1716 Clear 28 1015 46 10000 2.06 0 12:20 06.06.2022
1717 Clear 27 1014 45 10000 4.92 128 11:42 06.06.2022
1718 Clear 24 1015 53 10000 2.06 60 09:41 06.06.2022
1719 Clear 22 1016 62 10000 1.03 0 08:35 06.06.2022
1720 Clear 20 1015 69 10000 0.89 57 07:40 06.06.2022
1721 Clear 18 1013 75 10000 1.79 295 05:34 06.06.2022
1722 Clear 18 1014 75 10000 0.51 0 03:47 06.06.2022
1723 Clear 20 1014 65 10000 2.06 30 01:29 06.06.2022
1724 Clear 21 1014 67 10000 1.79 312 00:43 06.06.2022
1725 Clear 21 1014 68 10000 1.79 293 23:50 05.06.2022
1726 Clear 22 1013 65 10000 1.54 180 22:53 05.06.2022
1727 Clear 23 1012 62 10000 1.79 298 21:33 05.06.2022
1728 Clear 25 1012 59 10000 2.06 100 20:23 05.06.2022
1729 Clouds 26 1011 58 10000 4.12 360 18:42 05.06.2022
1730 Clouds 24 1013 60 10000 7.72 350 17:56 05.06.2022
1731 Clouds 29 1012 51 10000 1.03 0 17:27 05.06.2022
1732 Clouds 28 1011 52 10000 4.02 1 16:58 05.06.2022
1733 Clouds 29 1011 51 10000 2.57 0 16:37 05.06.2022
1734 Clouds 29 1012 55 8000 4.02 135 14:46 05.06.2022
1735 Clouds 28 1014 60 8000 3.6 160 13:21 05.06.2022
1736 Clouds 28 1014 62 10000 2.68 135 11:51 05.06.2022
1737 Clouds 27 1013 62 10000 3.6 70 10:43 05.06.2022
1738 Clear 27 1013 63 10000 3.6 90 10:23 05.06.2022
1739 Clear 24 1015 70 10000 4.12 80 08:41 05.06.2022
1740 Clear 24 1015 71 10000 3.6 50 08:20 05.06.2022
1741 Clear 21 1015 77 10000 0.51 0 05:23 05.06.2022
1742 Clear 22 1014 74 10000 0.51 0 04:30 05.06.2022
1743 Clear 23 1016 70 10000 0.89 25 01:45 05.06.2022
1744 Clear 23 1016 70 10000 0.89 25 01:45 05.06.2022
1745 Clear 23 1016 70 10000 0.89 25 01:45 05.06.2022
1746 Clear 23 1018 73 10000 1.54 350 01:22 05.06.2022
1747 Clear 23 1016 67 10000 1.54 350 01:22 05.06.2022
1748 Clear 25 1017 63 10000 1.03 0 22:44 04.06.2022
1749 Clear 28 1015 48 10000 1.54 230 20:55 04.06.2022
1750 Clear 30 1015 43 10000 2.24 269 18:53 04.06.2022
1751 Clear 31 1017 43 10000 2.57 220 16:47 04.06.2022
1752 Clear 30 1018 45 10000 1.54 0 16:19 04.06.2022
1753 Clear 30 1017 46 10000 1.79 152 15:22 04.06.2022
1754 Clear 29 1017 49 10000 2.06 0 13:46 04.06.2022
1755 Clear 26 1019 61 10000 1.03 0 11:23 04.06.2022
1756 Clear 25 1017 63 10000 2.24 275 10:50 04.06.2022
1757 Clear 23 1017 72 10000 1.34 291 09:45 04.06.2022
1758 Clear 21 1018 79 10000 1.03 0 08:44 04.06.2022
1759 Clear 20 1018 84 10000 0.51 0 07:51 04.06.2022
1760 Clouds 18 1017 88 10000 1.34 293 05:38 04.06.2022
1761 Clear 19 1018 86 10000 0.89 358 02:36 04.06.2022
1762 Clear 20 1018 85 10000 2.06 340 00:20 04.06.2022
1763 Clear 21 1017 82 10000 2.68 351 22:41 03.06.2022
1764 Clouds 22 1017 76 10000 1.54 70 21:39 03.06.2022
1765 Clouds 23 1018 75 10000 2.06 60 20:38 03.06.2022
1766 Clouds 23 1017 75 10000 2.57 50 18:54 03.06.2022
1767 Clouds 23 1018 78 10000 2.06 0 16:52 03.06.2022
1768 Rain 21 1018 81 9000 2.57 210 15:37 03.06.2022
1769 Rain 23 1018 72 10000 6.17 140 13:48 03.06.2022
1770 Clouds 25 1017 66 8000 6.26 130 11:50 03.06.2022
1771 Clouds 24 1018 71 6000 4.63 130 09:53 03.06.2022
1772 Clouds 23 1018 73 6000 4.12 110 09:28 03.06.2022
1773 Clouds 22 1018 72 6000 2.68 109 07:27 03.06.2022
1774 Clouds 22 1017 73 7000 1.54 90 06:44 03.06.2022
1775 Clouds 22 1018 75 7000 2.06 80 06:26 03.06.2022
1776 Clear 23 1016 66 10000 1.03 0 01:23 03.06.2022
1777 Clear 23 1016 67 10000 1.54 280 23:31 02.06.2022
1778 Clear 26 1015 56 10000 1.54 180 21:57 02.06.2022
1779 Clear 29 1015 46 10000 2.06 180 20:25 02.06.2022
1780 Clear 29 1015 45 10000 2.06 150 19:52 02.06.2022
1781 Clear 30 1014 42 10000 2.06 180 19:33 02.06.2022
1782 Clear 30 1015 44 10000 2.06 190 17:59 02.06.2022
1783 Clouds 30 1015 46 10000 1.54 0 16:28 02.06.2022
1784 Clouds 29 1015 46 9000 1.54 0 14:58 02.06.2022
1785 Clear 28 1015 45 10000 2.06 0 13:30 02.06.2022
1786 Clouds 27 1015 49 9000 2.24 124 12:42 02.06.2022
1787 Clear 25 1017 59 10000 1.54 230 10:31 02.06.2022
1788 Clear 23 1016 65 10000 0.89 114 09:28 02.06.2022
1789 Clear 21 1015 72 10000 2.06 270 08:28 02.06.2022
1790 Clouds 20 1016 74 10000 1.54 190 07:34 02.06.2022
1791 Clouds 19 1015 76 10000 3.58 296 05:29 02.06.2022
1792 Clouds 20 1015 73 10000 4.02 253 03:48 02.06.2022
1793 Clouds 21 1013 63 10000 1.79 250 23:55 01.06.2022
1794 Clouds 23 1015 60 10000 1.54 250 22:54 01.06.2022
1795 Clouds 24 1015 56 10000 1.03 0 21:39 01.06.2022
1796 Clouds 25 1014 53 10000 2.06 250 21:20 01.06.2022
1797 Clouds 26 1014 50 10000 1.54 230 20:37 01.06.2022
1798 Clouds 27 1014 47 10000 2.57 210 19:31 01.06.2022
1799 Clouds 27 1014 47 10000 2.57 0 17:57 01.06.2022
1800 Clouds 27 1015 47 10000 2.57 0 16:41 01.06.2022
1801 Clouds 27 1014 48 10000 2.06 180 15:18 01.06.2022
1802 Clouds 26 1014 50 10000 1.34 213 13:54 01.06.2022
1803 Clouds 25 1015 56 10000 2.57 180 12:28 01.06.2022
1804 Clear 23 1016 63 10000 1.03 0 10:25 01.06.2022
1805 Clear 21 1016 68 10000 1.54 150 09:24 01.06.2022
1806 Clear 18 1015 79 10000 0.51 0 07:25 01.06.2022
1807 Clouds 17 1014 79 10000 0.51 0 06:30 01.06.2022
1808 Clear 19 1013 72 10000 2.57 10 00:48 01.06.2022
1809 Clouds 20 1014 67 10000 1.79 356 23:30 31.05.2022
1810 Clouds 21 1014 65 10000 1.79 350 22:37 31.05.2022
1811 Clouds 22 1014 62 10000 1.03 60 21:46 31.05.2022
1812 Clouds 22 1012 58 10000 1.79 298 20:46 31.05.2022
1813 Clouds 23 1012 56 10000 1.03 0 20:23 31.05.2022
1814 Clouds 24 1013 56 10000 1.03 0 18:53 31.05.2022
1815 Clouds 24 1013 57 10000 1.03 0 17:50 31.05.2022
1816 Clouds 24 1013 56 10000 2.06 160 17:18 31.05.2022
1817 Clouds 23 1014 57 10000 2.57 110 15:41 31.05.2022
1818 Clouds 23 1014 61 10000 2.57 70 14:18 31.05.2022
1819 Clouds 21 1014 68 10000 3.09 110 12:21 31.05.2022
1820 Clouds 20 1015 73 10000 4.12 90 10:55 31.05.2022
1821 Clouds 20 1015 73 10000 4.12 90 10:55 31.05.2022
1822 Clouds 18 1015 78 10000 3.09 90 09:31 31.05.2022
1823 Clouds 17 1014 80 10000 1.54 250 07:25 31.05.2022
1824 Clouds 17 1014 77 10000 1.03 0 05:22 31.05.2022
1825 Clouds 18 1013 69 10000 1.34 168 01:35 31.05.2022
1826 Clouds 18 1012 64 10000 1.03 0 23:27 30.05.2022
1827 Clouds 18 1012 64 10000 1.03 0 22:56 30.05.2022
1828 Clouds 18 1012 62 10000 1.79 181 21:59 30.05.2022
1829 Clouds 19 1011 61 10000 2.57 190 21:33 30.05.2022
1830 Clouds 19 1009 57 10000 3.6 190 20:20 30.05.2022
1831 Clouds 20 1009 54 10000 3.6 160 18:41 30.05.2022
1832 Clouds 21 1010 53 10000 1.79 100 17:36 30.05.2022
1833 Clouds 21 1010 53 10000 3.6 130 16:41 30.05.2022
1834 Clouds 20 1010 53 10000 3.09 160 14:49 30.05.2022
1835 Clouds 19 1009 54 10000 5.14 140 12:24 30.05.2022
1836 Clear 18 1009 58 10000 4.92 140 10:41 30.05.2022
1837 Clouds 16 1009 68 10000 3.6 100 09:38 30.05.2022
1838 Clouds 14 1008 78 10000 2.57 60 07:22 30.05.2022
1839 Clouds 14 1008 79 10000 2.57 110 05:49 30.05.2022
1840 Clouds 15 1008 77 10000 1.54 100 01:48 30.05.2022
1841 Clear 16 1007 70 10000 2.68 67 23:19 29.05.2022
1842 Clear 16 1008 69 10000 2.68 59 22:37 29.05.2022
1843 Clouds 17 1007 59 10000 4.63 140 20:55 29.05.2022
1844 Clouds 19 1006 48 10000 4.63 150 19:33 29.05.2022
1845 Clouds 20 1006 45 10000 5.66 140 18:53 29.05.2022
1846 Clouds 21 1006 46 10000 4.12 150 17:31 29.05.2022
1847 Clouds 20 1006 49 10000 3.09 120 15:48 29.05.2022
1848 Clouds 20 1007 49 10000 3.09 90 14:58 29.05.2022
1849 Clouds 18 1007 59 10000 2.06 50 13:53 29.05.2022
1850 Clouds 16 1008 56 10000 2.57 40 11:42 29.05.2022
1851 Clouds 15 1007 71 10000 3.09 60 10:39 29.05.2022
1852 Clouds 15 1006 73 10000 3.09 90 09:18 29.05.2022
1853 Clouds 14 1006 77 10000 4.63 120 06:18 29.05.2022
1854 Clouds 14 1007 79 10000 6.71 96 04:45 29.05.2022
1855 Rain 15 1007 80 10000 6.69 110 03:47 29.05.2022
1856 Rain 17 1007 70 10000 7.72 110 23:50 28.05.2022
1857 Rain 17 1007 70 10000 7.72 110 23:50 28.05.2022
1858 Rain 17 1007 71 10000 9.26 110 23:26 28.05.2022
1859 Rain 18 1007 70 10000 7.72 110 22:36 28.05.2022
1860 Rain 19 1008 69 10000 10.8 120 21:38 28.05.2022
1861 Clouds 21 1005 72 10000 8.75 100 19:49 28.05.2022
1862 Thunderstorm 23 1005 70 8000 9.26 110 18:50 28.05.2022
1863 Clouds 28 1003 55 10000 7.6 130 17:37 28.05.2022
1864 Clouds 31 1004 37 10000 4.12 100 16:38 28.05.2022
1865 Clouds 31 1005 37 10000 2.06 0 15:43 28.05.2022
1866 Clear 30 1006 42 10000 3.09 80 14:26 28.05.2022
1867 Clear 29 1008 47 10000 2.57 100 12:51 28.05.2022
1868 Clear 28 1008 53 10000 2.57 0 12:33 28.05.2022
1869 Clear 27 1008 61 10000 3.09 90 11:21 28.05.2022
1870 Clear 25 1008 66 10000 4.63 90 09:58 28.05.2022
1871 Clear 23 1008 70 10000 4.02 112 08:45 28.05.2022
1872 Clear 20 1009 82 10000 1.54 60 07:23 28.05.2022
1873 Clear 19 1009 79 10000 0.51 0 05:36 28.05.2022
1874 Clear 22 1010 70 10000 0.89 13 02:44 28.05.2022
1875 Clouds 24 1011 61 10000 2.06 360 00:32 28.05.2022
1876 Clear 25 1011 57 10000 1.79 267 22:53 27.05.2022
1877 Clouds 27 1011 51 10000 1.54 280 21:44 27.05.2022
1878 Clear 29 1011 47 10000 2.06 290 20:50 27.05.2022
1879 Clear 29 1011 44 10000 2.68 262 20:24 27.05.2022
1880 Clear 30 1012 42 10000 2.57 250 19:42 27.05.2022
1881 Clear 31 1011 39 10000 2.68 273 19:21 27.05.2022
1882 Clear 32 1012 39 10000 3.09 210 17:54 27.05.2022
1883 Clouds 31 1014 42 10000 2.57 200 16:38 27.05.2022
1884 Clouds 30 1015 45 10000 2.06 190 15:22 27.05.2022
1885 Clouds 29 1016 51 8000 1.79 131 13:53 27.05.2022
1886 Clouds 29 1016 53 10000 1.54 0 12:39 27.05.2022
1887 Clouds 27 1016 58 9000 1.79 185 11:33 27.05.2022
1888 Clear 26 1017 62 10000 1.34 172 10:54 27.05.2022
1889 Clear 25 1019 66 10000 1.03 0 10:26 27.05.2022
1890 Clear 24 1019 71 10000 1.03 0 09:32 27.05.2022
1891 Clear 21 1019 79 10000 1.03 0 07:42 27.05.2022
1892 Clear 20 1019 80 10000 1.03 10 05:32 27.05.2022
1893 Clear 21 1020 74 10000 1.03 0 02:25 27.05.2022
1894 Clear 23 1019 71 10000 1.54 20 00:19 27.05.2022
1895 Clouds 24 1019 66 10000 2.06 110 22:30 26.05.2022
1896 Clouds 25 1018 61 10000 2.06 150 21:34 26.05.2022
1897 Clouds 27 1018 59 10000 3.6 160 19:58 26.05.2022
1898 Clouds 27 1018 57 10000 4.63 150 19:19 26.05.2022
1899 Clouds 28 1018 49 10000 3.13 170 17:36 26.05.2022
1900 Clouds 28 1019 50 10000 2.57 90 16:36 26.05.2022
1901 Clouds 28 1018 51 10000 3.13 70 15:41 26.05.2022
1902 Clouds 28 1019 52 10000 3.6 60 14:21 26.05.2022
1903 Clouds 26 1020 56 10000 3.6 110 12:35 26.05.2022
1904 Clouds 25 1019 60 10000 3.13 144 11:21 26.05.2022
1905 Clouds 23 1019 65 10000 3.13 143 09:40 26.05.2022
1906 Clouds 22 1019 68 10000 2.57 100 08:57 26.05.2022
1907 Clouds 19 1019 80 10000 2.06 120 07:38 26.05.2022
1908 Clear 19 1017 79 10000 1.03 0 03:35 26.05.2022
1909 Clear 20 1017 75 10000 1.03 280 00:21 26.05.2022
1910 Clear 21 1016 75 10000 1.79 264 23:22 25.05.2022
1911 Clouds 22 1015 66 10000 1.34 243 21:47 25.05.2022
1912 Clouds 23 1015 65 10000 2.24 236 21:28 25.05.2022
1913 Clouds 25 1013 58 10000 1.79 240 19:59 25.05.2022
1914 Clouds 25 1013 57 10000 2.24 271 19:19 25.05.2022
1915 Clouds 25 1013 57 10000 2.24 296 17:30 25.05.2022
1916 Clouds 25 1013 57 10000 2.57 50 16:36 25.05.2022
1917 Clouds 25 1013 57 10000 2.57 0 15:53 25.05.2022
1918 Clouds 24 1014 61 10000 2.06 320 14:51 25.05.2022
1919 Clouds 24 1014 62 10000 2.57 30 14:32 25.05.2022
1920 Clouds 23 1012 64 10000 1.03 0 13:28 25.05.2022
1921 Clouds 21 1014 70 10000 1.32 347 12:24 25.05.2022
1922 Clouds 20 1012 74 10000 3.6 10 10:42 25.05.2022
1923 Rain 19 1013 78 10000 2.57 110 09:53 25.05.2022
1924 Clouds 19 1011 82 10000 0.89 30 08:22 25.05.2022
1925 Clouds 18 1009 81 8873 1.5 343 06:45 25.05.2022
1926 Clouds 18 1007 82 10000 1.03 0 02:55 25.05.2022
1927 Rain 19 1007 80 10000 3.6 340 23:53 24.05.2022
1928 Rain 19 1006 82 10000 2.68 340 23:23 24.05.2022
1929 Rain 19 1006 79 10000 2.06 20 22:18 24.05.2022
1930 Rain 20 1006 77 10000 2.06 20 21:38 24.05.2022
1931 Clouds 20 1006 76 10000 2.06 20 21:19 24.05.2022
1932 Clouds 22 1003 63 7671 0.92 108 19:37 24.05.2022
1933 Thunderstorm 21 1006 59 2000 8.75 330 18:49 24.05.2022
1934 Clouds 27 1005 47 10000 2.06 210 16:40 24.05.2022
1935 Clouds 26 1006 49 10000 2.57 180 15:54 24.05.2022
1936 Clouds 27 1006 48 10000 2.57 210 14:50 24.05.2022
1937 Clouds 26 1006 48 10000 1.54 0 13:48 24.05.2022
1938 Clouds 25 1006 51 10000 2.06 0 12:42 24.05.2022
1939 Clouds 23 1007 60 10000 3.6 30 10:18 24.05.2022
1940 Clouds 23 1007 65 10000 4.12 30 09:41 24.05.2022
1941 Clouds 22 1007 67 10000 2.57 30 08:43 24.05.2022
1942 Clear 19 1005 63 10000 2.57 360 06:45 24.05.2022
1943 Clear 20 1004 54 10000 2.06 330 03:48 24.05.2022
1944 Clear 20 1005 52 10000 1.03 0 01:49 24.05.2022
1945 Clear 20 1005 49 10000 2.68 225 01:18 24.05.2022
1946 Clear 23 1004 38 10000 4.47 253 22:50 23.05.2022
1947 Clear 24 1003 35 10000 1.79 197 21:54 23.05.2022
1948 Clear 25 1003 35 10000 3.09 260 20:59 23.05.2022
1949 Clear 26 1003 36 10000 4.02 211 20:26 23.05.2022
1950 Clear 27 1002 34 10000 3.09 210 19:31 23.05.2022
1951 Clouds 27 1004 36 10000 4.47 188 18:42 23.05.2022
1952 Clouds 27 1004 37 10000 4.63 220 18:22 23.05.2022
1953 Clouds 28 1005 45 10000 4.47 203 16:51 23.05.2022
1954 Clouds 27 1007 52 10000 1.54 0 14:49 23.05.2022
1955 Clear 26 1007 51 10000 3.6 250 12:30 23.05.2022
1956 Clear 25 1008 55 10000 3.09 230 11:25 23.05.2022
1957 Clouds 23 1008 65 10000 2.06 260 09:49 23.05.2022
1958 Clouds 22 1008 67 10000 2.57 250 08:51 23.05.2022
1959 Clouds 21 1008 74 10000 2.68 273 07:46 23.05.2022
1960 Clouds 20 1008 78 10000 2.68 258 06:43 23.05.2022
1961 Clouds 20 1009 79 10000 1.34 260 05:21 23.05.2022
1962 Clouds 21 1009 72 10000 4.02 272 02:19 23.05.2022
1963 Rain 21 1010 71 10000 2.57 280 01:35 23.05.2022
1964 Clouds 22 1010 69 10000 5.14 270 23:42 22.05.2022
1965 Clouds 23 1009 68 10000 2.24 206 22:35 22.05.2022
1966 Clouds 24 1009 66 10000 3.6 270 21:54 22.05.2022
1967 Clouds 25 1009 64 10000 3.09 240 20:51 22.05.2022
1968 Clouds 26 1009 63 10000 4.02 232 20:25 22.05.2022
1969 Clouds 27 1008 58 10000 1.79 223 19:54 22.05.2022
1970 Clear 28 1008 51 10000 1.03 0 18:55 22.05.2022
1971 Clear 29 1008 50 10000 2.06 230 18:24 22.05.2022
1972 Clouds 29 1009 48 10000 2.68 191 17:32 22.05.2022
1973 Clear 29 1009 49 10000 2.68 239 16:25 22.05.2022
1974 Clear 28 1011 53 10000 2.68 264 14:48 22.05.2022
1975 Clear 27 1011 54 10000 2.57 250 13:38 22.05.2022
1976 Clear 27 1011 55 10000 3.09 230 12:50 22.05.2022
1977 Clear 25 1013 60 10000 2.24 281 11:37 22.05.2022
1978 Clear 23 1013 64 10000 2.57 230 09:42 22.05.2022
1979 Clear 21 1013 71 10000 1.34 218 08:31 22.05.2022
1980 Clear 20 1013 73 10000 1.03 0 07:21 22.05.2022
1981 Clear 19 1012 73 10000 1.54 320 05:31 22.05.2022
1982 Clear 21 1013 69 10000 3.13 269 01:41 22.05.2022
1983 Clear 22 1014 70 10000 3.6 270 00:43 22.05.2022
1984 Clear 23 1014 66 10000 3.09 250 23:52 21.05.2022
1985 Clear 25 1014 60 10000 3.6 240 22:28 21.05.2022
1986 Clear 26 1015 61 10000 2.06 230 21:42 21.05.2022
1987 Clear 28 1014 51 10000 2.57 240 20:59 21.05.2022
1988 Clear 29 1012 44 10000 2.24 222 20:22 21.05.2022
1989 Clear 31 1013 42 10000 2.06 0 19:27 21.05.2022
1990 Clear 32 1015 42 10000 2.06 230 17:48 21.05.2022
1991 Clouds 30 1016 48 10000 3.09 270 15:54 21.05.2022
1992 Clouds 29 1016 50 9000 2.57 230 14:37 21.05.2022
1993 Clouds 28 1017 52 10000 3.09 240 13:42 21.05.2022
1994 Clear 28 1017 53 10000 2.57 260 12:49 21.05.2022
1995 Clear 27 1017 56 10000 3.09 250 11:58 21.05.2022
1996 Clear 24 1018 59 10000 3.13 261 10:23 21.05.2022
1997 Clear 23 1018 62 10000 4.12 270 09:41 21.05.2022
1998 Clear 22 1019 67 10000 4.92 228 08:52 21.05.2022
1999 Clear 20 1020 76 10000 2.68 221 07:53 21.05.2022
2000 Clear 19 1020 73 10000 2.57 260 03:48 21.05.2022
2001 Clear 22 1022 59 10000 4.12 270 23:50 20.05.2022
2002 Clear 23 1021 51 10000 4.92 228 22:56 20.05.2022
2003 Clear 24 1020 47 10000 3.13 179 22:23 20.05.2022
2004 Clear 25 1020 43 10000 4.02 226 21:40 20.05.2022
2005 Clear 26 1020 38 10000 3.6 250 20:54 20.05.2022
2006 Clear 29 1021 37 10000 3.13 174 19:58 20.05.2022
2007 Clear 29 1021 38 10000 3.6 220 19:26 20.05.2022
2008 Clouds 30 1021 39 10000 2.68 155 18:36 20.05.2022
2009 Clear 30 1022 41 10000 2.06 260 16:53 20.05.2022
2010 Clear 30 1023 44 10000 2.68 192 15:58 20.05.2022
2011 Clear 30 1022 43 10000 2.57 0 15:40 20.05.2022
2012 Clear 29 1023 44 10000 2.57 0 14:29 20.05.2022
2013 Clear 29 1024 43 10000 3.09 220 13:54 20.05.2022
2014 Clear 26 1025 43 10000 2.06 0 11:33 20.05.2022
2015 Clear 23 1026 44 10000 1.34 117 09:51 20.05.2022
2016 Clear 22 1026 49 10000 2.06 110 08:43 20.05.2022
2017 Clear 18 1025 59 10000 0.89 86 06:47 20.05.2022
2018 Clear 18 1025 58 10000 1.54 190 06:24 20.05.2022
2019 Clear 19 1025 57 10000 3.13 91 04:22 20.05.2022
2020 Clear 21 1026 58 10000 1.54 160 00:24 20.05.2022
2021 Clear 22 1026 57 10000 1.54 150 22:44 19.05.2022
2022 Clear 24 1026 51 10000 2.06 130 21:53 19.05.2022
2023 Clear 25 1025 48 10000 2.57 130 21:25 19.05.2022
2024 Clear 26 1025 41 10000 2.57 150 20:59 19.05.2022
2025 Clear 27 1024 42 10000 1.79 142 20:25 19.05.2022
2026 Clear 27 1025 39 10000 2.57 140 19:34 19.05.2022
2027 Clear 28 1023 38 10000 2.57 160 17:59 19.05.2022
2028 Clear 28 1024 35 10000 2.57 0 16:29 19.05.2022
2029 Clear 27 1025 36 10000 2.57 0 14:52 19.05.2022
2030 Clear 27 1025 36 10000 2.57 100 14:21 19.05.2022
2031 Clear 26 1026 35 10000 3.09 90 12:23 19.05.2022
2032 Clear 24 1026 34 10000 4.12 100 10:40 19.05.2022
2033 Clear 22 1026 38 10000 4.63 90 08:57 19.05.2022
2034 Clear 21 1026 43 10000 3.09 80 07:48 19.05.2022
2035 Clouds 20 1026 44 10000 3.6 80 04:44 19.05.2022
2036 Clear 21 1024 53 10000 4.12 80 01:57 19.05.2022
2037 Clear 23 1024 50 10000 4.63 100 23:49 18.05.2022
2038 Clear 24 1023 46 10000 5.14 110 22:46 18.05.2022
2039 Clear 25 1022 51 10000 4.63 110 21:47 18.05.2022
2040 Clear 26 1022 44 10000 5.14 120 21:24 18.05.2022
2041 Clear 26 1022 47 10000 5.66 120 20:23 18.05.2022
2042 Clear 27 1021 47 10000 6.17 110 19:32 18.05.2022
2043 Clouds 28 1019 46 10000 6.17 120 18:20 18.05.2022
2044 Clouds 28 1020 47 10000 5.66 100 17:41 18.05.2022
2045 Clouds 28 1020 48 10000 5.66 100 17:22 18.05.2022
2046 Clouds 28 1020 49 10000 5.66 120 15:58 18.05.2022
2047 Clouds 28 1020 49 10000 5.66 110 15:37 18.05.2022
2048 Clouds 28 1020 48 10000 5.66 100 14:30 18.05.2022
2049 Clouds 28 1020 50 10000 5.66 100 14:30 18.05.2022
2050 Clear 27 1020 52 10000 5.14 130 12:59 18.05.2022
2051 Clear 27 1020 53 10000 5.14 130 12:39 18.05.2022
2052 Clear 26 1020 57 10000 6.17 100 11:33 18.05.2022
2053 Clear 25 1020 59 10000 5.14 120 10:49 18.05.2022
2054 Clear 22 1020 69 10000 1.54 70 08:27 18.05.2022
2055 Clear 21 1019 68 10000 2.68 102 07:28 18.05.2022
2056 Clear 20 1017 67 10000 1.79 161 04:26 18.05.2022
2057 Clouds 23 1016 58 10000 1.54 280 00:52 18.05.2022
2058 Clouds 24 1016 57 10000 2.68 237 23:41 17.05.2022
2059 Clear 25 1015 48 10000 2.57 0 21:23 17.05.2022
2060 Clear 28 1014 36 10000 1.54 210 20:44 17.05.2022
2061 Clear 30 1014 32 10000 2.06 200 19:45 17.05.2022
2062 Clear 31 1014 32 10000 2.57 200 19:24 17.05.2022
2063 Clear 31 1014 31 10000 2.06 220 17:49 17.05.2022
2064 Clear 31 1015 32 10000 2.57 290 16:57 17.05.2022
2065 Clear 30 1016 36 10000 2.06 180 15:59 17.05.2022
2066 Clear 30 1015 36 10000 4.47 227 14:56 17.05.2022
2067 Clear 30 1016 38 10000 3.09 220 14:29 17.05.2022
2068 Clear 28 1017 44 10000 2.06 0 13:24 17.05.2022
2069 Clear 24 1018 57 10000 2.68 177 10:42 17.05.2022
2070 Clear 21 1019 67 10000 1.03 0 08:53 17.05.2022
2071 Clear 19 1019 69 10000 0.51 0 07:56 17.05.2022
2072 Clouds 17 1018 75 10000 0.51 0 06:26 17.05.2022
2073 Clouds 20 1019 59 10000 1.54 260 01:34 17.05.2022
2074 Clouds 21 1017 55 10000 3.58 248 23:46 16.05.2022
2075 Clouds 21 1018 56 10000 2.78 259 22:39 16.05.2022
2076 Clouds 24 1016 38 10000 0.89 299 21:24 16.05.2022
2077 Clouds 25 1018 42 10000 0.89 12 20:42 16.05.2022
2078 Clear 28 1015 41 10000 1.79 19 18:53 16.05.2022
2079 Clear 29 1016 41 10000 3.09 260 17:26 16.05.2022
2080 Clear 29 1016 39 10000 4.02 250 15:35 16.05.2022
2081 Clear 28 1017 39 10000 3.6 210 13:48 16.05.2022
2082 Clear 27 1017 40 10000 3.13 217 12:41 16.05.2022
2083 Clear 23 1018 49 10000 3.09 260 10:36 16.05.2022
2084 Clear 20 1018 61 10000 2.24 241 07:59 16.05.2022
2085 Clouds 18 1017 65 10000 2.24 246 06:30 16.05.2022
2086 Clear 20 1018 57 10000 1.54 310 01:43 16.05.2022
2087 Clouds 23 1017 56 10000 2.57 240 22:44 15.05.2022
2088 Clouds 24 1016 49 10000 2.24 167 22:20 15.05.2022
2089 Rain 24 1016 47 10000 2.06 210 21:37 15.05.2022
2090 Clouds 26 1017 47 10000 2.57 220 20:47 15.05.2022
2091 Clouds 28 1016 43 10000 2.24 224 18:46 15.05.2022
2092 Clouds 29 1016 44 10000 3.58 101 16:54 15.05.2022
2093 Clouds 28 1017 50 10000 2.68 99 14:34 15.05.2022
2094 Clouds 27 1018 51 10000 2.68 236 13:46 15.05.2022
2095 Clear 26 1018 56 10000 2.24 145 11:59 15.05.2022
2096 Clear 25 1018 58 10000 1.79 208 10:49 15.05.2022
2097 Clear 23 1019 61 10000 0.89 59 09:51 15.05.2022
2098 Clear 19 1018 76 10000 0.51 290 07:23 15.05.2022
2099 Clear 18 1018 75 10000 0.89 290 06:55 15.05.2022
2100 Clouds 19 1017 67 10000 0.51 240 02:55 15.05.2022
2101 Clear 21 1018 59 10000 1.03 0 00:24 15.05.2022
2102 Clear 22 1017 56 10000 1.34 239 23:37 14.05.2022
2103 Clear 23 1018 56 10000 1.54 210 21:50 14.05.2022
2104 Clear 24 1016 48 10000 2.68 220 21:26 14.05.2022
2105 Clear 26 1015 44 10000 2.06 200 20:26 14.05.2022
2106 Clear 27 1016 42 10000 1.54 180 19:20 14.05.2022
2107 Clear 28 1016 41 10000 2.57 180 18:57 14.05.2022
2108 Clear 28 1015 40 10000 2.24 62 17:44 14.05.2022
2109 Clear 28 1016 40 10000 3.13 138 15:58 14.05.2022
2110 Clear 27 1017 47 10000 2.57 160 14:38 14.05.2022
2111 Clear 27 1017 47 10000 2.57 160 14:38 14.05.2022
2112 Clear 26 1018 51 10000 2.06 210 13:27 14.05.2022
2113 Clouds 24 1018 57 10000 1.79 104 11:45 14.05.2022
2114 Clear 22 1019 58 10000 2.57 250 10:43 14.05.2022
2115 Clouds 21 1019 59 10000 3.09 270 10:18 14.05.2022
2116 Clouds 19 1019 70 10000 2.57 250 09:23 14.05.2022
2117 Rain 18 1018 76 10000 3.09 270 07:32 14.05.2022
2118 Clear 18 1018 71 10000 2.68 248 04:35 14.05.2022
2119 Clear 19 1018 64 10000 3.09 290 00:27 14.05.2022
2120 Clear 20 1017 61 10000 3.13 233 23:25 13.05.2022
2121 Clear 20 1017 61 10000 2.68 226 23:25 13.05.2022
2122 Clouds 20 1017 60 10000 2.57 260 22:54 13.05.2022
2123 Clouds 21 1017 58 10000 2.57 250 22:21 13.05.2022
2124 Clouds 23 1015 53 10000 4.47 220 20:58 13.05.2022
2125 Clear 24 1015 52 10000 3.13 224 20:37 13.05.2022
2126 Clear 25 1015 50 10000 4.47 212 20:19 13.05.2022
2127 Clear 27 1015 49 10000 3.09 270 18:56 13.05.2022
2128 Clear 27 1015 47 10000 3.09 250 17:30 13.05.2022
2129 Clear 27 1016 47 10000 3.09 270 16:29 13.05.2022
2130 Clear 27 1016 45 10000 2.68 196 15:45 13.05.2022
2131 Clear 26 1017 48 10000 3.09 210 14:29 13.05.2022
2132 Clear 25 1018 52 10000 2.68 214 12:47 13.05.2022
2133 Clear 23 1019 56 10000 3.58 191 11:39 13.05.2022
2134 Clear 21 1019 60 10000 3.13 221 09:43 13.05.2022
2135 Clear 19 1019 64 10000 3.58 242 08:51 13.05.2022
2136 Clear 18 1019 70 10000 3.13 243 07:50 13.05.2022
2137 Clear 16 1018 77 10000 2.06 290 06:48 13.05.2022
2138 Clear 16 1018 75 10000 2.57 280 04:54 13.05.2022
2139 Clear 18 1019 64 10000 3.6 290 00:42 13.05.2022
2140 Clear 20 1019 59 10000 4.12 260 22:47 12.05.2022
2141 Clear 20 1019 59 10000 3.6 250 22:29 12.05.2022
2142 Clear 23 1017 54 10000 6.26 220 20:41 12.05.2022
2143 Clear 26 1017 44 10000 4.12 230 19:24 12.05.2022
2144 Clear 28 1017 41 10000 3.6 230 18:19 12.05.2022
2145 Clear 28 1018 46 10000 2.57 240 16:34 12.05.2022
2146 Clear 27 1018 50 10000 2.68 225 14:51 12.05.2022
2147 Clear 26 1019 53 10000 3.58 272 13:47 12.05.2022
2148 Clear 23 1020 61 10000 3.6 220 11:31 12.05.2022
2149 Clear 21 1020 66 10000 3.09 250 10:22 12.05.2022
2150 Clear 19 1020 74 10000 4.47 238 08:52 12.05.2022
2151 Clear 18 1020 77 10000 3.09 260 07:57 12.05.2022
2152 Clear 17 1020 78 10000 2.57 280 06:55 12.05.2022
2153 Clear 17 1019 68 10000 2.57 280 03:31 12.05.2022
2154 Clear 20 1018 59 10000 3.13 240 00:50 12.05.2022
2155 Clear 21 1018 53 10000 3.58 244 22:53 11.05.2022
2156 Clear 23 1018 47 10000 2.68 234 21:59 11.05.2022
2157 Clear 23 1017 45 10000 3.58 183 21:24 11.05.2022
2158 Clear 27 1018 38 10000 2.06 260 19:42 11.05.2022
2159 Clear 28 1017 33 10000 2.57 200 17:24 11.05.2022
2160 Clear 28 1018 36 10000 3.13 239 15:59 11.05.2022
2161 Clear 27 1019 39 10000 3.13 221 14:39 11.05.2022
2162 Clear 27 1019 42 10000 2.57 270 14:19 11.05.2022
2163 Clear 24 1020 49 10000 1.54 0 11:55 11.05.2022
2164 Clear 24 1020 49 10000 3.13 233 11:30 11.05.2022
2165 Clear 21 1020 58 10000 2.68 222 09:29 11.05.2022
2166 Clouds 16 1019 72 10000 0.61 175 06:24 11.05.2022
2167 Clear 19 1018 62 10000 2.06 270 01:28 11.05.2022
2168 Clear 20 1019 66 10000 0.51 0 22:53 10.05.2022
2169 Clear 21 1018 60 10000 1.34 207 22:19 10.05.2022
2170 Clear 23 1017 48 10000 1.54 210 20:59 10.05.2022
2171 Clear 25 1017 44 10000 1.79 229 20:21 10.05.2022
2172 Clear 26 1019 41 10000 2.06 220 18:35 10.05.2022
2173 Clouds 26 1019 42 10000 2.57 0 17:37 10.05.2022
2174 Clouds 26 1020 43 10000 2.57 170 15:49 10.05.2022
2175 Clear 24 1021 52 10000 2.24 200 12:48 10.05.2022
2176 Clear 23 1021 57 10000 2.06 270 11:53 10.05.2022
2177 Clear 23 1021 58 10000 1.54 220 11:21 10.05.2022
2178 Clear 22 1022 60 10000 2.24 232 10:54 10.05.2022
2179 Clear 20 1022 70 10000 1.79 154 09:27 10.05.2022
2180 Clouds 17 1022 78 10000 1.03 0 07:47 10.05.2022
2181 Clear 16 1022 81 10000 1.54 360 04:35 10.05.2022
2182 Clear 17 1022 81 10000 1.79 54 01:36 10.05.2022
2183 Clear 18 1022 77 10000 0.51 0 23:37 09.05.2022
2184 Clear 19 1021 72 10000 1.34 90 22:29 09.05.2022
2185 Clear 20 1021 69 10000 1.03 0 21:21 09.05.2022
2186 Clouds 22 1020 57 10000 1.03 0 19:52 09.05.2022
2187 Clouds 23 1022 58 10000 1.54 0 17:59 09.05.2022
2188 Clouds 24 1020 48 10000 2.06 170 16:49 09.05.2022
2189 Clouds 24 1021 46 10000 3.13 241 15:53 09.05.2022
2190 Clouds 24 1021 45 10000 4.02 215 15:31 09.05.2022
2191 Clouds 24 1021 46 10000 1.79 197 14:32 09.05.2022
2192 Clouds 23 1022 49 10000 2.06 30 13:51 09.05.2022
2193 Clear 23 1022 51 10000 2.57 180 12:30 09.05.2022
2194 Clear 22 1023 54 10000 2.57 190 11:43 09.05.2022
2195 Clouds 20 1023 63 10000 1.03 0 10:44 09.05.2022
2196 Clouds 18 1022 73 10000 0.51 0 09:38 09.05.2022
2197 Clouds 15 1022 85 10000 0.51 0 07:55 09.05.2022
2198 Clear 15 1021 86 10000 1.03 0 03:40 09.05.2022
2199 Clouds 17 1021 80 10000 0.89 3 00:20 09.05.2022
2200 Clear 17 1020 78 10000 1.54 350 22:56 08.05.2022
2201 Clear 17 1020 76 10000 1.54 10 21:56 08.05.2022
2202 Clouds 19 1019 69 10000 2.06 20 20:37 08.05.2022
2203 Clouds 19 1019 68 10000 1.34 349 19:53 08.05.2022
2204 Clouds 20 1019 59 10000 3.6 70 18:57 08.05.2022
2205 Clouds 20 1018 60 10000 2.06 130 18:19 08.05.2022
2206 Clouds 21 1019 55 10000 3.58 65 16:56 08.05.2022
2207 Clouds 21 1019 57 10000 3.58 124 15:40 08.05.2022
2208 Clouds 20 1019 62 10000 2.57 80 14:57 08.05.2022
2209 Clouds 20 1020 63 10000 2.68 113 12:33 08.05.2022
2210 Clouds 18 1020 69 10000 1.79 187 10:32 08.05.2022
2211 Clouds 18 1019 71 10000 1.79 44 09:58 08.05.2022
2212 Clouds 18 1019 71 10000 1.79 44 09:58 08.05.2022
2213 Clouds 16 1019 81 10000 1.54 340 08:57 08.05.2022
2214 Rain 14 1018 90 10000 0.89 350 07:25 08.05.2022
2215 Rain 14 1018 91 10000 0.89 14 03:55 08.05.2022
2216 Clouds 14 1018 90 10000 2.06 350 02:47 08.05.2022
2217 Clouds 15 1018 88 10000 2.06 20 00:28 08.05.2022
2218 Clouds 15 1018 87 10000 2.06 30 23:50 07.05.2022
2219 Clouds 16 1018 83 10000 2.57 30 22:46 07.05.2022
2220 Clouds 16 1018 81 10000 2.06 50 21:59 07.05.2022
2221 Rain 16 1018 78 10000 2.24 27 21:34 07.05.2022
2222 Clouds 16 1017 75 10000 3.13 72 20:34 07.05.2022
2223 Clouds 17 1017 75 10000 3.09 80 19:44 07.05.2022
2224 Rain 18 1017 68 10000 4.92 61 17:35 07.05.2022
2225 Clouds 19 1017 66 10000 3.13 156 15:47 07.05.2022
2226 Clouds 19 1018 67 10000 3.13 109 13:58 07.05.2022
2227 Clouds 16 1020 82 10000 0.51 0 10:46 07.05.2022
2228 Mist 14 1020 93 5000 0.51 0 09:19 07.05.2022
2229 Mist 13 1019 96 3000 0 0 07:50 07.05.2022
2230 Fog 12 1018 96 3000 1.03 190 06:43 07.05.2022
2231 Clouds 13 1019 95 7000 0.51 350 04:41 07.05.2022
2232 Drizzle 13 1020 93 8000 1.34 13 01:19 07.05.2022
2233 Clouds 13 1020 92 10000 1.54 120 23:36 06.05.2022
2234 Clouds 13 1020 93 10000 1.54 360 22:26 06.05.2022
2235 Clouds 13 1020 93 10000 1.54 350 21:41 06.05.2022
2236 Clouds 14 1019 92 10000 1.54 30 20:24 06.05.2022
2237 Rain 14 1019 91 10000 1.54 10 19:29 06.05.2022
2238 Rain 14 1019 91 10000 1.54 30 18:56 06.05.2022
2239 Rain 14 1019 90 10000 1.54 70 17:38 06.05.2022
2240 Rain 14 1019 91 10000 2.68 181 15:56 06.05.2022
2241 Rain 14 1019 91 6000 2.57 170 15:38 06.05.2022
2242 Rain 14 1019 89 6000 1.79 81 14:23 06.05.2022
2243 Rain 14 1019 91 5000 0.51 0 12:53 06.05.2022
2244 Rain 14 1019 91 5000 1.03 0 12:30 06.05.2022
2245 Rain 14 1019 92 5000 2.06 40 11:33 06.05.2022
2246 Rain 13 1018 94 5000 0.51 0 09:49 06.05.2022
2247 Drizzle 13 1018 94 6000 1.03 0 09:19 06.05.2022
2248 Rain 13 1018 95 6000 1.54 360 07:57 06.05.2022
2249 Clouds 12 1017 95 6000 2.06 50 06:29 06.05.2022
2250 Rain 12 1018 94 5000 3.09 40 04:32 06.05.2022
2251 Clouds 13 1018 94 7000 2.57 50 02:40 06.05.2022
2252 Rain 13 1019 94 6000 2.57 10 23:25 05.05.2022
2253 Clouds 13 1019 94 7000 3.09 350 21:52 05.05.2022
2254 Rain 13 1019 92 3000 1.54 340 20:48 05.05.2022
2255 Rain 13 1019 92 4000 1.79 322 19:42 05.05.2022
2256 Rain 14 1018 86 7000 2.57 360 16:51 05.05.2022
2257 Rain 16 1018 79 10000 1.79 52 15:48 05.05.2022
2258 Clouds 17 1018 70 10000 2.06 150 14:34 05.05.2022
2259 Clouds 17 1019 68 10000 2.57 110 13:18 05.05.2022
2260 Rain 17 1019 70 10000 3.6 120 11:46 05.05.2022
2261 Clouds 16 1018 70 10000 3.09 110 09:47 05.05.2022
2262 Clouds 16 1018 71 10000 4.12 120 09:26 05.05.2022
2263 Clouds 14 1017 78 10000 1.79 101 06:33 05.05.2022
2264 Clouds 15 1018 74 10000 0.89 176 02:28 05.05.2022
2265 Clouds 15 1017 73 10000 1.03 0 01:45 05.05.2022
2266 Clouds 16 1017 75 10000 2.06 30 00:57 05.05.2022
2267 Clouds 16 1017 76 10000 1.54 340 23:22 04.05.2022
2268 Clouds 16 1017 74 10000 1.34 318 22:18 04.05.2022
2269 Clouds 17 1017 72 10000 2.68 289 21:45 04.05.2022
2270 Clouds 17 1016 72 10000 1.54 10 20:55 04.05.2022
2271 Clouds 18 1016 65 10000 1.03 0 20:18 04.05.2022
2272 Clouds 19 1015 64 10000 2.57 360 19:35 04.05.2022
2273 Thunderstorm 19 1016 63 10000 2.06 350 18:43 04.05.2022
2274 Thunderstorm 19 1016 60 10000 3.09 140 18:19 04.05.2022
2275 Rain 20 1015 54 10000 4.02 311 17:22 04.05.2022
2276 Clouds 21 1017 51 10000 2.57 20 15:34 04.05.2022
2277 Clouds 21 1016 53 10000 4.02 18 14:41 04.05.2022
2278 Clouds 20 1016 53 10000 2.06 0 14:19 04.05.2022
2279 Clouds 19 1018 59 10000 1.03 0 12:39 04.05.2022
2280 Rain 18 1018 65 10000 1.03 0 11:40 04.05.2022
2281 Clouds 17 1017 72 10000 1.03 0 10:27 04.05.2022
2282 Rain 15 1016 81 10000 2.68 293 09:21 04.05.2022
2283 Rain 14 1016 85 8000 2.24 269 07:51 04.05.2022
2284 Clouds 14 1015 87 10000 2.24 249 04:45 04.05.2022
2285 Clear 14 1015 82 10000 2.24 229 02:33 04.05.2022
2286 Rain 15 1015 78 10000 2.57 0 23:20 03.05.2022
2287 Rain 15 1015 77 10000 3.09 330 21:53 03.05.2022
2288 Rain 15 1015 79 10000 2.68 12 21:31 03.05.2022
2289 Rain 15 1015 74 10000 1.03 0 20:46 03.05.2022
2290 Rain 17 1014 66 10000 5.66 210 19:32 03.05.2022
2291 Clouds 19 1014 56 10000 4.02 196 18:43 03.05.2022
2292 Clouds 20 1013 48 10000 3.6 10 17:22 03.05.2022
2293 Clouds 20 1013 52 10000 6.69 10 15:57 03.05.2022
2294 Clouds 21 1013 48 10000 2.06 60 14:23 03.05.2022
2295 Clouds 21 1014 49 10000 1.79 324 12:35 03.05.2022
2296 Clouds 20 1016 54 10000 1.03 0 11:39 03.05.2022
2297 Clouds 19 1015 57 10000 2.57 130 10:44 03.05.2022
2298 Clear 15 1015 68 10000 1.54 60 08:19 03.05.2022
2299 Clear 14 1013 71 10000 1.34 2 06:45 03.05.2022
2300 Clear 15 1014 64 10000 2.57 70 02:39 03.05.2022
2301 Clear 17 1013 51 10000 2.06 110 23:19 02.05.2022
2302 Clear 17 1012 52 10000 2.06 100 22:28 02.05.2022
2303 Clear 17 1014 55 10000 2.06 100 22:28 02.05.2022
2304 Clear 18 1014 52 10000 2.57 120 21:47 02.05.2022
2305 Clouds 21 1011 43 10000 3.6 110 19:30 02.05.2022
2306 Clouds 21 1011 40 10000 4.92 116 18:26 02.05.2022
2307 Clouds 22 1013 43 10000 3.6 130 17:41 02.05.2022
2308 Clouds 22 1013 41 10000 3.58 128 16:43 02.05.2022
2309 Clouds 22 1012 41 10000 3.09 120 15:41 02.05.2022
2310 Clouds 21 1013 42 10000 1.54 0 14:45 02.05.2022
2311 Clouds 21 1013 46 10000 3.58 134 13:42 02.05.2022
2312 Clear 19 1014 52 10000 2.06 120 11:41 02.05.2022
2313 Clear 17 1015 63 10000 2.06 70 09:45 02.05.2022
2314 Clear 14 1014 72 10000 2.06 90 08:29 02.05.2022
2315 Clear 12 1015 79 10000 1.03 10 06:53 02.05.2022
2316 Clear 15 1015 69 10000 2.68 103 00:46 02.05.2022
2317 Clear 15 1015 68 10000 3.09 90 00:22 02.05.2022
2318 Clouds 16 1015 64 10000 3.6 100 22:55 01.05.2022
2319 Clouds 17 1014 53 10000 5.14 120 21:43 01.05.2022
2320 Clear 19 1014 40 10000 4.63 140 20:36 01.05.2022
2321 Clear 21 1012 37 10000 3.6 150 19:22 01.05.2022
2322 Clear 21 1012 36 10000 3.13 157 18:52 01.05.2022
2323 Clouds 21 1012 36 10000 4.47 115 17:49 01.05.2022
2324 Clouds 21 1013 38 10000 7.15 80 16:37 01.05.2022
2325 Clouds 21 1014 39 10000 3.13 64 15:51 01.05.2022
2326 Clouds 21 1014 42 10000 2.68 91 14:45 01.05.2022
2327 Clouds 19 1016 47 10000 3.6 100 12:40 01.05.2022
2328 Clouds 17 1016 57 10000 3.13 112 10:22 01.05.2022
2329 Clouds 15 1016 68 10000 2.68 59 08:50 01.05.2022
2330 Clouds 13 1016 69 10000 1.54 80 06:50 01.05.2022
2331 Clouds 15 1016 61 10000 1.54 350 01:56 01.05.2022
2332 Clouds 17 1016 50 10000 1.03 0 22:18 30.04.2022
2333 Clouds 18 1016 44 10000 1.79 285 21:32 30.04.2022
2334 Clouds 20 1016 38 10000 2.06 160 19:54 30.04.2022
2335 Clouds 20 1016 35 10000 2.06 110 18:53 30.04.2022
2336 Clouds 21 1017 32 10000 2.68 123 17:26 30.04.2022
2337 Clouds 21 1018 32 10000 3.09 170 15:51 30.04.2022
2338 Clouds 21 1018 32 10000 3.09 170 15:51 30.04.2022
2339 Clouds 21 1017 31 10000 4.02 108 15:18 30.04.2022
2340 Clouds 20 1019 35 10000 2.68 149 13:52 30.04.2022
2341 Clouds 19 1021 40 10000 1.54 160 11:48 30.04.2022
2342 Clouds 18 1021 42 10000 2.06 140 11:26 30.04.2022
2343 Clouds 17 1020 47 10000 1.54 110 09:57 30.04.2022
2344 Clouds 14 1021 62 10000 1.03 0 07:47 30.04.2022
2345 Clouds 14 1021 59 10000 1.54 70 03:58 30.04.2022
2346 Clear 16 1023 49 10000 2.57 140 23:55 29.04.2022
2347 Clouds 16 1022 48 10000 2.57 150 22:37 29.04.2022
2348 Clouds 18 1022 43 10000 3.09 140 21:56 29.04.2022
2349 Clear 18 1020 40 10000 3.09 150 21:24 29.04.2022
2350 Clear 20 1021 39 10000 3.6 130 19:55 29.04.2022
2351 Clear 21 1020 35 10000 4.63 130 19:27 29.04.2022
2352 Clear 22 1020 34 10000 4.12 150 17:34 29.04.2022
2353 Clear 22 1021 35 10000 4.47 91 16:36 29.04.2022
2354 Clear 21 1023 39 10000 3.09 100 14:36 29.04.2022
2355 Clear 21 1023 38 10000 2.24 171 13:36 29.04.2022
2356 Clear 20 1024 39 10000 3.13 137 12:36 29.04.2022
2357 Clouds 18 1025 54 10000 3.13 67 10:29 29.04.2022
2358 Clouds 15 1025 64 10000 3.13 101 07:52 29.04.2022
2359 Clouds 13 1025 75 10000 1.03 0 07:25 29.04.2022
2360 Clouds 14 1025 72 10000 1.54 30 06:29 29.04.2022
2361 Clouds 15 1025 63 10000 2.57 50 01:47 29.04.2022
2362 Clear 15 1025 64 10000 2.57 110 23:55 28.04.2022
2363 Clear 16 1024 59 10000 2.57 120 23:25 28.04.2022
2364 Clear 17 1022 55 10000 3.09 140 22:19 28.04.2022
2365 Clear 18 1023 55 10000 3.09 130 21:41 28.04.2022
2366 Clear 19 1023 51 10000 3.6 140 20:43 28.04.2022
2367 Clear 21 1021 42 10000 4.12 110 19:49 28.04.2022
2368 Clear 21 1022 45 10000 3.09 140 19:24 28.04.2022
2369 Clear 21 1020 44 10000 3.09 140 18:45 28.04.2022
2370 Clear 22 1021 43 10000 2.57 140 17:32 28.04.2022
2371 Clear 22 1021 41 10000 3.09 90 16:50 28.04.2022
2372 Clear 22 1022 43 10000 2.68 151 16:20 28.04.2022
2373 Clear 22 1022 43 10000 2.68 151 16:20 28.04.2022
2374 Clear 21 1022 44 10000 2.06 0 15:41 28.04.2022
2375 Clear 21 1022 41 10000 1.79 46 14:55 28.04.2022
2376 Clear 20 1022 42 10000 3.13 137 13:23 28.04.2022
2377 Clouds 19 1023 47 10000 3.09 90 12:28 28.04.2022
2378 Clouds 17 1023 56 10000 4.12 80 10:51 28.04.2022
2379 Clear 16 1024 61 10000 4.63 100 10:26 28.04.2022
2380 Clouds 16 1024 61 10000 4.63 80 09:43 28.04.2022
2381 Clouds 13 1022 63 10000 3.09 80 07:40 28.04.2022
2382 Clouds 13 1022 64 10000 2.57 50 06:38 28.04.2022
2383 Clouds 13 1022 65 10000 3.09 80 05:40 28.04.2022
2384 Clouds 13 1022 67 10000 2.06 80 04:42 28.04.2022
2385 Clear 14 1021 65 10000 1.54 70 00:51 28.04.2022
2386 Clear 15 1020 65 10000 1.54 30 22:52 27.04.2022
2387 Clear 17 1020 58 10000 2.06 120 21:58 27.04.2022
2388 Clear 18 1017 51 10000 2.57 110 21:32 27.04.2022
2389 Clear 19 1019 48 10000 3.6 120 20:44 27.04.2022
2390 Clear 21 1018 43 10000 3.6 110 19:41 27.04.2022
2391 Clear 21 1017 45 10000 3.09 130 19:22 27.04.2022
2392 Clear 21 1017 42 10000 2.06 130 18:38 27.04.2022
2393 Clouds 22 1017 45 10000 2.57 90 17:26 27.04.2022
2394 Clear 21 1017 48 10000 1.79 112 15:56 27.04.2022
2395 Clouds 18 1017 61 10000 1.34 231 12:34 27.04.2022
2396 Clouds 17 1017 68 10000 2.06 160 11:23 27.04.2022
2397 Clear 16 1017 69 10000 2.57 130 10:22 27.04.2022
2398 Fog 10 1017 88 2000 0.51 0 07:29 27.04.2022
2399 Clouds 9 1016 90 7000 0.45 68 06:30 27.04.2022
2400 Clear 12 1014 86 10000 1.34 275 02:21 27.04.2022
2401 Clear 12 1014 84 10000 3.13 250 00:57 27.04.2022
2402 Clear 13 1014 83 10000 2.68 269 23:58 26.04.2022
2403 Clear 13 1014 84 10000 2.68 295 23:23 26.04.2022
2404 Clear 13 1013 85 10000 2.24 244 22:42 26.04.2022
2405 Clear 14 1013 88 10000 2.24 259 21:49 26.04.2022
2406 Clear 15 1012 83 10000 1.34 270 20:56 26.04.2022
2407 Clear 16 1012 81 10000 1.34 246 20:35 26.04.2022
2408 Clouds 16 1012 78 10000 1.03 0 19:34 26.04.2022
2409 Clouds 16 1012 77 8000 2.06 280 18:51 26.04.2022
2410 Clouds 17 1012 67 10000 2.06 70 18:18 26.04.2022
2411 Clouds 17 1012 71 10000 2.24 165 18:18 26.04.2022
2412 Rain 18 1011 64 10000 1.54 0 17:32 26.04.2022
2413 Clouds 16 1014 78 10000 3.09 60 14:46 26.04.2022
2414 Clouds 15 1014 84 10000 2.57 80 13:34 26.04.2022
2415 Clouds 14 1013 89 10000 3.09 80 12:25 26.04.2022
2416 Clouds 13 1013 92 8000 2.68 76 10:46 26.04.2022
2417 Clouds 12 1012 90 6000 2.57 70 09:41 26.04.2022
2418 Clouds 12 1012 87 10000 1.54 50 07:59 26.04.2022
2419 Clouds 12 1013 90 10000 0.89 136 04:33 26.04.2022
2420 Clouds 13 1012 92 10000 1.54 50 02:20 26.04.2022
2421 Clouds 12 1011 94 10000 2.68 13 00:26 26.04.2022
2422 Thunderstorm 13 1010 90 7000 6.17 300 22:49 25.04.2022
2423 Rain 14 1010 82 10000 3.58 321 21:43 25.04.2022
2424 Rain 15 1007 74 10000 2.68 125 20:45 25.04.2022
2425 Clouds 18 1009 61 10000 3.6 140 19:34 25.04.2022
2426 Clouds 19 1010 57 10000 3.6 160 18:23 25.04.2022
2427 Clouds 20 1008 53 10000 3.09 150 17:23 25.04.2022
2428 Clouds 19 1008 50 10000 2.24 232 15:29 25.04.2022
2429 Clouds 19 1010 53 10000 1.03 0 14:54 25.04.2022
2430 Clouds 18 1009 54 10000 2.06 0 13:41 25.04.2022
2431 Clear 18 1009 58 10000 2.57 0 11:49 25.04.2022
2432 Clear 15 1008 68 10000 2.06 260 10:27 25.04.2022
2433 Clouds 12 1007 79 10000 3.09 280 08:47 25.04.2022
2434 Clouds 9 1006 85 10000 0.89 330 06:46 25.04.2022
2435 Clear 10 1006 81 10000 2.06 270 04:33 25.04.2022
2436 Clear 11 1007 77 10000 3.13 235 00:58 25.04.2022
2437 Clouds 11 1006 77 10000 2.24 240 23:52 24.04.2022
2438 Clouds 11 1005 78 10000 2.24 218 22:49 24.04.2022
2439 Clouds 11 1005 78 10000 1.03 230 22:29 24.04.2022
2440 Clouds 12 1005 75 10000 0.51 300 21:41 24.04.2022
2441 Clear 13 1004 72 10000 0.51 240 21:18 24.04.2022
2442 Clouds 13 1006 67 10000 1.03 0 20:35 24.04.2022
2443 Clouds 15 1004 55 10000 2.68 229 19:48 24.04.2022
2444 Clouds 16 1005 56 10000 2.68 255 18:20 24.04.2022
2445 Clouds 15 1004 60 10000 3.09 210 17:29 24.04.2022
2446 Clouds 16 1005 61 10000 2.68 162 16:59 24.04.2022
2447 Clouds 15 1004 62 10000 2.68 190 16:35 24.04.2022
2448 Clouds 15 1004 61 10000 4.47 209 15:54 24.04.2022
2449 Clouds 15 1004 59 10000 3.09 60 15:29 24.04.2022
2450 Clouds 14 1004 66 10000 5.14 100 13:56 24.04.2022
2451 Clouds 13 1004 70 10000 4.63 100 13:25 24.04.2022
2452 Clouds 13 1004 71 10000 4.63 90 11:56 24.04.2022
2453 Clouds 13 1004 68 10000 5.14 100 11:27 24.04.2022
2454 Clouds 12 1004 71 10000 4.63 100 10:24 24.04.2022
2455 Clouds 11 1002 77 10000 4.63 100 09:19 24.04.2022
2456 Clouds 10 1001 81 10000 4.63 110 06:18 24.04.2022
2457 Clouds 11 1002 84 10000 5.66 130 03:37 24.04.2022
2458 Rain 12 1002 90 10000 4.12 100 01:37 24.04.2022
2459 Clouds 12 1001 89 8000 5.66 190 23:57 23.04.2022
2460 Clouds 13 1001 89 8000 8.23 120 23:26 23.04.2022
2461 Rain 13 1001 91 10000 8.75 120 22:46 23.04.2022
2462 Rain 14 1001 84 10000 6.69 100 21:49 23.04.2022
2463 Rain 14 1001 79 10000 7.15 58 21:31 23.04.2022
2464 Clouds 15 1001 76 8000 6.17 100 20:27 23.04.2022
2465 Clouds 15 1002 77 7000 5.66 90 19:21 23.04.2022
2466 Clouds 15 1003 78 7000 4.12 100 18:55 23.04.2022
2467 Clouds 15 1003 78 7000 4.12 100 18:32 23.04.2022
2468 Rain 15 1003 80 8000 4.63 100 17:48 23.04.2022
2469 Rain 15 1003 80 7000 5.14 120 16:47 23.04.2022
2470 Rain 16 1004 76 10000 6.26 84 15:54 23.04.2022
2471 Clouds 16 1005 71 10000 5.81 63 13:33 23.04.2022
2472 Clouds 15 1005 70 10000 7.6 101 11:57 23.04.2022
2473 Clouds 15 1005 70 10000 5.66 100 10:40 23.04.2022
2474 Clouds 12 1005 84 7000 2.68 107 08:30 23.04.2022
2475 Clouds 12 1004 83 10000 1.79 68 05:27 23.04.2022
2476 Clouds 12 1004 81 10000 1.54 40 03:32 23.04.2022
2477 Clouds 13 1003 77 10000 1.79 68 23:38 22.04.2022
2478 Clouds 13 1003 77 10000 1.54 100 23:20 22.04.2022
2479 Clouds 14 1002 73 10000 2.24 136 21:58 22.04.2022
2480 Clouds 14 1002 72 10000 2.24 117 21:39 22.04.2022
2481 Clouds 15 1002 69 10000 3.6 120 20:34 22.04.2022
2482 Clouds 16 1001 64 10000 3.09 160 19:27 22.04.2022
2483 Clouds 16 1001 64 10000 3.6 160 18:57 22.04.2022
2484 Clouds 16 1001 63 10000 2.57 170 18:26 22.04.2022
2485 Clouds 16 1000 63 10000 3.09 180 16:57 22.04.2022
2486 Clouds 16 1000 63 10000 3.6 220 15:59 22.04.2022
2487 Clouds 16 1000 63 10000 4.12 210 15:24 22.04.2022
2488 Clouds 16 999 63 10000 3.6 220 14:38 22.04.2022
2489 Clouds 15 999 66 8000 4.02 219 13:41 22.04.2022
2490 Clouds 14 999 69 8000 2.24 227 12:47 22.04.2022
2491 Clouds 12 1000 76 8000 2.57 250 11:23 22.04.2022
2492 Clouds 12 999 79 7000 2.57 250 10:56 22.04.2022
2493 Clouds 11 1000 81 7000 3.09 260 10:34 22.04.2022
2494 Clouds 10 1000 83 7000 2.57 250 09:57 22.04.2022
2495 Clouds 10 1000 84 7000 2.68 231 09:21 22.04.2022
2496 Clouds 9 1000 87 6000 2.24 264 08:42 22.04.2022
2497 Rain 9 1000 89 8000 0.89 208 06:38 22.04.2022
2498 Rain 11 1004 70 10000 1.34 197 00:56 22.04.2022
2499 Clouds 12 1005 63 10000 1.54 60 23:31 21.04.2022
2500 Clouds 12 1005 61 10000 2.06 70 22:43 21.04.2022
2501 Clouds 13 1006 60 10000 2.06 60 21:36 21.04.2022
2502 Clouds 13 1006 56 10000 4.02 90 20:30 21.04.2022
2503 Clouds 13 1007 55 10000 3.6 100 18:49 21.04.2022
2504 Clouds 14 1007 52 10000 4.63 110 18:26 21.04.2022
2505 Clouds 14 1007 53 10000 5.14 110 17:19 21.04.2022
2506 Rain 16 1008 42 10000 3.6 100 15:24 21.04.2022
2507 Rain 16 1009 41 10000 4.12 130 14:52 21.04.2022
2508 Rain 15 1009 42 10000 4.02 116 14:18 21.04.2022
2509 Clouds 15 1009 42 10000 5.66 140 13:21 21.04.2022
2510 Clouds 15 1010 45 10000 4.63 100 12:22 21.04.2022
2511 Clouds 12 1009 46 10000 4.63 100 09:33 21.04.2022
2512 Clouds 11 1010 50 10000 2.57 90 08:38 21.04.2022
2513 Clouds 10 1009 59 10000 2.06 80 06:36 21.04.2022
2514 Clouds 11 1010 63 10000 4.02 79 03:39 21.04.2022
2515 Clouds 11 1011 64 10000 3.09 90 03:20 21.04.2022
2516 Clouds 11 1011 66 10000 3.09 70 02:44 21.04.2022
2517 Clouds 13 1011 66 10000 2.57 110 00:34 21.04.2022
2518 Clouds 14 1011 61 10000 3.13 144 23:25 20.04.2022
2519 Clouds 14 1011 60 10000 4.02 101 22:59 20.04.2022
2520 Clouds 14 1011 60 10000 4.02 101 22:59 20.04.2022
2521 Clouds 14 1011 60 10000 2.68 97 22:33 20.04.2022
2522 Clear 14 1012 62 10000 1.54 80 21:36 20.04.2022
2523 Clouds 14 1012 58 10000 0.45 73 20:44 20.04.2022
2524 Clouds 14 1012 57 10000 1.32 24 20:21 20.04.2022
2525 Clouds 15 1012 68 10000 1.81 47 19:39 20.04.2022
2526 Clouds 16 1011 51 10000 3.09 100 18:45 20.04.2022
2527 Clouds 15 1013 68 10000 2.56 116 17:18 20.04.2022
2528 Clouds 15 1013 56 10000 2.56 116 16:39 20.04.2022
2529 Clouds 14 1013 57 10000 3.6 94 14:55 20.04.2022
2530 Clouds 13 1013 62 10000 5.66 90 12:18 20.04.2022
2531 Clouds 13 1012 62 10000 5.66 110 11:36 20.04.2022
2532 Clouds 12 1012 64 10000 6.17 110 10:39 20.04.2022
2533 Clouds 12 1012 70 10000 4.63 90 09:28 20.04.2022
2534 Clouds 11 1012 74 10000 3.58 97 08:25 20.04.2022
2535 Clouds 11 1012 75 10000 2.68 103 07:44 20.04.2022
2536 Clear 11 1011 71 10000 3.58 103 05:19 20.04.2022
2537 Clouds 12 1009 75 10000 0.89 40 01:20 20.04.2022
2538 Clear 13 1008 72 10000 1.54 320 00:21 20.04.2022
2539 Clear 14 1007 66 10000 3.13 229 22:44 19.04.2022
2540 Clear 15 1007 66 10000 4.02 245 22:23 19.04.2022
2541 Clear 15 1007 62 10000 3.58 223 21:46 19.04.2022
2542 Clear 16 1006 57 10000 3.6 230 20:57 19.04.2022
2543 Clear 17 1005 56 10000 5.36 217 20:37 19.04.2022
2544 Clouds 19 1005 49 10000 6.26 223 19:32 19.04.2022
2545 Clear 21 1005 39 10000 4.47 219 18:26 19.04.2022
2546 Clear 22 1005 33 10000 4.92 244 16:47 19.04.2022
2547 Clear 21 1005 34 10000 3.09 240 16:25 19.04.2022
2548 Clear 20 1006 34 10000 3.6 280 15:23 19.04.2022
2549 Clear 20 1007 32 10000 2.57 0 14:40 19.04.2022
2550 Clear 18 1008 30 10000 2.57 200 12:52 19.04.2022
2551 Clear 17 1008 30 10000 2.24 159 12:29 19.04.2022
2552 Clear 16 1009 32 10000 2.24 238 11:23 19.04.2022
2553 Clear 13 1012 43 10000 1.79 128 09:31 19.04.2022
2554 Clear 9 1010 58 10000 1.03 0 07:37 19.04.2022
2555 Clear 10 1011 51 10000 2.68 67 04:23 19.04.2022
2556 Clear 11 1012 51 10000 2.57 90 01:18 19.04.2022
2557 Clear 12 1013 52 10000 3.09 120 23:44 18.04.2022
2558 Clear 14 1012 42 10000 2.57 130 21:57 18.04.2022
2559 Clear 15 1011 38 10000 3.6 110 21:25 18.04.2022
2560 Clear 16 1011 37 10000 3.58 131 20:38 18.04.2022
2561 Clear 18 1011 34 10000 1.54 150 19:59 18.04.2022
2562 Clear 18 1011 33 10000 2.68 123 19:30 18.04.2022
2563 Clear 18 1010 31 10000 2.68 126 18:37 18.04.2022
2564 Clear 19 1011 32 10000 2.06 0 17:39 18.04.2022
2565 Clear 19 1012 31 10000 3.09 140 17:19 18.04.2022
2566 Clear 19 1012 32 10000 1.34 106 16:38 18.04.2022
2567 Clear 18 1012 31 10000 2.57 100 15:30 18.04.2022
2568 Clear 17 1013 31 10000 4.02 175 13:55 18.04.2022
2569 Clear 16 1014 32 10000 2.57 0 12:41 18.04.2022
2570 Clear 15 1014 33 10000 2.24 127 11:48 18.04.2022
2571 Clear 14 1015 38 10000 2.06 150 10:46 18.04.2022
2572 Clear 12 1017 44 10000 3.6 120 09:31 18.04.2022
2573 Clear 11 1017 44 10000 2.68 98 08:39 18.04.2022
2574 Clouds 10 1017 49 10000 2.57 60 06:44 18.04.2022
2575 Clouds 11 1018 46 10000 2.57 80 02:27 18.04.2022
2576 Clear 12 1016 41 10000 3.6 130 22:55 17.04.2022
2577 Clear 13 1017 40 10000 3.09 130 22:32 17.04.2022
2578 Clear 13 1016 40 10000 4.63 140 21:34 17.04.2022
2579 Clear 14 1015 38 10000 4.63 150 20:51 17.04.2022
2580 Clear 15 1015 37 10000 5.14 140 20:18 17.04.2022
2581 Clear 16 1014 38 10000 5.14 130 18:42 17.04.2022
2582 Clear 17 1016 39 10000 3.09 160 17:20 17.04.2022
2583 Clear 17 1018 41 10000 3.09 0 15:34 17.04.2022
2584 Clear 16 1018 42 10000 3.13 121 14:45 17.04.2022
2585 Clear 15 1019 43 10000 3.13 187 13:28 17.04.2022
2586 Clear 14 1020 43 10000 4.47 164 12:31 17.04.2022
2587 Clear 13 1021 45 10000 6.17 110 10:51 17.04.2022
2588 Clear 13 1021 45 10000 6.17 120 10:29 17.04.2022
2589 Clear 12 1021 45 10000 5.66 130 09:51 17.04.2022
2590 Clear 12 1021 49 10000 5.14 110 09:18 17.04.2022
2591 Clear 11 1021 52 10000 4.02 89 08:29 17.04.2022
2592 Clouds 11 1021 62 10000 4.02 87 05:33 17.04.2022
2593 Clear 14 1020 60 10000 3.6 80 01:52 17.04.2022
2594 Clear 14 1019 61 10000 3.6 80 00:37 17.04.2022
2595 Clear 15 1019 61 10000 3.6 70 23:19 16.04.2022
2596 Clear 16 1017 56 10000 5.14 90 21:45 16.04.2022
2597 Clear 17 1017 53 10000 6.69 90 20:54 16.04.2022
2598 Clear 19 1016 45 10000 8.23 120 19:21 16.04.2022
2599 Clear 21 1015 47 10000 9.77 120 18:43 16.04.2022
2600 Clear 23 1014 37 10000 4.12 140 16:51 16.04.2022
2601 Clear 24 1014 35 10000 4.63 120 15:48 16.04.2022
2602 Clear 24 1014 32 10000 4.63 150 14:58 16.04.2022
2603 Clear 24 1014 32 10000 4.63 120 14:30 16.04.2022
2604 Clear 24 1014 31 10000 4.63 140 13:48 16.04.2022
2605 Clear 23 1015 33 10000 2.57 150 12:35 16.04.2022
2606 Clear 22 1017 35 10000 1.54 180 11:26 16.04.2022
2607 Clear 20 1016 39 10000 1.03 0 10:29 16.04.2022
2608 Clear 18 1018 54 10000 1.54 10 09:36 16.04.2022
2609 Clear 15 1017 61 10000 1.03 0 08:42 16.04.2022
2610 Clear 12 1017 66 10000 0.51 360 07:21 16.04.2022
2611 Clear 13 1017 61 10000 0.51 0 04:54 16.04.2022
2612 Clear 17 1019 50 10000 2.06 60 00:40 16.04.2022
2613 Clear 17 1019 50 10000 1.54 60 23:40 15.04.2022
2614 Clear 19 1018 49 10000 3.09 120 22:45 15.04.2022
2615 Clear 19 1018 47 10000 3.6 130 22:27 15.04.2022
2616 Clear 21 1017 45 10000 3.6 130 21:20 15.04.2022
2617 Clear 22 1017 42 10000 3.09 120 20:36 15.04.2022
2618 Clear 23 1016 33 10000 3.6 130 19:43 15.04.2022
2619 Clear 24 1016 34 10000 2.24 155 18:57 15.04.2022
2620 Clear 25 1015 35 10000 2.06 150 18:26 15.04.2022
2621 Clear 25 1016 34 10000 3.09 160 17:56 15.04.2022
2622 Clear 25 1017 35 10000 1.54 160 17:23 15.04.2022
2623 Clear 25 1017 35 10000 2.57 160 16:24 15.04.2022
2624 Clear 25 1016 32 10000 1.79 190 15:40 15.04.2022
2625 Clear 23 1018 36 10000 2.06 250 13:55 15.04.2022
2626 Clear 22 1018 38 10000 3.13 161 12:48 15.04.2022
2627 Clear 21 1019 41 10000 2.24 143 11:59 15.04.2022
2628 Clear 20 1019 42 10000 1.03 0 11:40 15.04.2022
2629 Clear 18 1020 50 10000 2.06 60 10:45 15.04.2022
2630 Clear 16 1020 52 10000 2.06 60 09:57 15.04.2022
2631 Clear 15 1021 57 10000 2.06 80 09:22 15.04.2022
2632 Clear 13 1021 66 10000 1.03 0 08:24 15.04.2022
2633 Clear 11 1019 68 10000 1.54 60 06:47 15.04.2022
2634 Clear 12 1019 66 10000 1.34 42 04:28 15.04.2022
2635 Clear 14 1020 61 10000 1.54 350 23:42 14.04.2022
2636 Clear 15 1021 56 10000 0 0 23:19 14.04.2022
2637 Clear 16 1020 53 10000 1.03 0 22:42 14.04.2022
2638 Clear 16 1020 53 10000 1.54 10 22:24 14.04.2022
2639 Clear 18 1019 46 10000 1.54 120 21:32 14.04.2022
2640 Clear 22 1017 31 10000 3.6 110 19:24 14.04.2022
2641 Clear 23 1017 31 10000 3.6 150 18:31 14.04.2022
2642 Clear 23 1017 30 10000 4.12 150 17:44 14.04.2022
2643 Clear 23 1018 30 10000 3.09 160 16:49 14.04.2022
2644 Clear 23 1017 28 10000 3.09 120 15:48 14.04.2022
2645 Clear 22 1018 31 10000 2.68 149 13:49 14.04.2022
2646 Clear 22 1018 34 10000 1.79 164 13:18 14.04.2022
2647 Clear 21 1019 42 10000 2.06 280 12:31 14.04.2022
2648 Clear 19 1019 48 10000 1.54 180 11:36 14.04.2022
2649 Clear 18 1019 50 10000 1.54 0 10:56 14.04.2022
2650 Clear 17 1019 54 10000 1.03 0 10:27 14.04.2022
2651 Clear 15 1020 61 10000 0.51 0 09:26 14.04.2022
2652 Clear 11 1019 73 10000 0.51 0 07:36 14.04.2022
2653 Clear 11 1019 70 10000 0.89 11 04:35 14.04.2022
2654 Clear 13 1020 62 10000 1.03 0 23:50 13.04.2022
2655 Clear 15 1020 56 10000 1.54 90 22:29 13.04.2022
2656 Clear 15 1020 54 10000 1.03 0 21:42 13.04.2022
2657 Clear 18 1018 44 10000 2.57 110 20:27 13.04.2022
2658 Clear 19 1019 42 10000 3.09 110 19:46 13.04.2022
2659 Clear 20 1017 40 10000 3.6 110 18:36 13.04.2022
2660 Clear 20 1018 41 10000 3.6 150 17:24 13.04.2022
2661 Clear 20 1017 40 10000 3.6 150 16:44 13.04.2022
2662 Clear 20 1018 42 10000 4.12 90 15:44 13.04.2022
2663 Clear 20 1018 40 10000 2.57 0 15:19 13.04.2022
2664 Clear 19 1018 41 10000 2.68 146 14:30 13.04.2022
2665 Clear 19 1018 41 10000 3.09 120 13:36 13.04.2022
2666 Clear 18 1018 42 10000 3.09 120 12:38 13.04.2022
2667 Clear 16 1018 48 10000 3.09 100 10:58 13.04.2022
2668 Clear 14 1019 57 10000 3.13 132 09:45 13.04.2022
2669 Clear 12 1018 64 10000 2.68 142 08:43 13.04.2022
2670 Clear 10 1018 71 10000 2.68 97 07:23 13.04.2022
2671 Clear 10 1018 69 10000 1.79 86 06:46 13.04.2022
2672 Clear 11 1018 68 10000 2.68 89 06:18 13.04.2022
2673 Clear 13 1019 50 10000 1.03 10 00:25 13.04.2022
2674 Clear 14 1019 50 10000 0.51 0 23:46 12.04.2022
2675 Clear 15 1018 43 10000 1.79 125 22:20 12.04.2022
2676 Clear 16 1019 42 10000 2.06 140 21:39 12.04.2022
2677 Clear 16 1018 38 10000 2.57 140 20:42 12.04.2022
2678 Clear 18 1017 31 10000 3.09 130 19:54 12.04.2022
2679 Clear 18 1018 33 10000 3.09 130 19:33 12.04.2022
2680 Clear 19 1017 29 10000 2.24 155 18:50 12.04.2022
2681 Clear 20 1017 27 10000 2.57 160 17:34 12.04.2022
2682 Clear 19 1017 28 10000 2.06 90 16:25 12.04.2022
2683 Clear 19 1018 28 10000 2.68 227 15:33 12.04.2022
2684 Clear 19 1018 30 10000 2.68 149 14:33 12.04.2022
2685 Clouds 18 1018 32 10000 2.24 175 13:39 12.04.2022
2686 Clouds 17 1018 33 10000 1.79 252 12:59 12.04.2022
2687 Clear 15 1019 36 10000 2.06 0 11:47 12.04.2022
2688 Clear 15 1019 37 10000 1.79 196 11:24 12.04.2022
2689 Clear 12 1020 45 10000 1.34 141 09:25 12.04.2022
2690 Clear 9 1020 53 10000 1.79 169 08:18 12.04.2022
2691 Clear 8 1019 55 10000 0.51 0 06:33 12.04.2022
2692 Clear 8 1019 53 10000 0.89 173 05:35 12.04.2022
2693 Clear 11 1020 41 10000 2.24 303 00:59 12.04.2022
2694 Clear 13 1020 37 10000 2.24 243 22:53 11.04.2022
2695 Clear 14 1019 32 10000 3.13 228 21:49 11.04.2022
2696 Clear 15 1018 31 10000 2.06 240 20:59 11.04.2022
2697 Clouds 15 1018 31 10000 3.58 212 20:29 11.04.2022
2698 Clouds 16 1017 31 10000 1.79 214 19:55 11.04.2022
2699 Clear 17 1018 31 10000 4.47 220 19:18 11.04.2022
2700 Clear 18 1017 30 10000 4.02 267 18:47 11.04.2022
2701 Clear 18 1018 30 10000 1.03 0 17:57 11.04.2022
2702 Clear 18 1019 29 10000 2.06 210 16:54 11.04.2022
2703 Clear 18 1019 27 10000 3.09 270 15:58 11.04.2022
2704 Clear 17 1019 27 10000 2.57 180 14:33 11.04.2022
2705 Clear 16 1020 32 10000 1.79 131 12:53 11.04.2022
2706 Clear 16 1021 34 10000 2.06 0 12:33 11.04.2022
2707 Clear 14 1022 38 10000 2.57 100 11:33 11.04.2022
2708 Clear 13 1022 41 10000 2.57 140 10:28 11.04.2022
2709 Clear 11 1022 46 10000 0.51 0 09:20 11.04.2022
2710 Clear 7 1020 57 10000 0.89 203 06:44 11.04.2022
2711 Clear 8 1019 47 10000 1.03 60 01:55 11.04.2022
2712 Clear 11 1018 39 10000 4.02 232 22:38 10.04.2022
2713 Clear 12 1016 34 10000 1.03 0 21:55 10.04.2022
2714 Clear 13 1016 30 10000 1.34 270 21:29 10.04.2022
2715 Clear 15 1015 25 10000 1.34 222 20:31 10.04.2022
2716 Clear 16 1017 24 10000 2.57 210 19:44 10.04.2022
2717 Clear 17 1015 22 10000 3.09 210 19:20 10.04.2022
2718 Clear 17 1015 22 10000 3.09 230 18:42 10.04.2022
2719 Clear 17 1015 20 10000 3.6 250 17:52 10.04.2022
2720 Clear 17 1015 21 10000 4.47 235 17:33 10.04.2022
2721 Clear 17 1015 21 10000 3.09 0 16:21 10.04.2022
2722 Clear 17 1016 23 10000 3.6 300 14:59 10.04.2022
2723 Clear 16 1016 25 10000 4.02 245 13:54 10.04.2022
2724 Clear 15 1017 34 10000 2.57 310 12:33 10.04.2022
2725 Clear 13 1017 46 10000 2.57 250 11:46 10.04.2022
2726 Clear 12 1018 49 10000 2.57 0 11:28 10.04.2022
2727 Clear 10 1018 61 10000 3.13 226 10:41 10.04.2022
2728 Clouds 8 1018 70 10000 3.09 250 09:49 10.04.2022
2729 Clear 7 1018 77 10000 2.24 248 08:56 10.04.2022
2730 Clear 6 1017 79 10000 1.79 259 08:21 10.04.2022
2731 Clear 4 1016 83 10000 1.34 298 06:59 10.04.2022
2732 Clouds 5 1015 81 10000 1.79 221 04:42 10.04.2022
2733 Clouds 6 1015 80 10000 4.12 90 02:19 10.04.2022
2734 Clear 8 1014 74 10000 6.26 91 23:54 09.04.2022
2735 Clouds 8 1012 70 10000 5.81 114 23:25 09.04.2022
2736 Thunderstorm 10 1011 58 10000 9.26 140 22:39 09.04.2022
2737 Clouds 12 1009 34 10000 6.69 30 21:28 09.04.2022
2738 Clouds 13 1007 18 10000 7.72 360 20:31 09.04.2022
2739 Clouds 14 1006 16 10000 7.72 350 19:57 09.04.2022
2740 Clouds 14 1005 15 10000 7.72 350 19:39 09.04.2022
2741 Clear 16 1003 14 10000 8.75 330 18:24 09.04.2022
2742 Clear 16 1002 14 10000 8.94 319 17:50 09.04.2022
2743 Clear 17 1002 15 10000 9.26 340 16:57 09.04.2022
2744 Clear 17 1001 15 10000 13.41 284 16:38 09.04.2022
2745 Clear 17 1001 15 10000 13.41 284 16:38 09.04.2022
2746 Clear 17 1001 15 10000 13.41 284 16:38 09.04.2022
2747 Clear 17 1001 15 10000 13.41 284 16:38 09.04.2022
2748 Clear 17 1001 15 10000 9.26 340 16:38 09.04.2022
2749 Clear 17 1001 15 10000 8.23 340 15:50 09.04.2022
2750 Clear 18 1001 15 10000 9.26 340 15:25 09.04.2022
2751 Clear 18 1000 15 10000 8.94 331 14:25 09.04.2022
2752 Clear 18 999 15 10000 9.26 320 13:33 09.04.2022
2753 Clear 18 999 16 10000 12.52 311 12:54 09.04.2022
2754 Clear 18 999 19 10000 11.62 300 11:50 09.04.2022
2755 Clear 18 998 25 10000 7.2 330 10:52 09.04.2022
2756 Clear 17 999 41 10000 5.14 310 10:18 09.04.2022
2757 Clear 14 998 66 10000 4.02 307 09:22 09.04.2022
2758 Clear 12 997 81 10000 1.79 250 08:18 09.04.2022
2759 Clouds 12 996 78 10000 1.54 320 04:37 09.04.2022
2760 Clear 14 998 71 10000 2.24 231 00:34 09.04.2022
2761 Clear 15 998 66 10000 3.13 239 23:23 08.04.2022
2762 Clear 17 997 61 10000 4.02 209 21:49 08.04.2022
2763 Clouds 18 998 59 10000 1.54 170 20:43 08.04.2022
2764 Clouds 20 1000 53 10000 2.06 140 19:47 08.04.2022
2765 Clouds 21 999 51 10000 3.13 128 18:46 08.04.2022
2766 Clouds 22 998 48 10000 3.6 120 18:20 08.04.2022
2767 Clouds 22 999 47 10000 2.68 112 17:28 08.04.2022
2768 Clouds 22 1000 47 10000 2.57 120 16:55 08.04.2022
2769 Clouds 22 1000 48 10000 2.57 150 16:27 08.04.2022
2770 Clouds 21 999 48 10000 2.57 150 15:33 08.04.2022
2771 Clouds 21 1000 47 10000 2.68 123 14:45 08.04.2022
2772 Clear 21 1001 48 10000 3.13 125 14:19 08.04.2022
2773 Clear 20 1001 50 10000 2.06 160 13:31 08.04.2022
2774 Clear 19 1003 53 10000 1.54 0 12:49 08.04.2022
2775 Clear 17 1001 59 10000 2.06 0 11:26 08.04.2022
2776 Clear 15 1002 67 10000 2.68 241 09:57 08.04.2022
2777 Clear 13 1002 74 10000 1.03 180 08:59 08.04.2022
2778 Clear 9 1002 84 10000 1.03 0 07:44 08.04.2022
2779 Clear 9 1001 84 10000 0.89 304 06:45 08.04.2022
2780 Clear 11 1002 78 10000 1.54 330 02:53 08.04.2022
2781 Clear 12 1002 72 10000 3.6 250 00:30 08.04.2022
2782 Clear 13 1002 69 10000 4.12 270 23:47 07.04.2022
2783 Clear 14 1003 66 10000 3.13 236 22:44 07.04.2022
2784 Clear 14 1002 63 10000 2.68 251 22:23 07.04.2022
2785 Clear 15 1002 62 10000 3.58 241 21:59 07.04.2022
2786 Clear 15 1001 59 10000 3.13 236 21:30 07.04.2022
2787 Clear 16 1001 55 10000 3.09 240 20:46 07.04.2022
2788 Clear 17 1001 54 10000 2.68 211 20:20 07.04.2022
2789 Clear 21 1001 40 10000 2.57 230 17:43 07.04.2022
2790 Clear 20 1002 40 10000 1.54 0 17:22 07.04.2022
2791 Clear 20 1002 42 10000 2.06 0 16:34 07.04.2022
2792 Clear 20 1002 42 10000 3.09 310 15:47 07.04.2022
2793 Clear 18 1002 47 10000 3.6 250 13:54 07.04.2022
2794 Clear 17 1002 50 10000 2.68 229 13:24 07.04.2022
2795 Clear 17 1002 50 10000 2.68 229 13:24 07.04.2022
2796 Clear 15 1003 56 10000 4.12 270 11:53 07.04.2022
2797 Clear 13 1004 62 10000 3.6 250 10:54 07.04.2022
2798 Clear 10 1004 73 10000 2.68 239 09:19 07.04.2022
2799 Clear 8 1003 74 10000 2.57 260 06:59 07.04.2022
2800 Clear 8 1003 71 10000 2.57 260 05:28 07.04.2022
2801 Clear 9 1005 64 10000 1.54 320 02:37 07.04.2022
2802 Clear 11 1005 52 10000 2.68 230 00:44 07.04.2022
2803 Clear 12 1006 53 10000 2.68 239 23:36 06.04.2022
2804 Clear 13 1006 63 10000 4.02 215 22:45 06.04.2022
2805 Clouds 13 1006 63 10000 1.28 83 22:20 06.04.2022
2806 Clear 14 1005 59 10000 1.79 124 20:50 06.04.2022
2807 Clear 14 1005 58 10000 2.06 160 20:26 06.04.2022
2808 Clear 15 1005 54 10000 2.24 155 19:44 06.04.2022
2809 Clear 16 1005 52 10000 2.68 142 18:48 06.04.2022
2810 Clear 16 1006 51 10000 2.57 160 17:36 06.04.2022
2811 Clear 17 1006 49 10000 3.6 130 16:58 06.04.2022
2812 Clear 17 1006 49 10000 2.06 0 16:34 06.04.2022
2813 Clear 17 1007 50 10000 1.79 120 15:44 06.04.2022
2814 Clouds 15 1009 56 8000 2.68 162 13:48 06.04.2022
2815 Clear 14 1011 59 10000 3.6 120 12:30 06.04.2022
2816 Clear 14 1011 59 10000 4.12 130 11:44 06.04.2022
2817 Clear 12 1012 62 10000 3.6 130 10:33 06.04.2022
2818 Clear 12 1012 62 10000 3.6 130 10:33 06.04.2022
2819 Clear 11 1012 67 7000 3.13 139 09:59 06.04.2022
2820 Clear 10 1012 73 6000 1.03 0 09:25 06.04.2022
2821 Mist 8 1012 81 4000 1.03 0 08:18 06.04.2022
2822 Mist 7 1011 81 5000 1.03 360 06:40 06.04.2022
2823 Clear 10 1012 64 10000 2.06 20 01:26 06.04.2022
2824 Clear 11 1012 62 10000 0.51 0 23:50 05.04.2022
2825 Clear 12 1011 56 10000 2.06 170 21:58 05.04.2022
2826 Clear 13 1010 53 10000 1.03 0 21:18 05.04.2022
2827 Clear 14 1011 48 10000 1.86 201 20:24 05.04.2022
2828 Clear 18 1010 37 10000 1.54 0 18:32 05.04.2022
2829 Clear 18 1010 36 10000 2.06 260 17:22 05.04.2022
2830 Clear 18 1011 37 10000 2.57 210 16:43 05.04.2022
2831 Clear 17 1011 39 10000 1.03 0 15:51 05.04.2022
2832 Clear 17 1011 39 10000 2.06 280 15:31 05.04.2022
2833 Clear 15 1012 44 10000 3.09 230 13:49 05.04.2022
2834 Clear 14 1013 47 10000 3.09 240 12:33 05.04.2022
2835 Clear 13 1013 52 10000 1.54 0 11:43 05.04.2022
2836 Clear 12 1014 54 10000 1.03 0 11:24 05.04.2022
2837 Clear 9 1014 68 10000 0.51 0 09:31 05.04.2022
2838 Clear 7 1014 75 10000 0 0 08:33 05.04.2022
2839 Clear 6 1015 74 10000 0.51 0 03:50 05.04.2022
2840 Clear 7 1016 66 10000 1.03 270 23:42 04.04.2022
2841 Clear 8 1016 62 10000 1.03 240 22:37 04.04.2022
2842 Clear 9 1016 59 10000 0.51 0 21:48 04.04.2022
2843 Clear 10 1015 57 10000 1.54 210 21:19 04.04.2022
2844 Clear 10 1015 53 10000 1.54 170 20:47 04.04.2022
2845 Clouds 12 1015 48 10000 1.54 160 19:28 04.04.2022
2846 Clouds 13 1015 45 10000 2.06 170 18:43 04.04.2022
2847 Clouds 13 1016 44 10000 1.54 180 17:20 04.04.2022
2848 Clouds 13 1017 46 10000 1.54 210 16:31 04.04.2022
2849 Clouds 12 1017 46 10000 1.54 20 15:33 04.04.2022
2850 Clouds 12 1018 49 10000 2.06 0 14:46 04.04.2022
2851 Clouds 12 1018 50 10000 1.54 230 14:27 04.04.2022
2852 Clouds 11 1020 56 10000 2.06 0 12:58 04.04.2022
2853 Clouds 10 1020 57 10000 3.09 110 11:29 04.04.2022
2854 Clouds 9 1019 64 10000 2.57 110 10:29 04.04.2022
2855 Clouds 6 1018 79 10000 1.03 40 06:58 04.04.2022
2856 Clouds 7 1018 80 10000 2.06 50 03:18 04.04.2022
2857 Clouds 8 1018 73 10000 2.68 102 23:42 03.04.2022
2858 Clouds 8 1017 69 10000 2.68 102 22:18 03.04.2022
2859 Clouds 8 1016 69 10000 2.68 102 21:31 03.04.2022
2860 Clouds 9 1016 66 10000 3.09 140 20:32 03.04.2022
2861 Clouds 10 1015 55 10000 2.57 120 18:51 03.04.2022
2862 Clouds 10 1015 56 10000 2.06 50 17:57 03.04.2022
2863 Clouds 10 1014 57 10000 3.13 292 17:37 03.04.2022
2864 Clouds 11 1015 53 10000 2.24 288 16:50 03.04.2022
2865 Clouds 10 1015 57 10000 5.14 70 15:57 03.04.2022
2866 Clouds 10 1015 56 10000 4.63 10 14:27 03.04.2022
2867 Rain 10 1015 63 10000 4.92 150 13:34 03.04.2022
2868 Clouds 9 1015 63 9000 2.68 100 11:51 03.04.2022
2869 Clouds 7 1014 70 10000 3.13 49 09:59 03.04.2022
2870 Clouds 6 1013 74 10000 1.79 66 09:18 03.04.2022
2871 Clouds 4 1011 82 10000 0.45 203 06:28 03.04.2022
2872 Clouds 5 1009 78 10000 0.51 0 02:55 03.04.2022
2873 Clear 7 1007 70 10000 1.03 0 23:48 02.04.2022
2874 Clear 7 1007 68 10000 1.54 150 22:45 02.04.2022
2875 Clouds 8 1006 66 10000 3.13 148 21:56 02.04.2022
2876 Clear 9 1005 58 10000 2.68 61 21:21 02.04.2022
2877 Clouds 9 1004 53 10000 2.68 61 20:36 02.04.2022
2878 Clouds 9 1004 53 10000 2.68 61 20:36 02.04.2022
2879 Clouds 10 1003 47 10000 3.6 50 18:49 02.04.2022
2880 Clouds 10 1002 48 10000 4.12 60 18:20 02.04.2022
2881 Clouds 10 1002 50 10000 4.63 50 17:23 02.04.2022
2882 Clouds 10 1001 52 10000 5.66 60 15:55 02.04.2022
2883 Clouds 10 1001 52 10000 4.63 50 15:20 02.04.2022
2884 Clouds 10 1001 53 10000 3.6 70 14:31 02.04.2022
2885 Clouds 9 1000 54 10000 4.12 70 13:34 02.04.2022
2886 Clouds 9 1000 55 10000 3.6 90 12:21 02.04.2022
2887 Clouds 7 999 65 10000 3.6 40 10:31 02.04.2022
2888 Clouds 6 997 68 10000 3.09 60 08:33 02.04.2022
2889 Clear 7 995 74 10000 2.06 70 05:24 02.04.2022
2890 Clouds 7 995 80 10000 1.54 50 02:56 02.04.2022
2891 Clear 7 995 82 10000 1.54 350 23:54 01.04.2022
2892 Clouds 7 995 82 10000 4.92 68 22:51 01.04.2022
2893 Clouds 7 994 82 10000 4.92 68 21:24 01.04.2022
2894 Clouds 8 994 80 10000 4.92 68 20:48 01.04.2022
2895 Clouds 9 993 73 10000 4.92 68 19:46 01.04.2022
2896 Clouds 10 993 70 10000 4.92 68 19:26 01.04.2022
2897 Clouds 11 990 69 10000 8.23 100 18:38 01.04.2022
2898 Clouds 14 990 68 10000 9.39 64 17:39 01.04.2022
2899 Rain 14 990 65 10000 5.36 34 16:24 01.04.2022
2900 Clouds 13 991 69 10000 3.6 70 14:56 01.04.2022
2901 Clouds 13 991 71 10000 1.54 40 13:56 01.04.2022
2902 Clouds 13 993 77 10000 3.49 359 13:31 01.04.2022
2903 Clouds 12 992 66 10000 2.06 30 12:26 01.04.2022
2904 Clouds 10 991 82 10000 3.6 10 10:52 01.04.2022
2905 Clouds 10 991 88 10000 2.57 250 09:41 01.04.2022
2906 Clouds 9 991 89 10000 1.79 248 07:41 01.04.2022
2907 Rain 9 990 91 8000 1.79 248 05:38 01.04.2022
2908 Rain 10 990 89 10000 2.57 230 04:41 01.04.2022
2909 Rain 10 991 82 10000 1.79 248 03:18 01.04.2022
2910 Clouds 11 991 76 10000 1.79 248 01:51 01.04.2022
2911 Clouds 12 992 72 10000 2.24 225 22:34 31.03.2022
2912 Clouds 13 992 71 10000 1.03 220 21:44 31.03.2022
2913 Clouds 13 991 70 10000 1.34 221 20:51 31.03.2022
2914 Clouds 13 991 69 10000 1.03 200 20:28 31.03.2022
2915 Clouds 14 991 65 10000 2.06 200 19:29 31.03.2022
2916 Clouds 15 991 62 10000 1.54 200 18:33 31.03.2022
2917 Clouds 15 991 63 10000 3.09 200 16:47 31.03.2022
2918 Clouds 15 991 64 10000 2.57 220 15:55 31.03.2022
2919 Clouds 14 992 63 10000 1.79 334 15:26 31.03.2022
2920 Clouds 14 991 67 8000 2.06 230 14:45 31.03.2022
2921 Clouds 13 992 75 7000 2.06 250 13:28 31.03.2022
2922 Clouds 11 994 83 6000 2.24 235 11:31 31.03.2022
2923 Mist 10 994 89 4000 2.24 217 10:26 31.03.2022
2924 Mist 10 994 91 3500 1.03 0 09:39 31.03.2022
2925 Rain 9 995 94 3000 1.79 158 07:48 31.03.2022
2926 Rain 10 998 93 6000 2.06 30 02:33 31.03.2022
2927 Rain 11 1001 90 6000 2.57 40 23:24 30.03.2022
2928 Drizzle 11 1001 86 6000 2.06 30 21:55 30.03.2022
2929 Rain 11 1001 86 6000 1.54 20 21:30 30.03.2022
2930 Rain 11 1001 83 6000 2.24 52 20:37 30.03.2022
2931 Rain 12 1001 81 6000 2.06 50 19:47 30.03.2022
2932 Drizzle 12 1002 79 6000 2.24 90 18:41 30.03.2022
2933 Clouds 12 1002 77 6000 2.68 168 17:51 30.03.2022
2934 Rain 12 1003 76 7000 2.68 140 16:59 30.03.2022
2935 Clouds 13 1003 75 7000 3.13 133 16:39 30.03.2022
2936 Rain 12 1003 75 7000 3.58 118 15:47 30.03.2022
2937 Clouds 12 1005 76 6000 3.09 110 14:22 30.03.2022
2938 Mist 12 1005 79 5000 3.09 90 13:20 30.03.2022
2939 Clouds 11 1006 83 6000 3.6 100 11:55 30.03.2022
2940 Mist 10 1007 87 4500 3.6 70 10:48 30.03.2022
2941 Rain 10 1007 88 3500 3.09 80 09:30 30.03.2022
2942 Rain 10 1007 86 5000 3.09 70 07:59 30.03.2022
2943 Clouds 11 1007 79 10000 2.57 60 05:41 30.03.2022
2944 Clouds 11 1007 77 10000 2.68 108 05:23 30.03.2022
2945 Clouds 12 1010 61 10000 2.24 248 00:43 30.03.2022
2946 Clouds 13 1010 55 10000 2.68 269 22:35 29.03.2022
2947 Clouds 14 1010 54 10000 1.54 160 21:46 29.03.2022
2948 Clouds 15 1010 50 9000 2.06 160 20:55 29.03.2022
2949 Clouds 16 1010 48 10000 2.24 158 20:25 29.03.2022
2950 Clouds 17 1010 43 9000 2.57 160 19:20 29.03.2022
2951 Clouds 17 1010 41 8000 2.06 140 18:48 29.03.2022
2952 Clear 18 1011 37 10000 1.54 0 17:39 29.03.2022
2953 Clouds 19 1011 35 7000 1.79 220 16:58 29.03.2022
2954 Clouds 18 1012 40 7000 2.06 0 15:58 29.03.2022
2955 Clouds 17 1013 47 6000 2.06 110 14:53 29.03.2022
2956 Clouds 16 1014 51 10000 1.34 115 14:22 29.03.2022
2957 Clouds 15 1018 57 10000 3.58 137 12:55 29.03.2022
2958 Clouds 14 1019 61 10000 1.79 131 11:45 29.03.2022
2959 Clouds 13 1017 67 10000 3.13 102 10:55 29.03.2022
2960 Clouds 10 1017 73 8000 2.68 114 09:49 29.03.2022
2961 Clear 9 1017 68 10000 3.58 60 07:57 29.03.2022
2962 Clear 10 1017 53 10000 2.24 103 04:47 29.03.2022
2963 Clouds 13 1020 35 10000 1.34 46 00:36 29.03.2022
2964 Clear 14 1020 32 10000 1.03 0 23:24 28.03.2022
2965 Clear 14 1020 31 10000 1.34 70 22:53 28.03.2022
2966 Clear 15 1020 29 10000 0.89 71 22:26 28.03.2022
2967 Clear 16 1020 25 10000 1.79 128 20:58 28.03.2022
2968 Clear 18 1020 23 10000 1.54 140 20:23 28.03.2022
2969 Clear 19 1020 20 10000 2.06 150 19:44 28.03.2022
2970 Clear 20 1020 19 10000 1.54 130 19:25 28.03.2022
2971 Clear 21 1020 18 10000 2.57 160 18:37 28.03.2022
2972 Clear 21 1021 19 10000 2.57 170 17:39 28.03.2022
2973 Clear 22 1022 17 10000 2.24 119 16:20 28.03.2022
2974 Clear 21 1024 24 8000 2.68 211 14:29 28.03.2022
2975 Clear 20 1024 25 10000 1.79 201 13:58 28.03.2022
2976 Clear 18 1026 31 10000 1.79 192 12:20 28.03.2022
2977 Clear 17 1027 34 10000 1.03 0 11:23 28.03.2022
2978 Clear 13 1027 46 10000 0.51 0 09:41 28.03.2022
2979 Clear 11 1027 49 8000 0.51 0 09:19 28.03.2022
2980 Clear 9 1027 54 7000 0 0 08:22 28.03.2022
2981 Clear 8 1026 55 10000 0.51 30 07:27 28.03.2022
2982 Clear 10 1027 51 10000 0 0 03:27 28.03.2022
2983 Clear 13 1028 41 10000 0.51 0 23:28 27.03.2022
2984 Clear 14 1028 38 10000 0.51 0 22:23 27.03.2022
2985 Clear 15 1028 34 10000 0.76 23 21:41 27.03.2022
2986 Clear 15 1028 34 10000 0.51 0 20:54 27.03.2022
2987 Clear 18 1027 27 10000 1.54 150 19:46 27.03.2022
2988 Clear 20 1027 23 10000 2.57 170 18:54 27.03.2022
2989 Clear 20 1027 22 10000 2.57 130 18:26 27.03.2022
2990 Clear 20 1027 22 10000 2.57 130 18:26 27.03.2022
2991 Clear 21 1027 21 10000 2.24 232 17:38 27.03.2022
2992 Clear 21 1027 20 10000 3.58 65 15:59 27.03.2022
2993 Clear 20 1028 24 10000 2.24 69 14:26 27.03.2022
2994 Clear 19 1028 28 10000 2.57 130 13:42 27.03.2022
2995 Clear 17 1029 35 10000 4.02 72 11:46 27.03.2022
2996 Clear 14 1029 41 10000 1.79 110 10:28 27.03.2022
2997 Clear 9 1028 55 10000 0.51 0 08:21 27.03.2022
2998 Clear 10 1027 49 10000 1.33 79 05:19 27.03.2022
2999 Clear 11 1028 46 10000 1.34 19 00:37 27.03.2022
3000 Clear 13 1027 40 10000 1.54 360 22:58 26.03.2022
3001 Clear 13 1027 39 10000 1.34 16 22:27 26.03.2022
3002 Clear 14 1026 37 10000 0.51 10 21:31 26.03.2022
3003 Clear 17 1026 28 10000 2.06 60 19:45 26.03.2022
3004 Clear 18 1026 24 10000 2.57 90 18:56 26.03.2022
3005 Clear 20 1025 20 10000 3.13 51 17:44 26.03.2022
3006 Clear 20 1025 20 10000 3.09 130 17:44 26.03.2022
3007 Clear 21 1025 19 10000 3.6 120 16:47 26.03.2022
3008 Clear 21 1025 18 10000 3.58 143 15:43 26.03.2022
3009 Clear 21 1026 18 10000 4.02 116 14:18 26.03.2022
3010 Clear 21 1026 19 10000 3.13 153 13:47 26.03.2022
3011 Clear 20 1027 22 10000 2.24 106 12:31 26.03.2022
3012 Clear 18 1028 24 10000 2.24 138 10:56 26.03.2022
3013 Clear 14 1028 34 10000 1.03 10 09:21 26.03.2022
3014 Clear 8 1027 46 10000 1.03 0 07:34 26.03.2022
3015 Clear 7 1026 48 10000 0.51 0 05:49 26.03.2022
3016 Clear 9 1026 41 10000 0.51 0 03:22 26.03.2022
3017 Clear 12 1025 31 10000 2.06 290 22:50 25.03.2022
3018 Clear 14 1024 26 10000 2.57 250 20:58 25.03.2022
3019 Clear 15 1024 25 10000 3.13 223 20:26 25.03.2022
3020 Clear 15 1024 25 10000 3.13 223 20:26 25.03.2022
3021 Clear 17 1024 23 10000 1.54 190 19:20 25.03.2022
3022 Clear 20 1023 18 10000 1.79 219 18:36 25.03.2022
3023 Clear 20 1023 18 10000 1.54 180 17:34 25.03.2022
3024 Clear 21 1023 18 10000 1.03 0 16:29 25.03.2022
3025 Clear 21 1024 17 10000 2.06 0 15:37 25.03.2022
3026 Clear 20 1025 20 10000 3.09 220 13:32 25.03.2022
3027 Clear 18 1026 24 10000 2.06 0 11:25 25.03.2022
3028 Clear 15 1026 33 10000 1.54 150 09:37 25.03.2022
3029 Clear 12 1026 39 10000 1.03 0 08:50 25.03.2022
3030 Clear 9 1026 46 10000 1.03 0 07:46 25.03.2022
3031 Clear 8 1026 49 10000 1.28 228 07:19 25.03.2022
3032 Clear 10 1026 37 10000 1.54 340 02:37 25.03.2022
3033 Clear 12 1026 31 10000 2.06 280 23:49 24.03.2022
3034 Clear 13 1026 30 10000 3.13 236 22:24 24.03.2022
3035 Clear 13 1025 32 10000 0.51 0 20:58 24.03.2022
3036 Clear 16 1025 27 10000 1.03 0 19:49 24.03.2022
3037 Clear 18 1024 19 10000 2.06 150 18:45 24.03.2022
3038 Clear 21 1023 16 10000 2.06 190 17:36 24.03.2022
3039 Clear 21 1024 17 10000 1.03 0 17:36 24.03.2022
3040 Clear 21 1024 15 10000 2.06 190 16:33 24.03.2022
3041 Clear 21 1025 18 10000 2.24 163 14:52 24.03.2022
3042 Clear 21 1026 19 10000 1.03 0 14:22 24.03.2022
3043 Clear 20 1026 21 10000 2.68 230 13:34 24.03.2022
3044 Clear 18 1027 26 10000 2.24 225 12:24 24.03.2022
3045 Clear 17 1028 28 10000 2.06 200 11:27 24.03.2022
3046 Clear 13 1028 39 10000 0.51 0 09:27 24.03.2022
3047 Clear 11 1029 45 10000 0.51 0 08:32 24.03.2022
3048 Clear 7 1027 47 10000 1.4 257 04:52 24.03.2022
3049 Clear 10 1029 38 10000 0.51 320 23:41 23.03.2022
3050 Clear 11 1028 34 10000 1.03 0 22:18 23.03.2022
3051 Clear 12 1029 29 10000 1.03 210 21:21 23.03.2022
3052 Clear 13 1028 30 10000 1.03 190 19:51 23.03.2022
3053 Clear 15 1028 23 10000 1.54 180 19:25 23.03.2022
3054 Clear 19 1028 18 10000 1.54 170 17:48 23.03.2022
3055 Clear 19 1028 16 10000 2.68 248 17:18 23.03.2022
3056 Clear 19 1029 18 10000 1.03 0 15:21 23.03.2022
3057 Clear 19 1030 19 10000 3.13 250 14:42 23.03.2022
3058 Clear 18 1031 22 10000 1.54 0 13:30 23.03.2022
3059 Clear 14 1033 34 10000 1.79 169 10:50 23.03.2022
3060 Clear 7 1033 55 10000 1.03 0 08:21 23.03.2022
3061 Clear 5 1032 57 10000 1.03 0 05:40 23.03.2022
3062 Clear 7 1033 51 10000 1.54 20 01:41 23.03.2022
3063 Clear 8 1033 47 10000 1.03 20 00:24 23.03.2022
3064 Clear 9 1034 42 10000 0.89 1 21:33 22.03.2022
3065 Clear 10 1034 38 10000 0.51 10 20:57 22.03.2022
3066 Clear 11 1034 36 10000 1.34 70 19:59 22.03.2022
3067 Clear 12 1033 32 10000 1.54 110 19:25 22.03.2022
3068 Clear 13 1033 29 10000 2.57 120 18:45 22.03.2022
3069 Clear 14 1033 26 10000 2.57 120 17:42 22.03.2022
3070 Clear 15 1033 24 10000 2.24 106 16:35 22.03.2022
3071 Clear 15 1034 24 10000 2.57 170 15:37 22.03.2022
3072 Clear 15 1034 24 10000 2.24 114 15:18 22.03.2022
3073 Clear 15 1034 24 10000 2.57 120 14:41 22.03.2022
3074 Clear 14 1035 24 10000 2.06 0 13:37 22.03.2022
3075 Clear 13 1036 28 10000 3.09 150 11:52 22.03.2022
3076 Clear 12 1036 30 10000 4.02 134 10:51 22.03.2022
3077 Clear 8 1036 51 10000 3.13 105 08:40 22.03.2022
3078 Clear 4 1036 63 7000 1.79 69 06:58 22.03.2022
3079 Clear 5 1035 61 10000 0.51 0 03:54 22.03.2022
3080 Clear 7 1034 54 10000 0.89 135 00:34 22.03.2022
3081 Clear 7 1035 48 10000 1.03 20 22:46 21.03.2022
3082 Clear 9 1035 43 10000 1.79 146 21:20 21.03.2022
3083 Clear 9 1035 41 10000 2.06 160 20:42 21.03.2022
3084 Clear 10 1033 40 10000 2.06 170 19:59 21.03.2022
3085 Clear 11 1034 39 10000 2.06 170 19:35 21.03.2022
3086 Clear 12 1033 33 10000 1.54 150 18:46 21.03.2022
3087 Clear 14 1033 31 10000 2.24 193 17:32 21.03.2022
3088 Clear 14 1034 30 10000 2.68 135 16:53 21.03.2022
3089 Clear 14 1034 30 10000 2.57 70 16:24 21.03.2022
3090 Clear 14 1034 32 10000 2.06 0 15:21 21.03.2022
3091 Clear 14 1035 30 10000 2.24 175 14:28 21.03.2022
3092 Clear 12 1036 32 10000 2.68 211 12:53 21.03.2022
3093 Clear 11 1037 36 10000 2.24 148 11:54 21.03.2022
3094 Clear 10 1037 38 10000 2.06 0 10:49 21.03.2022
3095 Clear 9 1038 40 10000 3.09 80 09:42 21.03.2022
3096 Clear 6 1038 55 10000 1.79 74 07:22 21.03.2022
3097 Clear 7 1036 55 10000 0.51 0 04:54 21.03.2022
3098 Clouds 9 1037 45 10000 2.06 40 00:36 21.03.2022
3099 Clouds 9 1036 41 10000 2.57 100 22:56 20.03.2022
3100 Clouds 9 1036 40 10000 3.13 112 21:57 20.03.2022
3101 Clear 9 1036 42 10000 2.06 100 21:30 20.03.2022
3102 Clear 10 1035 42 10000 2.57 120 20:47 20.03.2022
3103 Clear 10 1035 41 10000 2.57 120 20:24 20.03.2022
3104 Clear 11 1034 37 10000 2.68 105 19:43 20.03.2022
3105 Clear 12 1034 34 10000 4.12 130 18:44 20.03.2022
3106 Clear 13 1034 33 10000 3.6 150 17:37 20.03.2022
3107 Clear 14 1034 33 10000 3.09 100 16:58 20.03.2022
3108 Clear 14 1034 32 10000 3.13 146 15:52 20.03.2022
3109 Clear 13 1035 32 10000 3.13 124 14:36 20.03.2022
3110 Clear 13 1035 33 10000 4.12 140 13:18 20.03.2022
3111 Clear 12 1036 36 10000 4.63 150 11:32 20.03.2022
3112 Clear 10 1037 41 10000 1.34 114 09:39 20.03.2022
3113 Clear 5 1037 57 10000 1.34 314 07:49 20.03.2022
3114 Clear 4 1035 55 10000 3.09 10 05:48 20.03.2022
3115 Clear 6 1035 52 10000 2.06 10 02:45 20.03.2022
3116 Clear 6 1035 51 10000 2.57 80 00:48 20.03.2022
3117 Clear 8 1034 46 10000 3.13 75 23:20 19.03.2022
3118 Clear 10 1033 39 10000 3.6 100 21:32 19.03.2022
3119 Clear 10 1033 38 10000 4.63 110 20:58 19.03.2022
3120 Clear 12 1031 37 10000 5.14 120 18:59 19.03.2022
3121 Clear 12 1030 37 10000 5.66 120 18:25 19.03.2022
3122 Clear 13 1030 40 10000 5.14 130 17:40 19.03.2022
3123 Clear 14 1030 41 10000 3.6 150 16:24 19.03.2022
3124 Clear 13 1031 41 10000 2.24 110 15:19 19.03.2022
3125 Clear 13 1032 40 10000 3.13 49 13:20 19.03.2022
3126 Clear 12 1033 41 10000 3.58 158 12:41 19.03.2022
3127 Clear 12 1034 42 10000 3.09 120 11:54 19.03.2022
3128 Clear 11 1034 43 10000 2.68 164 11:25 19.03.2022
3129 Clear 7 1036 58 10000 2.24 77 07:59 19.03.2022
3130 Clouds 8 1036 56 10000 1.79 90 03:53 19.03.2022
3131 Clouds 9 1036 55 10000 1.34 71 02:30 19.03.2022
3132 Clouds 9 1036 56 10000 2.06 40 23:46 18.03.2022
3133 Clouds 10 1035 53 10000 2.68 86 22:28 18.03.2022
3134 Clouds 10 1035 53 10000 2.06 50 21:46 18.03.2022
3135 Clouds 12 1034 52 10000 2.24 73 19:52 18.03.2022
3136 Clouds 12 1034 52 10000 2.57 90 19:22 18.03.2022
3137 Clouds 13 1033 49 10000 3.6 110 18:18 18.03.2022
3138 Clouds 14 1032 44 10000 5.66 120 16:51 18.03.2022
3139 Clouds 14 1033 46 10000 3.6 120 15:32 18.03.2022
3140 Clouds 14 1033 48 10000 2.68 148 14:23 18.03.2022
3141 Clouds 13 1033 48 9000 3.6 120 12:38 18.03.2022
3142 Clouds 12 1032 51 9000 3.13 88 10:58 18.03.2022
3143 Clouds 11 1032 57 7000 2.57 80 09:30 18.03.2022
3144 Clouds 11 1032 59 7000 2.24 108 08:42 18.03.2022
3145 Clouds 10 1030 73 8000 3.13 77 06:37 18.03.2022
3146 Clouds 10 1029 77 8000 2.06 30 03:19 18.03.2022
3147 Clouds 10 1029 73 8000 1.54 10 00:39 18.03.2022
3148 Clouds 11 1029 72 8000 1.54 360 23:38 17.03.2022
3149 Clouds 11 1029 71 8000 1.34 45 22:25 17.03.2022
3150 Clouds 12 1029 68 7000 1.34 68 21:48 17.03.2022
3151 Clouds 12 1029 68 7000 1.34 68 21:48 17.03.2022
3152 Clouds 12 1029 68 7000 1.03 10 21:26 17.03.2022
3153 Clouds 12 1028 68 7000 1.79 157 20:45 17.03.2022
3154 Mist 12 1028 67 5000 2.24 140 19:50 17.03.2022
3155 Mist 12 1027 67 5000 1.54 140 19:29 17.03.2022
3156 Mist 13 1027 66 4500 2.06 110 18:46 17.03.2022
3157 Mist 13 1026 65 5000 2.57 100 16:58 17.03.2022
3158 Mist 13 1026 64 5000 2.57 90 15:44 17.03.2022
3159 Mist 13 1026 64 5000 2.68 106 15:25 17.03.2022
3160 Mist 13 1027 65 5000 3.58 46 14:29 17.03.2022
3161 Mist 12 1027 70 5000 3.58 63 12:54 17.03.2022
3162 Mist 12 1028 71 5000 3.09 80 12:23 17.03.2022
3163 Mist 11 1028 74 5000 2.24 96 11:27 17.03.2022
3164 Mist 11 1028 74 5000 3.6 110 10:29 17.03.2022
3165 Mist 11 1027 73 5000 2.57 90 08:34 17.03.2022
3166 Mist 10 1027 74 5000 2.57 90 07:34 17.03.2022
3167 Clouds 11 1026 73 7000 2.06 80 05:47 17.03.2022
3168 Clouds 11 1026 75 6000 3.09 120 01:23 17.03.2022
3169 Clouds 11 1025 78 10000 2.57 80 23:46 16.03.2022
3170 Clouds 11 1025 77 10000 1.34 26 22:45 16.03.2022
3171 Clouds 11 1024 78 10000 1.34 22 22:21 16.03.2022
3172 Clouds 11 1024 79 10000 1.03 0 21:39 16.03.2022
3173 Clouds 13 1023 72 10000 1.03 240 19:41 16.03.2022
3174 Clouds 13 1023 71 10000 1.79 242 19:20 16.03.2022
3175 Clouds 14 1022 70 10000 2.57 250 18:36 16.03.2022
3176 Clouds 15 1022 65 10000 4.47 243 17:41 16.03.2022
3177 Clouds 15 1022 62 10000 4.92 236 16:56 16.03.2022
3178 Clouds 16 1023 58 10000 4.63 270 15:55 16.03.2022
3179 Clouds 15 1024 58 10000 4.12 260 14:25 16.03.2022
3180 Clouds 15 1024 59 10000 4.12 270 13:24 16.03.2022
3181 Clouds 13 1026 60 10000 4.02 295 11:53 16.03.2022
3182 Clouds 13 1026 64 10000 3.13 244 11:20 16.03.2022
3183 Clouds 12 1026 66 10000 3.09 260 10:18 16.03.2022
3184 Clouds 10 1026 73 10000 3.58 301 08:38 16.03.2022
3185 Clouds 10 1027 72 10000 2.57 270 04:35 16.03.2022
3186 Clouds 10 1029 68 10000 1.79 264 00:42 16.03.2022
3187 Clouds 11 1030 66 10000 2.06 260 22:37 15.03.2022
3188 Clouds 11 1030 64 8000 2.57 260 21:50 15.03.2022
3189 Clouds 12 1031 60 8000 4.02 241 19:47 15.03.2022
3190 Clouds 12 1031 58 6000 2.68 234 18:41 15.03.2022
3191 Clouds 13 1031 54 6000 2.06 220 16:47 15.03.2022
3192 Clouds 13 1032 54 6000 2.06 250 16:18 15.03.2022
3193 Clouds 13 1033 54 10000 1.54 230 14:55 15.03.2022
3194 Clouds 13 1033 54 6000 1.79 292 14:30 15.03.2022
3195 Clouds 12 1034 55 6000 1.34 298 13:27 15.03.2022
3196 Clouds 12 1035 59 6000 0.51 0 11:56 15.03.2022
3197 Clouds 11 1035 63 6000 1.03 0 11:19 15.03.2022
3198 Clouds 9 1036 70 7000 1.54 80 09:31 15.03.2022
3199 Clouds 8 1035 73 10000 0.89 185 08:32 15.03.2022
3200 Clouds 8 1035 74 8000 1.34 185 07:44 15.03.2022
3201 Rain 8 1034 74 10000 1.03 30 06:35 15.03.2022
3202 Clear 8 1036 71 10000 1.79 225 02:36 15.03.2022
3203 Clouds 9 1035 65 10000 2.24 230 23:36 14.03.2022
3204 Clouds 9 1035 64 10000 2.06 220 23:18 14.03.2022
3205 Clouds 10 1035 59 10000 1.54 250 21:57 14.03.2022
3206 Clouds 10 1035 57 10000 1.79 236 21:20 14.03.2022
3207 Clouds 11 1034 55 10000 2.06 220 20:31 14.03.2022
3208 Clouds 11 1034 52 10000 2.57 210 19:47 14.03.2022
3209 Clouds 12 1032 50 10000 2.57 190 18:20 14.03.2022
3210 Clouds 12 1032 46 10000 1.54 0 17:42 14.03.2022
3211 Clouds 13 1032 44 10000 1.54 250 16:37 14.03.2022
3212 Clouds 12 1032 46 10000 2.57 240 14:58 14.03.2022
3213 Clouds 12 1033 46 10000 2.57 220 13:58 14.03.2022
3214 Clouds 10 1033 54 10000 1.54 150 11:27 14.03.2022
3215 Clouds 9 1033 58 10000 0.89 193 09:58 14.03.2022
3216 Clouds 9 1033 58 10000 0.89 193 09:58 14.03.2022
3217 Clouds 9 1033 60 10000 1.34 188 09:38 14.03.2022
3218 Clouds 8 1033 63 10000 0.89 111 09:18 14.03.2022
3219 Clouds 7 1033 64 10000 1.79 297 08:46 14.03.2022
3220 Clouds 6 1032 68 10000 2.57 350 07:19 14.03.2022
3221 Rain 7 1030 61 10000 1.79 73 03:36 14.03.2022
3222 Rain 7 1030 56 10000 2.06 80 01:42 14.03.2022
3223 Clouds 8 1029 52 10000 2.68 91 00:29 14.03.2022
3224 Clouds 8 1028 46 10000 1.79 95 21:51 13.03.2022
3225 Clouds 9 1028 44 10000 2.24 77 21:22 13.03.2022
3226 Rain 9 1028 43 10000 1.79 115 20:46 13.03.2022
3227 Clear 9 1027 43 10000 2.24 138 20:22 13.03.2022
3228 Clouds 9 1027 42 10000 2.24 77 19:42 13.03.2022
3229 Clouds 9 1027 42 10000 1.54 90 19:22 13.03.2022
3230 Clouds 9 1026 43 10000 1.79 124 18:45 13.03.2022
3231 Clouds 9 1026 41 10000 2.24 60 18:26 13.03.2022
3232 Rain 10 1026 38 10000 2.24 135 17:38 13.03.2022
3233 Clear 10 1026 37 10000 2.24 134 16:45 13.03.2022
3234 Clear 10 1026 36 10000 2.06 0 16:23 13.03.2022
3235 Clear 10 1026 36 10000 2.57 50 15:42 13.03.2022
3236 Clear 11 1026 35 10000 3.13 101 14:37 13.03.2022
3237 Clear 10 1026 35 10000 3.09 120 13:28 13.03.2022
3238 Clear 9 1027 43 10000 3.13 142 12:22 13.03.2022
3239 Clear 9 1027 47 10000 3.09 140 11:38 13.03.2022
3240 Clear 8 1027 49 10000 2.57 110 10:49 13.03.2022
3241 Clear 7 1027 52 10000 1.79 116 10:28 13.03.2022
3242 Clear 6 1028 57 10000 1.54 70 09:42 13.03.2022
3243 Clear 4 1028 59 10000 2.06 90 08:49 13.03.2022
3244 Clear 5 1028 58 10000 2.06 90 08:49 13.03.2022
3245 Clear 3 1028 59 10000 2.06 80 08:23 13.03.2022
3246 Clouds 2 1027 58 10000 0.45 83 06:40 13.03.2022
3247 Clear 3 1027 55 10000 2.57 80 03:56 13.03.2022
3248 Clear 5 1027 52 10000 0.51 0 00:48 13.03.2022
3249 Clear 7 1028 48 10000 1.54 80 22:51 12.03.2022
3250 Clouds 8 1028 46 10000 1.79 108 21:29 12.03.2022
3251 Clouds 8 1027 44 10000 2.68 78 20:18 12.03.2022
3252 Clouds 8 1027 45 10000 2.68 117 19:43 12.03.2022
3253 Clouds 9 1027 46 10000 3.13 82 18:34 12.03.2022
3254 Clear 9 1026 46 10000 2.06 120 17:46 12.03.2022
3255 Clouds 10 1027 44 10000 3.58 79 16:25 12.03.2022
3256 Clear 10 1027 45 10000 2.68 108 15:25 12.03.2022
3257 Clouds 10 1027 45 10000 3.6 100 14:52 12.03.2022
3258 Clouds 9 1028 48 10000 4.02 108 13:53 12.03.2022
3259 Clouds 8 1029 52 10000 6.26 74 12:25 12.03.2022
3260 Clouds 8 1029 54 10000 4.63 90 11:51 12.03.2022
3261 Clouds 7 1029 55 10000 5.14 120 11:20 12.03.2022
3262 Clouds 7 1029 60 10000 4.02 109 09:58 12.03.2022
3263 Clouds 7 1029 61 10000 4.02 109 09:39 12.03.2022
3264 Clouds 5 1028 64 10000 3.13 90 07:51 12.03.2022
3265 Clear 5 1027 63 10000 3.58 79 05:20 12.03.2022
3266 Clouds 6 1028 63 10000 3.13 82 00:24 12.03.2022
3267 Clouds 6 1028 63 10000 3.09 100 23:28 11.03.2022
3268 Clouds 7 1027 59 10000 4.47 101 21:47 11.03.2022
3269 Clouds 8 1027 58 10000 4.02 120 20:57 11.03.2022
3270 Clouds 8 1026 57 10000 2.57 90 20:37 11.03.2022
3271 Clouds 9 1026 55 10000 3.09 90 19:53 11.03.2022
3272 Clouds 9 1026 54 10000 2.68 108 19:26 11.03.2022
3273 Clouds 10 1026 50 10000 3.6 100 17:34 11.03.2022
3274 Clouds 11 1025 50 10000 4.12 80 16:42 11.03.2022
3275 Clouds 11 1026 50 10000 3.6 100 15:57 11.03.2022
3276 Clouds 11 1026 52 10000 4.12 120 14:21 11.03.2022
3277 Clouds 10 1027 57 10000 5.66 110 12:52 11.03.2022
3278 Clouds 10 1027 57 10000 5.14 100 12:21 11.03.2022
3279 Clouds 10 1028 58 10000 6.17 120 11:53 11.03.2022
3280 Clear 8 1027 64 10000 5.14 100 09:59 11.03.2022
3281 Clouds 7 1028 70 8000 4.47 105 08:56 11.03.2022
3282 Clear 6 1028 71 10000 4.02 83 08:24 11.03.2022
3283 Clear 6 1027 71 10000 4.02 90 07:45 11.03.2022
3284 Clear 6 1026 62 10000 5.36 81 05:44 11.03.2022
3285 Clear 6 1026 60 10000 3.6 90 03:41 11.03.2022
3286 Clear 7 1024 63 10000 1.34 306 23:36 10.03.2022
3287 Clouds 8 1024 63 10000 0.51 0 22:30 10.03.2022
3288 Clouds 9 1024 60 10000 0.89 97 21:27 10.03.2022
3289 Clouds 9 1024 59 10000 0.51 0 20:55 10.03.2022
3290 Clear 11 1024 50 10000 1.54 170 19:23 10.03.2022
3291 Clear 13 1023 45 10000 1.03 0 18:40 10.03.2022
3292 Clear 15 1022 41 10000 1.03 0 17:19 10.03.2022
3293 Clear 14 1023 41 10000 1.79 277 15:50 10.03.2022
3294 Clear 14 1023 43 10000 1.54 0 14:39 10.03.2022
3295 Clear 13 1025 50 10000 3.58 254 12:53 10.03.2022
3296 Clear 12 1025 53 10000 2.68 235 11:57 10.03.2022
3297 Clear 10 1026 54 10000 1.79 228 10:50 10.03.2022
3298 Clear 6 1026 58 9000 0.51 0 08:55 10.03.2022
3299 Clear 2 1026 72 10000 0.89 4 06:58 10.03.2022
3300 Clear 2 1025 69 10000 0.51 0 03:52 10.03.2022
3301 Clear 4 1025 62 10000 0.51 0 00:51 10.03.2022
3302 Clear 5 1025 58 10000 1.54 40 22:46 09.03.2022
3303 Clear 6 1024 55 10000 0.51 0 21:48 09.03.2022
3304 Clear 6 1024 52 10000 1.03 180 21:23 09.03.2022
3305 Clear 8 1023 46 10000 0.51 160 19:40 09.03.2022
3306 Clear 11 1022 35 10000 1.54 280 18:19 09.03.2022
3307 Clear 12 1022 33 10000 2.06 260 17:26 09.03.2022
3308 Clear 13 1022 32 10000 2.57 240 16:23 09.03.2022
3309 Clear 12 1023 38 10000 4.92 243 14:32 09.03.2022
3310 Clear 11 1023 39 10000 4.47 264 13:51 09.03.2022
3311 Clear 10 1025 45 10000 4.02 235 12:27 09.03.2022
3312 Clear 9 1025 49 10000 4.92 242 11:48 09.03.2022
3313 Clear 8 1025 55 10000 2.24 308 10:59 09.03.2022
3314 Clear 4 1026 67 10000 1.03 0 09:41 09.03.2022
3315 Clear 3 1025 66 8000 1.79 232 08:47 09.03.2022
3316 Clear 0 1023 75 10000 1.54 240 06:27 09.03.2022
3317 Clear 1 1024 64 10000 1.34 12 01:53 09.03.2022
3318 Clear 2 1024 59 10000 1.03 10 00:22 09.03.2022
3319 Clear 3 1023 57 10000 1.34 316 22:46 08.03.2022
3320 Clear 3 1024 57 10000 1.79 252 21:51 08.03.2022
3321 Clear 4 1024 55 10000 1.03 210 21:21 08.03.2022
3322 Clear 5 1024 52 10000 0.89 223 20:21 08.03.2022
3323 Clear 6 1023 46 10000 1.03 0 19:21 08.03.2022
3324 Clear 7 1022 44 10000 1.54 110 18:22 08.03.2022
3325 Clear 8 1021 41 10000 2.06 130 16:42 08.03.2022
3326 Clouds 8 1022 38 10000 3.09 70 14:55 08.03.2022
3327 Clouds 7 1023 43 10000 3.6 110 13:39 08.03.2022
3328 Clouds 6 1024 46 10000 3.6 110 12:20 08.03.2022
3329 Clouds 6 1024 48 10000 3.6 90 11:42 08.03.2022
3330 Clouds 5 1024 54 10000 3.6 80 10:28 08.03.2022
3331 Rain 4 1023 59 10000 3.6 80 08:56 08.03.2022
3332 Clouds 4 1022 63 10000 4.02 106 05:51 08.03.2022
3333 Clear 3 1021 63 10000 3.6 80 01:53 08.03.2022
3334 Clear 4 1019 58 10000 0.89 80 22:41 07.03.2022
3335 Clear 5 1018 56 10000 0.89 147 21:36 07.03.2022
3336 Clear 5 1018 52 10000 1.03 180 20:55 07.03.2022
3337 Clear 6 1017 50 10000 1.54 170 20:29 07.03.2022
3338 Clear 7 1017 47 10000 1.54 180 19:48 07.03.2022
3339 Clear 8 1017 44 10000 2.57 180 18:50 07.03.2022
3340 Clear 9 1016 43 10000 1.54 190 18:28 07.03.2022
3341 Clear 10 1016 39 10000 2.06 250 16:56 07.03.2022
3342 Clear 10 1016 40 10000 2.06 250 16:37 07.03.2022
3343 Clear 10 1017 41 10000 2.24 214 14:41 07.03.2022
3344 Clear 9 1019 44 10000 2.24 174 12:34 07.03.2022
3345 Clear 7 1019 49 10000 3.09 110 10:48 07.03.2022
3346 Clear 6 1020 52 10000 2.06 90 10:25 07.03.2022
3347 Clear 1 1019 68 10000 1.03 10 07:42 07.03.2022
3348 Clear 3 1018 60 10000 1.54 10 00:37 07.03.2022
3349 Clear 3 1018 56 10000 1.54 10 00:19 07.03.2022
3350 Clear 3 1018 56 10000 0.89 117 23:19 06.03.2022
3351 Clear 4 1018 53 10000 0.89 190 22:25 06.03.2022
3352 Clear 5 1017 48 10000 1.03 190 20:56 06.03.2022
3353 Clear 6 1017 46 10000 1.54 190 20:28 06.03.2022
3354 Clear 6 1016 44 10000 2.57 180 19:31 06.03.2022
3355 Clear 8 1016 40 10000 3.09 190 18:25 06.03.2022
3356 Clear 9 1016 37 10000 2.06 210 17:22 06.03.2022
3357 Clear 9 1015 35 10000 1.54 140 16:52 06.03.2022
3358 Clear 9 1016 35 10000 1.54 220 16:24 06.03.2022
3359 Clouds 9 1016 35 10000 3.13 132 15:19 06.03.2022
3360 Clouds 9 1017 36 10000 1.34 323 14:41 06.03.2022
3361 Clouds 8 1017 38 10000 2.06 190 13:47 06.03.2022
3362 Clouds 8 1018 40 10000 2.06 200 12:36 06.03.2022
3363 Clouds 7 1019 41 10000 2.24 121 11:27 06.03.2022
3364 Clouds 7 1019 45 10000 3.13 86 10:29 06.03.2022
3365 Clouds 4 1019 55 10000 2.57 60 08:40 06.03.2022
3366 Clouds 4 1019 58 10000 1.54 80 08:20 06.03.2022
3367 Clouds 3 1018 59 10000 2.06 350 06:22 06.03.2022
3368 Clouds 4 1018 55 10000 2.06 90 01:32 06.03.2022
3369 Clouds 4 1018 54 10000 3.58 116 00:33 06.03.2022
3370 Clouds 4 1018 55 10000 1.54 60 23:41 05.03.2022
3371 Clouds 4 1018 55 10000 1.34 98 23:18 05.03.2022
3372 Clear 5 1018 52 10000 1.79 64 22:25 05.03.2022
3373 Clear 6 1017 49 10000 2.68 78 21:24 05.03.2022
3374 Clear 6 1016 48 10000 1.54 130 19:53 05.03.2022
3375 Clear 7 1016 47 10000 3.09 140 18:56 05.03.2022
3376 Clear 8 1015 45 10000 2.24 128 18:27 05.03.2022
3377 Clouds 9 1015 43 10000 3.09 140 16:52 05.03.2022
3378 Clouds 9 1016 42 10000 3.13 150 15:40 05.03.2022
3379 Clouds 9 1016 42 10000 2.57 0 14:52 05.03.2022
3380 Clouds 9 1016 42 10000 4.12 110 14:33 05.03.2022
3381 Clouds 9 1017 43 10000 3.13 107 13:22 05.03.2022
3382 Clouds 8 1018 46 10000 7.6 73 11:48 05.03.2022
3383 Clouds 7 1018 49 10000 5.14 110 11:19 05.03.2022
3384 Clouds 6 1018 54 10000 6.26 70 10:20 05.03.2022
3385 Clouds 6 1019 56 10000 5.36 82 09:22 05.03.2022
3386 Clouds 4 1018 62 10000 4.47 87 07:38 05.03.2022
3387 Clouds 4 1017 64 10000 3.58 91 05:43 05.03.2022
3388 Clouds 5 1017 67 10000 3.09 60 03:49 05.03.2022
3389 Clouds 6 1016 58 10000 2.68 83 23:38 04.03.2022
3390 Clear 7 1016 57 10000 3.13 83 22:42 04.03.2022
3391 Clouds 7 1016 55 10000 3.58 91 22:19 04.03.2022
3392 Clear 8 1015 56 10000 3.09 80 20:56 04.03.2022
3393 Clear 8 1015 55 10000 3.58 58 20:27 04.03.2022
3394 Clear 9 1014 54 10000 3.6 70 19:36 04.03.2022
3395 Clear 10 1014 51 10000 3.6 80 18:45 04.03.2022
3396 Clear 11 1013 48 10000 4.47 125 17:39 04.03.2022
3397 Clouds 12 1013 50 7000 4.12 130 16:54 04.03.2022
3398 Clouds 12 1013 51 7000 3.6 100 15:29 04.03.2022
3399 Clouds 12 1013 53 8000 3.6 140 14:33 04.03.2022
3400 Clouds 12 1014 54 8000 4.12 130 13:26 04.03.2022
3401 Clouds 10 1015 59 8000 4.12 120 11:46 04.03.2022
3402 Clouds 10 1015 63 8000 4.02 143 10:52 04.03.2022
3403 Clouds 8 1015 67 7000 3.09 70 09:52 04.03.2022
3404 Clouds 7 1015 73 6000 2.24 93 08:39 04.03.2022
3405 Mist 5 1014 74 5000 2.06 70 07:34 04.03.2022
3406 Clear 5 1013 73 10000 1.34 100 03:56 04.03.2022
3407 Clear 7 1013 76 10000 1.54 290 00:28 04.03.2022
3408 Clear 8 1013 73 10000 2.68 251 22:27 03.03.2022
3409 Clear 8 1013 68 10000 4.02 230 21:42 03.03.2022
3410 Clear 9 1013 67 10000 3.58 228 21:24 03.03.2022
3411 Clear 9 1013 54 10000 1.03 240 19:52 03.03.2022
3412 Clear 11 1012 49 10000 1.79 293 18:54 03.03.2022
3413 Clear 12 1012 45 10000 1.34 276 18:23 03.03.2022
3414 Clear 13 1012 42 10000 1.34 299 17:30 03.03.2022
3415 Clear 14 1013 41 10000 1.54 0 16:24 03.03.2022
3416 Clear 14 1014 45 10000 2.57 200 15:21 03.03.2022
3417 Clear 13 1014 45 10000 1.54 0 14:42 03.03.2022
3418 Clear 13 1016 49 10000 3.58 199 13:19 03.03.2022
3419 Clear 11 1017 56 10000 2.24 192 11:54 03.03.2022
3420 Clear 10 1018 58 10000 1.79 118 10:42 03.03.2022
3421 Clear 7 1018 66 10000 2.24 157 08:57 03.03.2022
3422 Clear 4 1018 75 10000 0.51 0 07:45 03.03.2022
3423 Clear 4 1019 73 10000 1.03 160 06:35 03.03.2022
3424 Rain 6 1020 64 10000 1.34 280 01:52 03.03.2022
3425 Clear 7 1020 63 10000 1.54 270 23:29 02.03.2022
3426 Clear 7 1020 59 10000 2.68 237 22:52 02.03.2022
3427 Clear 8 1020 53 10000 2.24 219 21:30 02.03.2022
3428 Clear 8 1020 48 10000 1.79 205 20:45 02.03.2022
3429 Clear 8 1020 44 10000 1.79 195 20:24 02.03.2022
3430 Clear 9 1020 41 10000 1.34 230 19:35 02.03.2022
3431 Clear 10 1020 38 10000 0.51 0 18:44 02.03.2022
3432 Clear 11 1019 35 10000 2.24 280 17:59 02.03.2022
3433 Clear 11 1019 35 10000 2.68 259 17:28 02.03.2022
3434 Clear 12 1019 34 10000 3.09 260 16:51 02.03.2022
3435 Clear 12 1021 33 10000 3.09 270 14:45 02.03.2022
3436 Clear 11 1022 38 10000 3.13 253 13:24 02.03.2022
3437 Clear 10 1023 42 10000 3.58 238 12:43 02.03.2022
3438 Clear 9 1023 46 10000 4.02 233 11:47 02.03.2022
3439 Clear 9 1024 49 10000 2.57 240 11:24 02.03.2022
3440 Clear 6 1025 60 10000 1.03 0 09:42 02.03.2022
3441 Clear 4 1025 63 10000 1.79 234 08:55 02.03.2022
3442 Clear 1 1025 69 10000 0.51 0 07:39 02.03.2022
3443 Clear 1 1025 67 10000 0.89 248 06:51 02.03.2022
3444 Clear 2 1027 60 10000 1.34 303 02:35 02.03.2022
3445 Clear 4 1028 54 10000 1.03 10 23:55 01.03.2022
3446 Clear 4 1028 52 10000 1.03 210 22:46 01.03.2022
3447 Clear 4 1029 54 10000 0.51 210 22:19 01.03.2022
3448 Clear 5 1029 49 10000 1.03 170 21:25 01.03.2022
3449 Clear 6 1027 44 10000 0.51 270 20:30 01.03.2022
3450 Clear 6 1027 44 10000 0.51 270 20:30 01.03.2022
3451 Clear 6 1027 44 10000 0.51 270 20:30 01.03.2022
3452 Clear 6 1027 44 10000 0.51 270 20:30 01.03.2022
3453 Clear 7 1027 41 10000 1.34 228 19:38 01.03.2022
3454 Clear 8 1026 38 10000 3.13 222 18:49 01.03.2022
3455 Clear 9 1026 35 10000 2.68 239 18:20 01.03.2022
3456 Clear 10 1026 33 10000 3.13 215 17:22 01.03.2022
3457 Clear 10 1027 32 10000 2.68 246 16:33 01.03.2022
3458 Clear 10 1027 32 10000 4.02 312 15:38 01.03.2022
3459 Clear 10 1027 32 10000 4.02 312 15:38 01.03.2022
3460 Clear 10 1028 32 10000 2.68 293 14:34 01.03.2022
3461 Clear 10 1029 33 10000 3.09 260 13:52 01.03.2022
3462 Clear 9 1029 32 10000 0.45 294 13:24 01.03.2022
3463 Clear 8 1031 34 10000 4.02 273 12:30 01.03.2022
3464 Clear 7 1032 40 10000 3.58 264 10:34 01.03.2022
3465 Clouds 4 1033 53 10000 2.68 346 08:41 01.03.2022
3466 Clouds 4 1033 54 10000 2.06 20 07:52 01.03.2022
3467 Clouds 4 1033 53 10000 3.09 50 05:54 01.03.2022
3468 Clouds 5 1031 57 10000 6.17 90 02:33 01.03.2022
3469 Clouds 6 1029 64 10000 6.26 123 00:34 01.03.2022
3470 Clear 6 1028 66 10000 4.92 84 23:29 28.02.2022
3471 Clear 7 1026 53 10000 6.17 100 21:59 28.02.2022
3472 Clear 7 1025 46 10000 6.71 97 21:24 28.02.2022
3473 Clear 9 1024 38 10000 3.6 120 19:53 28.02.2022
3474 Clear 9 1023 36 10000 3.13 104 19:27 28.02.2022
3475 Clear 10 1023 33 10000 0.51 0 18:40 28.02.2022
3476 Clear 12 1022 29 10000 2.06 230 17:24 28.02.2022
3477 Clear 13 1022 29 10000 2.57 230 16:33 28.02.2022
3478 Clear 13 1022 30 10000 2.24 236 15:23 28.02.2022
3479 Clear 12 1023 30 10000 2.06 250 15:23 28.02.2022
3480 Clear 12 1023 30 10000 3.09 260 14:31 28.02.2022
3481 Clear 12 1024 31 10000 3.09 250 13:47 28.02.2022
3482 Clear 11 1025 36 10000 2.68 212 12:41 28.02.2022
3483 Clear 10 1026 42 10000 3.13 171 11:55 28.02.2022
3484 Clear 8 1026 48 10000 1.54 200 10:48 28.02.2022
3485 Clear 7 1026 53 10000 2.68 188 10:20 28.02.2022
3486 Clear 6 1026 54 10000 1.79 205 09:32 28.02.2022
3487 Clear 3 1027 60 10000 0.89 326 08:29 28.02.2022
3488 Clear 2 1027 64 10000 0.89 1 07:28 28.02.2022
3489 Clear 2 1028 65 10000 1.03 280 04:44 28.02.2022
3490 Clear 2 1028 63 10000 1.03 170 04:23 28.02.2022
3491 Clear 5 1029 48 10000 1.03 30 23:27 27.02.2022
3492 Clear 5 1029 48 10000 0.89 355 22:33 27.02.2022
3493 Clear 6 1028 44 10000 0.51 0 21:51 27.02.2022
3494 Clear 6 1028 40 10000 1.54 190 20:59 27.02.2022
3495 Clear 7 1028 38 10000 2.06 190 20:27 27.02.2022
3496 Clear 7 1028 39 10000 2.06 190 19:57 27.02.2022
3497 Clear 8 1027 37 10000 2.06 190 19:26 27.02.2022
3498 Clear 9 1027 34 10000 2.06 190 18:47 27.02.2022
3499 Clear 11 1026 30 10000 2.06 180 17:55 27.02.2022
3500 Clear 12 1026 28 10000 2.57 170 16:45 27.02.2022
3501 Clear 12 1026 29 10000 2.06 150 16:21 27.02.2022
3502 Clouds 11 1026 37 10000 2.68 320 13:25 27.02.2022
3503 Clear 10 1027 41 10000 2.57 180 12:32 27.02.2022
3504 Clear 9 1027 51 10000 2.57 190 10:56 27.02.2022
3505 Clear 8 1027 53 10000 1.54 20 10:18 27.02.2022
3506 Clear 7 1027 55 10000 1.79 324 09:44 27.02.2022
3507 Clear 5 1027 59 10000 1.54 20 09:19 27.02.2022
3508 Clear 2 1027 68 10000 2.24 24 07:37 27.02.2022
3509 Clear 3 1026 67 10000 1.34 25 05:38 27.02.2022
3510 Clear 4 1027 59 10000 2.06 20 01:53 27.02.2022
3511 Clear 6 1026 56 10000 3.13 74 23:22 26.02.2022
3512 Clear 7 1025 52 10000 3.6 90 21:49 26.02.2022
3513 Clear 8 1025 47 10000 5.14 120 20:58 26.02.2022
3514 Clear 9 1025 33 10000 4.92 95 20:20 26.02.2022
3515 Clear 9 1024 29 10000 2.57 100 19:49 26.02.2022
3516 Clear 10 1023 27 10000 3.6 140 19:22 26.02.2022
3517 Clear 13 1022 22 10000 4.63 150 17:46 26.02.2022
3518 Clear 14 1021 21 10000 4.63 180 16:52 26.02.2022
3519 Clear 15 1022 18 10000 6.26 325 15:57 26.02.2022
3520 Clear 15 1023 18 10000 5.66 170 15:23 26.02.2022
3521 Clear 15 1023 17 10000 5.14 180 14:54 26.02.2022
3522 Clear 14 1023 18 10000 4.92 295 14:36 26.02.2022
3523 Clear 14 1023 18 10000 1.79 281 13:19 26.02.2022
3524 Clear 12 1026 29 10000 3.09 220 12:29 26.02.2022
3525 Clear 10 1027 53 10000 3.09 250 11:28 26.02.2022
3526 Clear 10 1026 47 10000 3.09 220 10:49 26.02.2022
3527 Clear 5 1026 77 10000 4.02 295 08:55 26.02.2022
3528 Fog 3 1027 84 10000 1.03 340 07:37 26.02.2022
3529 Clear 8 1024 31 10000 4.63 340 01:27 26.02.2022
3530 Clear 9 1023 25 10000 5.14 330 22:55 25.02.2022
3531 Clear 9 1022 23 10000 8.75 340 21:44 25.02.2022
3532 Clear 9 1022 22 10000 9.77 350 21:25 25.02.2022
3533 Clouds 10 1021 20 10000 8.75 360 20:33 25.02.2022
3534 Clouds 11 1020 18 10000 8.23 350 19:18 25.02.2022
3535 Clouds 13 1018 15 10000 8.75 360 17:29 25.02.2022
3536 Clouds 15 1016 16 10000 6.69 10 16:32 25.02.2022
3537 Clear 16 1016 19 10000 4.02 352 15:47 25.02.2022
3538 Clear 16 1016 23 10000 2.24 330 15:21 25.02.2022
3539 Clear 16 1016 28 10000 3.13 360 14:42 25.02.2022
3540 Clear 16 1016 27 10000 1.54 0 14:42 25.02.2022
3541 Clear 16 1017 42 10000 3.09 250 13:36 25.02.2022
3542 Clear 15 1017 44 10000 4.02 239 12:56 25.02.2022
3543 Clear 12 1018 52 10000 4.92 251 11:28 25.02.2022
3544 Clear 11 1018 57 10000 2.68 254 10:43 25.02.2022
3545 Clear 10 1018 63 10000 0.89 278 10:22 25.02.2022
3546 Clear 7 1018 72 10000 1.79 332 09:30 25.02.2022
3547 Mist 4 1017 78 5000 1.34 275 07:42 25.02.2022
3548 Clear 4 1017 79 10000 1.79 322 05:51 25.02.2022
3549 Clear 5 1017 78 10000 1.79 293 04:41 25.02.2022
3550 Clear 7 1018 71 10000 1.03 290 00:22 25.02.2022
3551 Clear 8 1020 67 10000 0.51 0 21:58 24.02.2022
3552 Clear 8 1020 67 10000 0.51 0 21:58 24.02.2022
3553 Clear 8 1020 66 10000 0.51 0 21:39 24.02.2022
3554 Clouds 9 1020 65 10000 1.03 0 21:19 24.02.2022
3555 Clear 10 1019 59 10000 0.51 0 19:42 24.02.2022
3556 Clouds 12 1019 54 10000 2.06 150 18:44 24.02.2022
3557 Clouds 12 1019 52 10000 1.34 202 18:19 24.02.2022
3558 Clouds 13 1020 49 10000 1.34 196 17:34 24.02.2022
3559 Clear 13 1020 46 10000 1.54 210 16:50 24.02.2022
3560 Clouds 14 1020 46 10000 1.54 160 16:24 24.02.2022
3561 Clear 14 1021 47 10000 1.54 170 14:56 24.02.2022
3562 Clear 13 1021 48 10000 1.79 159 14:36 24.02.2022
3563 Clear 13 1022 50 10000 2.24 129 13:40 24.02.2022
3564 Clear 12 1023 52 10000 1.34 158 12:54 24.02.2022
3565 Clear 10 1024 59 10000 1.79 151 10:41 24.02.2022
3566 Clear 8 1025 67 10000 1.54 190 09:24 24.02.2022
3567 Clear 6 1025 68 10000 1.34 176 08:41 24.02.2022
3568 Clouds 6 1025 68 10000 1.03 40 05:58 24.02.2022
3569 Clear 7 1026 60 10000 3.13 69 01:58 24.02.2022
3570 Clear 8 1026 56 10000 2.06 50 23:40 23.02.2022
3571 Clear 10 1026 50 10000 3.13 95 21:43 23.02.2022
3572 Clear 11 1026 50 10000 2.06 100 20:31 23.02.2022
3573 Clear 11 1026 47 10000 2.06 100 19:48 23.02.2022
3574 Clear 13 1025 41 10000 2.68 74 18:32 23.02.2022
3575 Clear 13 1025 41 10000 2.68 74 18:32 23.02.2022
3576 Clear 15 1025 38 10000 2.06 50 17:44 23.02.2022
3577 Clear 16 1024 36 10000 2.24 114 15:19 23.02.2022
3578 Clear 15 1025 36 10000 2.57 150 12:50 23.02.2022
3579 Clear 14 1025 38 10000 3.09 120 12:24 23.02.2022
3580 Clear 14 1025 38 10000 3.09 120 12:24 23.02.2022
3581 Clear 11 1025 44 10000 1.54 100 10:35 23.02.2022
3582 Clear 8 1024 55 10000 1.03 20 08:59 23.02.2022
3583 Clear 6 1024 60 10000 1.03 0 08:23 23.02.2022
3584 Clear 5 1023 63 10000 1.03 0 06:53 23.02.2022
3585 Clear 7 1021 55 10000 1.54 10 00:47 23.02.2022
3586 Clear 8 1021 52 10000 0.51 0 23:39 22.02.2022
3587 Clear 9 1020 44 10000 2.06 350 22:41 22.02.2022
3588 Clear 10 1019 42 10000 2.68 30 21:50 22.02.2022
3589 Clear 10 1019 41 10000 1.79 25 21:31 22.02.2022
3590 Clear 11 1019 41 10000 3.13 314 20:59 22.02.2022
3591 Clear 12 1018 39 10000 3.58 301 20:30 22.02.2022
3592 Clear 13 1018 37 10000 2.68 301 19:47 22.02.2022
3593 Clear 13 1018 36 10000 4.12 280 19:28 22.02.2022
3594 Clear 14 1017 33 10000 4.12 280 18:21 22.02.2022
3595 Clear 16 1016 30 10000 5.14 270 17:24 22.02.2022
3596 Clear 17 1016 27 10000 5.66 280 16:41 22.02.2022
3597 Clear 18 1016 21 10000 7.2 330 15:56 22.02.2022
3598 Clear 18 1016 18 10000 5.14 340 14:45 22.02.2022
3599 Clear 17 1016 20 10000 5.66 330 12:44 22.02.2022
3600 Clear 15 1017 28 10000 7.15 333 10:52 22.02.2022
3601 Clear 10 1017 44 10000 5.36 9 08:41 22.02.2022
3602 Clear 7 1016 50 10000 2.06 340 07:27 22.02.2022
3603 Clear 7 1016 49 10000 4.02 28 05:57 22.02.2022
3604 Clear 8 1014 52 10000 3.13 341 02:45 22.02.2022
3605 Clear 10 1011 38 10000 7.2 330 22:46 21.02.2022
3606 Clear 10 1010 34 10000 5.81 331 21:42 21.02.2022
3607 Clear 11 1009 31 10000 3.6 330 20:35 21.02.2022
3608 Clear 12 1008 24 10000 6.17 340 18:46 21.02.2022
3609 Clear 15 1006 19 10000 7.2 350 16:58 21.02.2022
3610 Clear 16 1006 18 10000 8.75 340 15:20 21.02.2022
3611 Clear 16 1005 22 10000 7.2 340 14:21 21.02.2022
3612 Clear 16 1005 22 10000 7.2 340 14:21 21.02.2022
3613 Clear 15 1006 43 10000 7.6 333 13:20 21.02.2022
3614 Clouds 14 1007 64 10000 4.63 310 12:23 21.02.2022
3615 Clouds 11 1008 78 10000 2.68 323 11:19 21.02.2022
3616 Mist 9 1008 87 3500 1.03 0 09:34 21.02.2022
3617 Mist 8 1011 87 2500 0.51 0 05:35 21.02.2022
3618 Clouds 8 1017 82 6000 1.79 230 23:41 20.02.2022
3619 Clouds 9 1017 80 10000 2.24 225 22:21 20.02.2022
3620 Clouds 9 1018 80 10000 1.03 0 21:42 20.02.2022
3621 Clear 9 1017 76 10000 1.03 170 20:53 20.02.2022
3622 Clear 10 1017 75 10000 1.03 210 20:33 20.02.2022
3623 Clouds 11 1017 73 10000 0.51 0 19:31 20.02.2022
3624 Clouds 11 1017 73 10000 0.51 0 19:31 20.02.2022
3625 Clear 12 1016 71 10000 1.34 307 18:50 20.02.2022
3626 Clouds 12 1016 71 10000 1.03 0 18:31 20.02.2022
3627 Clouds 12 1016 71 10000 1.03 0 18:31 20.02.2022
3628 Clouds 13 1016 67 9000 2.06 260 17:47 20.02.2022
3629 Clouds 15 1018 61 10000 3.09 250 15:32 20.02.2022
3630 Clouds 14 1018 61 10000 4.02 242 14:41 20.02.2022
3631 Clear 13 1019 64 10000 3.58 251 13:23 20.02.2022
3632 Clear 12 1020 67 10000 2.57 230 12:22 20.02.2022
3633 Fog 9 1020 86 250 1.79 226 10:21 20.02.2022
3634 Fog 8 1020 91 800 2.06 220 09:53 20.02.2022
3635 Fog 5 1019 96 900 1.79 310 07:45 20.02.2022
3636 Mist 9 1019 93 1500 0.89 242 00:54 20.02.2022
3637 Mist 9 1019 93 1500 1.34 171 00:29 20.02.2022
3638 Mist 9 1018 91 1300 1.03 160 22:25 19.02.2022
3639 Mist 9 1019 91 1900 1.03 120 21:57 19.02.2022
3640 Mist 10 1017 90 2300 1.34 238 20:48 19.02.2022
3641 Mist 10 1017 90 2300 1.34 196 19:42 19.02.2022
3642 Mist 10 1017 90 2100 1.54 210 19:20 19.02.2022
3643 Mist 11 1016 88 2600 1.54 200 18:29 19.02.2022
3644 Mist 12 1016 86 3900 2.57 210 17:33 19.02.2022
3645 Mist 12 1016 83 4400 3.09 200 16:21 19.02.2022
3646 Mist 13 1016 80 4000 2.06 220 14:56 19.02.2022
3647 Mist 13 1015 82 4000 1.54 250 13:59 19.02.2022
3648 Mist 11 1016 88 1500 2.68 242 11:59 19.02.2022
3649 Mist 10 1016 89 1500 2.68 229 11:36 19.02.2022
3650 Mist 8 1016 95 1000 1.54 240 09:27 19.02.2022
3651 Mist 8 1014 96 1000 2.06 200 06:51 19.02.2022
3652 Drizzle 8 1015 92 2600 1.54 330 00:55 19.02.2022
3653 Clouds 8 1016 87 6000 1.79 309 22:54 18.02.2022
3654 Clouds 9 1016 84 6000 1.79 237 21:28 18.02.2022
3655 Clouds 9 1016 82 6000 1.54 360 20:31 18.02.2022
3656 Clouds 9 1016 81 6000 1.03 0 19:51 18.02.2022
3657 Clouds 9 1016 81 6000 1.03 0 19:51 18.02.2022
3658 Mist 10 1016 77 5000 1.54 110 18:38 18.02.2022
3659 Mist 10 1016 76 5000 1.54 110 18:18 18.02.2022
3660 Mist 10 1016 75 5000 2.06 100 17:20 18.02.2022
3661 Mist 10 1016 73 4000 2.06 130 14:31 18.02.2022
3662 Mist 10 1017 73 5000 2.68 131 13:47 18.02.2022
3663 Mist 10 1018 75 5000 2.68 107 12:50 18.02.2022
3664 Mist 9 1018 79 3000 3.13 117 11:57 18.02.2022
3665 Mist 7 1018 87 1200 3.09 60 10:47 18.02.2022
3666 Mist 5 1018 92 1500 4.02 127 09:20 18.02.2022
3667 Mist 4 1016 91 4000 2.68 82 06:48 18.02.2022
3668 Mist 5 1015 91 4000 3.13 74 05:34 18.02.2022
3669 Clear 9 1013 78 10000 2.24 248 22:39 17.02.2022
3670 Clear 9 1012 79 10000 1.03 0 21:41 17.02.2022
3671 Clear 10 1012 76 10000 2.24 269 20:44 17.02.2022
3672 Clear 11 1012 75 10000 3.13 255 19:56 17.02.2022
3673 Clear 11 1011 75 10000 4.02 238 19:26 17.02.2022
3674 Clear 13 1010 70 10000 4.02 242 18:29 17.02.2022
3675 Clear 14 1010 65 10000 4.02 248 17:42 17.02.2022
3676 Clear 16 1011 64 10000 4.12 260 15:58 17.02.2022
3677 Clear 15 1011 63 10000 4.12 270 14:30 17.02.2022
3678 Clear 14 1011 63 10000 4.63 260 13:47 17.02.2022
3679 Clear 12 1013 66 10000 2.68 282 11:52 17.02.2022
3680 Clear 10 1013 72 10000 1.79 240 10:57 17.02.2022
3681 Fog 3 1013 92 300 1.03 0 07:56 17.02.2022
3682 Fog 4 1015 100 300 1.54 240 23:50 16.02.2022
3683 Fog 5 1015 96 300 2.06 240 22:36 16.02.2022
3684 Fog 5 1015 92 2000 2.06 250 20:22 16.02.2022
3685 Clouds 7 1016 86 6000 2.24 259 18:56 16.02.2022
3686 Clear 7 1015 84 6000 2.06 240 18:27 16.02.2022
3687 Clouds 9 1016 77 6000 2.06 240 17:22 16.02.2022
3688 Fog 10 1016 73 6000 1.79 209 15:23 16.02.2022
3689 Mist 10 1016 75 5000 2.06 260 13:46 16.02.2022
3690 Mist 8 1018 79 3000 2.06 250 12:26 16.02.2022
3691 Mist 8 1018 83 3000 2.24 203 11:46 16.02.2022
3692 Fog 5 1018 91 200 1.79 292 10:34 16.02.2022
3693 Fog 3 1019 95 100 1.79 312 09:38 16.02.2022
3694 Fog 1 1018 95 900 0.89 320 06:43 16.02.2022
3695 Clouds 2 1017 93 10000 0.84 217 00:37 16.02.2022
3696 Fog 3 1017 93 2500 1.79 12 22:34 15.02.2022
3697 Fog 3 1016 93 2500 1.54 10 21:50 15.02.2022
3698 Fog 3 1016 92 2000 1.34 44 21:29 15.02.2022
3699 Fog 4 1015 92 2500 2.24 37 20:58 15.02.2022
3700 Mist 4 1014 92 3000 1.34 341 20:22 15.02.2022
3701 Mist 4 1014 92 3000 0.51 0 19:43 15.02.2022
3702 Mist 5 1014 91 2500 1.03 170 18:25 15.02.2022
3703 Mist 5 1013 90 2500 1.54 190 17:53 15.02.2022
3704 Mist 5 1013 89 2500 1.34 159 17:28 15.02.2022
3705 Mist 5 1013 90 3000 2.06 250 15:36 15.02.2022
3706 Mist 4 1013 91 2500 3.09 250 13:49 15.02.2022
3707 Mist 4 1013 91 2500 3.58 251 13:25 15.02.2022
3708 Rain 3 1012 94 1500 3.09 250 11:41 15.02.2022
3709 Rain 2 1012 96 2000 4.12 250 10:19 15.02.2022
3710 Rain 2 1012 94 2500 1.79 245 07:41 15.02.2022
3711 Rain 1 1013 93 2500 1.34 323 06:36 15.02.2022
3712 Clouds 2 1016 92 7000 2.06 350 23:34 14.02.2022
3713 Clouds 2 1017 90 6000 2.06 360 21:55 14.02.2022
3714 Rain 2 1017 90 6000 2.24 310 20:51 14.02.2022
3715 Drizzle 3 1017 88 10000 2.06 340 19:46 14.02.2022
3716 Drizzle 3 1017 86 8000 2.06 10 19:26 14.02.2022
3717 Drizzle 4 1017 82 6000 2.06 360 18:23 14.02.2022
3718 Drizzle 4 1016 76 10000 2.24 311 17:27 14.02.2022
3719 Drizzle 5 1017 68 10000 1.79 216 16:26 14.02.2022
3720 Clouds 6 1018 66 8000 1.34 181 14:43 14.02.2022
3721 Clouds 6 1018 64 10000 2.68 212 13:34 14.02.2022
3722 Rain 6 1019 63 10000 0.89 203 12:56 14.02.2022
3723 Clear 6 1020 64 10000 1.79 131 11:56 14.02.2022
3724 Clouds 5 1020 63 10000 1.79 194 11:37 14.02.2022
3725 Clear 4 1020 69 10000 0.89 235 09:25 14.02.2022
3726 Clouds 3 1020 69 10000 0.89 234 07:33 14.02.2022
3727 Clouds 3 1020 68 10000 0.51 10 06:54 14.02.2022
3728 Clear 4 1023 61 10000 1.54 10 22:44 13.02.2022
3729 Clear 4 1023 61 10000 1.54 360 22:26 13.02.2022
3730 Clear 4 1023 62 10000 0.89 80 21:48 13.02.2022
3731 Clear 5 1023 57 10000 1.03 350 20:42 13.02.2022
3732 Clear 6 1023 54 10000 0.51 0 19:51 13.02.2022
3733 Clear 7 1023 51 10000 1.54 150 18:56 13.02.2022
3734 Clear 7 1023 49 10000 1.54 130 18:38 13.02.2022
3735 Clear 10 1024 42 10000 1.54 90 16:39 13.02.2022
3736 Clear 10 1024 43 10000 1.34 232 15:27 13.02.2022
3737 Clear 10 1025 45 10000 1.79 177 14:37 13.02.2022
3738 Clear 9 1027 48 10000 2.68 86 12:52 13.02.2022
3739 Clear 8 1028 50 10000 3.09 140 12:18 13.02.2022
3740 Clear 6 1028 54 10000 5.36 84 10:38 13.02.2022
3741 Clear 5 1029 57 10000 2.57 50 09:49 13.02.2022
3742 Clear 2 1028 65 10000 1.79 75 07:52 13.02.2022
3743 Clear 4 1030 58 10000 1.03 0 00:36 13.02.2022
3744 Clear 4 1030 62 10000 1.34 31 23:53 12.02.2022
3745 Clear 5 1031 55 10000 1.34 21 22:33 12.02.2022
3746 Clear 6 1031 53 10000 0.89 23 21:36 12.02.2022
3747 Clear 6 1030 51 10000 0.89 330 20:52 12.02.2022
3748 Clear 7 1030 44 10000 0.51 0 19:47 12.02.2022
3749 Clear 8 1030 42 10000 1.54 160 18:53 12.02.2022
3750 Clear 8 1030 40 10000 1.54 180 18:35 12.02.2022
3751 Clear 10 1030 36 10000 2.24 115 17:37 12.02.2022
3752 Clear 11 1030 35 10000 1.54 180 16:43 12.02.2022
3753 Clear 11 1030 34 10000 2.24 65 15:51 12.02.2022
3754 Clear 11 1031 36 10000 2.57 140 14:55 12.02.2022
3755 Clear 11 1031 38 10000 3.6 130 14:24 12.02.2022
3756 Clear 9 1033 56 10000 6.26 79 11:18 12.02.2022
3757 Clear 8 1033 67 10000 4.92 119 10:23 12.02.2022
3758 Clear 6 1033 77 10000 3.13 70 09:32 12.02.2022
3759 Clear 5 1032 79 10000 3.09 50 08:45 12.02.2022
3760 Clear 5 1030 67 10000 4.02 101 05:41 12.02.2022
3761 Clear 5 1030 57 10000 4.12 110 04:36 12.02.2022
3762 Clouds 5 1028 75 8000 2.57 20 02:19 12.02.2022
3763 Clear 8 1027 56 10000 4.12 60 22:57 11.02.2022
3764 Clear 9 1026 24 10000 5.14 360 22:20 11.02.2022
3765 Clear 10 1025 20 10000 4.63 360 20:52 11.02.2022
3766 Clear 11 1024 24 10000 4.02 2 19:50 11.02.2022
3767 Clear 11 1024 29 10000 4.47 357 19:27 11.02.2022
3768 Clear 12 1023 41 10000 3.09 260 18:28 11.02.2022
3769 Clear 13 1022 56 10000 3.6 250 17:26 11.02.2022
3770 Clear 14 1022 56 10000 4.47 263 16:26 11.02.2022
3771 Clear 14 1022 59 10000 3.6 250 14:57 11.02.2022
3772 Clear 14 1022 61 10000 4.12 230 14:36 11.02.2022
3773 Clear 14 1022 60 10000 4.47 221 14:18 11.02.2022
3774 Clouds 13 1022 64 10000 3.6 250 13:39 11.02.2022
3775 Clouds 12 1023 74 8000 1.54 270 12:20 11.02.2022
3776 Drizzle 9 1024 79 6000 1.79 219 10:28 11.02.2022
3777 Clouds 8 1023 82 8000 1.54 100 09:19 11.02.2022
3778 Clouds 7 1023 84 8000 1.34 338 08:28 11.02.2022
3779 Clouds 7 1023 84 10000 1.79 305 07:34 11.02.2022
3780 Clouds 8 1024 83 10000 1.03 360 02:40 11.02.2022
3781 Clouds 8 1024 83 10000 1.34 225 02:19 11.02.2022
3782 Clouds 8 1025 82 10000 0.51 0 23:20 10.02.2022
3783 Clouds 8 1025 82 10000 1.34 231 21:53 10.02.2022
3784 Clouds 8 1025 81 10000 1.54 190 21:21 10.02.2022
3785 Clouds 8 1025 81 10000 0.89 214 20:45 10.02.2022
3786 Clouds 9 1025 79 10000 1.03 180 19:26 10.02.2022
3787 Clouds 9 1025 78 10000 1.03 0 18:47 10.02.2022
3788 Clouds 11 1024 74 10000 1.54 260 17:27 10.02.2022
3789 Clouds 12 1025 73 10000 1.79 245 16:55 10.02.2022
3790 Clouds 12 1024 72 10000 2.68 240 15:51 10.02.2022
3791 Clouds 12 1025 73 10000 1.34 221 15:31 10.02.2022
3792 Clouds 12 1025 73 10000 1.79 210 14:49 10.02.2022
3793 Clouds 12 1025 75 10000 1.79 234 14:24 10.02.2022
3794 Clouds 11 1026 77 10000 2.06 260 13:29 10.02.2022
3795 Clouds 11 1026 78 10000 1.34 216 12:50 10.02.2022
3796 Clouds 9 1027 80 10000 1.34 292 11:34 10.02.2022
3797 Clouds 9 1027 81 10000 0.51 0 10:56 10.02.2022
3798 Clouds 8 1027 82 10000 0.89 266 10:18 10.02.2022
3799 Clouds 7 1027 84 10000 1.03 150 09:25 10.02.2022
3800 Clouds 6 1027 87 10000 0.51 0 07:36 10.02.2022
3801 Clouds 6 1027 89 10000 0.89 164 04:58 10.02.2022
3802 Clouds 7 1028 85 10000 2.06 350 01:51 10.02.2022
3803 Clouds 7 1029 85 10000 2.06 350 00:49 10.02.2022
3804 Clouds 7 1029 85 10000 2.06 350 00:28 10.02.2022
3805 Clear 7 1029 83 10000 1.79 36 23:23 09.02.2022
3806 Clear 8 1029 81 10000 1.54 270 22:35 09.02.2022
3807 Clear 8 1029 78 10000 2.06 260 21:51 09.02.2022
3808 Clear 8 1030 77 10000 2.68 256 21:29 09.02.2022
3809 Clear 9 1029 74 10000 2.57 250 20:47 09.02.2022
3810 Clear 9 1029 74 10000 2.68 229 20:27 09.02.2022
3811 Clear 10 1029 72 10000 3.13 235 19:46 09.02.2022
3812 Clear 10 1029 70 10000 4.02 233 19:27 09.02.2022
3813 Clear 13 1029 60 10000 2.57 270 17:37 09.02.2022
3814 Clear 14 1029 56 10000 4.47 227 16:34 09.02.2022
3815 Clear 15 1029 56 10000 4.12 260 15:40 09.02.2022
3816 Clear 14 1029 57 10000 7.15 240 14:28 09.02.2022
3817 Clear 12 1030 63 10000 2.24 252 12:28 09.02.2022
3818 Clear 10 1032 63 10000 1.54 190 10:51 09.02.2022
3819 Clear 9 1032 64 10000 1.03 0 10:26 09.02.2022
3820 Clear 6 1032 65 10000 0.51 0 09:35 09.02.2022
3821 Clear 5 1032 65 10000 0.51 0 08:59 09.02.2022
3822 Clear 3 1031 66 10000 0.51 0 07:47 09.02.2022
3823 Clear 4 1031 62 10000 1.03 0 05:30 09.02.2022
3824 Clear 5 1031 59 10000 1.54 360 03:50 09.02.2022
3825 Clear 5 1031 57 10000 0.51 360 00:38 09.02.2022
3826 Clear 6 1031 55 10000 1.79 282 23:31 08.02.2022
3827 Clear 6 1031 50 10000 1.79 310 22:46 08.02.2022
3828 Clear 7 1031 49 10000 1.54 30 22:21 08.02.2022
3829 Clear 6 1031 49 10000 1.54 30 22:21 08.02.2022
3830 Clear 7 1031 49 10000 1.54 30 22:21 08.02.2022
3831 Clear 7 1031 46 10000 0.51 0 21:38 08.02.2022
3832 Clear 7 1031 45 10000 1.79 294 21:20 08.02.2022
3833 Clear 8 1031 40 10000 1.34 229 20:42 08.02.2022
3834 Clear 8 1030 36 10000 1.03 0 19:45 08.02.2022
3835 Clear 10 1030 32 10000 0.89 317 18:35 08.02.2022
3836 Clear 12 1029 28 10000 0.51 0 17:38 08.02.2022
3837 Clear 13 1030 23 10000 1.54 250 16:22 08.02.2022
3838 Clear 13 1030 24 10000 1.03 0 15:29 08.02.2022
3839 Clear 13 1030 24 10000 1.03 0 15:29 08.02.2022
3840 Clear 13 1029 22 10000 1.54 0 14:26 08.02.2022
3841 Clear 12 1030 28 10000 1.54 0 12:41 08.02.2022
3842 Clear 9 1031 33 10000 1.34 173 11:28 08.02.2022
3843 Clear 7 1031 40 10000 2.24 160 10:18 08.02.2022
3844 Clear 5 1031 46 10000 1.34 139 09:41 08.02.2022
3845 Clear 2 1029 52 10000 0.51 0 07:37 08.02.2022
3846 Clear 3 1027 40 10000 2.24 153 04:40 08.02.2022
3847 Clear 4 1027 38 10000 1.79 154 04:22 08.02.2022
3848 Clear 5 1027 33 10000 1.79 277 03:37 08.02.2022
3849 Clear 5 1027 33 10000 3.13 291 03:18 08.02.2022
3850 Clear 5 1027 30 10000 5.36 300 02:59 08.02.2022
3851 Clear 5 1027 29 10000 3.58 308 02:37 08.02.2022
3852 Clear 5 1026 27 10000 1.54 200 02:19 08.02.2022
3853 Clear 5 1026 25 10000 1.79 318 01:55 08.02.2022
3854 Clear 5 1026 24 10000 2.24 340 01:37 08.02.2022
3855 Clear 6 1026 23 10000 4.02 309 01:19 08.02.2022
3856 Clear 6 1026 23 10000 1.79 332 00:44 08.02.2022
3857 Clear 7 1026 22 10000 0.89 329 23:45 07.02.2022
3858 Clear 7 1026 21 10000 2.24 329 23:18 07.02.2022
3859 Clear 7 1026 22 10000 1.34 331 22:59 07.02.2022
3860 Clear 8 1025 23 10000 7.72 10 22:19 07.02.2022
3861 Clear 8 1025 21 10000 2.68 284 21:51 07.02.2022
3862 Clear 9 1025 18 10000 9.26 20 21:28 07.02.2022
3863 Clear 9 1024 19 10000 8.23 30 20:52 07.02.2022
3864 Clear 9 1024 18 10000 8.23 20 20:34 07.02.2022
3865 Clear 10 1023 18 10000 7.2 360 19:47 07.02.2022
3866 Clear 10 1022 18 10000 7.15 34 18:58 07.02.2022
3867 Clear 12 1022 17 10000 5.36 43 17:38 07.02.2022
3868 Clear 13 1021 16 10000 4.63 350 16:52 07.02.2022
3869 Clear 13 1020 16 10000 4.63 350 15:48 07.02.2022
3870 Clear 13 1019 16 10000 3.58 312 14:30 07.02.2022
3871 Clear 13 1018 16 10000 9.77 360 13:27 07.02.2022
3872 Clear 12 1016 17 10000 5.81 341 12:36 07.02.2022
3873 Clear 12 1014 18 10000 6.71 336 11:50 07.02.2022
3874 Clear 12 1013 18 10000 5.36 24 11:24 07.02.2022
3875 Clear 12 1012 22 10000 4.92 337 10:42 07.02.2022
3876 Clear 12 1012 24 10000 1.34 346 10:24 07.02.2022
3877 Clouds 12 1011 33 10000 2.24 318 09:52 07.02.2022
3878 Rain 8 1011 89 10000 2.24 350 09:18 07.02.2022
3879 Mist 5 1007 92 3500 2.06 290 07:53 07.02.2022
3880 Clouds 4 1005 92 10000 2.85 267 06:34 07.02.2022
3881 Fog 4 1006 95 200 1.03 0 04:49 07.02.2022
3882 Mist 4 1010 93 1500 1.34 218 02:37 07.02.2022
3883 Mist 4 1013 94 2000 0.89 360 00:20 07.02.2022
3884 Mist 5 1014 91 2000 0.45 4 23:20 06.02.2022
3885 Mist 5 1014 91 2500 1.34 223 22:41 06.02.2022
3886 Mist 5 1015 90 2500 1.79 319 21:38 06.02.2022
3887 Mist 5 1016 89 2500 0.89 260 21:20 06.02.2022
3888 Mist 5 1016 89 2000 0.89 260 20:48 06.02.2022
3889 Mist 6 1016 88 2000 0.89 314 20:23 06.02.2022
3890 Mist 6 1017 86 2000 1.34 310 19:18 06.02.2022
3891 Mist 7 1016 87 2000 1.79 220 18:28 06.02.2022
3892 Mist 8 1017 80 2000 1.79 271 17:31 06.02.2022
3893 Mist 8 1018 80 3000 1.79 179 16:51 06.02.2022
3894 Mist 9 1019 77 3000 2.24 293 15:51 06.02.2022
3895 Clouds 9 1019 76 10000 0.45 222 15:28 06.02.2022
3896 Clouds 9 1019 75 10000 1.34 220 14:59 06.02.2022
3897 Clouds 9 1022 77 10000 1.34 199 13:59 06.02.2022
3898 Clouds 9 1021 80 10000 0.89 297 13:20 06.02.2022
3899 Fog 8 1022 100 700 2.06 280 12:19 06.02.2022
3900 Fog 5 1023 94 500 2.24 218 10:33 06.02.2022
3901 Fog 4 1023 93 600 2.24 234 09:36 06.02.2022
3902 Fog 4 1023 95 800 2.24 236 08:41 06.02.2022
3903 Fog 3 1023 93 100 0.89 313 06:31 06.02.2022
3904 Fog 3 1023 92 100 1.79 313 05:27 06.02.2022
3905 Clear 4 1024 90 10000 0.89 299 02:25 06.02.2022
3906 Fog 4 1024 92 300 0.51 0 00:30 06.02.2022
3907 Clear 5 1024 89 10000 0.89 344 23:27 05.02.2022
3908 Clear 6 1023 91 10000 0.89 68 21:43 05.02.2022
3909 Clear 6 1023 85 10000 0.89 60 20:26 05.02.2022
3910 Fog 6 1022 86 100 0.89 34 19:51 05.02.2022
3911 Fog 6 1022 86 100 2.24 47 19:33 05.02.2022
3912 Clear 8 1021 83 10000 2.24 116 18:26 05.02.2022
3913 Clear 9 1020 77 10000 0.89 128 17:33 05.02.2022
3914 Clear 10 1020 76 10000 1.34 129 15:43 05.02.2022
3915 Clear 10 1020 76 10000 0.89 136 15:25 05.02.2022
3916 Clouds 10 1019 82 10000 1.79 121 13:22 05.02.2022
3917 Clouds 9 1019 81 10000 1.34 140 12:42 05.02.2022
3918 Fog 7 1019 92 200 0.45 165 10:57 05.02.2022
3919 Fog 6 1020 91 200 1.34 226 10:38 05.02.2022
3920 Fog 5 1019 97 150 1.34 176 09:47 05.02.2022
3921 Fog 4 1018 95 200 1.03 200 08:21 05.02.2022
3922 Fog 4 1018 95 50 0.89 225 06:58 05.02.2022
3923 Fog 4 1017 93 50 1.03 160 05:38 05.02.2022
3924 Fog 5 1017 91 50 1.34 292 01:40 05.02.2022
3925 Fog 5 1017 91 50 0.51 0 01:18 05.02.2022
3926 Mist 6 1017 89 1700 0.45 225 23:59 04.02.2022
3927 Mist 6 1017 89 3000 0.89 236 23:33 04.02.2022
3928 Mist 7 1017 88 4000 1.34 245 22:18 04.02.2022
3929 Mist 7 1017 88 4000 1.34 307 21:36 04.02.2022
3930 Mist 7 1017 88 4000 0.51 10 21:18 04.02.2022
3931 Mist 7 1017 88 4000 0.45 302 20:20 04.02.2022
3932 Clouds 9 1016 81 7000 2.24 191 17:45 04.02.2022
3933 Clouds 11 1016 73 10000 1.79 186 15:55 04.02.2022
3934 Clouds 11 1016 73 10000 1.79 175 15:55 04.02.2022
3935 Clouds 11 1017 74 10000 0.89 203 14:55 04.02.2022
3936 Clouds 11 1017 76 10000 2.24 187 13:55 04.02.2022
3937 Clouds 10 1019 78 10000 1.79 182 12:43 04.02.2022
3938 Clouds 10 1019 79 10000 0.89 162 11:43 04.02.2022
3939 Clouds 9 1019 82 10000 0.89 290 10:37 04.02.2022
3940 Drizzle 7 1019 84 10000 0.45 141 08:43 04.02.2022
3941 Clouds 7 1019 84 10000 1.34 103 06:57 04.02.2022
3942 Clouds 7 1020 82 10000 0.89 92 02:48 04.02.2022
3943 Clouds 7 1020 80 10000 2.68 84 01:56 04.02.2022
3944 Clouds 8 1021 78 10000 2.24 79 23:29 03.02.2022
3945 Clouds 8 1021 76 10000 3.13 87 22:40 03.02.2022
3946 Clouds 8 1022 76 10000 3.13 90 21:49 03.02.2022
3947 Clear 8 1021 75 10000 1.34 71 20:39 03.02.2022
3948 Clear 8 1021 76 10000 1.79 67 20:19 03.02.2022
3949 Clear 9 1022 74 10000 2.68 77 19:32 03.02.2022
3950 Clear 10 1021 71 10000 0.89 69 18:38 03.02.2022
3951 Clear 11 1021 67 10000 1.79 91 17:33 03.02.2022
3952 Clear 12 1021 63 10000 1.34 93 16:26 03.02.2022
3953 Clouds 12 1022 58 10000 2.68 121 14:49 03.02.2022
3954 Clouds 12 1022 56 10000 0.45 107 12:58 03.02.2022
3955 Clear 10 1023 62 10000 0.45 107 11:22 03.02.2022
3956 Clear 6 1021 67 10000 0.45 158 08:37 03.02.2022
3957 Clear 6 1019 69 10000 2.68 68 05:26 03.02.2022
3958 Clear 9 1018 53 10000 2.06 250 00:32 03.02.2022
3959 Clear 10 1017 54 10000 0.45 357 23:43 02.02.2022
3960 Clear 10 1017 48 10000 0.55 110 22:19 02.02.2022
3961 Clear 11 1016 47 10000 1.54 250 21:34 02.02.2022
3962 Clear 12 1016 41 10000 0.89 173 20:49 02.02.2022
3963 Clear 12 1015 40 10000 3.6 290 19:58 02.02.2022
3964 Clear 14 1015 37 10000 4.63 360 19:27 02.02.2022
3965 Clear 14 1014 34 10000 4.12 30 18:45 02.02.2022
3966 Clear 16 1014 33 10000 5.14 30 17:56 02.02.2022
3967 Clear 17 1013 31 10000 5.14 30 17:19 02.02.2022
3968 Clear 17 1013 31 10000 3.6 350 16:41 02.02.2022
3969 Clear 17 1012 32 10000 7.2 360 12:57 02.02.2022
3970 Clear 17 1012 32 10000 5.66 350 12:20 02.02.2022
3971 Clear 13 1012 46 10000 1.54 210 11:33 02.02.2022
3972 Clear 8 1012 56 10000 2.68 198 09:47 02.02.2022
3973 Clear 5 1011 60 10000 2.57 260 07:33 02.02.2022
3974 Clear 8 1014 34 10000 1.79 294 22:51 01.02.2022
3975 Clear 9 1014 32 10000 1.79 280 21:40 01.02.2022
3976 Clear 9 1014 34 10000 3.13 300 19:58 01.02.2022
3977 Clear 12 1013 32 10000 1.34 352 17:43 01.02.2022
3978 Clear 14 1013 25 10000 1.34 338 16:39 01.02.2022
3979 Clear 15 1013 18 10000 1.34 358 13:56 01.02.2022
3980 Clear 14 1014 19 10000 2.68 320 12:42 01.02.2022
3981 Clear 12 1014 25 10000 3.58 338 11:19 01.02.2022
3982 Clear 8 1013 37 10000 0.89 229 02:32 01.02.2022
3983 Clear 8 1011 34 10000 0.89 358 23:41 31.01.2022
3984 Clear 8 1011 34 10000 2.68 345 22:48 31.01.2022
3985 Clear 8 1011 31 10000 4.02 300 21:38 31.01.2022
3986 Clear 9 1011 30 10000 2.24 18 20:45 31.01.2022
3987 Clear 9 1010 30 10000 2.68 13 20:26 31.01.2022
3988 Clear 10 1009 32 10000 2.24 331 18:55 31.01.2022
3989 Clear 11 1007 30 10000 2.24 331 18:20 31.01.2022
3990 Clear 12 1005 41 10000 5.14 350 17:25 31.01.2022
3991 Clear 12 1005 65 10000 2.24 32 16:25 31.01.2022
3992 Clear 11 1005 68 10000 0.45 305 14:54 31.01.2022
3993 Clear 11 1006 69 6000 1.79 261 13:43 31.01.2022
3994 Clouds 10 1008 69 6000 2.68 236 12:38 31.01.2022
3995 Mist 8 1010 74 5000 0.89 158 11:34 31.01.2022
3996 Mist 7 1011 77 5000 1.03 0 10:49 31.01.2022
3997 Mist 3 1011 85 3500 1.34 101 09:39 31.01.2022
3998 Mist 3 1012 84 3500 0.89 263 08:57 31.01.2022
3999 Mist 2 1013 86 5000 0.45 1 08:38 31.01.2022
4000 Mist 2 1013 85 5000 0.45 1 08:19 31.01.2022
4001 Clouds 3 1014 83 6000 1.79 45 06:18 31.01.2022
4002 Clear 4 1019 80 6000 1.79 77 00:44 31.01.2022
4003 Clear 6 1019 79 10000 2.24 67 22:34 30.01.2022
4004 Clear 7 1019 78 10000 1.79 87 21:47 30.01.2022
4005 Clear 7 1019 77 10000 2.24 72 21:26 30.01.2022
4006 Clear 8 1019 71 10000 0.89 73 20:55 30.01.2022
4007 Clear 9 1018 68 10000 2.06 170 20:31 30.01.2022
4008 Clear 9 1018 63 10000 2.57 0 19:58 30.01.2022
4009 Clear 10 1017 61 10000 3.09 300 18:52 30.01.2022
4010 Clear 11 1018 58 10000 2.68 305 18:26 30.01.2022
4011 Clear 13 1017 54 10000 1.79 296 17:33 30.01.2022
4012 Clear 14 1017 53 10000 4.12 280 16:44 30.01.2022
4013 Clear 15 1016 51 10000 3.13 279 16:23 30.01.2022
4014 Clear 15 1016 50 10000 3.13 252 15:56 30.01.2022
4015 Clear 15 1016 50 10000 2.68 245 15:37 30.01.2022
4016 Clear 15 1016 51 10000 6.71 251 15:19 30.01.2022
4017 Clear 15 1017 53 10000 1.79 116 14:44 30.01.2022
4018 Clear 14 1018 54 10000 3.13 245 12:46 30.01.2022
4019 Clear 12 1019 59 10000 3.58 267 11:49 30.01.2022
4020 Clear 8 1019 65 10000 0.45 298 10:26 30.01.2022
4021 Clear 6 1019 57 10000 2.57 300 09:26 30.01.2022
4022 Clear 5 1019 57 10000 3.58 305 08:32 30.01.2022
4023 Clouds 4 1022 61 10000 3.13 306 02:55 30.01.2022
4024 Clear 4 1023 59 10000 2.68 303 01:54 30.01.2022
4025 Clouds 4 1024 64 10000 1.79 285 23:49 29.01.2022
4026 Clouds 5 1026 69 8000 2.24 302 22:58 29.01.2022
4027 Clouds 5 1025 73 7000 3.13 247 21:35 29.01.2022
4028 Clear 5 1026 71 10000 2.68 270 21:00 29.01.2022
4029 Clear 6 1026 68 10000 0.89 196 20:20 29.01.2022
4030 Clear 6 1026 65 10000 0.89 196 19:33 29.01.2022
4031 Clear 7 1027 62 10000 0.89 243 18:44 29.01.2022
4032 Clear 8 1027 58 10000 0.45 221 17:55 29.01.2022
4033 Clear 10 1027 54 10000 0.51 0 16:59 29.01.2022
4034 Clear 10 1028 50 10000 0.45 117 15:27 29.01.2022
4035 Clear 10 1029 48 10000 1.34 117 13:48 29.01.2022
4036 Clouds 10 1029 49 10000 1.79 120 13:28 29.01.2022
4037 Clouds 10 1029 49 10000 0.89 48 12:59 29.01.2022
4038 Clouds 9 1030 52 10000 3.13 119 11:39 29.01.2022
4039 Clouds 6 1031 62 10000 1.79 33 10:33 29.01.2022
4040 Clouds 1 1031 75 6000 0.45 314 08:19 29.01.2022
4041 Clouds 3 1030 64 10000 1.34 135 02:26 29.01.2022
4042 Clear 4 1030 67 10000 0.89 105 00:32 29.01.2022
4043 Clear 5 1029 61 10000 1.79 109 23:29 28.01.2022
4044 Clear 5 1029 59 10000 2.68 56 22:46 28.01.2022
4045 Clear 6 1029 54 10000 3.09 110 22:19 28.01.2022
4046 Clear 7 1028 61 10000 1.79 256 20:41 28.01.2022
4047 Clear 7 1028 62 10000 0.89 5 19:56 28.01.2022
4048 Clear 8 1027 67 10000 1.79 319 18:52 28.01.2022
4049 Clear 8 1027 69 10000 3.58 270 17:52 28.01.2022
4050 Clear 10 1026 66 10000 1.79 68 15:50 28.01.2022
4051 Clear 11 1026 61 10000 0.45 57 14:46 28.01.2022
4052 Clear 14 1027 39 10000 8.75 360 12:40 28.01.2022
4053 Clear 15 1026 21 10000 7.72 360 11:43 28.01.2022
4054 Clear 6 1026 78 10000 4.63 280 10:26 28.01.2022
4055 Clear 6 1025 76 10000 2.24 307 09:45 28.01.2022
4056 Clear 3 1023 94 6000 3.09 270 07:40 28.01.2022
4057 Mist 2 1023 100 3400 2.06 250 05:30 28.01.2022
4058 Mist 1 1024 100 1600 2.57 260 03:48 28.01.2022
4059 Mist 1 1024 100 1100 3.6 260 02:23 28.01.2022
4060 Fog 1 1025 100 200 2.06 250 01:35 28.01.2022
4061 Fog 3 1025 100 200 1.54 240 00:33 28.01.2022
4062 Fog 3 1025 100 350 1.54 250 21:58 27.01.2022
4063 Fog 3 1025 100 350 1.54 250 21:34 27.01.2022
4064 Fog 3 1025 100 300 1.03 0 20:55 27.01.2022
4065 Fog 3 1025 100 300 0.51 0 19:35 27.01.2022
4066 Fog 4 1025 95 800 2.06 190 17:56 27.01.2022
4067 Clouds 8 1025 80 10000 1.85 272 15:31 27.01.2022
4068 Fog 3 1026 100 900 1.03 0 13:39 27.01.2022
4069 Fog 1 1027 100 700 0.51 0 12:46 27.01.2022
4070 Fog 0 1028 100 300 0.51 0 10:57 27.01.2022
4071 Drizzle 1 1027 100 300 1.54 190 09:20 27.01.2022
4072 Fog 1 1027 100 300 1.54 180 08:38 27.01.2022
4073 Fog 0 1026 97 800 1.54 220 07:22 27.01.2022
4074 Fog 1 1027 96 600 1.54 240 02:57 27.01.2022
4075 Fog 1 1027 96 700 1.03 0 23:45 26.01.2022
4076 Mist 2 1027 95 2500 1.03 0 22:26 26.01.2022
4077 Mist 2 1027 95 2500 1.03 0 21:37 26.01.2022
4078 Mist 2 1026 95 3000 1.54 0 20:41 26.01.2022
4079 Mist 2 1027 97 3000 0.51 0 20:23 26.01.2022
4080 Mist 2 1027 97 2500 1.54 190 19:23 26.01.2022
4081 Mist 2 1027 97 1600 2.57 220 18:45 26.01.2022
4082 Mist 3 1027 93 1800 1.54 180 17:51 26.01.2022
4083 Mist 3 1027 93 1800 0.51 0 17:23 26.01.2022
4084 Mist 3 1027 100 1800 1.54 230 16:33 26.01.2022
4085 Mist 5 1026 93 1800 1.54 250 15:49 26.01.2022
4086 Mist 4 1027 93 3000 2.06 220 13:58 26.01.2022
4087 Mist 2 1029 93 2000 0.51 0 11:52 26.01.2022
4088 Fog 1 1029 96 500 1.34 292 10:28 26.01.2022
4089 Fog 1 1029 96 500 0.89 285 09:46 26.01.2022
4090 Mist 1 1029 93 1500 0.89 187 07:44 26.01.2022
4091 Mist 1 1029 92 5000 1.79 245 03:31 26.01.2022
4092 Clouds 1 1031 92 6000 1.34 296 23:57 25.01.2022
4093 Clear 1 1030 92 6000 1.79 233 22:57 25.01.2022
4094 Clear 1 1031 92 6000 1.54 260 22:21 25.01.2022
4095 Clear 1 1031 91 7000 1.79 238 21:58 25.01.2022
4096 Clear 2 1031 90 10000 2.24 243 20:46 25.01.2022
4097 Clear 2 1031 90 10000 2.24 243 20:46 25.01.2022
4098 Clear 2 1031 90 10000 2.68 245 20:23 25.01.2022
4099 Clear 2 1031 89 10000 2.68 242 19:50 25.01.2022
4100 Mist 3 1031 87 3000 3.13 243 18:32 25.01.2022
4101 Mist 4 1031 86 3000 4.02 237 17:43 25.01.2022
4102 Mist 5 1030 82 3500 4.47 240 16:35 25.01.2022
4103 Mist 6 1031 83 3500 3.6 250 15:49 25.01.2022
4104 Mist 6 1031 80 4000 3.09 240 15:31 25.01.2022
4105 Mist 6 1031 78 4000 3.58 220 14:57 25.01.2022
4106 Clear 7 1033 78 10000 0.89 248 13:40 25.01.2022
4107 Mist 3 1034 92 1000 2.24 236 10:39 25.01.2022
4108 Mist 2 1035 94 1000 3.13 224 08:34 25.01.2022
4109 Mist 2 1035 94 2000 1.79 243 07:28 25.01.2022
4110 Mist 2 1035 94 2000 2.68 244 06:29 25.01.2022
4111 Mist 2 1035 93 2000 1.34 259 04:22 25.01.2022
4112 Fog 2 1035 93 900 1.79 295 23:37 24.01.2022
4113 Fog 2 1035 94 900 1.34 313 23:18 24.01.2022
4114 Fog 2 1035 87 900 0.89 224 22:59 24.01.2022
4115 Fog 2 1035 94 900 0.89 271 22:41 24.01.2022
4116 Fog 2 1035 95 800 1.34 19 21:49 24.01.2022
4117 Fog 2 1035 94 800 0.45 339 21:27 24.01.2022
4118 Fog 2 1034 94 200 1.79 23 20:29 24.01.2022
4119 Fog 2 1034 95 100 2.68 52 19:39 24.01.2022
4120 Fog 2 1033 97 100 2.06 40 19:19 24.01.2022
4121 Fog 4 1032 89 100 2.57 80 17:44 24.01.2022
4122 Clear 6 1032 70 10000 2.44 86 17:23 24.01.2022
4123 Clear 7 1032 72 10000 2.44 86 16:33 24.01.2022
4124 Clear 8 1032 71 10000 2.93 94 15:52 24.01.2022
4125 Clear 8 1029 71 10000 2.77 97 14:27 24.01.2022
4126 Clear 6 1030 80 10000 1.34 133 12:36 24.01.2022
4127 Clear 6 1030 82 10000 1.88 100 11:53 24.01.2022
4128 Fog 2 1030 92 200 2.06 250 10:24 24.01.2022
4129 Fog 1 1030 94 200 2.06 250 09:46 24.01.2022
4130 Mist 0 1029 95 1500 1.54 250 08:19 24.01.2022
4131 Fog 0 1031 91 50 0 0 02:33 24.01.2022
4132 Fog 1 1031 91 50 1.03 60 01:28 24.01.2022
4133 Clear 2 1031 87 10000 1.05 96 00:34 24.01.2022
4134 Fog 2 1030 90 150 0.89 23 23:47 23.01.2022
4135 Fog 2 1030 89 2000 1.03 50 22:21 23.01.2022
4136 Fog 2 1030 87 2500 0.89 45 21:42 23.01.2022
4137 Fog 2 1029 86 2500 0.45 165 21:23 23.01.2022
4138 Fog 2 1029 86 2500 0.89 153 20:28 23.01.2022
4139 Mist 3 1029 87 3500 0.89 145 19:19 23.01.2022
4140 Mist 3 1029 86 3500 1.34 240 18:41 23.01.2022
4141 Mist 5 1029 80 3500 0.89 213 17:25 23.01.2022
4142 Mist 7 1029 73 4000 0.89 186 16:18 23.01.2022
4143 Mist 7 1030 74 3500 0.45 98 14:52 23.01.2022
4144 Mist 7 1030 74 3500 0.89 215 14:19 23.01.2022
4145 Mist 6 1031 78 3500 0.89 127 12:46 23.01.2022
4146 Mist 5 1031 79 3500 0.89 136 12:21 23.01.2022
4147 Mist 4 1032 79 5000 4.47 63 11:27 23.01.2022
4148 Mist 4 1031 78 5000 2.24 108 10:58 23.01.2022
4149 Clouds 4 1031 76 8000 1.34 115 10:25 23.01.2022
4150 Clouds 2 1031 78 8000 1.34 74 09:32 23.01.2022
4151 Clouds 2 1030 80 8000 2.68 81 08:50 23.01.2022
4152 Clear 1 1028 83 6000 2.68 51 03:59 23.01.2022
4153 Clear 2 1028 84 6000 2.24 61 01:40 23.01.2022
4154 Clear 2 1028 85 6000 1.79 73 00:47 23.01.2022
4155 Clear 2 1028 84 7000 0.89 90 00:18 23.01.2022
4156 Mist 3 1027 81 4900 1.34 105 23:18 22.01.2022
4157 Clear 3 1026 81 6000 0.51 0 22:33 22.01.2022
4158 Clear 4 1026 76 7000 1.79 243 20:47 22.01.2022
4159 Clear 5 1025 75 10000 1.79 245 19:46 22.01.2022
4160 Clear 5 1025 76 10000 2.68 238 18:41 22.01.2022
4161 Clear 6 1025 75 10000 1.79 246 17:49 22.01.2022
4162 Clear 6 1025 75 10000 1.79 217 17:31 22.01.2022
4163 Clear 7 1024 72 10000 1.34 217 16:54 22.01.2022
4164 Clear 7 1024 71 10000 3.13 278 15:45 22.01.2022
4165 Clear 6 1025 73 8000 4.47 271 14:56 22.01.2022
4166 Mist 5 1026 79 4000 3.09 240 13:31 22.01.2022
4167 Mist 4 1027 87 2000 2.57 300 12:40 22.01.2022
4168 Fog 2 1027 100 700 3.09 270 12:20 22.01.2022
4169 Fog 1 1027 100 300 2.57 270 10:55 22.01.2022
4170 Fog 1 1026 97 400 3.09 260 10:26 22.01.2022
4171 Fog 0 1027 96 350 0.45 346 09:25 22.01.2022
4172 Fog 0 1027 95 500 3.13 238 08:50 22.01.2022
4173 Mist 0 1027 95 1800 2.24 270 07:27 22.01.2022
4174 Mist 1 1028 92 2500 2.24 298 03:26 22.01.2022
4175 Fog 1 1028 92 800 1.34 317 00:31 22.01.2022
4176 Fog 1 1027 92 1500 2.24 231 23:21 21.01.2022
4177 Fog 1 1027 90 1500 0.51 0 22:19 21.01.2022
4178 Mist 2 1026 88 3500 2.24 70 19:52 21.01.2022
4179 Mist 3 1025 86 3500 2.24 70 18:21 21.01.2022
4180 Mist 4 1024 85 4000 2.57 40 16:54 21.01.2022
4181 Mist 6 1024 79 2500 2.06 0 15:26 21.01.2022
4182 Fog 5 1025 97 800 3.09 140 12:53 21.01.2022
4183 Fog 5 1025 100 900 2.06 150 11:42 21.01.2022
4184 Fog 4 1025 93 600 2.24 162 11:23 21.01.2022
4185 Fog 1 1023 95 500 1.34 61 09:26 21.01.2022
4186 Fog 1 1022 95 200 1.34 95 08:20 21.01.2022
4187 Fog 2 1020 92 50 1.79 37 04:37 21.01.2022
4188 Mist 3 1018 81 4000 1.79 313 22:53 20.01.2022
4189 Mist 4 1018 78 4000 1.34 226 21:49 20.01.2022
4190 Mist 4 1018 78 4000 1.79 212 21:28 20.01.2022
4191 Mist 4 1018 84 4000 0.45 4 19:56 20.01.2022
4192 Mist 5 1018 86 4000 1.79 225 19:19 20.01.2022
4193 Mist 6 1017 82 3000 1.79 225 17:38 20.01.2022
4194 Mist 7 1017 78 5000 1.79 225 16:35 20.01.2022
4195 Mist 7 1017 78 5000 1.79 225 16:35 20.01.2022
4196 Mist 8 1018 78 4000 1.79 225 15:40 20.01.2022
4197 Mist 7 1018 80 3500 0.89 19 14:39 20.01.2022
4198 Mist 7 1020 85 3500 1.79 225 13:18 20.01.2022
4199 Mist 6 1020 87 1600 1.79 226 12:30 20.01.2022
4200 Fog 5 1021 89 600 1.79 236 11:20 20.01.2022
4201 Fog 4 1021 91 600 0.89 181 10:19 20.01.2022
4202 Fog 4 1021 92 600 1.54 70 09:18 20.01.2022
4203 Mist 3 1020 93 2000 1.54 220 07:23 20.01.2022
4204 Mist 4 1022 89 3000 1.34 225 00:40 20.01.2022
4205 Drizzle 4 1023 84 6000 0.51 0 22:39 19.01.2022
4206 Clouds 4 1024 83 7000 0.45 2 21:36 19.01.2022
4207 Clear 4 1024 83 10000 1.03 0 20:59 19.01.2022
4208 Clear 4 1024 82 10000 1.03 0 20:40 19.01.2022
4209 Clear 5 1025 79 10000 1.54 240 19:18 19.01.2022
4210 Mist 6 1025 75 5000 1.34 248 17:51 19.01.2022
4211 Clear 7 1025 73 6000 1.79 225 17:18 19.01.2022
4212 Clear 8 1026 68 6000 2.68 231 15:35 19.01.2022
4213 Mist 8 1029 70 5000 3.13 264 13:26 19.01.2022
4214 Mist 6 1031 72 4000 1.79 248 11:59 19.01.2022
4215 Mist 6 1031 73 4000 0.45 236 11:38 19.01.2022
4216 Mist 3 1031 81 4000 1.03 0 09:35 19.01.2022
4217 Mist 2 1032 81 4000 0.51 0 08:38 19.01.2022
4218 Fog 2 1032 82 100 0.51 270 05:20 19.01.2022
4219 Fog 4 1034 83 50 0.51 0 00:21 19.01.2022
4220 Fog 4 1033 83 2000 1.03 30 23:18 18.01.2022
4221 Mist 5 1034 83 4000 1.79 307 21:45 18.01.2022
4222 Mist 5 1033 82 4000 0.51 0 20:34 18.01.2022
4223 Clear 6 1033 79 6000 0.51 0 19:49 18.01.2022
4224 Clear 6 1033 78 6000 0.51 0 19:31 18.01.2022
4225 Clear 7 1033 76 6000 0 0 18:23 18.01.2022
4226 Clear 9 1032 68 10000 2.06 150 17:32 18.01.2022
4227 Clear 11 1032 61 10000 0.45 112 16:22 18.01.2022
4228 Clear 11 1032 57 10000 2.06 70 15:25 18.01.2022
4229 Clear 11 1032 61 8000 1.54 30 14:22 18.01.2022
4230 Clear 9 1032 70 6000 0.89 150 11:37 18.01.2022
4231 Clear 7 1032 74 6000 0.89 70 10:25 18.01.2022
4232 Mist 3 1030 80 4400 1.79 23 08:29 18.01.2022
4233 Mist 3 1029 79 4800 1.34 57 07:44 18.01.2022
4234 Clear 5 1024 52 10000 1.79 337 00:39 18.01.2022
4235 Clear 6 1025 60 10000 2.06 240 22:46 17.01.2022
4236 Clear 6 1025 58 10000 2.57 190 21:44 17.01.2022
4237 Clear 7 1024 52 10000 2.06 190 21:24 17.01.2022
4238 Clear 9 1024 54 10000 5.66 280 18:51 17.01.2022
4239 Clear 9 1024 53 10000 5.66 270 18:25 17.01.2022
4240 Clear 10 1024 57 10000 2.57 260 17:22 17.01.2022
4241 Clear 12 1025 51 10000 3.09 210 15:54 17.01.2022
4242 Clear 12 1026 54 10000 3.09 230 14:58 17.01.2022
4243 Clear 11 1025 55 10000 3.09 230 14:31 17.01.2022
4244 Clear 9 1026 57 10000 1.79 225 13:18 17.01.2022
4245 Clear 8 1025 56 10000 4.02 158 11:53 17.01.2022
4246 Clear 6 1027 66 10000 3.6 250 10:52 17.01.2022
4247 Clear 4 1026 75 10000 1.54 0 09:46 17.01.2022
4248 Clear 3 1026 73 10000 0.89 179 08:43 17.01.2022
4249 Clear 2 1025 71 10000 1.34 203 07:20 17.01.2022
4250 Clear 5 1025 70 10000 2.24 237 00:59 17.01.2022
4251 Clear 5 1024 67 10000 0.45 83 23:27 16.01.2022
4252 Clear 5 1024 72 10000 1.54 290 20:50 16.01.2022
4253 Clear 6 1024 71 10000 1.54 290 19:55 16.01.2022
4254 Clear 7 1022 66 8000 1.79 311 18:45 16.01.2022
4255 Clear 8 1022 64 8000 1.79 310 17:47 16.01.2022
4256 Clear 9 1021 59 10000 1.79 269 16:52 16.01.2022
4257 Clear 11 1021 55 10000 2.68 240 15:39 16.01.2022
4258 Clear 11 1021 55 8000 2.24 240 14:29 16.01.2022
4259 Clear 10 1022 60 7000 2.68 283 12:57 16.01.2022
4260 Clear 8 1023 63 7000 1.03 0 11:49 16.01.2022
4261 Clear 7 1023 70 7000 1.03 0 10:58 16.01.2022
4262 Clear 5 1024 75 7000 1.03 0 10:26 16.01.2022
4263 Clear 4 1023 75 7000 0.51 0 09:56 16.01.2022
4264 Clear 2 1024 79 6000 1.03 340 09:23 16.01.2022
4265 Fog 1 1024 79 7000 0.51 0 08:47 16.01.2022
4266 Clear 2 1023 75 10000 0.51 0 05:35 16.01.2022
4267 Clear 4 1024 72 10000 1.03 340 23:51 15.01.2022
4268 Clear 4 1025 73 10000 0.51 0 22:35 15.01.2022
4269 Clear 5 1025 68 10000 0.51 0 21:20 15.01.2022
4270 Clear 5 1025 69 10000 1.03 10 20:40 15.01.2022
4271 Clear 6 1024 64 10000 1.03 360 19:30 15.01.2022
4272 Clear 7 1025 62 10000 0.51 0 18:47 15.01.2022
4273 Clear 9 1024 52 10000 1.03 60 17:30 15.01.2022
4274 Clear 10 1024 50 10000 1.03 80 16:37 15.01.2022
4275 Clear 11 1023 45 10000 1.03 0 13:57 15.01.2022
4276 Clear 9 1024 53 10000 1.03 0 12:20 15.01.2022
4277 Clear 7 1024 61 10000 0.51 0 10:38 15.01.2022
4278 Clear 2 1021 70 10000 0.51 0 08:31 15.01.2022
4279 Clear 3 1025 73 10000 0.51 0 00:35 15.01.2022
4280 Clear 4 1026 67 10000 0.51 0 21:52 14.01.2022
4281 Clear 4 1026 67 10000 0.51 0 21:52 14.01.2022
4282 Clear 5 1026 67 10000 0.51 0 20:41 14.01.2022
4283 Clear 5 1026 66 10000 1.03 300 20:21 14.01.2022
4284 Clear 6 1026 61 10000 1.03 280 18:49 14.01.2022
4285 Clear 7 1026 59 10000 2.68 286 18:20 14.01.2022
4286 Clear 10 1027 51 10000 1.54 240 16:48 14.01.2022
4287 Clear 10 1027 49 10000 1.79 236 15:39 14.01.2022
4288 Clear 10 1027 47 10000 1.79 245 14:42 14.01.2022
4289 Clear 9 1029 48 10000 2.24 238 13:35 14.01.2022
4290 Clear 8 1030 53 10000 3.58 247 12:28 14.01.2022
4291 Clear 5 1031 65 10000 2.68 248 10:53 14.01.2022
4292 Clear 1 1031 75 8000 1.79 239 08:54 14.01.2022
4293 Clear 0 1032 79 8000 1.79 234 08:34 14.01.2022
4294 Clear 0 1034 80 10000 1.54 260 05:29 14.01.2022
4295 Clear 1 1036 79 10000 1.03 0 00:59 14.01.2022
4296 Clear 1 1036 78 10000 1.79 244 22:46 13.01.2022
4297 Clear 2 1036 77 10000 1.54 200 21:31 13.01.2022
4298 Clear 2 1036 75 10000 1.34 196 20:56 13.01.2022
4299 Clear 3 1036 71 10000 0 0 19:40 13.01.2022
4300 Clear 3 1036 70 10000 0.51 0 19:21 13.01.2022
4301 Clear 5 1036 61 10000 1.03 190 17:48 13.01.2022
4302 Clear 8 1037 52 10000 2.06 200 16:19 13.01.2022
4303 Clear 8 1037 52 10000 1.54 280 15:35 13.01.2022
4304 Clear 7 1037 59 10000 1.03 0 13:48 13.01.2022
4305 Clear 6 1036 63 10000 0.51 0 12:25 13.01.2022
4306 Clear 1 1036 80 10000 0.51 0 09:38 13.01.2022
4307 Fog 0 1036 79 6000 0.51 0 08:54 13.01.2022
4308 Fog 0 1035 79 7000 0.51 210 08:24 13.01.2022
4309 Clear 0 1035 76 10000 0.23 54 07:21 13.01.2022
4310 Clear 0 1034 81 10000 0.51 0 05:57 13.01.2022
4311 Clear -1 1034 82 10000 0.51 0 05:18 13.01.2022
4312 Clear 0 1033 80 10000 1.03 320 01:49 13.01.2022
4313 Clear 1 1033 79 10000 0.45 0 23:54 12.01.2022
4314 Clear 1 1033 81 10000 1.79 29 23:35 12.01.2022
4315 Clear 1 1033 80 10000 1.54 360 22:56 12.01.2022
4316 Clear 1 1033 79 10000 0.89 31 21:56 12.01.2022
4317 Clear 1 1032 79 10000 0.51 0 21:21 12.01.2022
4318 Clear 2 1032 78 10000 0.51 0 20:56 12.01.2022
4319 Clear 3 1032 73 10000 0.51 0 19:28 12.01.2022
4320 Clear 4 1031 72 10000 0.51 0 18:29 12.01.2022
4321 Clear 6 1032 63 10000 0.51 0 16:59 12.01.2022
4322 Clear 7 1032 58 10000 2.06 180 15:58 12.01.2022
4323 Clear 8 1031 58 10000 2.57 190 14:47 12.01.2022
4324 Clear 7 1032 58 10000 1.03 0 12:58 12.01.2022
4325 Clear 2 1031 73 10000 1.03 0 09:59 12.01.2022
4326 Clear 0 1030 78 10000 1.03 200 08:36 12.01.2022
4327 Clear 0 1029 78 10000 1.54 350 07:34 12.01.2022
4328 Clear 0 1029 76 10000 1.54 20 06:21 12.01.2022
4329 Clear 1 1026 73 10000 2.24 55 23:30 11.01.2022
4330 Clear 2 1026 75 10000 2.68 70 22:41 11.01.2022
4331 Clear 2 1026 73 10000 2.24 62 22:21 11.01.2022
4332 Clear 2 1024 70 10000 0.45 5 20:49 11.01.2022
4333 Clear 3 1024 71 10000 0.51 0 19:42 11.01.2022
4334 Clear 4 1023 65 10000 0.51 0 18:25 11.01.2022
4335 Clear 7 1024 56 10000 0 0 17:19 11.01.2022
4336 Clear 7 1024 51 10000 0.51 0 16:37 11.01.2022
4337 Clear 8 1023 55 10000 1.54 140 14:59 11.01.2022
4338 Clear 8 1023 51 10000 1.54 140 14:40 11.01.2022
4339 Clear 8 1023 59 10000 1.54 140 13:54 11.01.2022
4340 Clear 7 1024 62 10000 1.54 190 13:31 11.01.2022
4341 Clear 7 1024 65 10000 2.06 180 12:37 11.01.2022
4342 Clear 5 1021 66 10000 1.34 175 10:59 11.01.2022
4343 Clear 1 1020 73 10000 1.79 337 08:58 11.01.2022
4344 Clear 0 1018 74 10000 1.03 0 06:28 11.01.2022
4345 Clear 3 1014 63 10000 0.98 335 00:30 11.01.2022
4346 Clear 2 1014 66 10000 0.98 335 23:41 10.01.2022
4347 Clear 3 1014 66 10000 1.43 337 22:43 10.01.2022
4348 Clear 3 1014 66 10000 1.77 330 22:18 10.01.2022
4349 Clear 3 1014 67 10000 1.77 330 21:48 10.01.2022
4350 Clear 3 1013 71 10000 2.01 320 21:19 10.01.2022
4351 Fog 2 1014 79 150 0.51 0 20:56 10.01.2022
4352 Clear 4 1012 75 10000 1.96 308 20:26 10.01.2022
4353 Fog 2 1013 83 300 0.51 0 19:41 10.01.2022
4354 Clouds 4 1012 77 10000 1.32 295 19:19 10.01.2022
4355 Fog 3 1013 83 300 2.06 250 18:48 10.01.2022
4356 Clouds 5 1011 72 6000 1.34 238 16:59 10.01.2022
4357 Clouds 5 1011 71 6000 0.45 233 16:41 10.01.2022
4358 Clouds 8 1012 61 10000 0.45 287 14:58 10.01.2022
4359 Clouds 7 1012 64 10000 0.45 293 13:35 10.01.2022
4360 Clear 6 1012 66 10000 2.54 272 11:57 10.01.2022
4361 Clear 4 1010 71 10000 1.79 211 11:24 10.01.2022
4362 Mist 2 1009 77 3000 1.79 199 09:40 10.01.2022
4363 Clear -1 1007 87 6000 1.03 0 05:52 10.01.2022
4364 Fog -1 1007 88 1500 1.34 311 04:48 10.01.2022
4365 Mist 0 1006 89 2500 1.34 70 01:22 10.01.2022
4366 Mist 0 1005 88 3500 2.06 40 00:22 10.01.2022
4367 Mist 0 1005 88 5000 2.24 65 22:48 09.01.2022
4368 Mist 1 1005 87 5000 0.45 55 22:21 09.01.2022
4369 Clear 1 1005 84 7000 0.45 121 21:42 09.01.2022
4370 Clear 1 1005 84 7000 0.45 121 21:22 09.01.2022
4371 Clear 1 1005 85 7000 0.45 126 20:47 09.01.2022
4372 Clear 1 1005 84 7000 0.45 100 20:29 09.01.2022
4373 Clear 2 1004 85 7000 0.89 102 19:42 09.01.2022
4374 Clouds 2 1004 85 7000 0.45 143 19:21 09.01.2022
4375 Clouds 2 1003 84 7000 0.45 167 18:47 09.01.2022
4376 Mist 3 1003 83 5000 0.89 221 18:28 09.01.2022
4377 Mist 4 1003 80 5000 2.68 253 17:30 09.01.2022
4378 Clouds 5 1003 76 6000 1.34 231 16:50 09.01.2022
4379 Clouds 6 1003 73 7000 1.34 232 15:52 09.01.2022
4380 Clouds 6 1003 71 7000 0.89 202 15:33 09.01.2022
4381 Clouds 6 1004 73 6000 2.06 190 14:39 09.01.2022
4382 Mist 5 1004 74 5000 1.79 177 13:49 09.01.2022
4383 Clouds 3 1004 82 6000 2.24 238 12:26 09.01.2022
4384 Mist 3 1004 84 5000 3.58 240 11:46 09.01.2022
4385 Mist 1 1005 91 1800 3.13 247 09:55 09.01.2022
4386 Clouds 0 1004 92 2500 2.68 230 09:29 09.01.2022
4387 Mist 1 1004 90 5000 1.54 220 08:18 09.01.2022
4388 Fog -1 1008 93 200 2.06 60 01:31 09.01.2022
4389 Fog -1 1008 94 400 0.51 0 00:53 09.01.2022
4390 Fog 0 1009 93 1100 1.03 200 23:37 08.01.2022
4391 Fog 0 1010 94 200 2.06 80 22:58 08.01.2022
4392 Fog 0 1012 89 200 1.34 75 21:32 08.01.2022
4393 Fog 0 1010 89 200 1.79 46 20:44 08.01.2022
4394 Fog 0 1011 89 200 2.24 58 20:23 08.01.2022
4395 Fog 0 1011 91 500 1.34 162 19:46 08.01.2022
4396 Clear 2 1006 84 10000 2.24 207 17:49 08.01.2022
4397 Clear 4 1011 76 10000 1.34 179 16:57 08.01.2022
4398 Clear 6 1012 68 10000 0.45 201 15:35 08.01.2022
4399 Clear 6 1012 64 8000 2.24 228 14:33 08.01.2022
4400 Clouds 5 1014 66 10000 0.89 245 12:35 08.01.2022
4401 Clouds 2 1015 79 7000 0.89 231 10:46 08.01.2022
4402 Clear 2 1015 80 7000 2.24 240 10:23 08.01.2022
4403 Clear 1 1016 84 8000 1.54 270 09:34 08.01.2022
4404 Clear 1 1016 84 8000 1.54 270 09:34 08.01.2022
4405 Clear -1 1015 89 10000 1.03 270 07:18 08.01.2022
4406 Clear 0 1016 79 10000 0.45 39 01:49 08.01.2022
4407 Clear 1 1016 78 10000 0.51 0 00:23 08.01.2022
4408 Clear 2 1017 74 10000 0.45 24 22:21 07.01.2022
4409 Clear 2 1017 73 10000 0.45 105 20:35 07.01.2022
4410 Clear 2 1017 70 10000 0.45 172 19:34 07.01.2022
4411 Clear 3 1017 69 10000 0.89 173 18:49 07.01.2022
4412 Clouds 3 1017 67 10000 0.89 183 18:26 07.01.2022
4413 Clouds 4 1017 64 10000 0.45 197 17:24 07.01.2022
4414 Clear 5 1018 63 10000 0.89 171 15:55 07.01.2022
4415 Clouds 6 1019 57 10000 1.79 189 13:52 07.01.2022
4416 Clouds 6 1019 55 10000 0.45 149 12:57 07.01.2022
4417 Clouds 6 1020 61 10000 2.57 120 11:58 07.01.2022
4418 Clear 1 1021 86 10000 0.51 340 04:56 07.01.2022
4419 Clear 1 1022 88 10000 1.54 360 02:53 07.01.2022
4420 Fog 1 1021 89 10000 1.03 360 01:50 07.01.2022
4421 Clear 2 1021 89 10000 1.03 30 01:26 07.01.2022
4422 Fog 2 1020 89 8000 1.54 360 00:34 07.01.2022
4423 Clear 2 1020 89 10000 2.06 350 22:42 06.01.2022
4424 Clear 3 1019 84 10000 1.03 340 20:54 06.01.2022
4425 Clear 3 1019 87 10000 1.03 0 20:18 06.01.2022
4426 Clear 3 1018 87 10000 1.03 30 19:39 06.01.2022
4427 Clear 5 1017 79 10000 1.54 70 17:52 06.01.2022
4428 Clear 6 1016 76 10000 0.45 146 17:28 06.01.2022
4429 Clear 7 1016 73 10000 0.51 0 16:38 06.01.2022
4430 Clear 8 1015 74 10000 1.54 350 15:44 06.01.2022
4431 Clear 8 1015 74 10000 1.54 120 15:23 06.01.2022
4432 Clouds 8 1015 74 10000 1.54 90 14:20 06.01.2022
4433 Clouds 8 1015 74 10000 0.51 0 13:41 06.01.2022
4434 Clear 7 1015 78 10000 1.54 110 12:28 06.01.2022
4435 Clear 6 1015 82 10000 2.06 90 11:31 06.01.2022
4436 Clear 5 1015 84 10000 2.57 80 10:59 06.01.2022
4437 Clouds 4 1012 89 10000 2.57 70 06:54 06.01.2022
4438 Clouds 7 1005 44 10000 2.06 330 00:34 06.01.2022
4439 Clouds 6 1004 49 10000 2.57 310 23:33 05.01.2022
4440 Clouds 7 1003 48 10000 0.45 331 22:48 05.01.2022
4441 Clouds 7 1003 50 10000 0.45 331 22:28 05.01.2022
4442 Clouds 7 1002 56 8000 0.45 360 21:43 05.01.2022
4443 Clouds 7 1002 64 6000 2.06 270 20:44 05.01.2022
4444 Mist 7 1002 87 5000 1.03 260 19:42 05.01.2022
4445 Mist 8 1000 94 5000 1.03 190 18:22 05.01.2022
4446 Clouds 8 1000 93 6000 1.79 172 16:57 05.01.2022
4447 Clouds 8 999 93 8000 1.79 232 16:19 05.01.2022
4448 Clouds 8 999 93 9000 0.89 264 15:20 05.01.2022
4449 Mist 8 1000 94 5000 1.34 233 13:35 05.01.2022
4450 Mist 7 1000 95 5000 1.79 266 12:30 05.01.2022
4451 Rain 6 1002 97 2000 1.54 80 08:46 05.01.2022
4452 Mist 6 1003 98 2000 1.03 0 06:46 05.01.2022
4453 Drizzle 6 1006 97 1500 2.06 90 01:49 05.01.2022
4454 Drizzle 7 1008 97 2000 1.54 110 23:44 04.01.2022
4455 Drizzle 7 1008 96 2000 1.54 120 23:25 04.01.2022
4456 Drizzle 7 1009 97 2500 0.51 0 21:50 04.01.2022
4457 Drizzle 7 1009 96 2000 0.89 205 20:45 04.01.2022
4458 Drizzle 7 1008 96 2000 0.89 193 18:41 04.01.2022
4459 Drizzle 7 1009 95 1500 0.45 216 17:33 04.01.2022
4460 Drizzle 7 1009 95 1200 0.89 210 16:38 04.01.2022
4461 Drizzle 7 1009 96 1000 0.51 0 15:25 04.01.2022
4462 Drizzle 7 1009 96 1000 0.51 0 14:38 04.01.2022
4463 Drizzle 7 1010 96 1000 0.51 0 13:56 04.01.2022
4464 Drizzle 7 1011 95 1000 1.03 170 12:22 04.01.2022
4465 Drizzle 6 1012 94 1500 0.89 18 10:23 04.01.2022
4466 Mist 6 1014 94 2000 0.51 0 08:57 04.01.2022
4467 Mist 6 1013 93 3600 2.24 245 06:28 04.01.2022
4468 Mist 6 1017 94 3400 1.54 30 00:42 04.01.2022
4469 Mist 6 1018 94 2800 1.54 40 23:54 03.01.2022
4470 Mist 6 1017 93 3000 2.68 61 22:22 03.01.2022
4471 Mist 6 1018 92 3000 2.68 63 21:39 03.01.2022
4472 Mist 6 1017 92 2000 2.24 70 20:41 03.01.2022
4473 Mist 6 1017 90 4000 2.68 61 18:55 03.01.2022
4474 Mist 6 1017 90 2000 0.89 72 18:30 03.01.2022
4475 Mist 7 1015 85 2000 1.79 108 17:21 03.01.2022
4476 Mist 7 1017 89 3000 0.89 127 16:53 03.01.2022
4477 Clouds 9 1013 69 10000 0.5 200 14:31 03.01.2022
4478 Mist 8 1017 86 4000 1.79 55 12:52 03.01.2022
4479 Mist 8 1018 91 4000 1.54 90 11:50 03.01.2022
4480 Mist 7 1018 98 4000 0.45 77 10:52 03.01.2022
4481 Fog 4 1018 95 250 1.54 60 09:28 03.01.2022
4482 Fog 4 1018 96 250 0.45 115 09:28 03.01.2022
4483 Fog 4 1018 95 100 1.54 40 07:53 03.01.2022
4484 Fog 4 1018 88 50 0.89 112 03:22 03.01.2022
4485 Fog 5 1022 87 2500 1.03 0 23:24 02.01.2022
4486 Fog 5 1022 87 2500 0.51 0 22:56 02.01.2022
4487 Clouds 6 1023 88 10000 1.34 17 21:58 02.01.2022
4488 Clouds 6 1022 89 10000 0.51 0 20:50 02.01.2022
4489 Clouds 6 1023 89 10000 1.34 10 20:29 02.01.2022
4490 Clouds 7 1022 86 10000 0.51 220 19:31 02.01.2022
4491 Clouds 7 1023 88 10000 0.89 302 18:56 02.01.2022
4492 Clouds 8 1023 85 10000 1.34 308 17:56 02.01.2022
4493 Clouds 8 1022 84 10000 1.34 315 17:38 02.01.2022
4494 Clouds 9 1022 81 6000 1.03 280 17:20 02.01.2022
4495 Clouds 10 1022 76 7000 2.06 290 16:27 02.01.2022
4496 Clouds 11 1022 78 7000 3.58 308 14:41 02.01.2022
4497 Clouds 11 1023 83 10000 1.34 293 13:25 02.01.2022
4498 Clouds 10 1024 83 10000 2.24 241 12:31 02.01.2022
4499 Clouds 9 1024 85 10000 1.79 306 11:41 02.01.2022
4500 Clouds 9 1026 62 10000 1.44 249 10:53 02.01.2022
4501 Clouds 8 1026 84 10000 1.31 258 09:55 02.01.2022
4502 Mist 2 1023 94 5000 1.03 250 07:29 02.01.2022
4503 Fog 3 1025 95 800 0.51 190 02:51 02.01.2022
4504 Fog 4 1024 91 1100 0.51 0 23:41 01.01.2022
4505 Fog 4 1024 91 800 1.03 80 23:23 01.01.2022
4506 Fog 4 1024 92 400 1.03 120 22:24 01.01.2022
4507 Fog 5 1024 91 600 1.03 0 21:44 01.01.2022
4508 Fog 5 1024 91 400 0.89 203 20:56 01.01.2022
4509 Clouds 7 1022 83 10000 0.74 298 19:59 01.01.2022
4510 Clouds 8 1022 80 10000 1.79 171 19:30 01.01.2022
4511 Clouds 8 1022 80 10000 0.51 18 18:20 01.01.2022
4512 Clouds 11 1024 71 10000 0.89 177 16:43 01.01.2022
4513 Clouds 12 1024 66 10000 0.45 186 16:20 01.01.2022
4514 Clouds 12 1024 65 10000 1.79 193 15:30 01.01.2022
4515 Clouds 12 1024 65 10000 0.45 109 14:21 01.01.2022
4516 Clouds 12 1025 67 10000 0.4 96 12:50 01.01.2022
4517 Clouds 11 1026 71 10000 0.67 87 11:58 01.01.2022
4518 Clouds 10 1026 67 10000 0.76 88 11:23 01.01.2022
4519 Clouds 10 1026 50 10000 0.75 88 10:40 01.01.2022
4520 Clear 8 1020 77 10000 1.34 145 09:46 01.01.2022
4521 Fog 3 1022 92 150 1.34 169 08:26 01.01.2022
4522 Fog 4 1022 93 150 1.03 170 07:54 01.01.2022
4523 Fog 3 1021 94 50 0.51 0 07:34 01.01.2022
4524 Fog 4 1021 93 50 0.51 0 06:41 01.01.2022
4525 Clear 7 1017 84 10000 1.79 273 04:38 01.01.2022
4526 Clear 7 1019 98 10000 2.29 274 02:44 01.01.2022
4527 Fog 4 1025 100 100 0.51 0 23:39 31.12.2021
4528 Clear 7 1020 98 10000 1.51 281 21:53 31.12.2021
4529 Fog 5 1022 99 150 1.03 0 20:39 31.12.2021
4530 Fog 6 1025 100 150 1.03 0 19:31 31.12.2021
4531 Fog 6 1025 100 150 1.03 0 19:31 31.12.2021
4532 Fog 3 1024 100 200 1.03 0 18:41 31.12.2021
4533 Clear 9 1024 83 10000 1.24 283 17:43 31.12.2021
4534 Clear 9 1024 82 10000 1.67 297 17:19 31.12.2021
4535 Clear 11 1024 78 10000 1.67 297 16:38 31.12.2021
4536 Clear 11 1025 77 10000 0.89 271 15:57 31.12.2021
4537 Clear 12 1025 75 10000 0.89 266 15:29 31.12.2021
4538 Clear 12 1025 73 10000 0.45 297 14:57 31.12.2021
4539 Clear 13 1025 72 10000 0.81 251 14:30 31.12.2021
4540 Clear 13 1023 75 10000 0.61 254 13:36 31.12.2021
4541 Clear 12 1025 68 10000 0.42 255 12:45 31.12.2021
4542 Fog 10 1026 100 200 0.51 0 11:51 31.12.2021
4543 Fog 9 1026 100 200 1.03 0 11:30 31.12.2021
4544 Fog 8 1026 100 200 0.51 0 10:38 31.12.2021
4545 Fog 6 1022 99 200 0.51 0 09:55 31.12.2021
4546 Fog 5 1022 99 200 1.54 190 09:33 31.12.2021
4547 Fog 4 1022 99 200 1.03 0 08:39 31.12.2021
4548 Fog 4 1022 99 200 1.03 190 07:31 31.12.2021
4549 Fog 6 1023 99 150 2.24 237 23:32 30.12.2021
4550 Fog 6 1022 99 200 0.89 233 22:33 30.12.2021
4551 Fog 6 1022 99 200 1.79 248 21:59 30.12.2021
4552 Fog 6 1022 99 200 0.45 240 21:37 30.12.2021
4553 Fog 6 1021 99 200 0.89 283 20:47 30.12.2021
4554 Fog 6 1021 99 200 1.03 0 20:27 30.12.2021
4555 Fog 6 1021 99 200 0.51 0 19:47 30.12.2021
4556 Fog 6 1020 99 250 1.79 251 18:48 30.12.2021
4557 Clouds 7 1017 98 10000 1.07 59 18:19 30.12.2021
4558 Clouds 9 1016 86 10000 0.98 77 16:20 30.12.2021
4559 Clouds 10 1016 85 10000 0.98 77 15:52 30.12.2021
4560 Clouds 10 1020 84 10000 0.45 223 14:40 30.12.2021
4561 Clouds 10 1017 85 10000 1.79 223 13:55 30.12.2021
4562 Fog 9 1019 94 1400 0.51 0 12:44 30.12.2021
4563 Fog 7 1019 99 400 0.51 0 10:59 30.12.2021
4564 Fog 6 1018 98 350 1.34 245 09:59 30.12.2021
4565 Fog 4 1019 98 400 0.89 255 09:21 30.12.2021
4566 Fog 4 1017 98 900 1.03 0 06:54 30.12.2021
4567 Fog 4 1015 98 250 1.54 10 03:45 30.12.2021
4568 Fog 4 1015 98 300 0.45 69 03:23 30.12.2021
4569 Fog 4 1014 97 800 3.58 56 23:50 29.12.2021
4570 Mist 5 1014 98 2500 3.13 54 23:23 29.12.2021
4571 Fog 4 1012 97 500 2.68 56 22:22 29.12.2021
4572 Fog 5 1012 97 500 0.45 177 22:22 29.12.2021
4573 Fog 5 1012 97 500 4.12 80 21:43 29.12.2021
4574 Fog 5 1011 96 500 1.34 150 20:39 29.12.2021
4575 Fog 6 1012 95 400 1.79 102 19:50 29.12.2021
4576 Mist 6 1011 95 1500 0.45 167 18:54 29.12.2021
4577 Mist 7 1010 92 2000 1.34 62 17:56 29.12.2021
4578 Mist 7 1009 90 2000 1.79 137 17:28 29.12.2021
4579 Mist 8 1009 88 3500 0.45 188 16:41 29.12.2021
4580 Mist 9 1009 85 3000 0.45 142 15:59 29.12.2021
4581 Mist 9 1009 84 2500 0.45 195 14:24 29.12.2021
4582 Mist 9 1009 89 5000 0.45 177 12:42 29.12.2021
4583 Clouds 8 1009 91 6000 0.45 208 11:49 29.12.2021
4584 Fog 5 1007 97 500 0.89 224 09:59 29.12.2021
4585 Fog 3 1007 98 300 1.79 237 07:52 29.12.2021
4586 Fog 3 1007 98 300 1.79 242 07:52 29.12.2021
4587 Fog 3 1007 98 200 1.54 250 06:40 29.12.2021
4588 Fog 3 1007 98 200 1.54 240 06:22 29.12.2021
4589 Fog 3 1008 98 200 1.79 221 05:39 29.12.2021
4590 Fog 3 1009 98 300 1.54 250 02:48 29.12.2021
4591 Fog 4 1008 98 500 1.54 290 00:23 29.12.2021
4592 Fog 4 1008 97 500 1.03 0 23:35 28.12.2021
4593 Fog 4 1008 97 1200 2.06 250 22:42 28.12.2021
4594 Fog 5 1008 97 300 1.03 0 22:24 28.12.2021
4595 Fog 5 1008 97 2000 1.03 0 21:38 28.12.2021
4596 Fog 5 1008 96 2500 1.03 0 20:40 28.12.2021
4597 Mist 6 1008 95 2500 1.03 210 19:25 28.12.2021
4598 Mist 6 1008 95 2500 1.03 0 18:41 28.12.2021
4599 Mist 7 1008 94 1800 1.54 250 17:59 28.12.2021
4600 Mist 8 1006 91 1700 1.54 220 16:34 28.12.2021
4601 Mist 8 1007 91 1700 2.24 265 15:50 28.12.2021
4602 Mist 8 1007 91 1600 2.68 292 15:22 28.12.2021
4603 Mist 8 1007 92 1800 2.06 240 14:50 28.12.2021
4604 Mist 8 1007 92 1600 2.68 223 14:21 28.12.2021
4605 Mist 8 1007 93 1600 1.34 205 13:42 28.12.2021
4606 Mist 8 1008 95 1500 2.68 228 13:24 28.12.2021
4607 Mist 8 1008 95 1200 1.34 239 12:49 28.12.2021
4608 Fog 7 1009 96 600 1.79 264 11:46 28.12.2021
4609 Mist 6 1009 97 1200 1.03 0 08:35 28.12.2021
4610 Mist 6 1009 97 2500 2.06 250 06:42 28.12.2021
4611 Mist 6 1010 96 1800 1.54 270 23:44 27.12.2021
4612 Mist 6 1010 96 1800 1.54 270 23:23 27.12.2021
4613 Mist 6 1010 96 2000 0.51 0 21:42 27.12.2021
4614 Mist 6 1010 96 2000 0.51 0 21:20 27.12.2021
4615 Drizzle 6 1010 96 1500 0.51 0 19:58 27.12.2021
4616 Clouds 6 1009 96 1200 0.51 0 19:39 27.12.2021
4617 Rain 6 1009 96 1500 0.51 0 18:23 27.12.2021
4618 Rain 6 1009 96 1500 1.03 0 17:46 27.12.2021
4619 Rain 6 1009 95 2000 1.03 70 16:40 27.12.2021
4620 Rain 6 1008 95 2500 1.03 0 15:52 27.12.2021
4621 Rain 6 1009 94 2500 1.54 90 14:32 27.12.2021
4622 Rain 7 1008 92 2500 0.51 0 13:39 27.12.2021
4623 Mist 6 1008 91 3000 0.45 45 12:19 27.12.2021
4624 Mist 6 1009 93 2500 2.06 180 10:31 27.12.2021
4625 Mist 5 1008 93 2500 1.79 173 09:47 27.12.2021
4626 Fog 4 1008 94 3000 0 0 07:35 27.12.2021
4627 Mist 4 1008 93 4000 0.51 0 06:56 27.12.2021
4628 Fog 5 1008 92 2000 1.03 190 02:18 27.12.2021
4629 Mist 5 1009 91 5000 1.03 0 23:58 26.12.2021
4630 Clouds 5 1009 91 6000 0.89 198 23:35 26.12.2021
4631 Clouds 5 1009 89 7000 0.51 360 21:59 26.12.2021
4632 Clouds 5 1009 89 7000 0 0 20:54 26.12.2021
4633 Clouds 5 1008 87 9000 0.51 0 19:46 26.12.2021
4634 Clouds 6 1008 86 8000 0.51 0 18:23 26.12.2021
4635 Clouds 7 1007 81 7000 0.51 0 15:57 26.12.2021
4636 Clouds 7 1007 82 6000 0.51 0 14:27 26.12.2021
4637 Clouds 7 1007 82 6000 1.03 0 13:40 26.12.2021
4638 Clouds 7 1007 82 6000 1.79 183 13:18 26.12.2021
4639 Clouds 7 1007 84 6000 0.51 0 12:27 26.12.2021
4640 Mist 4 1008 96 4000 1.54 280 10:32 26.12.2021
4641 Fog 2 1006 96 900 1.54 250 09:19 26.12.2021
4642 Fog 3 1006 95 500 0.89 225 08:43 26.12.2021
4643 Fog 2 1005 95 200 1.34 314 07:34 26.12.2021
4644 Mist 4 1007 90 5000 1.54 20 01:24 26.12.2021
4645 Mist 4 1007 90 5000 1.79 314 23:53 25.12.2021
4646 Mist 4 1008 92 5000 1.03 0 23:27 25.12.2021
4647 Mist 4 1008 92 5000 1.03 250 22:23 25.12.2021
4648 Rain 4 1008 92 4000 1.34 277 20:48 25.12.2021
4649 Rain 5 1008 90 3500 1.03 0 19:23 25.12.2021
4650 Drizzle 5 1008 89 4000 0.89 245 18:54 25.12.2021
4651 Drizzle 5 1008 89 2500 0.45 236 17:29 25.12.2021
4652 Rain 5 1007 87 2500 2.68 219 16:35 25.12.2021
4653 Mist 5 1007 85 5000 2.06 230 14:38 25.12.2021
4654 Mist 6 1008 83 3500 0.89 171 12:49 25.12.2021
4655 Mist 6 1009 81 5000 1.03 180 11:45 25.12.2021
4656 Mist 5 1009 85 5000 1.54 180 09:50 25.12.2021
4657 Mist 4 1009 85 5000 0.89 305 08:19 25.12.2021
4658 Mist 4 1010 85 5000 1.54 150 02:22 25.12.2021
4659 Mist 4 1011 88 5000 1.03 0 00:33 25.12.2021
4660 Mist 4 1012 88 5000 1.03 0 23:39 24.12.2021
4661 Mist 4 1013 88 5000 1.03 0 19:40 24.12.2021
4662 Mist 4 1013 89 5000 1.03 0 19:22 24.12.2021
4663 Mist 5 1012 84 5000 1.03 0 16:50 24.12.2021
4664 Mist 5 1012 83 5000 0.45 232 16:21 24.12.2021
4665 Mist 5 1012 83 5000 1.79 228 15:46 24.12.2021
4666 Mist 5 1013 83 5000 1.34 226 14:46 24.12.2021
4667 Mist 5 1013 83 5000 1.34 234 14:23 24.12.2021
4668 Mist 5 1013 84 5000 1.34 232 13:37 24.12.2021
4669 Mist 5 1014 84 5000 1.54 250 12:48 24.12.2021
4670 Mist 4 1014 84 5000 0.45 197 11:52 24.12.2021
4671 Mist 4 1014 84 5000 1.79 194 11:26 24.12.2021
4672 Mist 4 1015 84 5000 0.89 221 10:50 24.12.2021
4673 Mist 4 1015 84 5000 4.02 216 10:18 24.12.2021
4674 Clouds 4 1016 86 10000 1.03 0 08:25 24.12.2021
4675 Clouds 4 1015 85 10000 2.06 230 07:50 24.12.2021
4676 Clouds 3 1018 88 8000 1.03 0 02:52 24.12.2021
4677 Clouds 3 1019 89 9000 0.51 0 00:19 24.12.2021
4678 Clouds 3 1020 89 10000 1.03 0 23:22 23.12.2021
4679 Clouds 3 1020 89 10000 1.54 280 22:37 23.12.2021
4680 Clouds 3 1020 89 10000 1.54 280 22:37 23.12.2021
4681 Clouds 3 1020 90 10000 2.06 260 22:19 23.12.2021
4682 Clouds 3 1021 91 10000 1.03 0 20:59 23.12.2021
4683 Clouds 3 1021 90 10000 2.57 280 20:19 23.12.2021
4684 Clouds 3 1021 91 8000 1.54 260 18:36 23.12.2021
4685 Clouds 3 1021 91 8000 2.06 250 17:57 23.12.2021
4686 Mist 4 1020 88 5000 2.68 266 16:44 23.12.2021
4687 Mist 4 1019 87 5000 1.79 300 16:24 23.12.2021
4688 Mist 5 1019 85 5000 1.79 293 15:31 23.12.2021
4689 Mist 5 1020 83 5000 2.68 235 14:52 23.12.2021
4690 Mist 5 1021 84 5000 2.24 246 14:30 23.12.2021
4691 Mist 5 1020 85 3500 1.79 236 12:54 23.12.2021
4692 Mist 3 1020 88 2000 1.79 255 10:52 23.12.2021
4693 Mist 3 1021 88 1000 1.34 330 09:42 23.12.2021
4694 Fog 1 1024 98 600 1.03 0 08:59 23.12.2021
4695 Fog 1 1024 98 600 1.03 0 08:59 23.12.2021
4696 Fog 0 1024 96 300 2.06 240 06:55 23.12.2021
4697 Fog 1 1025 96 300 1.54 240 04:30 23.12.2021
4698 Fog 2 1027 96 400 1.54 240 23:20 22.12.2021
4699 Fog 2 1027 96 400 1.54 250 22:42 22.12.2021
4700 Fog 2 1027 96 400 2.06 240 21:56 22.12.2021
4701 Fog 2 1026 96 400 1.03 0 21:29 22.12.2021
4702 Fog 2 1026 100 200 2.06 250 20:47 22.12.2021
4703 Fog 3 1026 100 200 2.57 250 20:26 22.12.2021
4704 Fog 3 1026 100 200 2.06 260 19:21 22.12.2021
4705 Mist 4 1024 86 3000 2.24 196 17:42 22.12.2021
4706 Clouds 6 1025 79 9000 1.34 200 16:39 22.12.2021
4707 Clouds 7 1025 73 10000 2.68 170 15:39 22.12.2021
4708 Clouds 7 1025 75 8000 2.68 186 13:32 22.12.2021
4709 Clouds 6 1025 79 7000 1.34 148 12:40 22.12.2021
4710 Clouds 5 1024 82 10000 0.64 75 10:19 22.12.2021
4711 Clouds 4 1025 86 10000 0.64 75 09:38 22.12.2021
4712 Clouds 3 1022 88 10000 0.61 82 07:25 22.12.2021
4713 Fog 3 1024 94 100 0.51 0 05:43 22.12.2021
4714 Fog 3 1022 93 100 0.51 0 05:24 22.12.2021
4715 Fog 3 1022 92 100 0.51 0 04:49 22.12.2021
4716 Fog 3 1023 93 100 0.51 0 04:24 22.12.2021
4717 Clouds 3 1024 93 10000 0.88 81 03:32 22.12.2021
4718 Fog 4 1024 91 800 1.03 10 00:33 22.12.2021
4719 Mist 5 1024 92 3500 1.03 0 22:52 21.12.2021
4720 Mist 5 1023 88 4000 0.45 73 22:27 21.12.2021
4721 Mist 5 1024 90 5000 1.03 0 21:43 21.12.2021
4722 Clouds 5 1023 86 6000 1.54 130 20:54 21.12.2021
4723 Clouds 5 1022 86 6000 0.51 0 20:20 21.12.2021
4724 Clouds 5 1022 87 6000 0.51 0 19:41 21.12.2021
4725 Clouds 6 1022 86 6000 1.03 40 18:45 21.12.2021
4726 Clouds 6 1022 85 6000 0.51 0 18:21 21.12.2021
4727 Mist 6 1022 85 5000 0.51 0 17:41 21.12.2021
4728 Mist 7 1021 81 4000 1.34 203 15:55 21.12.2021
4729 Mist 7 1022 80 4000 1.34 195 15:20 21.12.2021
4730 Mist 6 1022 83 4000 1.03 0 13:50 21.12.2021
4731 Mist 6 1023 84 4000 0.89 253 13:29 21.12.2021
4732 Mist 5 1025 92 3000 1.54 240 10:56 21.12.2021
4733 Mist 4 1024 93 4000 1.54 250 09:59 21.12.2021
4734 Mist 3 1024 94 3000 1.03 0 09:18 21.12.2021
4735 Mist 3 1024 94 5000 2.06 270 07:54 21.12.2021
4736 Mist 3 1024 94 3500 2.06 260 07:25 21.12.2021
4737 Mist 3 1024 94 1600 2.06 230 04:56 21.12.2021
4738 Fog 3 1024 93 750 2.06 250 02:39 21.12.2021
4739 Fog 3 1021 91 100 0.51 0 23:58 20.12.2021
4740 Mist 3 1022 94 3500 1.03 10 22:49 20.12.2021
4741 Fog 3 1022 95 2500 1.54 10 22:28 20.12.2021
4742 Fog 3 1022 94 800 1.54 20 21:42 20.12.2021
4743 Mist 4 1021 92 3500 1.34 10 21:22 20.12.2021
4744 Clouds 3 1022 93 6000 2.57 60 20:41 20.12.2021
4745 Clouds 4 1021 93 7000 2.57 90 19:48 20.12.2021
4746 Clouds 4 1021 94 7000 2.57 90 19:29 20.12.2021
4747 Clouds 4 1020 92 7000 3.09 80 18:49 20.12.2021
4748 Mist 4 1020 91 5000 3.09 80 17:52 20.12.2021
4749 Mist 5 1019 89 2500 0.45 173 16:53 20.12.2021
4750 Mist 5 1017 86 2500 0.89 150 16:35 20.12.2021
4751 Clear 7 1018 78 10000 0.89 138 15:43 20.12.2021
4752 Clouds 8 1017 76 10000 0.89 189 14:40 20.12.2021
4753 Clouds 10 1017 70 10000 2.06 220 12:44 20.12.2021
4754 Clouds 7 1015 73 10000 3.6 260 10:55 20.12.2021
4755 Clear 4 1015 81 10000 0.89 5 09:47 20.12.2021
4756 Clear 4 1015 82 10000 2.57 260 08:56 20.12.2021
4757 Clear 4 1015 84 10000 0.45 356 08:38 20.12.2021
4758 Clouds 3 1013 85 10000 0.89 14 07:44 20.12.2021
4759 Clear 3 1013 86 10000 1.79 8 06:39 20.12.2021
4760 Clear 2 1016 93 6000 0.89 24 01:33 20.12.2021
4761 Clear 3 1016 83 7000 1.79 330 23:28 19.12.2021
4762 Clear 3 1016 83 7000 1.34 271 22:44 19.12.2021
4763 Clear 4 1015 77 10000 1.79 294 21:33 19.12.2021
4764 Clear 4 1016 74 10000 1.34 234 20:44 19.12.2021
4765 Clear 4 1016 76 10000 0.89 246 20:24 19.12.2021
4766 Clear 5 1015 76 10000 1.34 241 19:42 19.12.2021
4767 Fog 4 1017 79 2000 1.03 250 18:46 19.12.2021
4768 Clear 6 1018 77 10000 2.05 277 17:54 19.12.2021
4769 Clear 6 1019 77 10000 1.95 274 17:35 19.12.2021
4770 Mist 7 1020 75 4000 1.03 0 16:41 19.12.2021
4771 Mist 8 1020 73 4000 1.34 221 15:56 19.12.2021
4772 Clear 9 1020 66 10000 1.34 221 15:25 19.12.2021
4773 Clear 9 1020 68 10000 0.89 208 14:45 19.12.2021
4774 Clear 9 1023 73 10000 0.45 158 13:35 19.12.2021
4775 Clear 8 1023 76 10000 0.45 280 12:59 19.12.2021
4776 Clear 8 1022 79 10000 2.38 260 12:31 19.12.2021
4777 Clear 7 1025 77 10000 2.38 260 11:38 19.12.2021
4778 Clear 6 1019 98 10000 0.89 274 10:50 19.12.2021
4779 Fog 4 1022 99 150 0.45 240 10:22 19.12.2021
4780 Fog 2 1024 99 150 1.79 223 08:50 19.12.2021
4781 Fog 1 1025 98 100 2.68 243 06:51 19.12.2021
4782 Fog 1 1028 97 100 0.45 290 01:52 19.12.2021
4783 Fog 2 1028 98 100 1.34 230 00:54 19.12.2021
4784 Fog 1 1031 98 100 0.51 0 23:18 18.12.2021
4785 Fog 2 1030 98 100 0.45 191 22:24 18.12.2021
4786 Fog 2 1030 98 100 0.45 202 21:43 18.12.2021
4787 Fog 2 1030 98 100 0.89 195 21:22 18.12.2021
4788 Fog 2 1031 98 100 1.79 165 20:26 18.12.2021
4789 Fog 2 1031 95 100 0.89 41 19:35 18.12.2021
4790 Fog 3 1030 94 200 0.89 322 18:24 18.12.2021
4791 Fog 3 1030 94 200 0.45 284 17:49 18.12.2021
4792 Fog 4 1030 95 250 0.89 198 16:36 18.12.2021
4793 Fog 6 1029 94 600 1.34 226 16:18 18.12.2021
4794 Clear 9 1028 83 10000 1.79 240 14:54 18.12.2021
4795 Clear 9 1029 81 10000 0.89 220 13:44 18.12.2021
4796 Clouds 8 1033 85 10000 0.89 269 11:55 18.12.2021
4797 Fog 4 1031 93 100 0.89 239 09:54 18.12.2021
4798 Fog 2 1033 96 100 1.54 60 09:30 18.12.2021
4799 Fog 1 1031 97 100 1.03 0 08:36 18.12.2021
4800 Fog 1 1031 97 100 1.03 0 08:36 18.12.2021
4801 Fog 1 1030 96 100 1.79 171 06:27 18.12.2021
4802 Fog 2 1027 97 200 1.34 53 00:58 18.12.2021
4803 Fog 3 1026 97 50 1.34 53 23:47 17.12.2021
4804 Fog 3 1025 97 100 2.24 77 22:37 17.12.2021
4805 Fog 3 1025 94 100 1.03 0 21:28 17.12.2021
4806 Fog 3 1025 93 200 1.79 166 20:42 17.12.2021
4807 Fog 4 1025 94 400 1.79 226 19:50 17.12.2021
4808 Fog 5 1027 93 300 0.89 253 18:39 17.12.2021
4809 Fog 5 1028 90 250 0.45 239 17:46 17.12.2021
4810 Fog 7 1028 88 200 1.34 256 16:50 17.12.2021
4811 Fog 8 1028 83 200 1.79 268 16:26 17.12.2021
4812 Mist 9 1029 76 3200 0.45 238 15:25 17.12.2021
4813 Mist 9 1029 79 4000 2.24 241 14:41 17.12.2021
4814 Clear 9 1030 85 10000 1.34 233 13:30 17.12.2021
4815 Mist 7 1030 93 2200 0.51 0 12:21 17.12.2021
4816 Fog 4 1030 98 550 1.03 0 10:38 17.12.2021
4817 Clouds 1 1032 98 100 2.06 260 09:34 17.12.2021
4818 Clouds 1 1032 97 100 1.79 222 08:31 17.12.2021
4819 Clouds 1 1032 96 100 3.58 231 07:18 17.12.2021
4820 Clouds 2 1033 98 50 2.24 224 04:39 17.12.2021
4821 Fog 3 1034 91 2000 1.34 21 23:47 16.12.2021
4822 Fog 3 1033 91 100 2.24 64 22:24 16.12.2021
4823 Fog 3 1033 91 100 2.24 64 22:24 16.12.2021
4824 Fog 3 1033 91 100 2.24 64 22:23 16.12.2021
4825 Fog 3 1033 91 100 2.24 64 22:23 16.12.2021
4826 Fog 3 1033 91 100 2.24 64 22:23 16.12.2021
4827 Fog 3 1032 92 100 3.13 58 21:45 16.12.2021
4828 Mist 3 1032 92 1500 1.34 54 20:57 16.12.2021
4829 Mist 3 1031 93 2000 1.79 51 20:27 16.12.2021
4830 Mist 4 1030 91 3000 1.79 63 19:33 16.12.2021
4831 Mist 4 1029 87 3000 2.24 84 18:37 16.12.2021
4832 Mist 5 1029 85 3500 1.03 0 17:48 16.12.2021
4833 Mist 6 1029 83 3500 1.03 0 16:44 16.12.2021
4834 Mist 6 1028 80 3500 1.54 250 16:18 16.12.2021
4835 Fog 7 1028 83 700 0.89 232 14:23 16.12.2021
4836 Clouds 8 1029 78 10000 0.45 185 12:34 16.12.2021
4837 Clouds 7 1029 82 10000 2.24 236 11:19 16.12.2021
4838 Clouds 7 1029 82 10000 2.24 236 11:19 16.12.2021
4839 Clouds 6 1029 83 10000 0.45 195 10:45 16.12.2021
4840 Fog 3 1030 87 1800 1.79 228 09:51 16.12.2021
4841 Fog 1 1030 95 600 1.03 260 07:19 16.12.2021
4842 Fog 1 1029 93 2000 0.51 0 06:18 16.12.2021
4843 Mist 2 1030 92 3000 0.51 0 00:35 16.12.2021
4844 Mist 2 1031 90 2200 0.89 189 23:20 15.12.2021
4845 Mist 3 1030 90 1800 1.03 190 22:21 15.12.2021
4846 Mist 3 1030 91 2400 0.45 248 21:45 15.12.2021
4847 Mist 3 1030 89 2500 0.89 225 21:24 15.12.2021
4848 Fog 4 1030 89 1900 0.89 225 19:54 15.12.2021
4849 Mist 4 1030 89 1000 1.03 260 19:19 15.12.2021
4850 Mist 5 1030 86 2200 0.51 260 18:24 15.12.2021
4851 Mist 5 1030 87 2700 1.54 260 17:46 15.12.2021
4852 Mist 6 1029 85 4100 0.89 173 17:21 15.12.2021
4853 Clouds 7 1029 77 8000 0.45 182 15:49 15.12.2021
4854 Clear 9 1028 72 10000 1.34 212 15:31 15.12.2021
4855 Clear 9 1028 70 10000 1.34 209 14:59 15.12.2021
4856 Clear 9 1029 72 10000 1.34 194 13:45 15.12.2021
4857 Clouds 8 1029 74 8000 0.89 199 11:52 15.12.2021
4858 Fog 5 1030 86 6000 0.51 0 10:22 15.12.2021
4859 Fog 2 1029 92 8000 0.51 0 08:26 15.12.2021
4860 Fog 2 1028 91 4000 0.51 0 05:53 15.12.2021
4861 Fog 4 1027 91 3000 1.03 360 00:37 15.12.2021
4862 Mist 3 1027 91 4000 1.03 0 23:31 14.12.2021
4863 Mist 4 1027 89 5000 1.54 110 22:44 14.12.2021
4864 Clouds 4 1026 89 6000 0.51 0 21:43 14.12.2021
4865 Clouds 4 1026 91 6000 0.51 0 21:43 14.12.2021
4866 Clouds 4 1026 88 8000 0.51 0 20:22 14.12.2021
4867 Clouds 6 1026 83 8000 1.54 280 19:34 14.12.2021
4868 Clouds 6 1026 83 7000 1.03 200 18:38 14.12.2021
4869 Mist 7 1027 81 5000 1.54 260 17:56 14.12.2021
4870 Mist 9 1026 76 5000 2.06 250 16:47 14.12.2021
4871 Clouds 9 1026 75 7000 1.54 230 16:28 14.12.2021
4872 Clouds 8 1026 77 8000 2.06 260 14:32 14.12.2021
4873 Clouds 8 1025 74 8000 2.24 224 12:58 14.12.2021
4874 Clear 7 1026 78 10000 2.68 252 11:44 14.12.2021
4875 Clear 6 1027 79 10000 1.34 230 11:20 14.12.2021
4876 Clouds 3 1027 86 6000 1.03 270 09:55 14.12.2021
4877 Clear 2 1026 88 10000 1.03 0 08:58 14.12.2021
4878 Mist 1 1025 90 4000 0.45 213 08:21 14.12.2021
4879 Fog 1 1025 89 2000 0.45 213 07:23 14.12.2021
4880 Clouds 3 1026 83 7000 1.03 0 23:52 13.12.2021
4881 Clear 3 1026 82 10000 1.03 30 22:26 13.12.2021
4882 Clear 4 1026 80 10000 1.03 0 21:39 13.12.2021
4883 Clear 4 1025 79 10000 1.03 20 20:54 13.12.2021
4884 Clear 4 1025 79 10000 0.45 213 20:22 13.12.2021
4885 Clear 5 1025 76 10000 0.45 0 19:49 13.12.2021
4886 Clear 6 1025 73 10000 1.54 140 17:39 13.12.2021
4887 Clear 7 1025 69 10000 1.03 170 17:18 13.12.2021
4888 Clear 10 1025 57 10000 1.03 0 15:43 13.12.2021
4889 Clear 9 1025 57 10000 1.54 270 14:43 13.12.2021
4890 Clear 9 1023 60 10000 0.89 225 13:37 13.12.2021
4891 Clear 7 1023 66 10000 1.34 237 12:40 13.12.2021
4892 Clear 7 1024 67 10000 1.34 227 11:53 13.12.2021
4893 Clear 6 1024 70 10000 1.34 206 11:34 13.12.2021
4894 Clear 5 1025 75 10000 0.51 0 10:37 13.12.2021
4895 Clouds 1 1023 86 7000 0.45 228 08:44 13.12.2021
4896 Clear 1 1023 86 10000 0.45 228 06:55 13.12.2021
4897 Clear 1 1023 86 10000 0.89 328 05:19 13.12.2021
4898 Clear 2 1023 81 10000 2.68 320 00:27 13.12.2021
4899 Clear 3 1024 77 10000 0.89 137 21:59 12.12.2021
4900 Clear 3 1023 76 10000 1.34 76 21:24 12.12.2021
4901 Clear 4 1023 74 10000 2.68 315 19:35 12.12.2021
4902 Clear 5 1023 70 10000 2.24 262 18:23 12.12.2021
4903 Clear 6 1022 67 10000 2.24 228 16:40 12.12.2021
4904 Clear 7 1022 65 10000 1.79 209 15:58 12.12.2021
4905 Clear 7 1022 61 10000 0.89 198 15:28 12.12.2021
4906 Clear 7 1024 68 10000 1.34 258 14:51 12.12.2021
4907 Clear 7 1022 64 10000 0.89 214 14:18 12.12.2021
4908 Clear 6 1023 64 10000 0.89 266 12:48 12.12.2021
4909 Clear 5 1023 67 10000 1.34 177 11:45 12.12.2021
4910 Clear 4 1023 70 10000 1.79 182 11:27 12.12.2021
4911 Clear 4 1023 75 10000 1.34 85 10:44 12.12.2021
4912 Clear 2 1022 83 10000 0.51 0 09:58 12.12.2021
4913 Rain 0 1021 86 10000 0.51 0 08:44 12.12.2021
4914 Clouds 1 1018 84 10000 0.89 156 06:55 12.12.2021
4915 Fog 1 1017 87 8000 0.89 218 05:28 12.12.2021
4916 Fog 1 1018 89 7000 1.34 244 04:19 12.12.2021
4917 Clear 2 1015 83 10000 1.46 317 00:54 12.12.2021
4918 Clear 3 1015 78 10000 0.89 203 22:56 11.12.2021
4919 Clear 3 1015 81 10000 0.89 260 22:20 11.12.2021
4920 Clear 3 1014 76 10000 0.89 106 21:26 11.12.2021
4921 Clear 4 1013 79 10000 0.45 116 19:50 11.12.2021
4922 Clear 4 1013 79 10000 0 0 19:21 11.12.2021
4923 Clear 3 1012 80 10000 0.45 202 18:39 11.12.2021
4924 Clear 4 1012 80 10000 1.34 166 17:48 11.12.2021
4925 Clear 6 1010 70 10000 0.51 0 15:58 11.12.2021
4926 Clear 6 1010 72 10000 0.89 165 15:39 11.12.2021
4927 Clear 6 1009 73 10000 2.68 131 14:33 11.12.2021
4928 Clear 5 1008 74 10000 0.89 206 12:20 11.12.2021
4929 Clear 4 1007 82 10000 1.79 206 10:43 11.12.2021
4930 Clear 2 1006 86 10000 1.79 174 09:38 11.12.2021
4931 Clouds 1 1003 90 10000 0.89 236 03:26 11.12.2021
4932 Clouds 1 1002 91 10000 1.79 276 00:45 11.12.2021
4933 Clouds 1 1004 94 10000 1.03 0 23:40 10.12.2021
4934 Clouds 2 1003 92 10000 1.54 280 22:33 10.12.2021
4935 Clouds 2 1001 91 10000 0.89 290 21:40 10.12.2021
4936 Clouds 2 1002 93 10000 0.51 0 20:22 10.12.2021
4937 Clouds 2 1002 94 10000 2.06 340 19:18 10.12.2021
4938 Clouds 2 1001 94 10000 2.06 20 17:31 10.12.2021
4939 Clouds 2 1001 94 7000 2.57 10 16:34 10.12.2021
4940 Clouds 2 1001 94 7000 2.57 20 15:43 10.12.2021
4941 Rain 2 1001 95 7000 2.06 30 15:24 10.12.2021
4942 Rain 2 1001 95 7000 2.57 50 14:29 10.12.2021
4943 Snow 2 1000 95 8000 2.24 16 13:48 10.12.2021
4944 Snow 2 1001 94 10000 3.13 57 12:55 10.12.2021
4945 Drizzle 2 1001 94 7000 2.68 38 11:36 10.12.2021
4946 Drizzle 2 1001 92 7000 1.79 54 10:55 10.12.2021
4947 Snow 1 1002 91 10000 0.45 55 09:36 10.12.2021
4948 Mist 0 1004 96 5000 2.06 60 07:25 10.12.2021
4949 Fog 0 1005 96 500 1.03 0 04:32 10.12.2021
4950 Fog 0 1006 97 500 1.03 0 02:29 10.12.2021
4951 Fog 0 1007 97 400 1.03 0 23:40 09.12.2021
4952 Fog 1 1007 97 400 0.51 0 22:41 09.12.2021
4953 Fog 0 1007 96 400 1.54 0 22:21 09.12.2021
4954 Fog 1 1007 96 200 1.03 340 21:38 09.12.2021
4955 Fog 1 1007 96 200 1.03 0 20:34 09.12.2021
4956 Mist 1 1006 95 1000 1.54 120 19:22 09.12.2021
4957 Mist 2 1006 95 1500 2.06 100 18:59 09.12.2021
4958 Mist 2 1005 95 1500 2.06 100 18:18 09.12.2021
4959 Mist 2 1005 94 1500 2.06 80 17:29 09.12.2021
4960 Mist 3 1004 93 2000 1.54 100 16:57 09.12.2021
4961 Mist 4 1002 92 2000 0.89 193 16:20 09.12.2021
4962 Mist 5 1001 90 4000 0.89 197 14:58 09.12.2021
4963 Mist 4 1000 92 3000 0.89 196 13:52 09.12.2021
4964 Mist 4 998 94 2500 2.24 243 12:47 09.12.2021
4965 Mist 2 1000 97 2500 3.13 269 11:29 09.12.2021
4966 Fog 1 1000 96 900 2.24 252 10:20 09.12.2021
4967 Mist 1 1001 86 4000 1.54 260 06:53 09.12.2021
4968 Snow 1 1000 86 5000 1.03 0 03:50 09.12.2021
4969 Snow 1 1001 96 5000 1.54 260 00:24 09.12.2021
4970 Rain 1 1001 96 5000 1.54 250 23:32 08.12.2021
4971 Rain 1 1001 96 5000 1.54 260 22:56 08.12.2021
4972 Rain 1 1001 96 4000 2.06 240 21:50 08.12.2021
4973 Rain 1 1001 96 3000 2.06 240 21:31 08.12.2021
4974 Rain 1 1002 96 4000 1.54 250 20:30 08.12.2021
4975 Rain 1 1001 96 5000 2.06 200 19:48 08.12.2021
4976 Rain 1 1002 95 7000 0.51 0 18:54 08.12.2021
4977 Rain 1 1002 95 7000 0.51 0 18:21 08.12.2021
4978 Snow 1 1002 96 3000 1.03 340 16:44 08.12.2021
4979 Snow 1 1002 96 3000 1.03 340 16:44 08.12.2021
4980 Snow 1 1002 96 2000 1.54 280 15:40 08.12.2021
4981 Snow 1 1002 95 1500 2.06 220 15:21 08.12.2021
4982 Snow 1 1003 94 700 3.6 10 13:21 08.12.2021
4983 Snow 1 1007 94 2000 4.12 340 10:42 08.12.2021
4984 Snow 2 1007 93 2500 2.06 40 09:32 08.12.2021
4985 Snow 2 1007 87 3000 1.79 85 07:37 08.12.2021
4986 Rain 3 1008 75 10000 1.79 80 04:58 08.12.2021
4987 Clear 3 1011 74 10000 1.79 70 23:56 07.12.2021
4988 Clear 4 1012 72 10000 2.68 111 22:37 07.12.2021
4989 Clear 4 1012 70 10000 2.24 103 21:24 07.12.2021
4990 Clear 4 1012 70 10000 0.45 59 20:25 07.12.2021
4991 Clear 4 1013 71 10000 1.54 50 18:56 07.12.2021
4992 Clear 5 1012 64 10000 0.51 0 18:19 07.12.2021
4993 Clear 6 1012 59 10000 1.34 233 17:20 07.12.2021
4994 Clear 7 1011 57 10000 3.13 233 16:37 07.12.2021
4995 Clear 8 1011 54 10000 1.34 230 15:37 07.12.2021
4996 Clear 9 1011 52 10000 3.13 244 14:37 07.12.2021
4997 Clear 9 1011 51 10000 0.45 251 13:19 07.12.2021
4998 Clear 8 1012 52 10000 1.34 188 12:21 07.12.2021
4999 Clear 5 1013 62 10000 2.68 292 10:44 07.12.2021
5000 Clear 1 1012 79 7000 1.54 250 08:46 07.12.2021
5001 Clouds 1 1011 80 8000 1.54 200 06:22 07.12.2021
5002 Clouds 1 1011 77 7000 2.06 350 05:42 07.12.2021
5003 Clouds 1 1010 81 6000 0.89 113 00:54 07.12.2021
5004 Clouds 2 1010 80 7000 0.51 0 22:58 06.12.2021
5005 Clouds 2 1011 79 7000 0.51 0 22:38 06.12.2021
5006 Clouds 2 1011 81 8000 1.03 0 21:54 06.12.2021
5007 Clear 3 1010 80 8000 0.45 223 20:44 06.12.2021
5008 Clear 3 1010 80 10000 1.79 227 20:26 06.12.2021
5009 Clear 3 1010 80 10000 2.68 251 19:23 06.12.2021
5010 Clear 4 1010 79 8000 2.68 250 18:29 06.12.2021
5011 Clear 4 1010 76 7000 1.34 245 17:51 06.12.2021
5012 Clear 6 1009 72 8000 1.79 219 16:49 06.12.2021
5013 Mist 7 1009 70 5000 1.79 234 15:45 06.12.2021
5014 Clear 8 1006 74 10000 1.34 182 13:46 06.12.2021
5015 Clear 7 1006 68 10000 2.24 199 12:40 06.12.2021
5016 Clear 7 1006 74 10000 2.68 218 11:48 06.12.2021
5017 Fog 1 1008 85 4500 1.79 313 09:20 06.12.2021
5018 Fog 0 1007 88 1000 0 0 06:43 06.12.2021
5019 Clear 2 1005 89 6000 1.03 0 23:44 05.12.2021
5020 Clear 2 1005 86 6000 1.03 0 21:52 05.12.2021
5021 Clear 3 1002 79 7000 0.51 0 21:19 05.12.2021
5022 Clear 2 1003 83 8000 1.03 0 20:19 05.12.2021
5023 Clear 3 1002 75 9000 1.03 0 19:33 05.12.2021
5024 Clouds 3 1002 80 10000 1.03 0 18:55 05.12.2021
5025 Clouds 4 1001 73 10000 0.51 0 18:20 05.12.2021
5026 Clouds 5 1000 71 10000 1.54 200 17:48 05.12.2021
5027 Clouds 6 1000 65 10000 0.45 230 16:48 05.12.2021
5028 Clouds 7 1000 62 10000 1.03 0 16:26 05.12.2021
5029 Clouds 8 999 60 10000 1.79 198 15:48 05.12.2021
5030 Clear 8 999 59 10000 2.24 228 14:41 05.12.2021
5031 Clear 8 999 60 10000 1.34 246 14:23 05.12.2021
5032 Clear 7 999 63 10000 2.24 230 13:22 05.12.2021
5033 Clear 7 999 66 10000 1.79 245 12:40 05.12.2021
5034 Clear 6 1000 71 10000 0.89 223 12:18 05.12.2021
5035 Clear 5 1000 77 10000 1.79 269 11:30 05.12.2021
5036 Clouds 3 999 84 10000 1.79 229 09:59 05.12.2021
5037 Clouds 2 1001 86 6000 1.34 182 08:24 05.12.2021
5038 Rain 2 1002 87 10000 0.45 306 03:28 05.12.2021
5039 Clouds 3 1004 82 10000 1.79 112 23:45 04.12.2021
5040 Clouds 4 1003 79 10000 0.45 54 21:55 04.12.2021
5041 Clouds 4 1004 78 10000 1.03 0 20:57 04.12.2021
5042 Clouds 4 1004 76 10000 1.03 0 20:20 04.12.2021
5043 Clouds 4 1004 76 10000 0 0 19:32 04.12.2021
5044 Rain 4 1005 76 10000 1.03 0 18:21 04.12.2021
5045 Clouds 4 1004 75 10000 0.89 194 17:39 04.12.2021
5046 Clouds 4 1005 73 9000 0.89 200 16:51 04.12.2021
5047 Clouds 5 1005 73 10000 1.54 270 16:30 04.12.2021
5048 Clouds 5 1005 73 10000 1.79 230 15:40 04.12.2021
5049 Clouds 5 1009 68 10000 2.68 219 11:51 04.12.2021
5050 Clouds 5 1009 67 10000 1.03 0 11:32 04.12.2021
5051 Clouds 4 1009 68 10000 0.45 205 10:53 04.12.2021
5052 Clear 2 1010 74 10000 0.51 0 08:48 04.12.2021
5053 Clear 1 1011 74 10000 1.03 340 06:28 04.12.2021
5054 Clear 2 1012 74 10000 0.51 0 04:42 04.12.2021
5055 Clear 3 1015 81 10000 0.51 0 00:24 04.12.2021
5056 Clear 3 1015 80 10000 1.03 0 23:26 03.12.2021
5057 Clear 3 1015 80 10000 1.03 0 23:26 03.12.2021
5058 Clear 3 1015 79 10000 0.51 0 22:46 03.12.2021
5059 Clear 3 1013 69 10000 0.51 0 21:26 03.12.2021
5060 Clear 4 1013 67 10000 0.89 149 20:52 03.12.2021
5061 Clear 4 1013 64 10000 0.51 0 19:50 03.12.2021
5062 Clear 6 1012 58 10000 1.79 202 18:34 03.12.2021
5063 Clear 6 1012 56 10000 1.79 184 17:59 03.12.2021
5064 Clear 10 1011 39 10000 2.24 189 15:36 03.12.2021
5065 Clear 10 1010 52 10000 2.24 225 12:54 03.12.2021
5066 Clear 9 1010 58 10000 2.68 190 11:49 03.12.2021
5067 Clear 8 1011 65 10000 1.79 291 10:55 03.12.2021
5068 Clouds 3 1011 92 10000 2.02 328 08:26 03.12.2021
5069 Clouds 3 1010 92 10000 2.02 328 07:42 03.12.2021
5070 Fog 3 1006 94 2000 1.03 30 04:26 03.12.2021
5071 Rain 4 1000 88 6000 1.54 160 00:48 03.12.2021
5072 Rain 4 1000 89 8000 1.54 180 23:47 02.12.2021
5073 Clear 4 1000 89 10000 1.03 0 21:57 02.12.2021
5074 Clear 5 998 86 10000 1.34 283 21:30 02.12.2021
5075 Clear 5 999 88 10000 0.51 0 20:40 02.12.2021
5076 Clear 5 999 88 10000 0.51 0 19:43 02.12.2021
5077 Clear 5 998 86 10000 1.54 190 18:33 02.12.2021
5078 Clear 6 996 80 10000 2.24 183 18:33 02.12.2021
5079 Clouds 9 996 70 10000 1.79 239 15:43 02.12.2021
5080 Clouds 9 996 70 10000 0.45 251 15:20 02.12.2021
5081 Clouds 9 996 69 10000 1.79 239 14:43 02.12.2021
5082 Clouds 9 997 71 8000 2.24 250 12:53 02.12.2021
5083 Clouds 8 997 72 8000 2.68 245 12:18 02.12.2021
5084 Clouds 6 1000 82 8000 2.06 260 10:36 02.12.2021
5085 Mist 5 1000 87 5000 2.68 255 08:55 02.12.2021
5086 Clouds 5 1000 84 6000 1.79 224 05:34 02.12.2021
5087 Clouds 5 1002 79 10000 0.45 181 00:53 02.12.2021
5088 Drizzle 6 1003 77 10000 0.89 127 23:28 01.12.2021
5089 Drizzle 6 1004 75 10000 0.89 108 22:24 01.12.2021
5090 Drizzle 6 1005 71 10000 0.45 70 20:53 01.12.2021
5091 Clouds 6 1005 70 10000 2.24 61 19:58 01.12.2021
5092 Clouds 6 1005 69 10000 2.24 54 19:28 01.12.2021
5093 Clouds 7 1006 66 10000 3.13 89 17:50 01.12.2021
5094 Clouds 7 1006 65 10000 0.45 53 16:50 01.12.2021
5095 Clouds 7 1007 64 10000 1.34 81 14:54 01.12.2021
5096 Clouds 7 1009 62 10000 1.79 59 13:46 01.12.2021
5097 Clouds 7 1009 60 10000 0.89 109 12:51 01.12.2021
5098 Clear 7 1011 60 10000 0.89 96 10:43 01.12.2021
5099 Clear 5 1011 68 10000 0.51 0 09:25 01.12.2021
5100 Clear 3 1011 68 10000 1.54 160 08:30 01.12.2021
5101 Clear 3 1011 68 10000 1.79 17 07:34 01.12.2021
5102 Clear 3 1011 64 10000 1.34 359 06:59 01.12.2021
5103 Clear 4 1011 62 10000 1.79 345 03:46 01.12.2021
5104 Clear 4 1013 55 10000 2.24 353 01:59 01.12.2021
5105 Clear 4 1014 53 10000 1.79 15 23:55 30.11.2021
5106 Clear 4 1013 53 10000 1.79 3 23:26 30.11.2021
5107 Clear 5 1014 49 10000 1.79 356 21:40 30.11.2021
5108 Clear 5 1014 46 10000 2.24 295 20:45 30.11.2021
5109 Clear 5 1014 43 10000 2.68 301 20:19 30.11.2021
5110 Clear 5 1014 41 10000 2.68 309 19:38 30.11.2021
5111 Clear 6 1014 40 10000 2.68 310 18:37 30.11.2021
5112 Clear 8 1014 31 10000 3.13 304 16:50 30.11.2021
5113 Clear 9 1014 29 10000 0.89 352 15:44 30.11.2021
5114 Clouds 10 1015 29 10000 0.45 19 14:20 30.11.2021
5115 Clear 9 1014 33 10000 1.34 351 13:27 30.11.2021
5116 Clear 9 1015 38 10000 0.45 13 12:46 30.11.2021
5117 Clear 8 1016 37 10000 0.45 256 11:50 30.11.2021
5118 Clear 7 1018 50 10000 3.6 270 11:23 30.11.2021
5119 Clear 5 1017 52 10000 1.34 249 10:33 30.11.2021
5120 Clear 2 1016 58 10000 1.79 242 08:53 30.11.2021
5121 Clear 1 1016 60 10000 1.79 231 08:26 30.11.2021
5122 Clear 1 1015 57 10000 2.68 239 07:47 30.11.2021
5123 Clear 4 1015 38 10000 2.57 170 02:41 30.11.2021
5124 Clear 5 1013 36 10000 2.06 300 01:42 30.11.2021
5125 Clear 5 1011 35 10000 4.02 319 00:33 30.11.2021
5126 Clear 5 1011 32 10000 0.45 354 23:24 29.11.2021
5127 Clear 5 1010 30 10000 1.34 338 22:56 29.11.2021
5128 Clear 5 1010 31 10000 0.45 349 22:33 29.11.2021
5129 Clear 6 1009 29 10000 4.02 333 21:30 29.11.2021
5130 Clear 6 1009 28 10000 0.45 349 20:59 29.11.2021
5131 Clear 6 1008 28 10000 2.68 342 20:32 29.11.2021
5132 Clear 7 1007 27 10000 0.89 354 19:56 29.11.2021
5133 Clear 7 1007 27 10000 0.89 354 19:36 29.11.2021
5134 Clear 7 1006 28 10000 1.34 331 18:51 29.11.2021
5135 Clouds 7 1006 28 10000 5.75 330 17:49 29.11.2021
5136 Clouds 8 1004 29 10000 4.92 329 17:18 29.11.2021
5137 Clouds 8 1004 29 10000 4.92 329 17:18 29.11.2021
5138 Clouds 8 1003 32 10000 3.19 331 16:29 29.11.2021
5139 Clouds 8 1003 32 10000 3.19 331 15:50 29.11.2021
5140 Clouds 9 1003 34 10000 1.63 327 14:43 29.11.2021
5141 Clouds 8 1002 36 10000 0.79 268 13:33 29.11.2021
5142 Clouds 6 1002 43 10000 0.75 252 12:28 29.11.2021
5143 Clouds 6 1002 43 10000 0.75 252 11:36 29.11.2021
5144 Clouds 6 1002 47 10000 0.21 6 10:41 29.11.2021
5145 Clouds 1 999 93 10000 0.51 0 09:34 29.11.2021
5146 Clear -1 996 93 10000 1.03 0 06:20 29.11.2021
5147 Clear 1 994 80 10000 0.51 0 01:43 29.11.2021
5148 Clouds 2 994 70 10000 2.06 270 00:40 29.11.2021
5149 Clouds 3 994 65 10000 2.57 310 23:44 28.11.2021
5150 Clear 1 993 93 10000 1.03 0 22:49 28.11.2021
5151 Clear 3 993 87 10000 1.03 0 21:47 28.11.2021
5152 Clear 2 993 93 10000 1.54 240 21:20 28.11.2021
5153 Clear 3 993 93 10000 2.06 280 20:23 28.11.2021
5154 Clouds 4 993 87 10000 0.51 0 18:46 28.11.2021
5155 Clouds 5 993 81 10000 1.54 90 18:27 28.11.2021
5156 Clouds 4 993 87 10000 0.51 0 17:54 28.11.2021
5157 Clouds 6 992 75 10000 2.57 70 17:31 28.11.2021
5158 Clouds 8 992 61 10000 1.54 330 16:28 28.11.2021
5159 Clouds 7 992 76 10000 3.6 360 15:58 28.11.2021
5160 Clouds 8 992 66 10000 5.14 340 15:24 28.11.2021
5161 Clouds 7 992 76 10000 5.14 20 14:43 28.11.2021
5162 Clouds 7 992 76 10000 2.57 360 12:58 28.11.2021
5163 Clouds 7 992 76 10000 2.57 320 12:29 28.11.2021
5164 Clouds 6 993 87 10000 2.06 250 10:53 28.11.2021
5165 Clouds 6 993 81 10000 0.51 0 10:20 28.11.2021
5166 Clouds 5 992 87 10000 1.03 0 09:36 28.11.2021
5167 Clouds 5 992 93 10000 3.09 10 06:29 28.11.2021
5168 Rain 7 992 93 5000 3.6 150 23:33 27.11.2021
5169 Rain 8 993 93 7000 3.09 120 20:44 27.11.2021
5170 Clouds 9 993 87 7000 1.54 100 18:57 27.11.2021
5171 Clouds 9 993 87 6000 1.03 0 16:52 27.11.2021
5172 Clouds 10 993 81 7000 0.51 0 15:55 27.11.2021
5173 Clouds 9 992 87 8000 1.54 70 13:47 27.11.2021
5174 Mist 8 993 87 5000 1.54 90 12:29 27.11.2021
5175 Mist 8 993 93 3000 1.03 0 10:32 27.11.2021
5176 Mist 7 992 100 2500 1.54 160 09:43 27.11.2021
5177 Fog 6 992 100 2000 1.03 210 08:40 27.11.2021
5178 Mist 6 991 100 5000 0.51 0 04:58 27.11.2021
5179 Clouds 7 991 87 10000 2.06 70 01:53 27.11.2021
5180 Clouds 8 992 87 10000 1.03 0 23:35 26.11.2021
5181 Clouds 8 993 87 10000 1.54 140 22:25 26.11.2021
5182 Clear 8 992 87 10000 1.54 140 21:35 26.11.2021
5183 Clear 7 992 87 10000 2.06 150 20:46 26.11.2021
5184 Clear 7 992 87 10000 2.06 140 20:18 26.11.2021
5185 Clear 7 993 93 10000 1.54 170 19:47 26.11.2021
5186 Clear 8 993 81 10000 1.03 260 17:57 26.11.2021
5187 Clear 9 993 81 10000 1.54 260 17:22 26.11.2021
5188 Clear 10 993 76 10000 1.54 260 15:56 26.11.2021
5189 Clear 9 993 78 10000 0.45 333 13:35 26.11.2021
5190 Clouds 8 994 83 10000 0.45 288 12:30 26.11.2021
5191 Mist 7 996 94 5000 3.13 251 10:38 26.11.2021
5192 Mist 6 997 95 4000 0.89 242 08:58 26.11.2021
5193 Mist 6 1000 96 3500 2.57 250 08:21 26.11.2021
5194 Mist 6 1000 96 5000 0.45 244 07:26 26.11.2021
5195 Mist 6 1001 96 3500 2.06 260 06:26 26.11.2021
5196 Mist 6 1003 96 3000 2.57 240 03:59 26.11.2021
5197 Mist 6 1004 97 2000 2.57 240 01:55 26.11.2021
5198 Mist 6 1007 96 3500 2.06 240 23:18 25.11.2021
5199 Mist 6 1008 95 5000 2.57 260 21:26 25.11.2021
5200 Clouds 6 1009 95 10000 2.2 257 20:27 25.11.2021
5201 Rain 6 1009 95 4000 2.06 260 18:47 25.11.2021
5202 Rain 6 1009 94 3000 2.06 260 17:47 25.11.2021
5203 Mist 6 1010 94 3000 2.06 250 17:25 25.11.2021
5204 Rain 6 1010 94 3000 0.89 24 16:33 25.11.2021
5205 Rain 6 1009 91 3000 1.79 220 14:59 25.11.2021
5206 Rain 6 1010 90 3500 1.34 244 13:37 25.11.2021
5207 Rain 7 1012 90 5000 0.45 292 12:25 25.11.2021
5208 Rain 7 1012 89 6000 1.79 302 11:49 25.11.2021
5209 Rain 7 1013 76 10000 1.79 181 09:26 25.11.2021
5210 Clouds 6 1013 79 10000 1.79 57 06:18 25.11.2021
5211 Clouds 6 1015 78 10000 0.45 77 02:49 25.11.2021
5212 Clear 6 1017 77 10000 1.03 0 22:57 24.11.2021
5213 Clear 6 1017 79 10000 0.51 0 22:24 24.11.2021
5214 Clear 6 1017 78 10000 1.54 20 21:32 24.11.2021
5215 Clear 7 1018 78 10000 0.89 81 20:50 24.11.2021
5216 Clear 7 1019 84 10000 1.03 30 20:19 24.11.2021
5217 Clear 8 1018 74 10000 1.54 150 18:30 24.11.2021
5218 Clear 9 1018 71 10000 0.45 136 17:53 24.11.2021
5219 Clear 12 1019 59 10000 1.79 148 15:23 24.11.2021
5220 Clear 12 1019 59 10000 1.34 126 14:47 24.11.2021
5221 Clear 12 1020 58 10000 0.89 130 14:19 24.11.2021
5222 Clear 11 1020 63 10000 2.24 135 12:28 24.11.2021
5223 Clear 10 1022 69 10000 0.45 107 11:20 24.11.2021
5224 Clear 10 1022 76 10000 0.89 166 10:47 24.11.2021
5225 Clear 9 1022 82 10000 1.03 0 10:21 24.11.2021
5226 Fog 5 1022 89 9000 0.45 82 07:52 24.11.2021
5227 Clear 5 1023 93 10000 1.03 360 06:54 24.11.2021
5228 Clouds 6 1024 91 10000 1.03 10 03:50 24.11.2021
5229 Clouds 7 1023 80 10000 0.51 200 00:32 24.11.2021
5230 Clouds 8 1023 78 10000 0.51 30 22:39 23.11.2021
5231 Clouds 8 1023 80 10000 0.51 0 21:54 23.11.2021
5232 Clouds 9 1023 79 10000 0.51 330 21:35 23.11.2021
5233 Clouds 9 1023 73 10000 1.03 300 19:37 23.11.2021
5234 Clouds 9 1023 72 10000 1.03 200 18:39 23.11.2021
5235 Clouds 10 1023 69 10000 1.54 190 17:57 23.11.2021
5236 Clouds 11 1022 63 10000 0.45 145 16:55 23.11.2021
5237 Clouds 12 1022 60 10000 1.79 146 15:59 23.11.2021
5238 Clouds 12 1023 62 10000 2.57 140 15:19 23.11.2021
5239 Clouds 12 1024 64 10000 1.54 60 13:46 23.11.2021
5240 Clouds 11 1023 60 10000 1.79 50 11:40 23.11.2021
5241 Clouds 10 1022 76 10000 2.57 40 09:59 23.11.2021
5242 Clouds 9 1021 82 10000 2.24 52 08:44 23.11.2021
5243 Clouds 9 1019 88 10000 2.24 66 05:57 23.11.2021
5244 Rain 10 1019 96 10000 2.57 60 03:42 23.11.2021
5245 Rain 9 1017 95 4100 0 0 00:28 23.11.2021
5246 Rain 9 1017 96 10000 0.51 0 23:20 22.11.2021
5247 Clouds 9 1016 96 10000 1.03 0 22:32 22.11.2021
5248 Clouds 9 1016 96 10000 1.54 250 21:46 22.11.2021
5249 Clouds 9 1016 96 10000 1.03 240 21:26 22.11.2021
5250 Clouds 9 1015 96 10000 1.03 240 20:50 22.11.2021
5251 Clouds 9 1015 95 10000 1.54 260 19:31 22.11.2021
5252 Clouds 9 1014 95 10000 1.03 0 18:58 22.11.2021
5253 Clouds 9 1014 94 10000 1.03 0 18:35 22.11.2021
5254 Clouds 10 1013 94 8000 1.03 200 16:56 22.11.2021
5255 Clouds 10 1012 92 8000 1.03 0 15:42 22.11.2021
5256 Rain 10 1013 93 3000 1.03 0 12:56 22.11.2021
5257 Rain 9 1013 95 3000 0.51 0 11:39 22.11.2021
5258 Rain 8 1013 96 3000 1.54 10 10:36 22.11.2021
5259 Rain 7 1012 95 2500 1.54 30 08:46 22.11.2021
5260 Rain 7 1012 96 3000 1.54 40 08:25 22.11.2021
5261 Rain 7 1011 96 6000 2.57 100 02:31 22.11.2021
5262 Rain 8 1009 97 2000 2.24 77 23:22 21.11.2021
5263 Rain 8 1008 95 1500 2.68 90 22:46 21.11.2021
5264 Mist 8 1008 94 3000 3.13 66 21:33 21.11.2021
5265 Mist 9 1008 93 3000 1.34 106 20:38 21.11.2021
5266 Mist 9 1009 94 3000 2.68 108 19:45 21.11.2021
5267 Clouds 9 1009 91 7000 2.24 89 17:59 21.11.2021
5268 Clouds 9 1009 90 7000 1.34 128 17:37 21.11.2021
5269 Clouds 9 1009 90 7000 3.13 82 17:37 21.11.2021
5270 Mist 11 1008 90 4000 1.54 180 15:22 21.11.2021
5271 Mist 10 1008 90 4000 1.03 0 14:43 21.11.2021
5272 Mist 11 1010 96 5000 1.34 223 13:31 21.11.2021
5273 Mist 10 1010 99 3000 0.45 237 12:27 21.11.2021
5274 Fog 10 1011 99 1800 1.79 230 11:39 21.11.2021
5275 Fog 8 1011 99 1500 0.45 238 10:20 21.11.2021
5276 Fog 8 1011 99 1500 0.89 296 09:47 21.11.2021
5277 Mist 6 1013 98 2500 1.54 240 08:34 21.11.2021
5278 Fog 6 1014 98 2500 0.45 288 07:54 21.11.2021
5279 Fog 5 1015 97 2500 1.03 0 07:33 21.11.2021
5280 Fog 6 1013 98 500 0.89 241 05:43 21.11.2021
5281 Fog 6 1014 97 500 0.89 266 04:35 21.11.2021
5282 Fog 7 1015 97 600 1.03 0 02:57 21.11.2021
5283 Fog 7 1015 97 600 0.45 291 02:33 21.11.2021
5284 Fog 7 1017 97 600 1.79 264 00:51 21.11.2021
5285 Fog 7 1017 97 800 1.03 0 22:55 20.11.2021
5286 Fog 8 1017 98 1500 0.89 225 21:34 20.11.2021
5287 Fog 8 1018 98 800 1.54 220 20:33 20.11.2021
5288 Fog 8 1018 99 700 1.34 271 18:45 20.11.2021
5289 Fog 8 1018 99 700 1.34 271 18:45 20.11.2021
5290 Fog 9 1018 99 1200 1.34 255 18:24 20.11.2021
5291 Mist 9 1018 96 3000 2.68 226 17:22 20.11.2021
5292 Clouds 11 1019 89 6000 0.89 245 15:40 20.11.2021
5293 Clouds 11 1023 93 6000 2.57 240 14:39 20.11.2021
5294 Clouds 11 1023 93 6000 2.57 240 14:39 20.11.2021
5295 Clouds 11 1023 93 6000 1.54 230 14:20 20.11.2021
5296 Clouds 9 1023 95 6000 1.79 263 11:56 20.11.2021
5297 Mist 8 1024 96 4000 0.45 232 09:59 20.11.2021
5298 Mist 7 1026 95 2000 2.06 230 08:48 20.11.2021
5299 Mist 7 1026 96 2500 1.54 220 06:57 20.11.2021
5300 Mist 8 1026 95 2500 1.54 230 05:21 20.11.2021
5301 Mist 8 1027 95 5000 1.54 220 04:50 20.11.2021
5302 Mist 9 1027 92 5000 2.06 250 00:45 20.11.2021
5303 Mist 9 1027 92 5000 2.24 235 00:26 20.11.2021
5304 Clouds 9 1027 91 7000 1.34 233 22:54 19.11.2021
5305 Clouds 9 1028 92 9000 1.54 240 21:36 19.11.2021
5306 Clouds 9 1027 91 9000 2.68 240 20:54 19.11.2021
5307 Clouds 9 1027 91 9000 2.68 241 20:35 19.11.2021
5308 Clouds 9 1027 91 9000 2.68 231 19:49 19.11.2021
5309 Clouds 10 1027 90 9000 2.68 242 18:50 19.11.2021
5310 Clouds 10 1028 91 9000 2.57 230 18:18 19.11.2021
5311 Clouds 11 1027 87 7000 2.68 235 16:47 19.11.2021
5312 Clouds 12 1027 87 7000 3.58 236 15:31 19.11.2021
5313 Mist 11 1027 91 5000 1.34 252 12:53 19.11.2021
5314 Mist 10 1029 95 2500 2.24 240 10:26 19.11.2021
5315 Mist 10 1029 96 2500 1.54 250 08:39 19.11.2021
5316 Mist 10 1029 95 3000 1.54 240 07:33 19.11.2021
5317 Mist 10 1028 96 2500 2.57 260 04:24 19.11.2021
5318 Mist 10 1029 94 4000 2.06 260 01:24 19.11.2021
5319 Clouds 10 1029 94 6000 1.54 270 23:44 18.11.2021
5320 Clouds 11 1028 93 6000 1.03 0 21:41 18.11.2021
5321 Clouds 11 1028 93 7000 1.03 250 20:47 18.11.2021
5322 Clouds 11 1028 93 7000 0.45 202 20:29 18.11.2021
5323 Clouds 11 1028 92 7000 0.45 148 19:43 18.11.2021
5324 Clouds 11 1027 90 7000 1.34 169 18:40 18.11.2021
5325 Clouds 11 1026 89 7000 1.79 189 17:58 18.11.2021
5326 Clouds 12 1026 86 7000 1.79 202 17:36 18.11.2021
5327 Clear 13 1025 83 10000 1.79 209 16:43 18.11.2021
5328 Clouds 15 1025 76 8000 2.24 236 15:24 18.11.2021
5329 Clouds 15 1024 75 8000 3.13 231 13:25 18.11.2021
5330 Clouds 14 1024 82 7000 1.34 236 11:45 18.11.2021
5331 Mist 13 1025 85 3000 2.24 233 11:26 18.11.2021
5332 Fog 12 1025 90 500 0.45 240 10:56 18.11.2021
5333 Fog 10 1025 96 200 1.54 210 09:32 18.11.2021
5334 Fog 8 1024 97 200 2.06 260 07:34 18.11.2021
5335 Fog 8 1023 96 1500 1.03 0 05:47 18.11.2021
5336 Mist 9 1022 95 2500 0.51 220 02:46 18.11.2021
5337 Mist 9 1022 94 3500 1.03 260 01:22 18.11.2021
5338 Clouds 10 1021 93 7000 1.03 210 22:41 17.11.2021
5339 Clouds 10 1021 93 7000 1.03 280 22:20 17.11.2021
5340 Clouds 10 1021 93 7000 1.03 280 22:20 17.11.2021
5341 Clouds 11 1021 93 8000 1.54 280 21:36 17.11.2021
5342 Clouds 11 1020 92 8000 2.06 260 20:18 17.11.2021
5343 Mist 11 1019 90 5000 1.54 230 17:48 17.11.2021
5344 Mist 12 1018 86 4500 2.06 250 17:23 17.11.2021
5345 Mist 12 1018 87 4500 0.45 244 17:23 17.11.2021
5346 Clouds 12 1018 84 6000 1.34 240 14:18 17.11.2021
5347 Mist 11 1019 87 5000 2.06 270 12:39 17.11.2021
5348 Mist 11 1020 94 3500 1.03 0 11:41 17.11.2021
5349 Mist 10 1020 94 3000 1.54 360 10:28 17.11.2021
5350 Mist 10 1019 96 2500 1.03 360 09:23 17.11.2021
5351 Drizzle 9 1018 95 4000 0.51 0 07:42 17.11.2021
5352 Mist 9 1018 95 1700 1.03 190 03:35 17.11.2021
5353 Mist 9 1019 94 1600 1.03 0 00:47 17.11.2021
5354 Rain 9 1020 94 3500 0.51 0 22:44 16.11.2021
5355 Rain 10 1019 87 9000 2.68 175 20:20 16.11.2021
5356 Rain 10 1018 87 9000 1.03 190 19:59 16.11.2021
5357 Drizzle 10 1019 82 9000 1.34 146 18:53 16.11.2021
5358 Drizzle 11 1019 81 8000 2.24 152 18:30 16.11.2021
5359 Drizzle 11 1018 81 7000 2.68 177 17:34 16.11.2021
5360 Rain 12 1019 71 7000 0.45 140 16:32 16.11.2021
5361 Clouds 12 1019 74 7000 3.09 120 15:49 16.11.2021
5362 Clouds 13 1021 73 7000 3.09 120 14:31 16.11.2021
5363 Clouds 13 1020 69 9000 1.79 114 11:28 16.11.2021
5364 Clouds 11 1020 86 8000 1.03 0 09:46 16.11.2021
5365 Fog 9 1020 96 6000 0.51 0 08:26 16.11.2021
5366 Fog 9 1021 96 7000 0.51 0 07:31 16.11.2021
5367 Fog 10 1021 94 6000 1.03 0 01:38 16.11.2021
5368 Clouds 11 1021 94 10000 1.03 0 22:52 15.11.2021
5369 Clouds 11 1021 94 10000 2.06 360 22:21 15.11.2021
5370 Rain 11 1021 94 10000 2.06 10 21:52 15.11.2021
5371 Clouds 11 1021 95 10000 1.03 0 21:26 15.11.2021
5372 Clouds 11 1021 95 10000 1.03 0 19:41 15.11.2021
5373 Rain 11 1021 94 10000 2.06 30 18:18 15.11.2021
5374 Clouds 12 1020 93 10000 1.03 0 16:19 15.11.2021
5375 Clouds 12 1019 90 10000 1.34 36 15:40 15.11.2021
5376 Clouds 12 1019 90 8000 2.06 40 15:20 15.11.2021
5377 Rain 11 1020 94 5000 2.06 40 12:47 15.11.2021
5378 Rain 11 1019 94 8000 1.54 320 10:54 15.11.2021
5379 Rain 10 1019 95 8000 2.06 350 09:26 15.11.2021
5380 Rain 10 1019 95 10000 1.54 20 07:45 15.11.2021
5381 Rain 10 1017 92 10000 0.89 42 04:45 15.11.2021
5382 Rain 10 1018 95 10000 2.57 40 22:47 14.11.2021
5383 Rain 10 1018 95 10000 2.06 50 22:28 14.11.2021
5384 Clouds 10 1017 94 10000 0.45 333 19:51 14.11.2021
5385 Rain 10 1017 94 10000 2.68 358 19:18 14.11.2021
5386 Rain 10 1017 94 10000 0.89 337 18:54 14.11.2021
5387 Clouds 10 1016 94 10000 0.45 21 18:36 14.11.2021
5388 Rain 10 1016 95 8000 1.34 34 18:18 14.11.2021
5389 Rain 10 1016 95 7000 2.68 39 17:54 14.11.2021
5390 Rain 10 1016 95 5000 0.89 15 17:36 14.11.2021
5391 Rain 10 1016 95 5000 2.68 37 17:18 14.11.2021
5392 Rain 10 1015 95 5000 1.79 7 16:43 14.11.2021
5393 Rain 10 1015 95 6000 1.34 349 16:19 14.11.2021
5394 Rain 10 1015 95 5000 2.06 20 15:21 14.11.2021
5395 Rain 10 1015 95 9000 1.34 354 14:45 14.11.2021
5396 Drizzle 10 1015 94 6000 1.34 23 14:22 14.11.2021
5397 Mist 10 1015 94 3500 0.45 5 13:52 14.11.2021
5398 Mist 10 1014 95 5000 3.6 40 13:28 14.11.2021
5399 Rain 10 1014 96 3000 3.09 50 12:23 14.11.2021
5400 Drizzle 11 1014 96 5000 2.57 50 11:28 14.11.2021
5401 Mist 11 1014 96 5000 2.06 50 10:39 14.11.2021
5402 Drizzle 10 1014 96 7000 3.6 30 09:41 14.11.2021
5403 Rain 10 1013 96 7000 3.09 30 08:51 14.11.2021
5404 Mist 11 1013 97 5000 2.06 60 04:47 14.11.2021
5405 Rain 11 1014 96 3000 2.57 40 23:20 13.11.2021
5406 Mist 11 1014 96 2000 3.09 110 22:20 13.11.2021
5407 Rain 11 1015 95 2000 1.79 46 21:35 13.11.2021
5408 Rain 11 1015 95 3000 1.79 46 20:46 13.11.2021
5409 Rain 11 1015 94 3000 1.79 86 19:32 13.11.2021
5410 Mist 12 1014 92 4000 1.79 65 18:32 13.11.2021
5411 Mist 12 1014 91 3000 1.34 106 17:41 13.11.2021
5412 Mist 13 1014 86 4000 2.24 174 15:55 13.11.2021
5413 Mist 14 1015 83 4000 1.34 181 14:45 13.11.2021
5414 Mist 14 1015 84 4000 0.89 86 13:47 13.11.2021
5415 Clouds 14 1016 81 10000 0.45 171 12:43 13.11.2021
5416 Clouds 13 1016 85 10000 0.45 176 11:48 13.11.2021
5417 Mist 13 1016 89 2000 0.89 242 11:21 13.11.2021
5418 Fog 11 1016 93 600 0.89 231 10:33 13.11.2021
5419 Fog 11 1017 96 450 1.79 264 09:47 13.11.2021
5420 Fog 10 1017 96 450 1.03 0 09:22 13.11.2021
5421 Fog 9 1017 97 800 1.03 0 08:48 13.11.2021
5422 Fog 9 1018 96 1200 0.51 0 07:51 13.11.2021
5423 Fog 9 1018 96 650 1.03 0 04:43 13.11.2021
5424 Fog 9 1018 96 650 1.03 0 04:20 13.11.2021
5425 Fog 9 1019 95 200 1.03 0 23:35 12.11.2021
5426 Fog 9 1019 95 800 0.51 0 21:56 12.11.2021
5427 Fog 10 1019 93 1600 1.54 260 20:47 12.11.2021
5428 Mist 11 1018 90 5000 1.79 230 19:32 12.11.2021
5429 Mist 11 1018 90 5000 1.54 240 18:57 12.11.2021
5430 Mist 11 1018 90 5000 1.54 240 18:57 12.11.2021
5431 Mist 12 1018 88 4500 0.89 235 18:19 12.11.2021
5432 Clear 16 1017 66 10000 0.89 179 15:55 12.11.2021
5433 Clear 17 1017 64 10000 2.57 120 13:27 12.11.2021
5434 Clear 15 1019 76 10000 2.68 174 11:24 12.11.2021
5435 Clouds 12 1019 91 6000 1.54 30 10:20 12.11.2021
5436 Clouds 12 1019 91 6000 1.54 30 10:20 12.11.2021
5437 Fog 9 1019 95 3000 1.03 0 08:55 12.11.2021
5438 Fog 8 1018 97 100 0.51 0 06:37 12.11.2021
5439 Clouds 10 1020 96 10000 1.03 300 00:21 12.11.2021
5440 Clouds 10 1021 95 10000 1.03 320 23:27 11.11.2021
5441 Clear 10 1021 95 10000 0.51 0 22:21 11.11.2021
5442 Clouds 11 1021 93 10000 1.54 260 21:26 11.11.2021
5443 Clouds 12 1022 91 10000 1.03 0 19:56 11.11.2021
5444 Clouds 12 1021 88 8000 1.34 258 18:27 11.11.2021
5445 Clouds 12 1021 88 8000 1.79 173 18:27 11.11.2021
5446 Clouds 13 1021 86 7000 1.79 240 17:41 11.11.2021
5447 Clouds 15 1021 81 7000 2.68 189 15:29 11.11.2021
5448 Clouds 15 1021 76 7000 2.68 234 14:39 11.11.2021
5449 Clouds 15 1021 76 7000 2.68 229 14:20 11.11.2021
5450 Clouds 14 1022 80 6000 1.34 229 13:35 11.11.2021
5451 Clouds 14 1023 83 6000 0.45 12 12:26 11.11.2021
5452 Clouds 12 1024 89 7000 1.79 216 09:55 11.11.2021
5453 Clouds 12 1024 90 6000 3.13 190 09:22 11.11.2021
5454 Clouds 11 1025 93 7000 0.51 0 06:55 11.11.2021
5455 Clouds 11 1025 88 10000 1.03 170 00:38 11.11.2021
5456 Clouds 11 1025 87 10000 0.89 1 22:42 10.11.2021
5457 Clouds 11 1026 87 10000 1.54 270 21:53 10.11.2021
5458 Clouds 11 1025 86 10000 1.54 270 20:55 10.11.2021
5459 Clouds 12 1025 84 10000 1.34 218 19:55 10.11.2021
5460 Clouds 12 1025 84 10000 0.89 228 19:35 10.11.2021
5461 Clouds 12 1024 75 10000 1.54 230 17:19 10.11.2021
5462 Clouds 14 1024 71 10000 0.89 286 15:46 10.11.2021
5463 Clouds 13 1024 69 10000 3.13 305 14:24 10.11.2021
5464 Clouds 13 1026 70 10000 1.79 233 13:31 10.11.2021
5465 Clouds 13 1027 73 10000 1.34 236 11:40 10.11.2021
5466 Clouds 10 1028 84 10000 2.68 297 09:18 10.11.2021
5467 Clouds 10 1028 86 10000 0.45 15 08:40 10.11.2021
5468 Clouds 10 1028 89 10000 1.34 263 06:44 10.11.2021
5469 Clouds 10 1027 88 10000 0.89 279 05:57 10.11.2021
5470 Clouds 10 1028 80 10000 1.03 360 01:44 10.11.2021
5471 Clouds 10 1028 76 10000 1.79 58 21:59 09.11.2021
5472 Clouds 10 1027 74 10000 1.54 340 20:34 09.11.2021
5473 Clouds 11 1027 73 10000 1.79 6 19:28 09.11.2021
5474 Clouds 11 1027 71 10000 0.89 345 18:47 09.11.2021
5475 Clouds 12 1027 65 10000 1.79 309 16:29 09.11.2021
5476 Clouds 12 1026 63 10000 1.34 316 15:20 09.11.2021
5477 Clouds 12 1026 65 10000 2.68 129 13:31 09.11.2021
5478 Clouds 12 1025 68 10000 1.34 131 12:24 09.11.2021
5479 Clouds 11 1026 75 10000 1.79 111 10:53 09.11.2021
5480 Clear 9 1024 84 10000 2.24 108 09:43 09.11.2021
5481 Fog 7 1024 89 10000 1.03 40 08:42 09.11.2021
5482 Fog 6 1022 90 1500 1.03 30 06:51 09.11.2021
5483 Clouds 8 1021 88 10000 0.51 0 02:32 09.11.2021
5484 Clouds 8 1021 88 10000 1.54 330 01:50 09.11.2021
5485 Clouds 9 1020 86 10000 0.45 7 00:22 09.11.2021
5486 Clouds 9 1020 87 10000 2.24 24 23:28 08.11.2021
5487 Clouds 8 1020 88 10000 2.24 5 22:35 08.11.2021
5488 Clouds 8 1020 89 10000 0.45 1 21:22 08.11.2021
5489 Clouds 8 1020 92 10000 0.51 290 20:31 08.11.2021
5490 Clouds 9 1019 93 10000 0.51 360 19:18 08.11.2021
5491 Clouds 9 1019 92 7000 1.54 340 17:35 08.11.2021
5492 Clouds 10 1018 90 8000 1.79 341 15:38 08.11.2021
5493 Clouds 10 1018 88 8000 2.06 30 14:55 08.11.2021
5494 Clouds 10 1018 87 8000 1.34 55 13:59 08.11.2021
5495 Clouds 10 1018 86 7000 2.06 60 12:48 08.11.2021
5496 Clouds 10 1017 82 10000 0.89 92 11:37 08.11.2021
5497 Clouds 10 1016 82 10000 2.68 70 10:35 08.11.2021
5498 Clouds 8 1014 80 10000 1.34 75 08:56 08.11.2021
5499 Clouds 7 1014 84 10000 2.24 102 07:47 08.11.2021
5500 Clouds 6 1013 87 10000 1.54 200 06:54 08.11.2021
5501 Clear 6 1013 86 10000 2.24 162 03:35 08.11.2021
5502 Clear 7 1016 80 10000 1.03 0 23:51 07.11.2021
5503 Clouds 7 1016 78 10000 1.03 0 22:30 07.11.2021
5504 Clouds 7 1015 77 10000 2.24 292 21:22 07.11.2021
5505 Clear 8 1016 72 10000 0.45 285 19:55 07.11.2021
5506 Clear 10 1016 67 10000 1.79 257 18:26 07.11.2021
5507 Clear 11 1016 65 10000 0.45 197 17:38 07.11.2021
5508 Clear 14 1017 46 10000 0.89 285 15:55 07.11.2021
5509 Clear 14 1017 46 10000 1.34 328 14:42 07.11.2021
5510 Clear 14 1018 47 10000 1.79 260 13:55 07.11.2021
5511 Clear 13 1020 49 10000 0.45 187 11:53 07.11.2021
5512 Clear 9 1021 62 10000 0.89 264 10:19 07.11.2021
5513 Clear 6 1022 79 10000 2.57 190 08:48 07.11.2021
5514 Clear 5 1023 78 10000 1.03 340 02:46 07.11.2021
5515 Clear 6 1024 83 10000 0.51 0 23:42 06.11.2021
5516 Clear 6 1024 77 10000 1.54 330 22:52 06.11.2021
5517 Clear 7 1024 75 10000 1.79 22 21:36 06.11.2021
5518 Clear 8 1024 70 10000 1.54 10 20:52 06.11.2021
5519 Clear 9 1024 66 10000 0.45 221 19:36 06.11.2021
5520 Clear 12 1024 52 10000 0.89 226 17:18 06.11.2021
5521 Clear 14 1024 43 10000 0.89 315 15:31 06.11.2021
5522 Clear 14 1025 43 10000 0.45 190 13:39 06.11.2021
5523 Clear 13 1025 44 10000 1.34 170 12:29 06.11.2021
5524 Clear 8 1027 67 10000 0.51 0 09:39 06.11.2021
5525 Clear 5 1026 74 10000 2.24 18 07:57 06.11.2021
5526 Clear 6 1024 83 10000 0.45 214 03:20 06.11.2021
5527 Clear 7 1023 78 10000 0.45 211 23:38 05.11.2021
5528 Clear 7 1023 79 10000 0.45 0 22:50 05.11.2021
5529 Clear 8 1022 77 10000 1.34 45 21:54 05.11.2021
5530 Clear 8 1021 74 10000 0.89 330 20:20 05.11.2021
5531 Clear 9 1021 72 10000 0.45 282 19:48 05.11.2021
5532 Clear 10 1020 67 10000 1.34 217 18:41 05.11.2021
5533 Clear 12 1020 61 10000 0.89 243 17:30 05.11.2021
5534 Clear 14 1019 49 10000 0.89 80 15:48 05.11.2021
5535 Clear 14 1019 53 10000 1.34 216 13:55 05.11.2021
5536 Clear 12 1018 63 10000 0.45 230 11:31 05.11.2021
5537 Fog 6 1017 81 10000 0.51 0 08:41 05.11.2021
5538 Fog 5 1016 84 900 1.34 309 07:39 05.11.2021
5539 Fog 5 1016 84 10000 0.45 320 07:39 05.11.2021
5540 Clouds 5 1015 83 7000 1.34 193 05:33 05.11.2021
5541 Clear 6 1015 83 10000 1.34 185 05:33 05.11.2021
5542 Clear 6 1014 87 10000 1.03 350 02:26 05.11.2021
5543 Clouds 7 1014 89 10000 1.03 20 00:52 05.11.2021
5544 Clear 8 1012 84 10000 0.45 21 23:24 04.11.2021
5545 Clear 8 1012 79 10000 0.89 37 22:19 04.11.2021
5546 Clear 8 1012 77 10000 1.03 0 21:38 04.11.2021
5547 Clear 9 1010 76 10000 1.03 0 20:50 04.11.2021
5548 Clear 9 1010 74 10000 1.03 0 20:22 04.11.2021
5549 Clear 9 1010 76 10000 0.51 250 19:47 04.11.2021
5550 Clouds 11 1009 75 10000 1.79 203 18:44 04.11.2021
5551 Clouds 11 1008 72 10000 1.79 207 18:18 04.11.2021
5552 Clouds 14 1008 58 10000 2.24 188 16:47 04.11.2021
5553 Clear 15 1006 58 10000 2.68 219 14:42 04.11.2021
5554 Clouds 13 1005 67 10000 0.45 348 12:32 04.11.2021
5555 Clear 10 1002 83 10000 0.45 17 09:37 04.11.2021
5556 Clouds 8 1003 93 10000 0.89 231 08:31 04.11.2021
5557 Clouds 7 1002 93 10000 1.03 0 07:34 04.11.2021
5558 Rain 8 997 96 7000 0.89 267 02:37 04.11.2021
5559 Rain 10 997 96 5000 0.89 252 22:50 03.11.2021
5560 Rain 10 998 97 5000 1.54 230 21:49 03.11.2021
5561 Mist 10 998 97 5000 0.89 213 21:30 03.11.2021
5562 Rain 11 998 97 10000 0.89 76 20:35 03.11.2021
5563 Clouds 11 998 97 10000 0.45 80 19:58 03.11.2021
5564 Clouds 11 998 96 10000 0.45 82 18:57 03.11.2021
5565 Rain 11 998 96 10000 1.34 43 18:23 03.11.2021
5566 Rain 11 998 96 7000 1.34 38 17:36 03.11.2021
5567 Mist 11 999 95 5000 0.45 49 16:26 03.11.2021
5568 Clouds 11 999 95 6000 1.54 110 15:43 03.11.2021
5569 Mist 11 1000 96 2500 0.45 23 13:55 03.11.2021
5570 Rain 11 1003 94 5000 1.79 41 11:54 03.11.2021
5571 Rain 11 1002 93 5000 0.45 172 11:25 03.11.2021
5572 Rain 11 1003 94 6000 0.89 53 10:41 03.11.2021
5573 Rain 10 1004 94 5000 2.68 55 09:30 03.11.2021
5574 Mist 10 1003 92 5000 1.34 54 08:22 03.11.2021
5575 Clouds 10 1004 91 7000 1.34 54 07:39 03.11.2021
5576 Clear 11 1003 81 10000 3.58 99 04:45 03.11.2021
5577 Clear 10 1004 85 10000 2.68 90 02:28 03.11.2021
5578 Clear 11 1004 86 10000 2.24 71 23:47 02.11.2021
5579 Clear 11 1005 92 10000 0.89 24 22:35 02.11.2021
5580 Clear 10 1005 93 10000 0.89 24 21:25 02.11.2021
5581 Clear 10 1005 93 10000 0.89 22 20:32 02.11.2021
5582 Clear 10 1004 94 10000 0.45 44 19:47 02.11.2021
5583 Clear 10 1004 92 10000 0.45 53 18:51 02.11.2021
5584 Clear 11 1002 86 10000 2.06 130 17:58 02.11.2021
5585 Clear 12 1002 85 10000 0.45 79 17:32 02.11.2021
5586 Clear 13 1000 79 10000 1.79 61 16:29 02.11.2021
5587 Clouds 14 999 77 10000 2.24 197 15:26 02.11.2021
5588 Clouds 16 1000 74 10000 0.45 55 14:18 02.11.2021
5589 Clear 16 1000 64 10000 1.34 69 13:27 02.11.2021
5590 Clear 15 1001 68 10000 0.89 73 12:33 02.11.2021
5591 Clear 14 999 75 10000 2.68 170 11:31 02.11.2021
5592 Clear 13 998 80 10000 2.68 175 10:51 02.11.2021
5593 Clear 12 998 82 10000 0.45 171 10:23 02.11.2021
5594 Fog 9 999 95 50 1.03 0 08:42 02.11.2021
5595 Fog 7 997 98 800 1.34 352 06:42 02.11.2021
5596 Fog 7 1001 98 100 1.54 260 03:33 02.11.2021
5597 Mist 8 1000 97 3700 0.45 227 00:58 02.11.2021
5598 Clear 9 1001 95 10000 1.79 231 22:28 01.11.2021
5599 Clouds 10 1001 94 10000 3.13 283 20:50 01.11.2021
5600 Clouds 10 1001 95 10000 3.13 264 20:32 01.11.2021
5601 Clouds 11 1002 95 10000 2.68 304 19:44 01.11.2021
5602 Clouds 11 1001 95 8000 0.89 265 18:55 01.11.2021
5603 Mist 11 1002 96 3000 0.45 304 17:59 01.11.2021
5604 Rain 11 1002 96 2500 1.34 310 17:18 01.11.2021
5605 Rain 11 1003 96 3000 0.89 304 16:33 01.11.2021
5606 Rain 10 1003 96 3000 1.34 257 15:40 01.11.2021
5607 Rain 11 1003 96 3000 1.03 0 15:19 01.11.2021
5608 Rain 11 1004 96 2500 0.45 328 14:39 01.11.2021
5609 Rain 11 1004 96 2500 1.79 331 14:19 01.11.2021
5610 Rain 11 1005 96 2500 3.58 326 14:19 01.11.2021
5611 Mist 11 1005 96 2500 3.58 326 14:19 01.11.2021
5612 Rain 11 1006 95 2500 1.34 30 12:50 01.11.2021
5613 Rain 11 1007 95 2500 1.34 59 11:39 01.11.2021
5614 Rain 11 1008 96 1800 2.57 110 10:20 01.11.2021
5615 Mist 11 1009 96 2000 1.03 0 08:20 01.11.2021
5616 Mist 11 1009 96 2000 1.54 90 07:46 01.11.2021
5617 Mist 11 1012 96 5000 0.51 0 03:55 01.11.2021
5618 Clouds 11 1014 95 6000 0.51 0 01:44 01.11.2021
5619 Mist 11 1015 94 5000 0.51 210 23:30 31.10.2021
5620 Clouds 11 1015 95 6000 1.54 260 20:58 31.10.2021
5621 Clouds 11 1015 95 6000 1.54 260 20:58 31.10.2021
5622 Clouds 11 1016 94 7000 1.03 0 19:49 31.10.2021
5623 Clouds 11 1016 94 10000 1.03 200 18:43 31.10.2021
5624 Clouds 11 1016 93 10000 1.03 200 18:20 31.10.2021
5625 Rain 12 1016 89 10000 0.89 281 16:41 31.10.2021
5626 Mist 12 1015 85 5000 2.68 244 14:45 31.10.2021
5627 Mist 12 1017 87 4500 1.34 250 12:55 31.10.2021
5628 Mist 12 1017 86 4000 1.34 302 11:42 31.10.2021
5629 Mist 12 1018 88 3500 0.45 227 10:48 31.10.2021
5630 Mist 11 1018 90 3500 0.45 266 09:26 31.10.2021
5631 Mist 11 1019 94 3000 0.45 221 08:44 31.10.2021
5632 Rain 10 1020 95 4000 1.03 0 02:26 31.10.2021
5633 Mist 11 1021 94 3000 1.03 0 23:54 30.10.2021
5634 Mist 11 1020 93 4000 1.54 220 22:20 30.10.2021
5635 Mist 11 1020 93 3500 1.03 0 21:27 30.10.2021
5636 Mist 11 1020 92 3000 0.89 261 19:42 30.10.2021
5637 Rain 12 1019 88 3500 1.79 258 17:49 30.10.2021
5638 Rain 12 1018 74 4000 0.45 304 15:41 30.10.2021
5639 Mist 13 1018 70 5000 0.89 40 13:59 30.10.2021
5640 Mist 13 1018 70 5000 0.51 0 13:59 30.10.2021
5641 Mist 13 1018 71 5000 0.89 75 13:38 30.10.2021
5642 Mist 13 1018 71 5000 0.89 36 13:20 30.10.2021
5643 Mist 13 1018 71 5000 1.34 124 11:49 30.10.2021
5644 Mist 12 1018 73 5000 1.79 104 10:56 30.10.2021
5645 Clouds 10 1017 82 8000 0.51 0 08:57 30.10.2021
5646 Clouds 10 1017 81 10000 0.51 0 07:56 30.10.2021
5647 Clouds 10 1017 80 10000 1.03 0 05:46 30.10.2021
5648 Clouds 11 1016 78 10000 0.51 0 02:59 30.10.2021
5649 Clouds 11 1017 77 10000 1.03 20 23:21 29.10.2021
5650 Clear 11 1018 84 10000 1.03 10 22:34 29.10.2021
5651 Clear 12 1018 74 10000 1.03 0 20:59 29.10.2021
5652 Clouds 12 1017 71 9000 0.45 59 20:32 29.10.2021
5653 Clouds 13 1017 68 9000 1.34 138 19:18 29.10.2021
5654 Clouds 16 1016 58 9000 0.89 110 17:28 29.10.2021
5655 Clear 17 1016 55 10000 2.24 200 15:26 29.10.2021
5656 Clear 15 1018 66 10000 0.45 187 12:30 29.10.2021
5657 Clouds 12 1016 76 10000 0.45 235 10:46 29.10.2021
5658 Clouds 9 1017 86 6000 0.51 0 09:27 29.10.2021
5659 Mist 9 1020 82 4000 0.51 0 00:55 29.10.2021
5660 Clouds 10 1020 81 6000 1.03 350 23:47 28.10.2021
5661 Clouds 11 1020 75 8000 1.54 360 22:21 28.10.2021
5662 Clear 11 1020 72 10000 0.51 0 20:57 28.10.2021
5663 Clear 12 1021 77 10000 0.51 0 19:52 28.10.2021
5664 Clear 15 1020 60 10000 0.51 0 18:36 28.10.2021
5665 Clear 16 1020 55 10000 0.45 126 17:27 28.10.2021
5666 Clear 18 1020 51 10000 0.89 196 16:37 28.10.2021
5667 Clouds 17 1020 52 10000 1.79 228 14:40 28.10.2021
5668 Clouds 16 1021 55 10000 1.34 150 13:32 28.10.2021
5669 Clouds 16 1022 58 10000 1.79 175 12:49 28.10.2021
5670 Clouds 13 1022 68 10000 0.45 236 11:26 28.10.2021
5671 Clouds 10 1022 83 8000 0.51 0 09:55 28.10.2021
5672 Fog 9 1022 84 4700 1.03 160 09:35 28.10.2021
5673 Fog 8 1023 87 2000 0.51 0 08:36 28.10.2021
5674 Fog 7 1023 87 550 0 0 07:40 28.10.2021
5675 Clear 10 1024 77 10000 1.03 20 00:41 28.10.2021
5676 Clear 11 1024 75 10000 1.54 360 22:45 27.10.2021
5677 Clear 12 1024 69 10000 1.34 36 21:35 27.10.2021
5678 Clear 12 1025 74 10000 1.03 10 20:58 27.10.2021
5679 Clear 12 1024 66 10000 0.89 77 20:39 27.10.2021
5680 Clear 13 1024 62 10000 1.34 111 19:44 27.10.2021
5681 Clear 15 1024 57 10000 1.79 126 18:55 27.10.2021
5682 Clear 19 1024 44 10000 1.34 96 16:49 27.10.2021
5683 Clear 19 1024 44 10000 1.79 70 16:24 27.10.2021
5684 Clear 19 1024 47 10000 1.54 30 15:24 27.10.2021
5685 Clear 18 1025 53 10000 1.34 249 13:42 27.10.2021
5686 Clear 13 1025 69 10000 2.24 168 10:59 27.10.2021
5687 Clear 12 1025 73 10000 1.79 167 10:36 27.10.2021
5688 Fog 8 1024 82 6000 0.89 310 08:58 27.10.2021
5689 Mist 7 1025 85 2400 1.03 0 07:38 27.10.2021
5690 Fog 8 1025 85 200 0.89 333 05:37 27.10.2021
5691 Mist 9 1025 81 4400 0.45 337 01:18 27.10.2021
5692 Mist 9 1024 78 4300 0.89 337 00:39 27.10.2021
5693 Clear 10 1024 74 7000 0.89 64 23:52 26.10.2021
5694 Clear 10 1024 73 10000 1.79 15 22:43 26.10.2021
5695 Clear 10 1023 71 10000 1.79 23 22:20 26.10.2021
5696 Clear 12 1023 64 10000 0.89 94 20:59 26.10.2021
5697 Clear 13 1022 58 10000 1.34 122 19:33 26.10.2021
5698 Clear 13 1021 58 10000 0.45 168 18:53 26.10.2021
5699 Clear 16 1020 50 10000 1.34 190 17:36 26.10.2021
5700 Clear 16 1018 48 10000 2.68 218 15:40 26.10.2021
5701 Clear 13 1020 68 10000 0.89 167 11:50 26.10.2021
5702 Clouds 11 1022 79 8000 0.51 0 10:46 26.10.2021
5703 Fog 7 1021 87 6000 1.79 314 08:24 26.10.2021
5704 Fog 7 1021 85 5000 0.51 260 07:21 26.10.2021
5705 Clear 9 1022 77 10000 0.51 0 23:53 25.10.2021
5706 Clear 9 1022 75 10000 0.51 290 23:20 25.10.2021
5707 Clear 10 1022 72 10000 0.45 52 22:21 25.10.2021
5708 Clear 10 1022 70 10000 0.45 52 21:40 25.10.2021
5709 Clear 11 1023 69 10000 1.54 70 20:19 25.10.2021
5710 Clear 12 1022 61 10000 1.54 80 19:42 25.10.2021
5711 Clear 12 1021 60 10000 1.54 50 19:20 25.10.2021
5712 Clear 13 1021 57 10000 1.79 85 18:22 25.10.2021
5713 Clouds 15 1022 50 10000 1.34 89 16:27 25.10.2021
5714 Clouds 14 1022 52 8000 1.79 114 14:45 25.10.2021
5715 Rain 12 1024 61 9000 1.34 109 12:31 25.10.2021
5716 Rain 11 1024 72 8000 2.24 102 10:25 25.10.2021
5717 Clouds 10 1024 78 10000 1.79 90 08:37 25.10.2021
5718 Clouds 10 1024 82 10000 0.51 0 06:26 25.10.2021
5719 Clouds 10 1025 76 10000 0.51 50 02:42 25.10.2021
5720 Clouds 11 1026 74 10000 1.03 360 00:47 25.10.2021
5721 Clouds 11 1026 75 10000 0.51 0 23:47 24.10.2021
5722 Clear 11 1026 73 10000 1.54 360 22:56 24.10.2021
5723 Clear 12 1026 72 10000 1.79 20 22:36 24.10.2021
5724 Clear 12 1025 71 10000 1.34 14 22:18 24.10.2021
5725 Clear 13 1026 62 10000 1.34 82 20:45 24.10.2021
5726 Clear 13 1026 61 10000 1.79 76 20:27 24.10.2021
5727 Clear 14 1025 58 10000 2.24 109 18:53 24.10.2021
5728 Clear 16 1025 56 10000 0.89 71 17:58 24.10.2021
5729 Clear 16 1026 56 10000 3.13 128 17:18 24.10.2021
5730 Clear 17 1026 51 10000 0.89 85 15:47 24.10.2021
5731 Clouds 16 1028 51 10000 2.24 75 13:52 24.10.2021
5732 Clouds 14 1028 56 10000 1.34 74 12:41 24.10.2021
5733 Clouds 14 1028 61 10000 1.79 108 11:41 24.10.2021
5734 Clouds 13 1028 65 10000 1.34 88 10:45 24.10.2021
5735 Clouds 12 1028 73 10000 1.34 76 09:38 24.10.2021
5736 Clouds 12 1027 84 10000 1.79 98 05:35 24.10.2021
5737 Fog 11 1027 94 350 1.03 340 00:44 24.10.2021
5738 Mist 11 1026 94 1900 1.03 360 23:32 23.10.2021
5739 Fog 12 1025 93 300 0.51 0 21:50 23.10.2021
5740 Clouds 14 1024 84 6000 1.54 210 19:47 23.10.2021
5741 Mist 15 1023 78 4000 1.79 207 18:48 23.10.2021
5742 Clouds 16 1023 76 6000 1.79 193 18:21 23.10.2021
5743 Clouds 17 1023 71 6000 0.89 200 17:42 23.10.2021
5744 Clouds 18 1022 69 6000 3.58 176 16:20 23.10.2021
5745 Clouds 17 1023 74 10000 2.24 127 13:57 23.10.2021
5746 Mist 11 1019 94 4500 0.51 0 03:32 23.10.2021
5747 Fog 12 1018 91 8000 1.54 360 23:42 22.10.2021
5748 Fog 13 1017 84 3900 0.51 0 22:28 22.10.2021
5749 Clear 15 1016 78 10000 0.89 136 19:49 22.10.2021
5750 Clear 17 1014 69 10000 0.89 157 18:40 22.10.2021
5751 Clear 19 1014 61 10000 1.54 170 17:25 22.10.2021
5752 Clouds 19 1013 62 10000 2.24 245 14:58 22.10.2021
5753 Clear 18 1014 70 10000 1.79 205 12:54 22.10.2021
5754 Fog 14 1014 91 2000 0.45 345 10:58 22.10.2021
5755 Fog 14 1015 93 2000 1.54 20 10:36 22.10.2021
5756 Fog 11 1015 96 400 0.51 0 09:36 22.10.2021
5757 Fog 10 1015 96 250 0.51 0 07:46 22.10.2021
5758 Fog 11 1015 96 250 0.51 0 07:21 22.10.2021
5759 Fog 12 1014 95 1200 1.03 0 02:37 22.10.2021
5760 Fog 12 1014 95 1200 1.03 0 02:37 22.10.2021
5761 Clouds 13 1014 95 8000 0.51 0 23:51 21.10.2021
5762 Fog 13 1013 94 8000 0.51 0 22:44 21.10.2021
5763 Clouds 13 1013 95 10000 0.51 0 21:38 21.10.2021
5764 Clouds 14 1013 93 10000 1.03 290 20:24 21.10.2021
5765 Clouds 14 1013 92 10000 1.03 220 19:55 21.10.2021
5766 Clouds 15 1013 92 9000 1.54 210 19:25 21.10.2021
5767 Clouds 16 1012 88 8000 0.51 0 18:34 21.10.2021
5768 Clouds 16 1012 87 8000 0.89 199 17:53 21.10.2021
5769 Clouds 16 1012 85 8000 1.34 212 16:50 21.10.2021
5770 Clouds 16 1012 87 10000 0.51 0 15:33 21.10.2021
5771 Clouds 16 1011 87 10000 1.54 180 14:56 21.10.2021
5772 Clouds 16 1011 88 10000 1.54 180 14:37 21.10.2021
5773 Clouds 16 1011 88 10000 1.54 180 14:37 21.10.2021
5774 Clouds 14 1014 95 8000 1.03 0 11:56 21.10.2021
5775 Clouds 14 1014 95 7000 2.06 40 09:42 21.10.2021
5776 Mist 13 1014 95 5000 0.45 0 07:54 21.10.2021
5777 Mist 13 1015 94 5000 0.45 0 06:45 21.10.2021
5778 Mist 14 1019 90 4000 1.03 40 00:39 21.10.2021
5779 Mist 15 1021 90 5000 0.51 0 22:29 20.10.2021
5780 Mist 15 1021 89 5000 0.51 0 21:48 20.10.2021
5781 Mist 15 1021 85 5000 0.51 0 20:58 20.10.2021
5782 Mist 15 1021 82 5000 1.34 314 20:39 20.10.2021
5783 Clouds 15 1020 83 7000 0.51 0 20:18 20.10.2021
5784 Mist 16 1021 80 4000 0.51 360 19:23 20.10.2021
5785 Mist 16 1021 81 3000 1.03 0 18:29 20.10.2021
5786 Mist 17 1022 75 5000 0.89 257 16:37 20.10.2021
5787 Clouds 17 1023 68 8000 1.34 155 13:54 20.10.2021
5788 Clouds 13 1026 90 7000 1.03 0 09:54 20.10.2021
5789 Fog 10 1026 91 400 0.51 360 05:34 20.10.2021
5790 Mist 11 1027 90 1600 1.03 360 02:35 20.10.2021
5791 Mist 12 1026 83 2000 1.03 20 00:33 20.10.2021
5792 Mist 13 1027 78 4000 0 0 22:37 19.10.2021
5793 Mist 13 1026 77 4000 0.51 0 21:37 19.10.2021
5794 Mist 14 1026 71 5000 0.51 210 20:26 19.10.2021
5795 Mist 15 1026 69 5000 1.34 248 19:58 19.10.2021
5796 Mist 15 1026 67 5000 0.51 0 19:34 19.10.2021
5797 Clouds 17 1026 62 6000 1.03 0 18:33 19.10.2021
5798 Clouds 18 1026 57 6000 1.34 226 17:24 19.10.2021
5799 Mist 18 1026 59 5000 2.24 268 15:28 19.10.2021
5800 Clouds 18 1027 60 6000 2.24 263 14:37 19.10.2021
5801 Clouds 18 1027 62 6000 2.68 294 13:50 19.10.2021
5802 Mist 16 1028 69 5000 1.79 218 12:20 19.10.2021
5803 Clouds 15 1028 76 6000 0.89 225 11:23 19.10.2021
5804 Mist 12 1028 86 4000 0.51 0 09:43 19.10.2021
5805 Fog 11 1028 87 4000 1.03 180 08:56 19.10.2021
5806 Clouds 12 1027 84 7000 1.03 350 00:39 19.10.2021
5807 Clouds 12 1027 82 7000 1.03 360 23:57 18.10.2021
5808 Clouds 12 1027 82 7000 1.54 10 23:36 18.10.2021
5809 Clouds 12 1027 82 7000 2.06 350 22:55 18.10.2021
5810 Clouds 13 1026 73 7000 1.03 0 22:18 18.10.2021
5811 Clear 14 1025 75 10000 0.51 0 20:46 18.10.2021
5812 Clear 14 1025 66 10000 1.34 110 20:21 18.10.2021
5813 Clear 15 1024 63 10000 1.54 140 19:31 18.10.2021
5814 Clear 16 1023 61 10000 0.89 99 18:58 18.10.2021
5815 Clear 16 1023 61 10000 1.79 140 18:58 18.10.2021
5816 Clear 19 1023 48 10000 0.89 114 16:33 18.10.2021
5817 Clear 19 1022 50 10000 0.89 157 14:42 18.10.2021
5818 Clouds 15 1023 66 8000 0.45 134 11:54 18.10.2021
5819 Fog 11 1022 81 5000 0.89 178 09:48 18.10.2021
5820 Fog 9 1022 83 10000 0 0 07:46 18.10.2021
5821 Clear 11 1021 76 9000 1.79 19 00:29 18.10.2021
5822 Clear 12 1021 78 10000 0.51 0 22:30 17.10.2021
5823 Clear 12 1022 79 10000 0.51 340 21:44 17.10.2021
5824 Clear 13 1020 68 10000 0.51 0 20:56 17.10.2021
5825 Clear 14 1020 61 10000 1.03 0 19:59 17.10.2021
5826 Clear 14 1019 60 10000 1.79 167 19:38 17.10.2021
5827 Clear 17 1018 53 10000 1.79 187 18:28 17.10.2021
5828 Clear 19 1019 44 10000 2.24 256 16:40 17.10.2021
5829 Clear 18 1019 48 10000 0.45 204 14:40 17.10.2021
5830 Clear 18 1019 49 10000 0.89 138 14:20 17.10.2021
5831 Clear 18 1019 51 10000 1.34 65 13:33 17.10.2021
5832 Clear 15 1020 63 9000 0.45 143 11:31 17.10.2021
5833 Clear 12 1020 80 7000 1.34 174 10:19 17.10.2021
5834 Fog 8 1020 87 200 0.51 0 08:29 17.10.2021
5835 Clear 10 1019 79 10000 0.51 0 02:57 17.10.2021
5836 Clear 11 1019 76 10000 1.03 340 00:30 17.10.2021
5837 Clear 12 1019 74 10000 1.03 360 22:54 16.10.2021
5838 Clear 13 1018 68 10000 0.51 0 20:45 16.10.2021
5839 Clear 14 1018 65 10000 0.51 0 20:26 16.10.2021
5840 Clear 14 1017 61 10000 0.51 0 19:40 16.10.2021
5841 Clear 15 1018 58 10000 1.54 60 19:19 16.10.2021
5842 Clear 15 1018 58 10000 1.54 60 19:19 16.10.2021
5843 Clear 16 1017 57 10000 0.89 69 18:44 16.10.2021
5844 Clear 17 1017 55 10000 0.45 69 18:23 16.10.2021
5845 Clear 18 1017 49 10000 2.24 91 17:33 16.10.2021
5846 Clear 19 1017 49 10000 2.68 163 16:20 16.10.2021
5847 Clouds 17 1017 56 8000 1.79 158 13:26 16.10.2021
5848 Clouds 14 1018 68 7000 1.79 148 11:24 16.10.2021
5849 Mist 9 1016 86 4000 0.51 0 08:58 16.10.2021
5850 Mist 9 1017 83 1900 0.51 0 04:26 16.10.2021
5851 Clouds 10 1017 78 8000 1.03 330 00:51 16.10.2021
5852 Clear 11 1017 74 10000 0 0 23:26 15.10.2021
5853 Clear 12 1016 70 10000 0 0 22:21 15.10.2021
5854 Clear 12 1016 69 10000 1.79 175 21:40 15.10.2021
5855 Clear 12 1016 67 10000 1.79 159 20:54 15.10.2021
5856 Clear 13 1016 64 10000 0.89 230 20:25 15.10.2021
5857 Clear 14 1015 61 10000 1.79 248 19:20 15.10.2021
5858 Clear 16 1015 54 10000 1.79 259 18:21 15.10.2021
5859 Clear 17 1016 49 10000 2.68 239 15:46 15.10.2021
5860 Clear 16 1017 51 10000 0.89 264 14:18 15.10.2021
5861 Clear 15 1018 58 10000 1.79 192 12:25 15.10.2021
5862 Clear 13 1020 66 10000 1.79 110 11:18 15.10.2021
5863 Clear 11 1020 77 10000 1.34 182 10:28 15.10.2021
5864 Clear 7 1020 85 10000 1.03 20 07:35 15.10.2021
5865 Clear 8 1021 82 10000 0.51 0 04:46 15.10.2021
5866 Clear 10 1023 79 10000 1.03 50 00:22 15.10.2021
5867 Clear 10 1023 78 10000 1.03 340 23:25 14.10.2021
5868 Clear 11 1023 67 10000 0.51 0 22:20 14.10.2021
5869 Clear 11 1022 65 10000 0.45 65 21:37 14.10.2021
5870 Clear 12 1022 60 10000 0.89 128 20:20 14.10.2021
5871 Clear 13 1022 58 10000 1.34 131 19:46 14.10.2021
5872 Clear 16 1022 52 10000 0.89 150 18:26 14.10.2021
5873 Clear 17 1022 46 10000 1.79 59 16:58 14.10.2021
5874 Clouds 17 1022 45 10000 0.45 65 16:31 14.10.2021
5875 Clouds 16 1023 47 10000 2.68 128 14:44 14.10.2021
5876 Clouds 16 1023 47 10000 0.45 34 14:26 14.10.2021
5877 Clear 15 1023 54 10000 1.79 162 12:35 14.10.2021
5878 Clear 14 1024 60 10000 2.24 152 11:26 14.10.2021
5879 Clouds 9 1023 76 10000 1.34 68 07:45 14.10.2021
5880 Clouds 10 1022 76 10000 3.13 68 04:23 14.10.2021
5881 Clear 12 1021 71 10000 2.24 58 00:34 14.10.2021
5882 Clear 12 1021 69 10000 1.79 52 22:39 13.10.2021
5883 Clear 13 1020 64 10000 1.34 77 21:36 13.10.2021
5884 Clouds 14 1019 59 10000 1.79 70 20:41 13.10.2021
5885 Clear 15 1017 59 10000 1.79 69 19:20 13.10.2021
5886 Clear 17 1017 54 10000 2.68 97 18:37 13.10.2021
5887 Clear 19 1016 48 10000 0.89 104 15:54 13.10.2021
5888 Clear 18 1016 54 8000 1.79 98 14:46 13.10.2021
5889 Clear 18 1015 56 8000 3.58 116 14:23 13.10.2021
5890 Clear 17 1015 62 8000 0.45 83 12:24 13.10.2021
5891 Clear 15 1014 69 8000 2.24 212 11:35 13.10.2021
5892 Mist 10 1015 88 3000 3.13 160 09:26 13.10.2021
5893 Fog 9 1014 87 10000 2.68 312 07:48 13.10.2021
5894 Clear 10 1015 83 10000 1.03 0 02:51 13.10.2021
5895 Clear 11 1015 82 10000 0.45 0 02:19 13.10.2021
5896 Clouds 13 1014 73 10000 3.58 54 23:33 12.10.2021
5897 Clouds 13 1014 71 10000 2.68 66 22:48 12.10.2021
5898 Clouds 14 1014 70 10000 0.89 70 22:23 12.10.2021
5899 Clouds 14 1013 69 10000 3.13 63 20:50 12.10.2021
5900 Clouds 14 1014 68 10000 2.68 58 20:24 12.10.2021
5901 Clear 16 1013 62 10000 1.79 67 18:58 12.10.2021
5902 Clear 17 1013 58 10000 3.58 92 18:23 12.10.2021
5903 Clear 18 1013 50 10000 1.79 78 16:47 12.10.2021
5904 Clear 18 1013 50 10000 0.89 90 16:19 12.10.2021
5905 Clear 18 1014 52 10000 0.89 115 14:51 12.10.2021
5906 Clear 17 1014 53 10000 0.89 164 13:45 12.10.2021
5907 Clear 16 1015 57 10000 0.89 142 12:40 12.10.2021
5908 Clouds 13 1016 71 10000 1.79 126 10:38 12.10.2021
5909 Clouds 10 1016 83 10000 1.34 162 08:49 12.10.2021
5910 Clouds 10 1016 87 10000 1.03 10 07:59 12.10.2021
5911 Clouds 10 1017 88 10000 0.51 0 06:42 12.10.2021
5912 Clouds 10 1017 80 10000 0.51 340 04:35 12.10.2021
5913 Clouds 11 1018 77 10000 1.79 25 01:30 12.10.2021
5914 Clouds 12 1019 80 10000 1.03 360 23:41 11.10.2021
5915 Clear 12 1018 72 10000 1.79 22 22:59 11.10.2021
5916 Clear 12 1018 70 10000 0.51 0 22:29 11.10.2021
5917 Clear 13 1019 73 10000 0.51 0 21:18 11.10.2021
5918 Clear 15 1018 60 10000 0.89 52 19:46 11.10.2021
5919 Clear 17 1017 51 10000 0.89 187 18:44 11.10.2021
5920 Clear 19 1017 45 10000 1.34 194 17:59 11.10.2021
5921 Clear 19 1017 44 10000 0.89 147 16:39 11.10.2021
5922 Clear 19 1018 45 10000 1.34 191 15:51 11.10.2021
5923 Clear 19 1018 47 10000 1.34 195 15:23 11.10.2021
5924 Clear 18 1017 48 10000 2.68 230 14:42 11.10.2021
5925 Clear 17 1018 52 10000 3.58 185 13:38 11.10.2021
5926 Clear 15 1019 58 10000 1.34 192 11:52 11.10.2021
5927 Clear 13 1020 68 10000 1.03 0 10:43 11.10.2021
5928 Clear 11 1019 79 10000 0.51 0 09:44 11.10.2021
5929 Mist 8 1019 89 2300 0.51 0 07:29 11.10.2021
5930 Clear 9 1020 82 10000 0.45 78 01:41 11.10.2021
5931 Clear 10 1020 79 10000 1.03 350 00:50 11.10.2021
5932 Clear 10 1020 78 10000 1.03 0 00:28 11.10.2021
5933 Clear 12 1019 63 10000 1.79 139 21:57 10.10.2021
5934 Clear 12 1019 62 10000 1.79 136 21:32 10.10.2021
5935 Clear 13 1019 59 10000 1.34 119 20:48 10.10.2021
5936 Clear 13 1018 60 10000 2.24 132 20:21 10.10.2021
5937 Clear 14 1018 60 10000 1.79 144 19:59 10.10.2021
5938 Clear 14 1018 58 10000 1.79 142 19:36 10.10.2021
5939 Clear 16 1018 51 10000 2.24 146 18:36 10.10.2021
5940 Clear 17 1018 45 10000 1.34 127 16:57 10.10.2021
5941 Clear 18 1019 45 10000 2.24 219 15:47 10.10.2021
5942 Clear 17 1020 46 10000 0.45 127 14:42 10.10.2021
5943 Clear 17 1020 46 10000 1.79 300 13:34 10.10.2021
5944 Clear 16 1021 50 10000 1.79 198 12:35 10.10.2021
5945 Clouds 14 1022 56 10000 0.89 114 10:44 10.10.2021
5946 Clouds 12 1021 66 10000 0.45 93 09:30 10.10.2021
5947 Clouds 12 1021 70 10000 2.68 86 08:53 10.10.2021
5948 Clouds 12 1021 69 10000 0.45 18 07:28 10.10.2021
5949 Clouds 13 1023 58 10000 3.58 144 02:45 10.10.2021
5950 Clouds 14 1023 57 10000 2.24 153 00:57 10.10.2021
5951 Clouds 14 1023 61 10000 1.34 141 00:23 10.10.2021
5952 Clouds 14 1023 67 10000 2.68 203 22:52 09.10.2021
5953 Clouds 14 1023 65 10000 1.34 23 21:45 09.10.2021
5954 Clouds 14 1023 63 10000 1.34 27 21:26 09.10.2021
5955 Clouds 15 1022 59 10000 0.89 50 19:44 09.10.2021
5956 Clear 16 1022 54 10000 1.79 104 18:59 09.10.2021
5957 Clouds 17 1022 51 10000 2.68 151 18:32 09.10.2021
5958 Clouds 18 1022 45 10000 0.89 175 16:37 09.10.2021
5959 Clouds 17 1022 46 10000 1.34 65 15:32 09.10.2021
5960 Clouds 17 1023 48 10000 1.34 111 13:43 09.10.2021
5961 Clouds 16 1023 53 10000 0.45 204 12:40 09.10.2021
5962 Clouds 16 1024 57 10000 2.68 88 11:47 09.10.2021
5963 Clouds 15 1023 60 10000 2.68 82 10:42 09.10.2021
5964 Clouds 15 1023 63 10000 4.47 79 09:36 09.10.2021
5965 Clouds 14 1022 65 10000 2.68 126 08:29 09.10.2021
5966 Clouds 14 1022 67 10000 1.79 64 07:47 09.10.2021
5967 Clouds 14 1022 72 10000 1.34 73 05:28 09.10.2021
5968 Clouds 15 1022 72 10000 2.24 124 02:57 09.10.2021
5969 Clouds 15 1022 73 10000 1.34 154 02:38 09.10.2021
5970 Clouds 15 1022 71 10000 0.51 0 23:37 08.10.2021
5971 Clouds 15 1022 70 10000 1.34 145 22:53 08.10.2021
5972 Clouds 15 1021 69 10000 1.79 166 22:22 08.10.2021
5973 Clear 16 1021 66 10000 1.34 81 20:53 08.10.2021
5974 Clear 18 1020 58 10000 0.89 149 18:53 08.10.2021
5975 Clear 20 1019 47 10000 0.89 187 17:28 08.10.2021
5976 Clear 20 1019 45 10000 2.24 158 16:50 08.10.2021
5977 Clear 21 1020 45 10000 0.89 160 16:22 08.10.2021
5978 Clouds 19 1020 51 10000 2.68 147 13:56 08.10.2021
5979 Clouds 17 1020 62 10000 0.51 0 12:48 08.10.2021
5980 Clouds 16 1020 68 10000 0.45 277 11:31 08.10.2021
5981 Clouds 15 1019 71 10000 1.34 5 10:35 08.10.2021
5982 Clouds 13 1020 86 10000 2.06 50 07:34 08.10.2021
5983 Clouds 15 1019 83 10000 1.03 290 23:33 07.10.2021
5984 Clouds 15 1019 80 10000 1.03 0 22:58 07.10.2021
5985 Clouds 16 1018 68 10000 1.79 112 21:33 07.10.2021
5986 Clouds 16 1017 66 10000 1.03 0 20:56 07.10.2021
5987 Clouds 18 1016 55 10000 1.34 120 19:40 07.10.2021
5988 Clouds 18 1016 53 10000 2.68 124 19:22 07.10.2021
5989 Clouds 21 1015 36 10000 2.24 191 17:38 07.10.2021
5990 Clouds 21 1015 38 10000 2.24 163 16:42 07.10.2021
5991 Clouds 20 1015 42 10000 2.68 181 15:23 07.10.2021
5992 Clouds 19 1015 49 10000 3.13 186 13:45 07.10.2021
5993 Clouds 19 1015 53 10000 2.68 211 13:20 07.10.2021
5994 Clouds 18 1016 60 10000 2.68 174 12:36 07.10.2021
5995 Clouds 15 1016 78 10000 1.79 185 10:48 07.10.2021
5996 Clouds 13 1015 86 10000 0.45 130 10:19 07.10.2021
5997 Clouds 11 1015 86 10000 0.51 0 08:56 07.10.2021
5998 Clouds 10 1015 87 10000 0.45 15 08:25 07.10.2021
5999 Clouds 10 1015 86 10000 0.45 15 07:40 07.10.2021
6000 Clear 10 1015 85 10000 0.45 14 06:48 07.10.2021
6001 Clouds 11 1015 79 10000 1.54 100 02:22 07.10.2021
6002 Clouds 13 1015 76 10000 0.45 205 23:36 06.10.2021
6003 Clouds 14 1015 75 10000 1.79 201 22:41 06.10.2021
6004 Clouds 13 1015 77 10000 0.45 174 21:45 06.10.2021
6005 Clouds 14 1014 73 10000 1.54 130 20:34 06.10.2021
6006 Clouds 15 1015 72 10000 0.89 52 19:28 06.10.2021
6007 Clouds 15 1013 69 10000 2.06 170 18:20 06.10.2021
6008 Rain 16 1013 67 10000 3.09 120 16:44 06.10.2021
6009 Clouds 15 1013 63 10000 5.66 360 15:24 06.10.2021
6010 Clouds 16 1013 77 10000 3.09 30 13:31 06.10.2021
6011 Clouds 15 1013 82 10000 3.09 60 12:53 06.10.2021
6012 Clouds 15 1013 88 10000 1.54 80 12:29 06.10.2021
6013 Clouds 15 1014 91 10000 3.09 100 11:39 06.10.2021
6014 Clouds 15 1012 94 10000 3.09 90 09:45 06.10.2021
6015 Clouds 15 1011 93 3000 2.24 68 09:26 06.10.2021
6016 Thunderstorm 15 1012 94 1500 4.12 20 08:39 06.10.2021
6017 Clouds 15 1012 95 10000 0.51 0 06:19 06.10.2021
6018 Clouds 15 1012 94 10000 0.51 0 04:24 06.10.2021
6019 Clouds 15 1012 94 10000 0.51 0 04:24 06.10.2021
6020 Clouds 15 1013 94 10000 2.06 80 00:24 06.10.2021
6021 Clouds 15 1013 94 10000 1.03 0 23:51 05.10.2021
6022 Clouds 15 1013 93 10000 1.03 0 23:51 05.10.2021
6023 Clouds 15 1013 93 10000 1.03 0 23:51 05.10.2021
6024 Clouds 15 1013 94 10000 1.54 40 23:31 05.10.2021
6025 Clouds 16 1012 93 10000 2.57 20 22:36 05.10.2021
6026 Clouds 15 1012 93 10000 2.06 10 21:57 05.10.2021
6027 Clouds 16 1012 93 10000 2.06 10 21:57 05.10.2021
6028 Clouds 15 1012 93 10000 2.57 350 21:29 05.10.2021
6029 Clouds 16 1012 94 10000 2.06 20 20:33 05.10.2021
6030 Clouds 16 1012 92 10000 2.57 80 19:51 05.10.2021
6031 Clouds 16 1012 92 10000 1.54 330 19:25 05.10.2021
6032 Clouds 16 1012 91 10000 0.45 272 18:21 05.10.2021
6033 Rain 16 1011 85 7000 2.24 30 15:36 05.10.2021
6034 Clouds 18 1012 79 7000 1.79 111 13:55 05.10.2021
6035 Rain 18 1012 76 10000 2.24 126 13:26 05.10.2021
6036 Rain 19 1011 69 10000 0.45 46 12:35 05.10.2021
6037 Rain 19 1012 69 10000 3.13 79 11:41 05.10.2021
6038 Clouds 19 1011 74 10000 4.02 106 10:38 05.10.2021
6039 Mist 17 1011 95 4000 0.89 36 08:36 05.10.2021
6040 Clouds 18 1012 95 10000 0.45 204 01:47 05.10.2021
6041 Thunderstorm 17 1013 95 8000 1.34 37 22:56 04.10.2021
6042 Rain 17 1013 95 10000 0.89 34 21:38 04.10.2021
6043 Rain 17 1014 94 6000 0.89 27 18:52 04.10.2021
6044 Rain 18 1014 91 6000 2.68 62 17:32 04.10.2021
6045 Rain 18 1015 92 4000 3.58 62 15:50 04.10.2021
6046 Rain 18 1016 94 3000 4.02 71 15:24 04.10.2021
6047 Clouds 18 1017 95 3000 1.03 0 14:34 04.10.2021
6048 Rain 18 1017 95 5000 2.57 350 13:32 04.10.2021
6049 Rain 18 1018 94 5000 0.89 235 12:50 04.10.2021
6050 Mist 18 1017 94 5000 3.09 80 11:34 04.10.2021
6051 Rain 18 1017 94 5000 3.6 120 10:47 04.10.2021
6052 Rain 18 1017 92 5000 0.45 51 09:44 04.10.2021
6053 Rain 18 1016 91 8000 1.34 42 07:53 04.10.2021
6054 Rain 18 1016 92 10000 1.34 42 06:50 04.10.2021
6055 Clouds 18 1016 87 10000 1.54 130 22:51 03.10.2021
6056 Clouds 18 1016 90 10000 1.03 0 21:56 03.10.2021
6057 Clouds 18 1016 86 10000 1.03 0 21:31 03.10.2021
6058 Clouds 18 1016 88 10000 1.54 60 20:45 03.10.2021
6059 Clouds 18 1015 82 10000 1.79 60 19:46 03.10.2021
6060 Clouds 18 1014 82 10000 1.34 50 18:29 03.10.2021
6061 Clouds 19 1015 80 8000 3.58 48 17:37 03.10.2021
6062 Drizzle 19 1015 90 3500 2.24 71 15:29 03.10.2021
6063 Drizzle 18 1016 88 4000 2.68 107 14:30 03.10.2021
6064 Clouds 18 1017 86 10000 4.47 111 13:35 03.10.2021
6065 Clouds 18 1017 86 10000 3.13 94 12:45 03.10.2021
6066 Clouds 17 1017 86 10000 4.02 99 11:19 03.10.2021
6067 Clouds 17 1017 91 10000 1.34 43 09:57 03.10.2021
6068 Rain 17 1017 88 10000 1.79 46 05:25 03.10.2021
6069 Clouds 18 1017 69 10000 3.58 79 22:52 02.10.2021
6070 Clear 18 1017 66 10000 1.34 66 21:50 02.10.2021
6071 Clear 19 1017 62 10000 2.24 91 20:30 02.10.2021
6072 Clear 20 1017 55 10000 1.79 59 18:56 02.10.2021
6073 Clear 21 1017 53 10000 1.79 110 18:20 02.10.2021
6074 Clear 22 1017 51 10000 1.34 119 17:37 02.10.2021
6075 Clear 22 1016 48 10000 1.34 115 16:28 02.10.2021
6076 Clouds 16 1018 77 10000 1.79 47 06:47 02.10.2021
6077 Clear 23 1024 57 10000 2.57 50 15:37 30.09.2021
6078 Clear 22 1023 56 10000 0.45 139 13:54 30.09.2021
6079 Clouds 21 1024 64 10000 2.24 111 11:53 30.09.2021
6080 Clouds 19 1023 70 10000 3.13 95 10:52 30.09.2021
6081 Clouds 19 1023 73 10000 0.45 169 10:22 30.09.2021
6082 Clear 17 1022 81 6000 2.68 104 08:31 30.09.2021
6083 Clear 16 1021 80 10000 3.58 83 07:35 30.09.2021
6084 Clear 16 1020 78 10000 1.79 17 05:23 30.09.2021
6085 Clear 17 1018 81 10000 1.03 340 01:41 30.09.2021
6086 Clear 18 1018 77 10000 1.03 0 00:29 30.09.2021
6087 Clear 19 1017 74 10000 2.24 300 22:38 29.09.2021
6088 Clear 20 1017 68 10000 1.34 253 21:27 29.09.2021
6089 Clear 21 1017 65 10000 1.79 301 20:28 29.09.2021
6090 Clear 22 1016 62 10000 1.34 274 19:54 29.09.2021
6091 Clouds 24 1016 55 10000 2.24 237 18:52 29.09.2021
6092 Clear 25 1016 50 10000 1.79 291 17:52 29.09.2021
6093 Clear 26 1016 47 10000 1.79 228 16:51 29.09.2021
6094 Clear 26 1016 46 10000 2.24 293 15:58 29.09.2021
6095 Clear 25 1016 47 10000 1.34 348 14:39 29.09.2021
6096 Clouds 25 1016 46 10000 0.45 346 13:58 29.09.2021
6097 Clear 24 1017 51 10000 1.34 203 13:22 29.09.2021
6098 Clear 23 1018 55 10000 1.34 236 12:35 29.09.2021
6099 Clear 21 1018 68 10000 0.45 315 10:50 29.09.2021
6100 Clouds 19 1017 73 10000 1.03 0 09:53 29.09.2021
6101 Clear 19 1017 72 10000 1.34 323 09:34 29.09.2021
6102 Clouds 18 1017 76 10000 2.68 16 07:33 29.09.2021
6103 Clouds 19 1016 81 10000 1.34 62 04:19 29.09.2021
6104 Clouds 19 1018 87 10000 2.06 50 23:27 28.09.2021
6105 Clear 20 1018 79 10000 0.51 0 22:23 28.09.2021
6106 Clear 20 1019 85 10000 0.51 0 21:44 28.09.2021
6107 Clouds 21 1018 74 10000 0.51 0 20:38 28.09.2021
6108 Clouds 22 1017 70 10000 0.89 181 19:46 28.09.2021
6109 Clouds 24 1017 64 10000 1.79 148 18:46 28.09.2021
6110 Clear 24 1017 60 10000 3.13 163 17:59 28.09.2021
6111 Clear 25 1018 58 10000 1.79 128 15:56 28.09.2021
6112 Clouds 24 1018 62 8000 0.89 309 13:49 28.09.2021
6113 Clouds 23 1019 68 8000 0.89 255 12:48 28.09.2021
6114 Clear 23 1019 69 10000 2.24 261 12:19 28.09.2021
6115 Clouds 22 1019 71 8000 2.24 288 11:45 28.09.2021
6116 Clouds 21 1019 76 7000 0.89 164 10:57 28.09.2021
6117 Clouds 18 1020 90 7000 1.03 0 09:53 28.09.2021
6118 Clouds 16 1020 95 6000 0.51 0 08:58 28.09.2021
6119 Fog 16 1020 95 4000 1.03 220 08:37 28.09.2021
6120 Fog 15 1020 95 350 0.51 0 07:31 28.09.2021
6121 Fog 16 1019 96 600 0.51 10 05:28 28.09.2021
6122 Fog 17 1019 93 1000 0.51 360 01:23 28.09.2021
6123 Fog 17 1019 91 1600 0.51 0 00:25 28.09.2021
6124 Fog 18 1018 87 9000 0.51 0 23:32 27.09.2021
6125 Clear 18 1018 91 10000 0.51 200 22:55 27.09.2021
6126 Clear 18 1017 87 10000 0.89 176 21:44 27.09.2021
6127 Clouds 19 1017 83 10000 0.45 203 20:44 27.09.2021
6128 Clouds 20 1017 78 10000 1.34 185 19:53 27.09.2021
6129 Clouds 21 1016 75 10000 1.54 210 19:27 27.09.2021
6130 Clouds 22 1016 72 10000 0.45 245 18:48 27.09.2021
6131 Clouds 22 1016 70 10000 0.45 232 17:29 27.09.2021
6132 Clouds 23 1016 67 10000 0.45 241 16:48 27.09.2021
6133 Clouds 23 1016 66 10000 0.45 245 15:43 27.09.2021
6134 Clouds 23 1016 67 10000 2.68 218 14:56 27.09.2021
6135 Clouds 22 1016 71 10000 0.45 239 13:31 27.09.2021
6136 Mist 19 1016 90 4000 2.68 282 11:23 27.09.2021
6137 Fog 17 1018 96 1500 2.06 250 09:54 27.09.2021
6138 Fog 17 1018 97 1200 1.03 0 08:48 27.09.2021
6139 Mist 16 1017 97 2500 0.51 0 05:21 27.09.2021
6140 Fog 16 1018 97 800 0 0 02:59 27.09.2021
6141 Clear 17 1018 96 10000 2.57 10 22:32 26.09.2021
6142 Clear 17 1018 96 10000 2.57 360 21:50 26.09.2021
6143 Clouds 18 1019 95 8000 1.54 90 20:58 26.09.2021
6144 Clouds 18 1018 95 7000 3.09 30 20:21 26.09.2021
6145 Clouds 18 1019 95 6000 2.06 10 19:42 26.09.2021
6146 Clouds 18 1018 95 6000 3.09 310 18:45 26.09.2021
6147 Thunderstorm 18 1017 96 5000 0.89 277 17:54 26.09.2021
6148 Thunderstorm 18 1017 95 3000 2.68 61 17:22 26.09.2021
6149 Thunderstorm 19 1019 95 4000 3.13 46 16:37 26.09.2021
6150 Thunderstorm 19 1019 94 5000 0.89 123 15:58 26.09.2021
6151 Thunderstorm 19 1019 92 8000 1.34 32 14:46 26.09.2021
6152 Rain 20 1020 87 8000 0.45 27 13:54 26.09.2021
6153 Clouds 20 1021 88 7000 1.34 44 12:56 26.09.2021
6154 Mist 19 1021 91 3500 0.89 40 11:59 26.09.2021
6155 Mist 19 1021 92 3500 0.89 28 11:37 26.09.2021
6156 Rain 19 1021 91 3000 0.45 26 10:23 26.09.2021
6157 Rain 19 1019 84 8000 3.13 145 08:55 26.09.2021
6158 Clouds 19 1019 84 10000 2.24 84 06:32 26.09.2021
6159 Clouds 20 1021 79 10000 1.34 307 00:21 26.09.2021
6160 Clouds 20 1021 78 10000 1.03 320 23:23 25.09.2021
6161 Clouds 21 1021 78 10000 1.79 330 22:37 25.09.2021
6162 Clouds 21 1021 76 10000 0.45 4 21:55 25.09.2021
6163 Clouds 21 1020 74 10000 1.34 315 21:30 25.09.2021
6164 Clouds 21 1020 73 10000 1.79 313 20:45 25.09.2021
6165 Clouds 22 1019 66 8000 1.79 272 18:47 25.09.2021
6166 Clouds 23 1018 62 10000 1.79 299 17:47 25.09.2021
6167 Clouds 23 1019 59 8000 1.03 0 15:41 25.09.2021
6168 Clouds 23 1021 64 8000 1.34 47 13:57 25.09.2021
6169 Clouds 22 1021 65 8000 1.79 75 13:27 25.09.2021
6170 Clouds 21 1021 71 7000 0.45 101 11:54 25.09.2021
6171 Clouds 19 1021 75 7000 2.68 81 10:33 25.09.2021
6172 Clouds 19 1020 78 6000 2.24 98 09:26 25.09.2021
6173 Mist 17 1020 81 4000 1.79 100 07:55 25.09.2021
6174 Clouds 17 1019 81 8000 1.79 76 05:19 25.09.2021
6175 Clear 18 1019 72 10000 1.54 10 23:45 24.09.2021
6176 Clear 19 1018 64 10000 0.89 202 21:41 24.09.2021
6177 Clear 21 1017 60 10000 1.03 210 20:33 24.09.2021
6178 Clear 22 1016 57 10000 0.89 17 19:45 24.09.2021
6179 Clear 25 1016 48 10000 0.45 350 18:32 24.09.2021
6180 Clear 25 1016 46 10000 1.79 240 17:53 24.09.2021
6181 Clear 25 1016 47 10000 0.45 229 17:35 24.09.2021
6182 Clear 25 1016 46 10000 1.34 239 16:45 24.09.2021
6183 Clear 24 1016 49 10000 0.45 2 13:57 24.09.2021
6184 Clear 23 1017 53 10000 0.89 161 12:45 24.09.2021
6185 Clear 22 1017 55 10000 0.45 148 12:27 24.09.2021
6186 Clear 22 1017 58 10000 0.45 331 11:50 24.09.2021
6187 Clear 19 1018 67 10000 0.45 165 10:24 24.09.2021
6188 Clear 15 1017 82 7000 0.45 193 08:24 24.09.2021
6189 Clear 14 1018 89 8000 1.03 0 07:32 24.09.2021
6190 Clear 14 1018 89 10000 1.03 0 06:32 24.09.2021
6191 Mist 14 1018 89 4700 0.51 10 04:53 24.09.2021
6192 Clear 17 1019 69 10000 0.89 22 22:45 23.09.2021
6193 Clear 17 1020 78 10000 0 0 22:19 23.09.2021
6194 Clear 18 1019 62 10000 0.45 201 21:38 23.09.2021
6195 Clear 19 1018 61 10000 0.89 201 20:32 23.09.2021
6196 Clear 21 1018 52 10000 1.34 173 19:18 23.09.2021
6197 Clear 21 1018 52 10000 1.34 178 19:18 23.09.2021
6198 Clouds 23 1019 43 10000 1.79 132 17:18 23.09.2021
6199 Clouds 23 1020 44 10000 0.89 118 15:20 23.09.2021
6200 Clouds 23 1020 45 10000 0.89 308 14:58 23.09.2021
6201 Clear 22 1021 45 10000 1.79 89 13:40 23.09.2021
6202 Clouds 21 1022 45 10000 0.89 69 13:18 23.09.2021
6203 Clouds 21 1022 47 10000 2.24 114 12:46 23.09.2021
6204 Clouds 20 1022 47 10000 0.45 244 12:21 23.09.2021
6205 Clear 19 1022 58 10000 0.45 117 10:42 23.09.2021
6206 Clouds 19 1022 61 10000 1.34 104 10:19 23.09.2021
6207 Clouds 18 1022 63 10000 1.79 111 09:48 23.09.2021
6208 Clouds 16 1022 74 10000 1.79 94 06:32 23.09.2021
6209 Clear 17 1021 67 10000 1.79 79 00:28 23.09.2021
6210 Clear 18 1021 64 10000 2.24 108 22:54 22.09.2021
6211 Clear 18 1020 64 10000 2.24 106 22:22 22.09.2021
6212 Clear 18 1020 63 10000 1.79 88 21:45 22.09.2021
6213 Clear 19 1020 61 10000 1.34 85 20:58 22.09.2021
6214 Clear 19 1019 59 10000 1.79 94 20:27 22.09.2021
6215 Clear 21 1019 54 10000 2.24 95 19:27 22.09.2021
6216 Clear 22 1019 50 10000 1.79 85 18:35 22.09.2021
6217 Clouds 23 1018 46 10000 0.45 72 17:38 22.09.2021
6218 Clouds 23 1019 46 10000 0.45 207 15:53 22.09.2021
6219 Clouds 22 1020 51 10000 0.45 139 14:37 22.09.2021
6220 Clouds 22 1021 56 10000 0.89 145 13:24 22.09.2021
6221 Clear 20 1022 63 10000 2.24 129 11:20 22.09.2021
6222 Clear 17 1022 75 10000 1.79 106 09:35 22.09.2021
6223 Clear 16 1022 80 10000 1.79 123 08:51 22.09.2021
6224 Clouds 15 1022 79 10000 1.79 75 07:41 22.09.2021
6225 Clouds 15 1022 78 10000 1.34 51 06:54 22.09.2021
6226 Clouds 15 1022 77 10000 1.79 79 05:49 22.09.2021
6227 Clouds 16 1022 77 10000 1.79 84 04:54 22.09.2021
6228 Clear 15 1024 88 10000 0.51 0 03:33 22.09.2021
6229 Clear 16 1024 83 10000 2.06 50 00:18 22.09.2021
6230 Clear 17 1024 80 10000 0.51 200 22:27 21.09.2021
6231 Clear 18 1022 65 10000 0.89 127 20:58 21.09.2021
6232 Clouds 21 1021 58 10000 0.89 150 19:37 21.09.2021
6233 Clear 21 1021 56 10000 2.24 164 19:18 21.09.2021
6234 Clouds 23 1021 44 10000 2.24 216 16:48 21.09.2021
6235 Clouds 23 1022 46 10000 0.45 244 15:57 21.09.2021
6236 Clear 23 1022 46 10000 2.68 184 15:24 21.09.2021
6237 Clear 22 1022 47 10000 3.13 230 14:43 21.09.2021
6238 Clear 22 1022 50 10000 0.45 129 13:40 21.09.2021
6239 Clouds 21 1022 53 10000 1.34 99 12:45 21.09.2021
6240 Clouds 17 1023 77 10000 2.57 80 10:44 21.09.2021
6241 Clouds 17 1023 82 10000 1.54 90 09:28 21.09.2021
6242 Clouds 16 1022 88 10000 2.57 50 07:40 21.09.2021
6243 Clouds 15 1020 100 10000 0.51 0 05:18 21.09.2021
6244 Rain 16 1018 88 10000 5.66 80 23:19 20.09.2021
6245 Rain 19 1017 60 10000 4.12 50 21:51 20.09.2021
6246 Rain 19 1016 68 10000 1.03 330 21:30 20.09.2021
6247 Clouds 21 1013 56 10000 1.34 358 19:49 20.09.2021
6248 Clouds 22 1012 49 10000 1.34 29 18:37 20.09.2021
6249 Clouds 22 1012 47 10000 2.24 64 17:30 20.09.2021
6250 Clouds 22 1012 45 10000 1.79 65 16:26 20.09.2021
6251 Clouds 22 1012 44 10000 1.79 128 15:43 20.09.2021
6252 Clear 22 1012 44 10000 2.24 111 14:42 20.09.2021
6253 Clear 21 1012 47 10000 0.45 138 12:46 20.09.2021
6254 Clear 21 1012 49 10000 1.79 57 12:26 20.09.2021
6255 Clear 19 1012 55 10000 0.89 171 10:57 20.09.2021
6256 Clear 17 1012 66 10000 0.89 117 09:52 20.09.2021
6257 Clear 17 1011 69 10000 1.34 91 09:33 20.09.2021
6258 Clear 16 1011 72 10000 1.79 89 09:33 20.09.2021
6259 Clear 15 1011 81 10000 1.54 190 08:54 20.09.2021
6260 Clouds 12 1011 90 10000 1.03 0 06:33 20.09.2021
6261 Clouds 15 1009 72 10000 3.13 317 23:28 19.09.2021
6262 Clouds 15 1010 77 10000 2.06 360 21:51 19.09.2021
6263 Clear 15 1010 82 10000 1.03 0 21:21 19.09.2021
6264 Clouds 16 1009 77 10000 1.03 0 20:19 19.09.2021
6265 Clouds 18 1008 65 10000 3.09 20 18:54 19.09.2021
6266 Clouds 19 1008 65 10000 0.45 342 17:56 19.09.2021
6267 Clouds 18 1007 67 10000 0.89 341 16:52 19.09.2021
6268 Clouds 19 1006 75 10000 1.79 42 15:44 19.09.2021
6269 Clouds 21 1007 72 8000 0.89 83 14:49 19.09.2021
6270 Thunderstorm 20 1007 75 10000 2.24 204 13:58 19.09.2021
6271 Rain 21 1006 74 10000 0.89 150 12:56 19.09.2021
6272 Clouds 21 1007 75 10000 0.45 166 12:18 19.09.2021
6273 Rain 20 1008 86 10000 0.45 150 11:23 19.09.2021
6274 Rain 19 1009 89 10000 5.14 110 09:52 19.09.2021
6275 Rain 19 1009 89 10000 5.66 110 09:26 19.09.2021
6276 Rain 19 1009 93 10000 3.6 100 06:49 19.09.2021
6277 Clouds 20 1011 93 10000 1.03 0 01:38 19.09.2021
6278 Thunderstorm 20 1010 84 10000 1.34 348 23:25 18.09.2021
6279 Rain 21 1009 66 10000 4.02 179 21:56 18.09.2021
6280 Clouds 22 1011 73 10000 2.06 70 20:47 18.09.2021
6281 Clouds 23 1011 72 10000 2.06 140 19:58 18.09.2021
6282 Clear 24 1008 59 10000 1.34 102 19:36 18.09.2021
6283 Clear 24 1008 55 10000 0.89 127 19:18 18.09.2021
6284 Clouds 25 1009 59 10000 2.68 166 18:30 18.09.2021
6285 Clouds 25 1009 54 10000 1.79 50 16:35 18.09.2021
6286 Clouds 23 1010 62 7000 0.89 93 13:59 18.09.2021
6287 Clouds 23 1011 65 7000 2.24 123 13:31 18.09.2021
6288 Clouds 22 1011 67 7000 1.34 119 12:52 18.09.2021
6289 Clouds 21 1011 73 7000 1.34 103 11:59 18.09.2021
6290 Clouds 21 1012 77 7000 2.68 114 11:29 18.09.2021
6291 Clouds 20 1012 81 6000 0.45 59 10:30 18.09.2021
6292 Clouds 20 1012 89 6000 3.09 90 09:23 18.09.2021
6293 Clouds 19 1012 90 7000 2.57 70 08:24 18.09.2021
6294 Clouds 20 1012 87 10000 1.99 78 00:52 18.09.2021
6295 Clouds 20 1012 87 10000 2.16 89 23:55 17.09.2021
6296 Clouds 20 1011 85 10000 2.63 85 22:45 17.09.2021
6297 Clear 22 1009 67 10000 2.24 74 22:22 17.09.2021
6298 Clear 22 1009 67 10000 2.24 111 21:32 17.09.2021
6299 Clear 22 1009 67 10000 2.24 111 21:32 17.09.2021
6300 Clear 25 1007 56 10000 1.34 123 19:31 17.09.2021
6301 Clear 26 1007 52 10000 0.45 187 18:30 17.09.2021
6302 Clear 27 1007 51 10000 0.45 149 16:34 17.09.2021
6303 Clouds 26 1009 57 10000 1.79 128 14:48 17.09.2021
6304 Clouds 22 1010 73 8000 1.34 238 11:48 17.09.2021
6305 Mist 20 1009 90 5000 1.34 300 09:57 17.09.2021
6306 Mist 17 1011 97 3000 1.03 360 07:42 17.09.2021
6307 Clouds 18 1011 97 6000 1.03 180 05:27 17.09.2021
6308 Clouds 19 1013 96 10000 1.03 0 00:31 17.09.2021
6309 Clouds 19 1013 94 8000 1.54 70 22:41 16.09.2021
6310 Clouds 19 1013 94 7000 2.06 180 22:23 16.09.2021
6311 Thunderstorm 19 1012 91 3500 1.34 64 21:31 16.09.2021
6312 Thunderstorm 20 1012 92 3000 0.45 80 20:29 16.09.2021
6313 Clouds 23 1012 76 10000 4.63 130 18:38 16.09.2021
6314 Clouds 23 1012 87 7781 2.55 88 17:59 16.09.2021
6315 Clouds 25 1011 50 10000 3.13 251 15:31 16.09.2021
6316 Clouds 25 1012 56 10000 1.34 191 14:43 16.09.2021
6317 Clouds 24 1015 65 10000 2.06 130 13:23 16.09.2021
6318 Clouds 23 1015 73 10000 2.57 90 12:40 16.09.2021
6319 Clouds 22 1015 78 10000 2.06 50 11:46 16.09.2021
6320 Clouds 21 1015 91 10000 1.54 50 10:40 16.09.2021
6321 Clouds 21 1015 92 10000 1.03 0 10:18 16.09.2021
6322 Clouds 20 1014 94 10000 1.03 350 08:45 16.09.2021
6323 Rain 20 1014 92 10000 1.54 20 07:46 16.09.2021
6324 Rain 20 1014 91 10000 1.54 100 06:55 16.09.2021
6325 Clouds 20 1014 92 10000 0.8 282 06:31 16.09.2021
6326 Rain 21 1015 77 10000 1.54 90 02:57 16.09.2021
6327 Clouds 21 1014 76 10000 1.54 350 00:45 16.09.2021
6328 Clouds 22 1014 75 10000 1.34 15 22:52 15.09.2021
6329 Clouds 22 1014 74 10000 1.54 10 21:56 15.09.2021
6330 Clouds 22 1014 74 10000 1.79 29 21:56 15.09.2021
6331 Clouds 22 1014 72 10000 2.06 350 21:30 15.09.2021
6332 Clouds 22 1014 72 10000 2.06 350 21:30 15.09.2021
6333 Clouds 22 1014 72 10000 2.06 350 21:30 15.09.2021
6334 Clouds 22 1013 69 10000 2.68 33 20:23 15.09.2021
6335 Clouds 23 1014 66 10000 0.51 0 19:29 15.09.2021
6336 Clouds 24 1014 59 10000 0.51 0 18:25 15.09.2021
6337 Clear 25 1014 50 10000 1.34 193 17:26 15.09.2021
6338 Clouds 26 1014 48 10000 0.45 194 16:20 15.09.2021
6339 Clouds 26 1015 50 10000 0.45 200 14:45 15.09.2021
6340 Clouds 25 1015 51 10000 0.45 360 14:24 15.09.2021
6341 Clouds 25 1016 55 10000 1.54 0 13:39 15.09.2021
6342 Clouds 25 1016 55 10000 1.34 216 13:21 15.09.2021
6343 Clouds 25 1016 58 10000 0.45 150 12:21 15.09.2021
6344 Clouds 24 1016 57 10000 0.89 214 11:41 15.09.2021
6345 Clouds 23 1016 65 10000 0.45 231 10:55 15.09.2021
6346 Rain 22 1016 73 10000 0.51 0 09:30 15.09.2021
6347 Clouds 20 1016 78 10000 0.51 0 08:20 15.09.2021
6348 Clear 20 1016 76 10000 1.79 236 05:37 15.09.2021
6349 Clear 22 1016 68 10000 2.68 244 23:54 14.09.2021
6350 Clear 23 1016 64 10000 1.34 208 21:42 14.09.2021
6351 Clear 24 1015 59 10000 1.03 0 20:39 14.09.2021
6352 Clear 25 1015 57 10000 1.79 298 19:42 14.09.2021
6353 Clouds 26 1016 61 10000 1.54 270 17:40 14.09.2021
6354 Clouds 26 1016 58 10000 1.54 270 17:40 14.09.2021
6355 Clouds 27 1017 58 10000 2.06 250 16:59 14.09.2021
6356 Clouds 27 1017 57 10000 2.06 250 15:33 14.09.2021
6357 Clouds 27 1017 57 10000 2.06 230 14:31 14.09.2021
6358 Clouds 26 1018 61 10000 2.57 250 12:45 14.09.2021
6359 Clear 25 1015 55 10000 1.79 208 10:54 14.09.2021
6360 Clear 25 1015 54 10000 1.79 218 10:54 14.09.2021
6361 Clear 23 1016 60 10000 0.89 358 09:50 14.09.2021
6362 Clear 20 1016 68 10000 0.45 335 08:41 14.09.2021
6363 Clouds 19 1015 69 10000 0.89 23 06:24 14.09.2021
6364 Clear 22 1015 51 10000 3.13 294 00:31 14.09.2021
6365 Clear 23 1015 49 10000 2.68 250 22:48 13.09.2021
6366 Clear 23 1015 47 10000 3.58 250 22:23 13.09.2021
6367 Clear 24 1015 48 10000 3.58 238 21:45 13.09.2021
6368 Clear 25 1014 43 10000 1.34 222 20:50 13.09.2021
6369 Clear 29 1013 32 10000 3.13 245 18:46 13.09.2021
6370 Clear 30 1013 31 10000 1.79 225 17:49 13.09.2021
6371 Clear 30 1013 31 10000 0.45 24 16:50 13.09.2021
6372 Clear 30 1015 35 10000 2.06 270 15:30 13.09.2021
6373 Clear 27 1015 37 10000 1.79 194 11:55 13.09.2021
6374 Clear 25 1016 45 10000 1.34 37 10:58 13.09.2021
6375 Clear 22 1016 56 10000 0.51 0 09:35 13.09.2021
6376 Clear 18 1015 65 10000 0.51 0 04:38 13.09.2021
6377 Clear 21 1015 65 10000 1.03 280 22:59 12.09.2021
6378 Clear 22 1014 52 10000 1.34 314 22:25 12.09.2021
6379 Clear 23 1013 48 10000 1.79 292 21:34 12.09.2021
6380 Clear 25 1013 38 10000 1.34 219 20:28 12.09.2021
6381 Clear 25 1013 38 10000 0.89 208 20:28 12.09.2021
6382 Clear 26 1012 35 10000 1.34 136 19:49 12.09.2021
6383 Clear 28 1012 33 10000 1.34 168 19:19 12.09.2021
6384 Clear 28 1012 33 10000 1.34 168 19:19 12.09.2021
6385 Clear 29 1012 29 10000 1.34 144 18:19 12.09.2021
6386 Clear 29 1014 37 10000 0.89 159 16:30 12.09.2021
6387 Clear 29 1014 37 10000 0.89 159 16:30 12.09.2021
6388 Clear 29 1016 40 10000 1.54 0 14:50 12.09.2021
6389 Clear 27 1016 47 10000 0.45 175 12:47 12.09.2021
6390 Clear 24 1016 52 10000 0.89 142 10:35 12.09.2021
6391 Clear 20 1015 68 10000 0.89 314 08:40 12.09.2021
6392 Clear 18 1014 71 10000 0.51 0 07:39 12.09.2021
6393 Clear 21 1015 55 10000 2.24 58 00:56 12.09.2021
6394 Clear 22 1014 53 10000 0.89 45 23:18 11.09.2021
6395 Clear 23 1014 48 10000 0.51 0 21:40 11.09.2021
6396 Clear 25 1013 43 10000 1.34 164 20:18 11.09.2021
6397 Clear 28 1013 34 10000 1.34 231 18:32 11.09.2021
6398 Clear 29 1013 33 10000 0.45 188 17:29 11.09.2021
6399 Clear 28 1015 41 10000 0.89 165 15:38 11.09.2021
6400 Clear 27 1016 48 10000 0.45 176 13:25 11.09.2021
6401 Clear 25 1016 51 10000 0.45 140 11:45 11.09.2021
6402 Clouds 24 1018 60 10000 2.06 160 10:40 11.09.2021
6403 Clouds 21 1016 70 10000 1.79 177 09:28 11.09.2021
6404 Rain 19 1016 73 7000 1.79 254 07:44 11.09.2021
6405 Clouds 20 1016 63 10000 1.03 0 04:23 11.09.2021
6406 Clouds 21 1015 54 10000 1.34 359 22:47 10.09.2021
6407 Clouds 22 1015 52 10000 0.89 29 22:18 10.09.2021
6408 Clouds 22 1015 50 10000 1.03 340 21:40 10.09.2021
6409 Clouds 25 1014 43 10000 1.79 359 19:32 10.09.2021
6410 Clouds 26 1014 38 10000 2.24 239 17:59 10.09.2021
6411 Clouds 27 1016 41 10000 0.89 9 16:28 10.09.2021
6412 Clear 26 1017 42 10000 1.54 160 13:32 10.09.2021
6413 Clouds 23 1016 45 10000 1.79 104 10:54 10.09.2021
6414 Clouds 19 1016 63 10000 1.34 193 08:26 10.09.2021
6415 Clouds 19 1015 60 10000 0.89 203 07:43 10.09.2021
6416 Clouds 20 1015 55 10000 1.79 16 00:40 10.09.2021
6417 Clouds 22 1015 47 10000 1.34 314 21:54 09.09.2021
6418 Clear 23 1014 41 10000 1.34 293 20:48 09.09.2021
6419 Clouds 24 1014 39 10000 1.79 274 20:27 09.09.2021
6420 Clear 26 1014 34 10000 0.89 240 18:46 09.09.2021
6421 Clear 27 1014 30 10000 3.58 278 17:51 09.09.2021
6422 Clear 27 1014 29 10000 0.45 343 16:39 09.09.2021
6423 Clear 27 1014 27 10000 0.89 324 15:25 09.09.2021
6424 Clear 25 1016 34 10000 3.58 115 12:33 09.09.2021
6425 Clouds 23 1016 38 10000 3.58 73 11:22 09.09.2021
6426 Clouds 21 1017 56 10000 2.68 98 09:35 09.09.2021
6427 Clear 19 1016 59 10000 3.58 96 07:45 09.09.2021
6428 Clear 19 1016 55 10000 1.79 74 05:47 09.09.2021
6429 Clouds 21 1016 46 10000 1.79 71 23:55 08.09.2021
6430 Clear 23 1016 41 10000 0.89 88 21:48 08.09.2021
6431 Clouds 23 1016 44 10000 1.34 85 20:48 08.09.2021
6432 Clouds 25 1016 36 10000 1.79 107 19:46 08.09.2021
6433 Clouds 26 1016 32 10000 1.34 103 18:47 08.09.2021
6434 Clouds 27 1016 31 10000 0.89 122 17:59 08.09.2021
6435 Clouds 27 1016 30 10000 0.45 173 17:39 08.09.2021
6436 Clear 27 1018 31 10000 1.34 178 14:57 08.09.2021
6437 Clear 26 1019 35 10000 0.89 200 13:28 08.09.2021
6438 Clear 26 1019 36 10000 0.45 171 12:41 08.09.2021
6439 Clear 25 1019 37 10000 0.89 41 12:22 08.09.2021
6440 Clouds 25 1019 39 10000 4.02 109 11:23 08.09.2021
6441 Clouds 23 1019 42 10000 0.45 173 10:29 08.09.2021
6442 Clear 22 1019 45 10000 4.47 107 09:36 08.09.2021
6443 Clouds 19 1019 50 10000 2.68 94 07:43 08.09.2021
6444 Clouds 19 1018 54 10000 2.68 90 05:46 08.09.2021
6445 Clouds 22 1019 46 10000 2.68 92 23:18 07.09.2021
6446 Clouds 23 1019 45 10000 2.24 97 22:19 07.09.2021
6447 Clear 24 1018 42 10000 1.79 100 20:37 07.09.2021
6448 Clear 28 1018 33 10000 1.79 136 18:49 07.09.2021
6449 Clear 28 1018 32 10000 2.24 190 18:24 07.09.2021
6450 Clear 28 1018 31 10000 0.45 236 16:59 07.09.2021
6451 Clouds 28 1020 38 10000 0.45 186 15:55 07.09.2021
6452 Clouds 27 1020 32 10000 0.45 240 14:46 07.09.2021
6453 Clear 27 1020 32 10000 0.89 210 13:29 07.09.2021
6454 Clear 26 1022 40 10000 0.89 127 11:51 07.09.2021
6455 Clouds 24 1022 50 10000 1.79 138 10:43 07.09.2021
6456 Clouds 20 1021 65 10000 1.79 155 08:40 07.09.2021
6457 Clear 18 1021 70 10000 1.34 173 07:44 07.09.2021
6458 Clear 18 1021 64 10000 1.34 21 05:47 07.09.2021
6459 Clear 19 1023 73 10000 1.54 20 02:38 07.09.2021
6460 Clear 20 1023 62 10000 1.03 0 00:54 07.09.2021
6461 Clear 20 1022 63 10000 1.54 350 23:43 06.09.2021
6462 Clear 21 1022 62 10000 0 0 23:20 06.09.2021
6463 Clear 21 1022 56 10000 1.03 0 22:45 06.09.2021
6464 Clear 23 1020 39 10000 0.89 72 21:31 06.09.2021
6465 Clear 27 1019 35 10000 2.68 138 19:32 06.09.2021
6466 Clear 27 1019 33 10000 0.45 169 18:58 06.09.2021
6467 Clear 28 1019 31 10000 0.89 158 18:27 06.09.2021
6468 Clear 28 1021 36 10000 2.06 120 17:36 06.09.2021
6469 Clear 28 1021 37 10000 0.45 168 15:58 06.09.2021
6470 Clear 28 1022 37 10000 0.45 225 14:26 06.09.2021
6471 Clear 26 1021 36 10000 0.45 67 12:48 06.09.2021
6472 Clear 25 1022 43 10000 1.79 126 10:59 06.09.2021
6473 Clouds 22 1021 67 10000 1.03 0 09:59 06.09.2021
6474 Clouds 19 1020 73 10000 1.34 13 07:21 06.09.2021
6475 Clear 22 1019 55 10000 2.68 96 00:22 06.09.2021
6476 Clear 22 1018 49 10000 1.79 87 23:19 05.09.2021
6477 Clear 23 1018 47 10000 1.79 87 22:30 05.09.2021
6478 Clear 23 1018 47 10000 1.79 87 22:30 05.09.2021
6479 Clear 24 1018 46 10000 1.79 87 21:49 05.09.2021
6480 Clear 25 1016 46 10000 1.79 94 20:50 05.09.2021
6481 Clear 25 1017 46 10000 2.68 99 20:50 05.09.2021
6482 Clear 27 1016 39 10000 2.24 113 18:59 05.09.2021
6483 Clouds 28 1016 37 10000 0.89 212 17:34 05.09.2021
6484 Clouds 28 1016 37 10000 0.45 325 15:31 05.09.2021
6485 Clear 28 1017 36 10000 0.89 90 14:23 05.09.2021
6486 Clear 27 1019 45 10000 2.06 190 12:30 05.09.2021
6487 Clear 24 1017 48 10000 1.79 176 10:59 05.09.2021
6488 Clear 24 1017 51 10000 1.34 132 10:33 05.09.2021
6489 Clear 21 1017 59 10000 2.24 121 09:22 05.09.2021
6490 Clouds 19 1016 69 10000 1.34 59 08:21 05.09.2021
6491 Clear 19 1016 75 10000 1.54 90 02:36 05.09.2021
6492 Clear 20 1015 62 10000 2.24 62 00:30 05.09.2021
6493 Clear 21 1015 59 10000 1.79 60 23:42 04.09.2021
6494 Clear 22 1015 49 10000 0.89 42 22:36 04.09.2021
6495 Clear 22 1014 48 10000 1.34 56 21:58 04.09.2021
6496 Clear 25 1013 43 10000 0.89 179 19:53 04.09.2021
6497 Clear 26 1012 41 10000 1.34 179 19:27 04.09.2021
6498 Clouds 27 1014 44 10000 0.45 188 16:26 04.09.2021
6499 Clear 26 1015 47 10000 0.89 134 13:30 04.09.2021
6500 Clear 24 1015 51 10000 0.89 112 11:20 04.09.2021
6501 Clear 21 1015 62 10000 1.54 200 09:25 04.09.2021
6502 Clouds 18 1016 80 10000 0.51 360 05:53 04.09.2021
6503 Clouds 20 1016 68 10000 0.51 0 00:27 04.09.2021
6504 Clouds 20 1016 67 10000 0.51 90 23:32 03.09.2021
6505 Clear 21 1015 51 10000 0.89 31 22:35 03.09.2021
6506 Clear 22 1014 47 10000 0.89 147 21:35 03.09.2021
6507 Clear 22 1015 51 10000 0.51 0 21:35 03.09.2021
6508 Clear 23 1015 45 10000 1.34 220 20:43 03.09.2021
6509 Clear 25 1014 40 10000 2.68 228 19:55 03.09.2021
6510 Clear 26 1014 38 10000 3.58 224 19:18 03.09.2021
6511 Clear 27 1015 34 10000 1.34 200 17:47 03.09.2021
6512 Clear 27 1017 39 10000 1.54 0 16:34 03.09.2021
6513 Clear 27 1018 39 10000 0.45 140 14:58 03.09.2021
6514 Clear 24 1019 38 10000 0.89 171 11:59 03.09.2021
6515 Clouds 22 1020 44 10000 0.45 168 10:27 03.09.2021
6516 Clear 20 1020 51 10000 2.68 75 08:46 03.09.2021
6517 Clouds 19 1019 56 10000 1.79 57 07:43 03.09.2021
6518 Clouds 20 1021 57 10000 2.68 74 01:39 03.09.2021
6519 Clear 22 1020 53 10000 3.58 102 22:55 02.09.2021
6520 Clear 23 1019 48 10000 2.24 93 21:25 02.09.2021
6521 Clear 26 1019 38 10000 0.89 188 19:27 02.09.2021
6522 Clear 28 1019 34 10000 1.79 152 17:31 02.09.2021
6523 Clear 28 1019 34 10000 1.79 152 17:31 02.09.2021
6524 Clear 28 1020 35 10000 0.89 191 15:49 02.09.2021
6525 Clear 27 1022 45 10000 2.57 120 13:57 02.09.2021
6526 Clear 26 1022 45 10000 1.34 121 12:42 02.09.2021
6527 Clear 24 1022 50 10000 0.45 348 11:34 02.09.2021
6528 Clear 22 1022 60 10000 0.45 171 09:40 02.09.2021
6529 Clear 19 1022 68 10000 2.68 87 07:47 02.09.2021
6530 Clear 18 1023 81 10000 1.54 40 06:58 02.09.2021
6531 Clear 18 1022 77 10000 2.06 50 02:51 02.09.2021
6532 Clear 19 1020 64 10000 3.13 60 01:55 02.09.2021
6533 Clear 20 1020 59 10000 1.79 65 01:23 02.09.2021
6534 Clear 21 1020 57 10000 1.34 45 23:37 01.09.2021
6535 Clear 21 1019 54 10000 0.89 26 22:34 01.09.2021
6536 Clear 23 1018 43 10000 0.87 42 21:35 01.09.2021
6537 Clear 24 1018 44 10000 1.79 163 20:28 01.09.2021
6538 Clear 27 1018 36 10000 1.79 198 18:29 01.09.2021
6539 Clouds 28 1018 36 10000 0.45 240 17:37 01.09.2021
6540 Clouds 28 1018 35 10000 2.68 166 16:46 01.09.2021
6541 Clouds 27 1017 37 10000 1.34 126 15:25 01.09.2021
6542 Clear 25 1021 54 10000 0.45 165 11:50 01.09.2021
6543 Clear 23 1020 50 10000 0.89 192 10:55 01.09.2021
6544 Clear 19 1019 71 10000 1.79 14 08:46 01.09.2021
6545 Clear 17 1020 84 10000 0.51 0 07:50 01.09.2021
6546 Clear 19 1017 69 10000 1.79 62 00:50 01.09.2021
6547 Clear 20 1016 72 10000 1.79 42 22:30 31.08.2021
6548 Clouds 21 1014 64 10000 1.79 40 20:57 31.08.2021
6549 Thunderstorm 24 1015 58 10000 1.54 100 19:44 31.08.2021
6550 Clouds 27 1013 38 10000 2.24 203 18:23 31.08.2021
6551 Clouds 27 1013 38 10000 2.68 203 17:34 31.08.2021
6552 Clouds 27 1013 36 10000 1.34 123 16:49 31.08.2021
6553 Clouds 26 1015 52 10000 1.34 9 15:59 31.08.2021
6554 Clouds 24 1015 52 10000 1.34 135 12:55 31.08.2021
6555 Clouds 22 1016 59 10000 0.45 186 11:26 31.08.2021
6556 Clouds 21 1016 59 10000 0.45 186 10:49 31.08.2021
6557 Clouds 20 1015 67 10000 2.24 121 09:43 31.08.2021
6558 Clouds 18 1016 81 10000 0.51 0 08:36 31.08.2021
6559 Clouds 18 1015 83 10000 2.06 80 05:58 31.08.2021
6560 Clouds 19 1012 65 10000 3.6 100 00:23 31.08.2021
6561 Clear 20 1012 58 10000 2.68 224 23:25 30.08.2021
6562 Clear 22 1012 55 10000 0.89 252 21:42 30.08.2021
6563 Clear 23 1010 50 10000 3.13 225 20:42 30.08.2021
6564 Clouds 25 1010 47 10000 0.45 231 19:55 30.08.2021
6565 Clouds 25 1010 45 10000 1.34 256 19:28 30.08.2021
6566 Clear 27 1010 40 10000 0.89 11 18:18 30.08.2021
6567 Clear 27 1011 44 10000 0.45 177 16:32 30.08.2021
6568 Clear 27 1011 42 10000 0.45 217 15:50 30.08.2021
6569 Clear 26 1012 40 10000 0.45 181 14:24 30.08.2021
6570 Clouds 25 1011 40 10000 3.13 176 13:22 30.08.2021
6571 Clouds 23 1012 46 10000 0.45 179 11:48 30.08.2021
6572 Clouds 18 1011 66 10000 2.68 89 08:22 30.08.2021
6573 Clear 21 1010 52 10000 0.45 145 21:58 29.08.2021
6574 Clear 21 1010 44 10000 1.54 180 21:19 29.08.2021
6575 Clear 25 1009 36 10000 0.45 346 19:31 29.08.2021
6576 Clear 26 1009 34 10000 0.89 358 18:28 29.08.2021
6577 Clear 26 1010 32 10000 0.89 244 15:58 29.08.2021
6578 Clear 25 1010 36 10000 2.24 246 14:29 29.08.2021
6579 Clear 25 1010 36 10000 0.45 267 13:55 29.08.2021
6580 Clear 24 1011 37 10000 1.34 144 12:58 29.08.2021
6581 Clear 24 1011 39 10000 0.45 154 12:18 29.08.2021
6582 Clear 22 1012 42 10000 0.89 204 11:40 29.08.2021
6583 Clear 21 1012 44 10000 1.79 103 10:46 29.08.2021
6584 Clear 21 1012 47 10000 2.68 52 10:28 29.08.2021
6585 Clear 19 1012 50 10000 1.79 108 09:30 29.08.2021
6586 Clear 16 1013 77 10000 2.06 50 04:18 29.08.2021
6587 Clouds 18 1012 75 10000 1.54 40 22:57 28.08.2021
6588 Clouds 21 1008 46 10000 0.89 205 20:31 28.08.2021
6589 Clouds 24 1009 39 10000 1.34 195 19:20 28.08.2021
6590 Clouds 25 1009 38 10000 0.45 142 18:22 28.08.2021
6591 Clouds 25 1009 36 10000 0.89 243 17:45 28.08.2021
6592 Clouds 25 1010 38 10000 1.34 153 16:28 28.08.2021
6593 Clouds 24 1011 41 10000 1.79 166 14:51 28.08.2021
6594 Clouds 24 1012 50 10000 1.54 0 13:47 28.08.2021
6595 Clouds 23 1013 52 10000 2.06 0 12:47 28.08.2021
6596 Clouds 22 1012 49 10000 0.45 244 12:24 28.08.2021
6597 Clear 21 1012 52 10000 1.34 157 10:45 28.08.2021
6598 Clouds 20 1012 57 10000 1.34 119 09:34 28.08.2021
6599 Clouds 17 1011 67 10000 1.34 85 07:26 28.08.2021
6600 Clouds 19 1012 62 10000 3.09 70 22:57 27.08.2021
6601 Clear 20 1010 53 10000 3.13 91 21:26 27.08.2021
6602 Clear 21 1010 56 10000 0.45 152 20:35 27.08.2021
6603 Clear 22 1009 54 10000 0.89 156 19:30 27.08.2021
6604 Clear 22 1009 53 10000 0.89 148 18:38 27.08.2021
6605 Clear 23 1009 53 10000 1.34 87 17:38 27.08.2021
6606 Clouds 23 1009 54 10000 0.45 193 16:28 27.08.2021
6607 Clouds 22 1011 64 10000 5.66 120 14:44 27.08.2021
6608 Clouds 22 1011 71 10000 5.66 110 12:56 27.08.2021
6609 Clouds 21 1011 76 10000 4.63 100 11:42 27.08.2021
6610 Clouds 20 1010 78 10000 0.45 134 10:48 27.08.2021
6611 Clouds 20 1009 75 10000 0.45 129 09:52 27.08.2021
6612 Clouds 20 1008 77 10000 0.45 155 08:55 27.08.2021
6613 Clouds 19 1007 79 10000 0.89 135 07:39 27.08.2021
6614 Clear 18 1006 82 10000 1.03 0 05:33 27.08.2021
6615 Clouds 21 1004 61 10000 2.24 261 00:37 27.08.2021
6616 Clear 22 1004 56 10000 1.79 228 23:28 26.08.2021
6617 Clear 23 1004 51 10000 3.13 236 22:19 26.08.2021
6618 Clear 24 1004 50 10000 2.68 229 22:19 26.08.2021
6619 Clear 24 1004 47 10000 0.45 244 21:28 26.08.2021
6620 Clear 28 1004 39 10000 0.45 219 19:20 26.08.2021
6621 Clear 29 1005 35 10000 0.89 354 17:45 26.08.2021
6622 Clear 29 1006 40 10000 1.79 24 16:44 26.08.2021
6623 Clear 29 1007 44 10000 2.24 336 16:26 26.08.2021
6624 Clear 29 1006 36 10000 1.34 63 16:26 26.08.2021
6625 Clear 27 1009 44 10000 3.09 0 13:53 26.08.2021
6626 Clear 26 1008 42 10000 0.45 238 12:57 26.08.2021
6627 Clear 26 1008 44 10000 0.45 240 12:31 26.08.2021
6628 Clear 26 1010 49 10000 2.06 0 12:31 26.08.2021
6629 Clear 23 1009 51 10000 0.89 155 10:22 26.08.2021
6630 Clear 20 1010 66 10000 1.34 93 08:34 26.08.2021
6631 Clear 17 1012 79 10000 1.03 0 06:34 26.08.2021
6632 Clear 22 1012 58 10000 0.89 103 22:55 25.08.2021
6633 Clear 22 1012 57 10000 1.34 97 22:36 25.08.2021
6634 Clear 23 1012 53 10000 1.34 115 21:54 25.08.2021
6635 Clouds 24 1011 48 10000 0.45 193 20:49 25.08.2021
6636 Clouds 25 1011 45 10000 0.89 181 20:28 25.08.2021
6637 Clouds 27 1011 39 10000 1.34 202 18:45 25.08.2021
6638 Clouds 27 1012 38 10000 2.68 173 17:43 25.08.2021
6639 Clouds 27 1013 40 10000 2.68 200 15:45 25.08.2021
6640 Clouds 26 1013 41 10000 0.45 223 14:48 25.08.2021
6641 Clouds 26 1015 49 10000 0.89 157 14:30 25.08.2021
6642 Clouds 25 1015 52 10000 3.09 110 13:25 25.08.2021
6643 Clouds 23 1015 53 10000 0.89 45 11:27 25.08.2021
6644 Clouds 22 1015 54 10000 4.02 94 10:43 25.08.2021
6645 Clouds 21 1015 59 10000 0.89 84 09:58 25.08.2021
6646 Clouds 21 1015 63 10000 1.79 23 09:18 25.08.2021
6647 Clouds 20 1016 73 10000 2.57 30 08:30 25.08.2021
6648 Clouds 20 1014 61 10000 0.45 38 04:19 25.08.2021
6649 Clouds 22 1013 50 10000 1.79 56 23:54 24.08.2021
6650 Clouds 23 1012 46 10000 1.79 69 21:49 24.08.2021
6651 Clouds 25 1013 41 10000 1.79 135 20:48 24.08.2021
6652 Clouds 26 1013 37 10000 4.02 118 19:52 24.08.2021
6653 Clouds 28 1012 35 10000 1.34 190 17:58 24.08.2021
6654 Clouds 28 1012 36 10000 0.45 106 17:58 24.08.2021
6655 Clouds 28 1012 35 10000 1.34 190 17:58 24.08.2021
6656 Clouds 28 1012 34 10000 0.89 161 17:28 24.08.2021
6657 Clouds 28 1012 36 10000 0.89 190 16:56 24.08.2021
6658 Clouds 28 1015 43 10000 1.54 0 14:30 24.08.2021
6659 Clouds 27 1013 38 10000 2.68 94 13:25 24.08.2021
6660 Clouds 26 1016 49 10000 1.54 0 12:33 24.08.2021
6661 Clouds 24 1015 54 10000 1.79 223 10:48 24.08.2021
6662 Clouds 24 1014 55 10000 0.89 222 10:27 24.08.2021
6663 Clouds 21 1014 69 10000 2.24 346 08:50 24.08.2021
6664 Clouds 19 1015 78 10000 1.79 319 06:51 24.08.2021
6665 Clouds 19 1016 84 10000 1.54 20 04:54 24.08.2021
6666 Clouds 21 1015 72 10000 2.24 87 00:47 24.08.2021
6667 Clouds 21 1015 72 10000 2.24 84 22:54 23.08.2021
6668 Clouds 21 1014 71 10000 4.47 86 22:21 23.08.2021
6669 Clouds 23 1013 65 10000 0.45 163 20:39 23.08.2021
6670 Clear 26 1012 55 10000 1.79 170 19:19 23.08.2021
6671 Clear 29 1012 41 10000 1.79 135 16:39 23.08.2021
6672 Clouds 28 1012 45 10000 0.45 171 14:46 23.08.2021
6673 Clouds 28 1012 54 10000 3.58 97 12:57 23.08.2021
6674 Clouds 27